<?xml version="1.0" encoding="UTF-8"?>
<gpx version="1.1" creator="https://www.youtrack.es" xsi:schemaLocation="http://www.topografix.com/GPX/1/1 http://www.topografix.com/GPX/1/1/gpx.xsd http://www.garmin.com/xmlschemas/GpxExtensions/v3 http://www.garmin.com/xmlschemas/GpxExtensionsv3.xsd http://www.garmin.com/xmlschemas/TrackPointExtension/v1 http://www.garmin.com/xmlschemas/TrackPointExtensionv1.xsd" xmlns:gpxtpx="http://www.garmin.com/xmlschemas/TrackPointExtension/v1" xmlns:gpxx="http://www.garmin.com/xmlschemas/GpxExtensions/v3" xmlns:xsi="http://www.w3.org/2001/XMLSchema-instance">
  <metadata>
    <link href="https://www.youtrack.es">
      <text>YouTrack.es</text>
    </link>
    <time>2026-05-08T20:34:26Z</time>
  </metadata>
  <trk>
    <src>https://www.youtrack.es</src>
    <link href="https://www.youtrack.es/ruta/35006-piris">
      <text>YouTrack.es</text>
    </link>
    <trkseg>
      <trkpt lat="42.761682" lon="-0.234150">
        <ele>1654.169</ele>
        <time>2022-04-27T12:40:50Z</time>
      </trkpt>
      <trkpt lat="42.761530" lon="-0.234274">
        <ele>1654.104</ele>
        <time>2022-04-27T12:40:50Z</time>
      </trkpt>
      <trkpt lat="42.761445" lon="-0.234222">
        <ele>1654.124</ele>
        <time>2022-04-27T12:40:50Z</time>
      </trkpt>
      <trkpt lat="42.761327" lon="-0.234113">
        <ele>1654.109</ele>
        <time>2022-04-27T12:40:50Z</time>
      </trkpt>
      <trkpt lat="42.760986" lon="-0.233818">
        <ele>1654.147</ele>
        <time>2022-04-27T12:40:50Z</time>
      </trkpt>
      <trkpt lat="42.760916" lon="-0.233945">
        <ele>1654.796</ele>
        <time>2022-04-27T12:40:50Z</time>
      </trkpt>
      <trkpt lat="42.760598" lon="-0.233643">
        <ele>1662.087</ele>
        <time>2022-04-27T12:40:50Z</time>
      </trkpt>
      <trkpt lat="42.760322" lon="-0.233381">
        <ele>1668.457</ele>
        <time>2022-04-27T12:40:50Z</time>
      </trkpt>
      <trkpt lat="42.760406" lon="-0.233229">
        <ele>1671.093</ele>
        <time>2022-04-27T12:40:50Z</time>
      </trkpt>
      <trkpt lat="42.760165" lon="-0.232987">
        <ele>1676.794</ele>
        <time>2022-04-27T12:40:50Z</time>
      </trkpt>
      <trkpt lat="42.760117" lon="-0.233082">
        <ele>1678.311</ele>
        <time>2022-04-27T12:40:50Z</time>
      </trkpt>
      <trkpt lat="42.760079" lon="-0.233153">
        <ele>1679.563</ele>
        <time>2022-04-27T12:40:50Z</time>
      </trkpt>
      <trkpt lat="42.760058" lon="-0.233201">
        <ele>1680.355</ele>
        <time>2022-04-27T12:40:50Z</time>
      </trkpt>
      <trkpt lat="42.759712" lon="-0.232838">
        <ele>1688.424</ele>
        <time>2022-04-27T12:40:50Z</time>
      </trkpt>
      <trkpt lat="42.759722" lon="-0.232815">
        <ele>1688.704</ele>
        <time>2022-04-27T12:40:50Z</time>
      </trkpt>
      <trkpt lat="42.759759" lon="-0.232752">
        <ele>1689.614</ele>
        <time>2022-04-27T12:40:50Z</time>
      </trkpt>
      <trkpt lat="42.759873" lon="-0.232572">
        <ele>1692.109</ele>
        <time>2022-04-27T12:40:50Z</time>
      </trkpt>
      <trkpt lat="42.760146" lon="-0.232442">
        <ele>1696.323</ele>
        <time>2022-04-27T12:40:50Z</time>
      </trkpt>
      <trkpt lat="42.760520" lon="-0.232456">
        <ele>1701.712</ele>
        <time>2022-04-27T12:40:50Z</time>
      </trkpt>
      <trkpt lat="42.760595" lon="-0.232044">
        <ele>1706.253</ele>
        <time>2022-04-27T12:40:50Z</time>
      </trkpt>
      <trkpt lat="42.760792" lon="-0.231888">
        <ele>1709.593</ele>
        <time>2022-04-27T12:40:50Z</time>
      </trkpt>
      <trkpt lat="42.760511" lon="-0.231847">
        <ele>1713.679</ele>
        <time>2022-04-27T12:40:50Z</time>
      </trkpt>
      <trkpt lat="42.760160" lon="-0.231954">
        <ele>1717.890</ele>
        <time>2022-04-27T12:40:50Z</time>
      </trkpt>
      <trkpt lat="42.760765" lon="-0.231405">
        <ele>1726.297</ele>
        <time>2022-04-27T12:40:50Z</time>
      </trkpt>
      <trkpt lat="42.761121" lon="-0.231470">
        <ele>1730.389</ele>
        <time>2022-04-27T12:40:50Z</time>
      </trkpt>
      <trkpt lat="42.761287" lon="-0.231124">
        <ele>1733.831</ele>
        <time>2022-04-27T12:40:50Z</time>
      </trkpt>
      <trkpt lat="42.762377" lon="-0.229720">
        <ele>1762.454</ele>
        <time>2022-04-27T12:40:50Z</time>
      </trkpt>
      <trkpt lat="42.762319" lon="-0.229703">
        <ele>1763.656</ele>
        <time>2022-04-27T12:40:50Z</time>
      </trkpt>
      <trkpt lat="42.762203" lon="-0.229705">
        <ele>1765.911</ele>
        <time>2022-04-27T12:40:50Z</time>
      </trkpt>
      <trkpt lat="42.762156" lon="-0.229592">
        <ele>1767.809</ele>
        <time>2022-04-27T12:40:50Z</time>
      </trkpt>
      <trkpt lat="42.762181" lon="-0.229520">
        <ele>1768.946</ele>
        <time>2022-04-27T12:40:50Z</time>
      </trkpt>
      <trkpt lat="42.761829" lon="-0.229441">
        <ele>1778.455</ele>
        <time>2022-04-27T12:40:50Z</time>
      </trkpt>
      <trkpt lat="42.761133" lon="-0.229807">
        <ele>1799.156</ele>
        <time>2022-04-27T12:40:50Z</time>
      </trkpt>
      <trkpt lat="42.761314" lon="-0.229210">
        <ele>1812.246</ele>
        <time>2022-04-27T12:40:50Z</time>
      </trkpt>
      <trkpt lat="42.761763" lon="-0.228486">
        <ele>1829.182</ele>
        <time>2022-04-27T12:40:50Z</time>
      </trkpt>
      <trkpt lat="42.761434" lon="-0.228553">
        <ele>1836.473</ele>
        <time>2022-04-27T12:40:50Z</time>
      </trkpt>
      <trkpt lat="42.761527" lon="-0.228210">
        <ele>1842.310</ele>
        <time>2022-04-27T12:40:50Z</time>
      </trkpt>
      <trkpt lat="42.762130" lon="-0.227493">
        <ele>1859.942</ele>
        <time>2022-04-27T12:40:50Z</time>
      </trkpt>
      <trkpt lat="42.760809" lon="-0.227889">
        <ele>1887.584</ele>
        <time>2022-04-27T12:40:50Z</time>
      </trkpt>
      <trkpt lat="42.761346" lon="-0.227150">
        <ele>1903.562</ele>
        <time>2022-04-27T12:40:50Z</time>
      </trkpt>
      <trkpt lat="42.761631" lon="-0.227060">
        <ele>1909.983</ele>
        <time>2022-04-27T12:40:50Z</time>
      </trkpt>
      <trkpt lat="42.761867" lon="-0.226657">
        <ele>1918.111</ele>
        <time>2022-04-27T12:40:50Z</time>
      </trkpt>
      <trkpt lat="42.761303" lon="-0.226769">
        <ele>1930.509</ele>
        <time>2022-04-27T12:40:50Z</time>
      </trkpt>
      <trkpt lat="42.761905" lon="-0.226022">
        <ele>1942.437</ele>
        <time>2022-04-27T12:40:50Z</time>
      </trkpt>
      <trkpt lat="42.761555" lon="-0.226187">
        <ele>1946.886</ele>
        <time>2022-04-27T12:40:50Z</time>
      </trkpt>
      <trkpt lat="42.761377" lon="-0.226200">
        <ele>1948.937</ele>
        <time>2022-04-27T12:40:50Z</time>
      </trkpt>
      <trkpt lat="42.761844" lon="-0.225655">
        <ele>1956.337</ele>
        <time>2022-04-27T12:40:50Z</time>
      </trkpt>
      <trkpt lat="42.761409" lon="-0.225822">
        <ele>1959.233</ele>
        <time>2022-04-27T12:40:50Z</time>
      </trkpt>
      <trkpt lat="42.761672" lon="-0.225464">
        <ele>1961.424</ele>
        <time>2022-04-27T12:40:50Z</time>
      </trkpt>
      <trkpt lat="42.761384" lon="-0.225607">
        <ele>1963.271</ele>
        <time>2022-04-27T12:40:50Z</time>
      </trkpt>
      <trkpt lat="42.761570" lon="-0.225373">
        <ele>1964.713</ele>
        <time>2022-04-27T12:40:50Z</time>
      </trkpt>
      <trkpt lat="42.761346" lon="-0.225411">
        <ele>1966.025</ele>
        <time>2022-04-27T12:40:50Z</time>
      </trkpt>
      <trkpt lat="42.761451" lon="-0.225301">
        <ele>1966.812</ele>
        <time>2022-04-27T12:40:50Z</time>
      </trkpt>
      <trkpt lat="42.761462" lon="-0.225220">
        <ele>1967.232</ele>
        <time>2022-04-27T12:40:50Z</time>
      </trkpt>
      <trkpt lat="42.761360" lon="-0.225239">
        <ele>1968.205</ele>
        <time>2022-04-27T12:40:50Z</time>
      </trkpt>
      <trkpt lat="42.761454" lon="-0.225039">
        <ele>1970.209</ele>
        <time>2022-04-27T12:40:50Z</time>
      </trkpt>
      <trkpt lat="42.760858" lon="-0.225220">
        <ele>1977.322</ele>
        <time>2022-04-27T12:40:50Z</time>
      </trkpt>
      <trkpt lat="42.760893" lon="-0.225077">
        <ele>1978.661</ele>
        <time>2022-04-27T12:40:50Z</time>
      </trkpt>
      <trkpt lat="42.760813" lon="-0.225067">
        <ele>1979.582</ele>
        <time>2022-04-27T12:40:50Z</time>
      </trkpt>
      <trkpt lat="42.760876" lon="-0.224919">
        <ele>1981.082</ele>
        <time>2022-04-27T12:40:50Z</time>
      </trkpt>
      <trkpt lat="42.760756" lon="-0.224943">
        <ele>1982.488</ele>
        <time>2022-04-27T12:40:50Z</time>
      </trkpt>
      <trkpt lat="42.760781" lon="-0.224733">
        <ele>1984.289</ele>
        <time>2022-04-27T12:40:50Z</time>
      </trkpt>
      <trkpt lat="42.760911" lon="-0.224642">
        <ele>1985.976</ele>
        <time>2022-04-27T12:40:50Z</time>
      </trkpt>
      <trkpt lat="42.761167" lon="-0.224150">
        <ele>1993.048</ele>
        <time>2022-04-27T12:40:50Z</time>
      </trkpt>
      <trkpt lat="42.761644" lon="-0.223782">
        <ele>2003.930</ele>
        <time>2022-04-27T12:40:50Z</time>
      </trkpt>
      <trkpt lat="42.761090" lon="-0.223543">
        <ele>2015.489</ele>
        <time>2022-04-27T12:40:50Z</time>
      </trkpt>
      <trkpt lat="42.760560" lon="-0.223567">
        <ele>2025.706</ele>
        <time>2022-04-27T12:40:50Z</time>
      </trkpt>
      <trkpt lat="42.760041" lon="-0.223725">
        <ele>2035.026</ele>
        <time>2022-04-27T12:40:50Z</time>
      </trkpt>
      <trkpt lat="42.759764" lon="-0.224131">
        <ele>2042.109</ele>
        <time>2022-04-27T12:40:50Z</time>
      </trkpt>
      <trkpt lat="42.759602" lon="-0.224571">
        <ele>2048.419</ele>
        <time>2022-04-27T12:40:50Z</time>
      </trkpt>
      <trkpt lat="42.759371" lon="-0.224800">
        <ele>2053.418</ele>
        <time>2022-04-27T12:40:50Z</time>
      </trkpt>
      <trkpt lat="42.759248" lon="-0.224828">
        <ele>2055.799</ele>
        <time>2022-04-27T12:40:50Z</time>
      </trkpt>
      <trkpt lat="42.759301" lon="-0.224437">
        <ele>2064.189</ele>
        <time>2022-04-27T12:40:50Z</time>
      </trkpt>
      <trkpt lat="42.759101" lon="-0.224647">
        <ele>2071.455</ele>
        <time>2022-04-27T12:40:50Z</time>
      </trkpt>
      <trkpt lat="42.758925" lon="-0.224188">
        <ele>2082.426</ele>
        <time>2022-04-27T12:40:50Z</time>
      </trkpt>
      <trkpt lat="42.758939" lon="-0.224078">
        <ele>2084.823</ele>
        <time>2022-04-27T12:40:50Z</time>
      </trkpt>
      <trkpt lat="42.758494" lon="-0.223194">
        <ele>2107.585</ele>
        <time>2022-04-27T12:40:50Z</time>
      </trkpt>
      <trkpt lat="42.758585" lon="-0.223023">
        <ele>2111.037</ele>
        <time>2022-04-27T12:40:50Z</time>
      </trkpt>
      <trkpt lat="42.758343" lon="-0.222841">
        <ele>2117.249</ele>
        <time>2022-04-27T12:40:50Z</time>
      </trkpt>
      <trkpt lat="42.758441" lon="-0.222698">
        <ele>2120.402</ele>
        <time>2022-04-27T12:40:50Z</time>
      </trkpt>
      <trkpt lat="42.758361" lon="-0.222631">
        <ele>2122.522</ele>
        <time>2022-04-27T12:40:50Z</time>
      </trkpt>
      <trkpt lat="42.758420" lon="-0.222511">
        <ele>2124.909</ele>
        <time>2022-04-27T12:40:50Z</time>
      </trkpt>
      <trkpt lat="42.758255" lon="-0.222521">
        <ele>2128.615</ele>
        <time>2022-04-27T12:40:50Z</time>
      </trkpt>
      <trkpt lat="42.757919" lon="-0.222315">
        <ele>2136.934</ele>
        <time>2022-04-27T12:40:50Z</time>
      </trkpt>
      <trkpt lat="42.758108" lon="-0.222196">
        <ele>2141.695</ele>
        <time>2022-04-27T12:40:50Z</time>
      </trkpt>
      <trkpt lat="42.758038" lon="-0.222057">
        <ele>2144.475</ele>
        <time>2022-04-27T12:40:50Z</time>
      </trkpt>
      <trkpt lat="42.757813" lon="-0.221924">
        <ele>2148.541</ele>
        <time>2022-04-27T12:40:50Z</time>
      </trkpt>
      <trkpt lat="42.757768" lon="-0.221838">
        <ele>2149.152</ele>
        <time>2022-04-27T12:40:50Z</time>
      </trkpt>
      <trkpt lat="42.758101" lon="-0.221694">
        <ele>2151.749</ele>
        <time>2022-04-27T12:40:50Z</time>
      </trkpt>
      <trkpt lat="42.758168" lon="-0.221594">
        <ele>2152.491</ele>
        <time>2022-04-27T12:40:50Z</time>
      </trkpt>
      <trkpt lat="42.757884" lon="-0.221584">
        <ele>2154.543</ele>
        <time>2022-04-27T12:40:50Z</time>
      </trkpt>
      <trkpt lat="42.757817" lon="-0.221527">
        <ele>2155.167</ele>
        <time>2022-04-27T12:40:50Z</time>
      </trkpt>
      <trkpt lat="42.758175" lon="-0.221336">
        <ele>2157.981</ele>
        <time>2022-04-27T12:40:50Z</time>
      </trkpt>
      <trkpt lat="42.757701" lon="-0.221183">
        <ele>2161.919</ele>
        <time>2022-04-27T12:40:50Z</time>
      </trkpt>
      <trkpt lat="42.758045" lon="-0.221111">
        <ele>2167.109</ele>
        <time>2022-04-27T12:40:50Z</time>
      </trkpt>
      <trkpt lat="42.756442" lon="-0.220080">
        <ele>2195.377</ele>
        <time>2022-04-27T12:40:50Z</time>
      </trkpt>
      <trkpt lat="42.756166" lon="-0.219482">
        <ele>2205.466</ele>
        <time>2022-04-27T12:40:50Z</time>
      </trkpt>
      <trkpt lat="42.755961" lon="-0.219039">
        <ele>2212.927</ele>
        <time>2022-04-27T12:40:50Z</time>
      </trkpt>
      <trkpt lat="42.756192" lon="-0.218343">
        <ele>2223.847</ele>
        <time>2022-04-27T12:40:50Z</time>
      </trkpt>
      <trkpt lat="42.755982" lon="-0.217961">
        <ele>2230.523</ele>
        <time>2022-04-27T12:40:50Z</time>
      </trkpt>
      <trkpt lat="42.756276" lon="-0.218114">
        <ele>2236.624</ele>
        <time>2022-04-27T12:40:50Z</time>
      </trkpt>
      <trkpt lat="42.756171" lon="-0.217770">
        <ele>2241.911</ele>
        <time>2022-04-27T12:40:50Z</time>
      </trkpt>
      <trkpt lat="42.756311" lon="-0.217818">
        <ele>2244.723</ele>
        <time>2022-04-27T12:40:50Z</time>
      </trkpt>
      <trkpt lat="42.756192" lon="-0.217455">
        <ele>2250.325</ele>
        <time>2022-04-27T12:40:50Z</time>
      </trkpt>
      <trkpt lat="42.756332" lon="-0.217513">
        <ele>2253.127</ele>
        <time>2022-04-27T12:40:50Z</time>
      </trkpt>
      <trkpt lat="42.756255" lon="-0.216998">
        <ele>2260.868</ele>
        <time>2022-04-27T12:40:50Z</time>
      </trkpt>
      <trkpt lat="42.756654" lon="-0.216874">
        <ele>2269.314</ele>
        <time>2022-04-27T12:40:50Z</time>
      </trkpt>
      <trkpt lat="42.756528" lon="-0.216187">
        <ele>2280.109</ele>
        <time>2022-04-27T12:40:50Z</time>
      </trkpt>
      <trkpt lat="42.756675" lon="-0.216330">
        <ele>2283.823</ele>
        <time>2022-04-27T12:40:50Z</time>
      </trkpt>
      <trkpt lat="42.756626" lon="-0.216148">
        <ele>2286.822</ele>
        <time>2022-04-27T12:40:50Z</time>
      </trkpt>
      <trkpt lat="42.756731" lon="-0.216187">
        <ele>2289.123</ele>
        <time>2022-04-27T12:40:50Z</time>
      </trkpt>
      <trkpt lat="42.756185" lon="-0.215109">
        <ele>2306.633</ele>
        <time>2022-04-27T12:40:50Z</time>
      </trkpt>
      <trkpt lat="42.755891" lon="-0.215051">
        <ele>2311.749</ele>
        <time>2022-04-27T12:40:50Z</time>
      </trkpt>
      <trkpt lat="42.755540" lon="-0.215118">
        <ele>2317.880</ele>
        <time>2022-04-27T12:40:50Z</time>
      </trkpt>
      <trkpt lat="42.755428" lon="-0.215004">
        <ele>2320.277</ele>
        <time>2022-04-27T12:40:50Z</time>
      </trkpt>
      <trkpt lat="42.755688" lon="-0.214861">
        <ele>2325.099</ele>
        <time>2022-04-27T12:40:50Z</time>
      </trkpt>
      <trkpt lat="42.754748" lon="-0.214511">
        <ele>2336.661</ele>
        <time>2022-04-27T12:40:50Z</time>
      </trkpt>
      <trkpt lat="42.752818" lon="-0.212734">
        <ele>2361.599</ele>
        <time>2022-04-27T12:40:50Z</time>
      </trkpt>
      <trkpt lat="42.752752" lon="-0.212170">
        <ele>2365.707</ele>
        <time>2022-04-27T12:40:50Z</time>
      </trkpt>
      <trkpt lat="42.753307" lon="-0.211925">
        <ele>2371.327</ele>
        <time>2022-04-27T12:40:50Z</time>
      </trkpt>
      <trkpt lat="42.753881" lon="-0.211264">
        <ele>2378.509</ele>
        <time>2022-04-27T12:40:50Z</time>
      </trkpt>
      <trkpt lat="42.753960" lon="-0.210765">
        <ele>2382.130</ele>
        <time>2022-04-27T12:40:50Z</time>
      </trkpt>
      <trkpt lat="42.753624" lon="-0.209605">
        <ele>2397.489</ele>
        <time>2022-04-27T12:40:50Z</time>
      </trkpt>
      <trkpt lat="42.753529" lon="-0.208606">
        <ele>2409.860</ele>
        <time>2022-04-27T12:40:50Z</time>
      </trkpt>
      <trkpt lat="42.753557" lon="-0.207814">
        <ele>2421.140</ele>
        <time>2022-04-27T12:40:50Z</time>
      </trkpt>
      <trkpt lat="42.753816" lon="-0.208129">
        <ele>2428.216</ele>
        <time>2022-04-27T12:40:50Z</time>
      </trkpt>
      <trkpt lat="42.753802" lon="-0.207690">
        <ele>2434.877</ele>
        <time>2022-04-27T12:40:50Z</time>
      </trkpt>
      <trkpt lat="42.754138" lon="-0.207737">
        <ele>2441.714</ele>
        <time>2022-04-27T12:40:50Z</time>
      </trkpt>
      <trkpt lat="42.754152" lon="-0.207957">
        <ele>2445.036</ele>
        <time>2022-04-27T12:40:50Z</time>
      </trkpt>
      <trkpt lat="42.754363" lon="-0.208033">
        <ele>2449.648</ele>
        <time>2022-04-27T12:40:50Z</time>
      </trkpt>
      <trkpt lat="42.754475" lon="-0.208319">
        <ele>2456.347</ele>
        <time>2022-04-27T12:40:50Z</time>
      </trkpt>
      <trkpt lat="42.754804" lon="-0.208262">
        <ele>2465.729</ele>
        <time>2022-04-27T12:40:50Z</time>
      </trkpt>
      <trkpt lat="42.754947" lon="-0.207663">
        <ele>2478.821</ele>
        <time>2022-04-27T12:40:50Z</time>
      </trkpt>
      <trkpt lat="42.755266" lon="-0.206335">
        <ele>2506.709</ele>
        <time>2022-04-27T12:40:50Z</time>
      </trkpt>
      <trkpt lat="42.755953" lon="-0.205381">
        <ele>2530.625</ele>
        <time>2022-04-27T12:40:50Z</time>
      </trkpt>
      <trkpt lat="42.757024" lon="-0.203702">
        <ele>2551.944</ele>
        <time>2022-04-27T12:40:50Z</time>
      </trkpt>
      <trkpt lat="42.757410" lon="-0.203454">
        <ele>2555.195</ele>
        <time>2022-04-27T12:40:50Z</time>
      </trkpt>
      <trkpt lat="42.757718" lon="-0.202385">
        <ele>2546.435</ele>
        <time>2022-04-27T12:40:50Z</time>
      </trkpt>
      <trkpt lat="42.758026" lon="-0.201918">
        <ele>2537.671</ele>
        <time>2022-04-27T12:40:50Z</time>
      </trkpt>
      <trkpt lat="42.758208" lon="-0.201641">
        <ele>2532.412</ele>
        <time>2022-04-27T12:40:50Z</time>
      </trkpt>
      <trkpt lat="42.759392" lon="-0.200907">
        <ele>2505.249</ele>
        <time>2022-04-27T12:40:50Z</time>
      </trkpt>
      <trkpt lat="42.759301" lon="-0.200678">
        <ele>2501.031</ele>
        <time>2022-04-27T12:40:50Z</time>
      </trkpt>
      <trkpt lat="42.759777" lon="-0.199838">
        <ele>2483.963</ele>
        <time>2022-04-27T12:40:50Z</time>
      </trkpt>
      <trkpt lat="42.759679" lon="-0.199514">
        <ele>2478.925</ele>
        <time>2022-04-27T12:40:50Z</time>
      </trkpt>
      <trkpt lat="42.759861" lon="-0.198989">
        <ele>2470.726</ele>
        <time>2022-04-27T12:40:50Z</time>
      </trkpt>
      <trkpt lat="42.761129" lon="-0.197501">
        <ele>2439.208</ele>
        <time>2022-04-27T12:40:50Z</time>
      </trkpt>
      <trkpt lat="42.761353" lon="-0.196919">
        <ele>2430.509</ele>
        <time>2022-04-27T12:40:50Z</time>
      </trkpt>
      <trkpt lat="42.761725" lon="-0.196823">
        <ele>2423.753</ele>
        <time>2022-04-27T12:40:50Z</time>
      </trkpt>
      <trkpt lat="42.763056" lon="-0.195831">
        <ele>2401.082</ele>
        <time>2022-04-27T12:40:50Z</time>
      </trkpt>
      <trkpt lat="42.763007" lon="-0.195306">
        <ele>2395.723</ele>
        <time>2022-04-27T12:40:50Z</time>
      </trkpt>
      <trkpt lat="42.763399" lon="-0.194362">
        <ele>2387.243</ele>
        <time>2022-04-27T12:40:50Z</time>
      </trkpt>
      <trkpt lat="42.763399" lon="-0.193894">
        <ele>2384.149</ele>
        <time>2022-04-27T12:40:50Z</time>
      </trkpt>
      <trkpt lat="42.763840" lon="-0.192396">
        <ele>2372.780</ele>
        <time>2022-04-27T12:40:50Z</time>
      </trkpt>
      <trkpt lat="42.764197" lon="-0.192292">
        <ele>2368.177</ele>
        <time>2022-04-27T12:40:50Z</time>
      </trkpt>
      <trkpt lat="42.764708" lon="-0.191290">
        <ele>2356.789</ele>
        <time>2022-04-27T12:40:50Z</time>
      </trkpt>
      <trkpt lat="42.764673" lon="-0.190813">
        <ele>2351.631</ele>
        <time>2022-04-27T12:40:50Z</time>
      </trkpt>
      <trkpt lat="42.765053" lon="-0.189464">
        <ele>2321.598</ele>
        <time>2022-04-27T12:40:50Z</time>
      </trkpt>
      <trkpt lat="42.765481" lon="-0.188691">
        <ele>2301.315</ele>
        <time>2022-04-27T12:40:50Z</time>
      </trkpt>
      <trkpt lat="42.765291" lon="-0.187651">
        <ele>2276.626</ele>
        <time>2022-04-27T12:40:50Z</time>
      </trkpt>
      <trkpt lat="42.765277" lon="-0.186783">
        <ele>2256.609</ele>
        <time>2022-04-27T12:40:50Z</time>
      </trkpt>
      <trkpt lat="42.765495" lon="-0.186354">
        <ele>2244.970</ele>
        <time>2022-04-27T12:40:50Z</time>
      </trkpt>
      <trkpt lat="42.765411" lon="-0.185772">
        <ele>2238.219</ele>
        <time>2022-04-27T12:40:50Z</time>
      </trkpt>
      <trkpt lat="42.765487" lon="-0.185562">
        <ele>2235.550</ele>
        <time>2022-04-27T12:40:50Z</time>
      </trkpt>
      <trkpt lat="42.765495" lon="-0.185018">
        <ele>2229.350</ele>
        <time>2022-04-27T12:40:50Z</time>
      </trkpt>
      <trkpt lat="42.765628" lon="-0.184732">
        <ele>2225.596</ele>
        <time>2022-04-27T12:40:50Z</time>
      </trkpt>
      <trkpt lat="42.765600" lon="-0.184551">
        <ele>2223.487</ele>
        <time>2022-04-27T12:40:50Z</time>
      </trkpt>
      <trkpt lat="42.765684" lon="-0.184255">
        <ele>2219.894</ele>
        <time>2022-04-27T12:40:50Z</time>
      </trkpt>
      <trkpt lat="42.765572" lon="-0.183902">
        <ele>2215.976</ele>
        <time>2022-04-27T12:40:50Z</time>
      </trkpt>
      <trkpt lat="42.765656" lon="-0.183711">
        <ele>2213.958</ele>
        <time>2022-04-27T12:40:50Z</time>
      </trkpt>
      <trkpt lat="42.765698" lon="-0.183377">
        <ele>2210.929</ele>
        <time>2022-04-27T12:40:50Z</time>
      </trkpt>
      <trkpt lat="42.765859" lon="-0.183234">
        <ele>2208.600</ele>
        <time>2022-04-27T12:40:50Z</time>
      </trkpt>
      <trkpt lat="42.765796" lon="-0.182859">
        <ele>2205.220</ele>
        <time>2022-04-27T12:40:50Z</time>
      </trkpt>
      <trkpt lat="42.765789" lon="-0.182814">
        <ele>2204.809</ele>
        <time>2022-04-27T12:40:50Z</time>
      </trkpt>
      <trkpt lat="42.766361" lon="-0.182082">
        <ele>2195.273</ele>
        <time>2022-04-27T12:40:50Z</time>
      </trkpt>
      <trkpt lat="42.766745" lon="-0.180455">
        <ele>2177.412</ele>
        <time>2022-04-27T12:40:50Z</time>
      </trkpt>
      <trkpt lat="42.766691" lon="-0.179337">
        <ele>2164.783</ele>
        <time>2022-04-27T12:40:50Z</time>
      </trkpt>
      <trkpt lat="42.766511" lon="-0.179664">
        <ele>2159.523</ele>
        <time>2022-04-27T12:40:50Z</time>
      </trkpt>
      <trkpt lat="42.766422" lon="-0.179244">
        <ele>2153.919</ele>
        <time>2022-04-27T12:40:50Z</time>
      </trkpt>
      <trkpt lat="42.766533" lon="-0.179102">
        <ele>2151.330</ele>
        <time>2022-04-27T12:40:50Z</time>
      </trkpt>
      <trkpt lat="42.766311" lon="-0.178482">
        <ele>2142.567</ele>
        <time>2022-04-27T12:40:50Z</time>
      </trkpt>
      <trkpt lat="42.766544" lon="-0.177144">
        <ele>2120.189</ele>
        <time>2022-04-27T12:40:50Z</time>
      </trkpt>
      <trkpt lat="42.766554" lon="-0.176483">
        <ele>2108.881</ele>
        <time>2022-04-27T12:40:50Z</time>
      </trkpt>
      <trkpt lat="42.766665" lon="-0.176456">
        <ele>2106.275</ele>
        <time>2022-04-27T12:40:50Z</time>
      </trkpt>
      <trkpt lat="42.766821" lon="-0.176112">
        <ele>2099.328</ele>
        <time>2022-04-27T12:40:50Z</time>
      </trkpt>
      <trkpt lat="42.766844" lon="-0.175075">
        <ele>2082.520</ele>
        <time>2022-04-27T12:40:50Z</time>
      </trkpt>
      <trkpt lat="42.766987" lon="-0.174697">
        <ele>2075.709</ele>
        <time>2022-04-27T12:40:50Z</time>
      </trkpt>
      <trkpt lat="42.766877" lon="-0.174501">
        <ele>2071.728</ele>
        <time>2022-04-27T12:40:50Z</time>
      </trkpt>
      <trkpt lat="42.766924" lon="-0.174273">
        <ele>2067.927</ele>
        <time>2022-04-27T12:40:50Z</time>
      </trkpt>
      <trkpt lat="42.766716" lon="-0.174094">
        <ele>2062.528</ele>
        <time>2022-04-27T12:40:50Z</time>
      </trkpt>
      <trkpt lat="42.766707" lon="-0.173798">
        <ele>2057.748</ele>
        <time>2022-04-27T12:40:50Z</time>
      </trkpt>
      <trkpt lat="42.766830" lon="-0.173482">
        <ele>2054.644</ele>
        <time>2022-04-27T12:40:50Z</time>
      </trkpt>
      <trkpt lat="42.766816" lon="-0.173108">
        <ele>2051.475</ele>
        <time>2022-04-27T12:40:50Z</time>
      </trkpt>
      <trkpt lat="42.766602" lon="-0.172405">
        <ele>2044.952</ele>
        <time>2022-04-27T12:40:50Z</time>
      </trkpt>
      <trkpt lat="42.766542" lon="-0.172042">
        <ele>2041.714</ele>
        <time>2022-04-27T12:40:50Z</time>
      </trkpt>
      <trkpt lat="42.766597" lon="-0.171529">
        <ele>2037.246</ele>
        <time>2022-04-27T12:40:50Z</time>
      </trkpt>
      <trkpt lat="42.766920" lon="-0.171522">
        <ele>2035.211</ele>
        <time>2022-04-27T12:40:50Z</time>
      </trkpt>
      <trkpt lat="42.767057" lon="-0.171213">
        <ele>2033.921</ele>
        <time>2022-04-27T12:40:50Z</time>
      </trkpt>
      <trkpt lat="42.767097" lon="-0.170622">
        <ele>2031.703</ele>
        <time>2022-04-27T12:40:50Z</time>
      </trkpt>
      <trkpt lat="42.766204" lon="-0.170796">
        <ele>2027.709</ele>
        <time>2022-04-27T12:40:50Z</time>
      </trkpt>
      <trkpt lat="42.765584" lon="-0.170142">
        <ele>2029.262</ele>
        <time>2022-04-27T12:40:50Z</time>
      </trkpt>
      <trkpt lat="42.764577" lon="-0.169615">
        <ele>2033.551</ele>
        <time>2022-04-27T12:40:50Z</time>
      </trkpt>
      <trkpt lat="42.765318" lon="-0.169598">
        <ele>2046.982</ele>
        <time>2022-04-27T12:40:50Z</time>
      </trkpt>
      <trkpt lat="42.765871" lon="-0.169754">
        <ele>2057.162</ele>
        <time>2022-04-27T12:40:50Z</time>
      </trkpt>
      <trkpt lat="42.766150" lon="-0.169566">
        <ele>2062.778</ele>
        <time>2022-04-27T12:40:50Z</time>
      </trkpt>
      <trkpt lat="42.766303" lon="-0.169578">
        <ele>2066.339</ele>
        <time>2022-04-27T12:40:50Z</time>
      </trkpt>
      <trkpt lat="42.766503" lon="-0.169291">
        <ele>2073.926</ele>
        <time>2022-04-27T12:40:50Z</time>
      </trkpt>
      <trkpt lat="42.766810" lon="-0.169241">
        <ele>2081.978</ele>
        <time>2022-04-27T12:40:50Z</time>
      </trkpt>
      <trkpt lat="42.767045" lon="-0.169077">
        <ele>2088.830</ele>
        <time>2022-04-27T12:40:50Z</time>
      </trkpt>
      <trkpt lat="42.767346" lon="-0.169014">
        <ele>2096.748</ele>
        <time>2022-04-27T12:40:50Z</time>
      </trkpt>
      <trkpt lat="42.767628" lon="-0.168749">
        <ele>2105.661</ele>
        <time>2022-04-27T12:40:50Z</time>
      </trkpt>
      <trkpt lat="42.767807" lon="-0.168752">
        <ele>2110.317</ele>
        <time>2022-04-27T12:40:50Z</time>
      </trkpt>
      <trkpt lat="42.768080" lon="-0.168545">
        <ele>2117.609</ele>
        <time>2022-04-27T12:40:50Z</time>
      </trkpt>
      <trkpt lat="42.768408" lon="-0.168502">
        <ele>2125.325</ele>
        <time>2022-04-27T12:40:50Z</time>
      </trkpt>
      <trkpt lat="42.768774" lon="-0.168322">
        <ele>2134.474</ele>
        <time>2022-04-27T12:40:50Z</time>
      </trkpt>
      <trkpt lat="42.768995" lon="-0.168137">
        <ele>2140.415</ele>
        <time>2022-04-27T12:40:50Z</time>
      </trkpt>
      <trkpt lat="42.769351" lon="-0.168068">
        <ele>2148.815</ele>
        <time>2022-04-27T12:40:50Z</time>
      </trkpt>
      <trkpt lat="42.770024" lon="-0.167637">
        <ele>2165.611</ele>
        <time>2022-04-27T12:40:50Z</time>
      </trkpt>
      <trkpt lat="42.770162" lon="-0.167400">
        <ele>2170.612</ele>
        <time>2022-04-27T12:40:50Z</time>
      </trkpt>
      <trkpt lat="42.770421" lon="-0.167314">
        <ele>2176.649</ele>
        <time>2022-04-27T12:40:50Z</time>
      </trkpt>
      <trkpt lat="42.770529" lon="-0.167333">
        <ele>2179.041</ele>
        <time>2022-04-27T12:40:50Z</time>
      </trkpt>
      <trkpt lat="42.770789" lon="-0.167186">
        <ele>2185.373</ele>
        <time>2022-04-27T12:40:50Z</time>
      </trkpt>
      <trkpt lat="42.771062" lon="-0.167134">
        <ele>2191.535</ele>
        <time>2022-04-27T12:40:50Z</time>
      </trkpt>
      <trkpt lat="42.771361" lon="-0.166931">
        <ele>2197.486</ele>
        <time>2022-04-27T12:40:50Z</time>
      </trkpt>
      <trkpt lat="42.771825" lon="-0.166888">
        <ele>2205.214</ele>
        <time>2022-04-27T12:40:50Z</time>
      </trkpt>
      <trkpt lat="42.773054" lon="-0.167006">
        <ele>2224.609</ele>
        <time>2022-04-27T12:40:50Z</time>
      </trkpt>
      <trkpt lat="42.773385" lon="-0.166877">
        <ele>2227.994</ele>
        <time>2022-04-27T12:40:50Z</time>
      </trkpt>
      <trkpt lat="42.773511" lon="-0.166748">
        <ele>2229.423</ele>
        <time>2022-04-27T12:40:50Z</time>
      </trkpt>
      <trkpt lat="42.773802" lon="-0.166855">
        <ele>2232.324</ele>
        <time>2022-04-27T12:40:50Z</time>
      </trkpt>
      <trkpt lat="42.774054" lon="-0.166802">
        <ele>2234.744</ele>
        <time>2022-04-27T12:40:50Z</time>
      </trkpt>
      <trkpt lat="42.774424" lon="-0.166909">
        <ele>2238.370</ele>
        <time>2022-04-27T12:40:50Z</time>
      </trkpt>
      <trkpt lat="42.774661" lon="-0.166813">
        <ele>2240.631</ele>
        <time>2022-04-27T12:40:50Z</time>
      </trkpt>
      <trkpt lat="42.774952" lon="-0.166813">
        <ele>2243.288</ele>
        <time>2022-04-27T12:40:50Z</time>
      </trkpt>
      <trkpt lat="42.775055" lon="-0.166716">
        <ele>2244.340</ele>
        <time>2022-04-27T12:40:50Z</time>
      </trkpt>
      <trkpt lat="42.775826" lon="-0.166716">
        <ele>2251.152</ele>
        <time>2022-04-27T12:40:50Z</time>
      </trkpt>
      <trkpt lat="42.775929" lon="-0.166609">
        <ele>2252.251</ele>
        <time>2022-04-27T12:40:50Z</time>
      </trkpt>
      <trkpt lat="42.776102" lon="-0.166727">
        <ele>2253.901</ele>
        <time>2022-04-27T12:40:50Z</time>
      </trkpt>
      <trkpt lat="42.776787" lon="-0.166705">
        <ele>2259.711</ele>
        <time>2022-04-27T12:40:50Z</time>
      </trkpt>
      <trkpt lat="42.777393" lon="-0.166577">
        <ele>2264.709</ele>
        <time>2022-04-27T12:40:50Z</time>
      </trkpt>
      <trkpt lat="42.777472" lon="-0.166641">
        <ele>2265.526</ele>
        <time>2022-04-27T12:40:50Z</time>
      </trkpt>
      <trkpt lat="42.777622" lon="-0.166609">
        <ele>2266.775</ele>
        <time>2022-04-27T12:40:50Z</time>
      </trkpt>
      <trkpt lat="42.777724" lon="-0.166501">
        <ele>2267.816</ele>
        <time>2022-04-27T12:40:50Z</time>
      </trkpt>
      <trkpt lat="42.778110" lon="-0.166426">
        <ele>2271.246</ele>
        <time>2022-04-27T12:40:50Z</time>
      </trkpt>
      <trkpt lat="42.779196" lon="-0.166311">
        <ele>2285.872</ele>
        <time>2022-04-27T12:40:50Z</time>
      </trkpt>
      <trkpt lat="42.780677" lon="-0.166311">
        <ele>2312.423</ele>
        <time>2022-04-27T12:40:50Z</time>
      </trkpt>
      <trkpt lat="42.781685" lon="-0.166568">
        <ele>2334.820</ele>
        <time>2022-04-27T12:40:50Z</time>
      </trkpt>
      <trkpt lat="42.782472" lon="-0.166053">
        <ele>2356.052</ele>
        <time>2022-04-27T12:40:50Z</time>
      </trkpt>
      <trkpt lat="42.782378" lon="-0.165710">
        <ele>2362.524</ele>
        <time>2022-04-27T12:40:50Z</time>
      </trkpt>
      <trkpt lat="42.783575" lon="-0.164852">
        <ele>2383.718</ele>
        <time>2022-04-27T12:40:50Z</time>
      </trkpt>
      <trkpt lat="42.784870" lon="-0.163832">
        <ele>2390.398</ele>
        <time>2022-04-27T12:40:50Z</time>
      </trkpt>
      <trkpt lat="42.785433" lon="-0.164122">
        <ele>2386.917</ele>
        <time>2022-04-27T12:40:50Z</time>
      </trkpt>
      <trkpt lat="42.786063" lon="-0.163950">
        <ele>2383.309</ele>
        <time>2022-04-27T12:40:50Z</time>
      </trkpt>
      <trkpt lat="42.786577" lon="-0.163495">
        <ele>2385.072</ele>
        <time>2022-04-27T12:40:50Z</time>
      </trkpt>
      <trkpt lat="42.787106" lon="-0.162792">
        <ele>2388.631</ele>
        <time>2022-04-27T12:40:50Z</time>
      </trkpt>
      <trkpt lat="42.787953" lon="-0.161933">
        <ele>2402.962</ele>
        <time>2022-04-27T12:40:50Z</time>
      </trkpt>
      <trkpt lat="42.788866" lon="-0.160903">
        <ele>2431.172</ele>
        <time>2022-04-27T12:40:50Z</time>
      </trkpt>
      <trkpt lat="42.789291" lon="-0.160987">
        <ele>2445.088</ele>
        <time>2022-04-27T12:40:50Z</time>
      </trkpt>
      <trkpt lat="42.789508" lon="-0.160396">
        <ele>2462.569</ele>
        <time>2022-04-27T12:40:50Z</time>
      </trkpt>
      <trkpt lat="42.789870" lon="-0.159792">
        <ele>2483.156</ele>
        <time>2022-04-27T12:40:50Z</time>
      </trkpt>
      <trkpt lat="42.789923" lon="-0.159528">
        <ele>2490.318</ele>
        <time>2022-04-27T12:40:50Z</time>
      </trkpt>
      <trkpt lat="42.790183" lon="-0.158973">
        <ele>2507.530</ele>
        <time>2022-04-27T12:40:50Z</time>
      </trkpt>
      <trkpt lat="42.790205" lon="-0.158734">
        <ele>2513.715</ele>
        <time>2022-04-27T12:40:50Z</time>
      </trkpt>
      <trkpt lat="42.790331" lon="-0.158551">
        <ele>2520.265</ele>
        <time>2022-04-27T12:40:50Z</time>
      </trkpt>
      <trkpt lat="42.790271" lon="-0.158498">
        <ele>2522.711</ele>
        <time>2022-04-27T12:40:50Z</time>
      </trkpt>
      <trkpt lat="42.790250" lon="-0.158387">
        <ele>2525.709</ele>
        <time>2022-04-27T12:40:50Z</time>
      </trkpt>
      <trkpt lat="42.790378" lon="-0.158251">
        <ele>2531.432</ele>
        <time>2022-04-27T12:40:50Z</time>
      </trkpt>
      <trkpt lat="42.790409" lon="-0.158144">
        <ele>2534.481</ele>
        <time>2022-04-27T12:40:50Z</time>
      </trkpt>
      <trkpt lat="42.790341" lon="-0.158105">
        <ele>2537.082</ele>
        <time>2022-04-27T12:40:50Z</time>
      </trkpt>
      <trkpt lat="42.790312" lon="-0.158013">
        <ele>2539.622</ele>
        <time>2022-04-27T12:40:50Z</time>
      </trkpt>
      <trkpt lat="42.790488" lon="-0.157757">
        <ele>2548.728</ele>
        <time>2022-04-27T12:40:50Z</time>
      </trkpt>
      <trkpt lat="42.790271" lon="-0.157439">
        <ele>2560.089</ele>
        <time>2022-04-27T12:40:50Z</time>
      </trkpt>
      <trkpt lat="42.790272" lon="-0.157233">
        <ele>2562.516</ele>
        <time>2022-04-27T12:40:50Z</time>
      </trkpt>
      <trkpt lat="42.790398" lon="-0.157073">
        <ele>2562.918</ele>
        <time>2022-04-27T12:40:50Z</time>
      </trkpt>
      <trkpt lat="42.790415" lon="-0.156985">
        <ele>2563.020</ele>
        <time>2022-04-27T12:40:50Z</time>
      </trkpt>
      <trkpt lat="42.790346" lon="-0.156972">
        <ele>2563.199</ele>
        <time>2022-04-27T12:40:50Z</time>
      </trkpt>
      <trkpt lat="42.790348" lon="-0.156930">
        <ele>2563.207</ele>
        <time>2022-04-27T12:40:50Z</time>
      </trkpt>
      <trkpt lat="42.790111" lon="-0.156981">
        <ele>2563.727</ele>
        <time>2022-04-27T12:40:50Z</time>
      </trkpt>
      <trkpt lat="42.790103" lon="-0.156927">
        <ele>2563.809</ele>
        <time>2022-04-27T12:40:50Z</time>
      </trkpt>
      <trkpt lat="42.790012" lon="-0.156956">
        <ele>2564.040</ele>
        <time>2022-04-27T12:40:50Z</time>
      </trkpt>
      <trkpt lat="42.789938" lon="-0.156845">
        <ele>2564.289</ele>
        <time>2022-04-27T12:40:50Z</time>
      </trkpt>
      <trkpt lat="42.789987" lon="-0.156741">
        <ele>2564.480</ele>
        <time>2022-04-27T12:40:50Z</time>
      </trkpt>
      <trkpt lat="42.789925" lon="-0.156551">
        <ele>2564.770</ele>
        <time>2022-04-27T12:40:50Z</time>
      </trkpt>
      <trkpt lat="42.789884" lon="-0.156553">
        <ele>2564.816</ele>
        <time>2022-04-27T12:40:50Z</time>
      </trkpt>
      <trkpt lat="42.789775" lon="-0.156363">
        <ele>2565.257</ele>
        <time>2022-04-27T12:40:50Z</time>
      </trkpt>
      <trkpt lat="42.789549" lon="-0.156253">
        <ele>2565.724</ele>
        <time>2022-04-27T12:40:50Z</time>
      </trkpt>
      <trkpt lat="42.789363" lon="-0.155984">
        <ele>2562.426</ele>
        <time>2022-04-27T12:40:50Z</time>
      </trkpt>
      <trkpt lat="42.789106" lon="-0.155740">
        <ele>2548.658</ele>
        <time>2022-04-27T12:40:50Z</time>
      </trkpt>
      <trkpt lat="42.789101" lon="-0.155461">
        <ele>2539.654</ele>
        <time>2022-04-27T12:40:50Z</time>
      </trkpt>
      <trkpt lat="42.789145" lon="-0.155279">
        <ele>2533.456</ele>
        <time>2022-04-27T12:40:50Z</time>
      </trkpt>
      <trkpt lat="42.789245" lon="-0.155151">
        <ele>2527.411</ele>
        <time>2022-04-27T12:40:50Z</time>
      </trkpt>
      <trkpt lat="42.789189" lon="-0.155043">
        <ele>2523.109</ele>
        <time>2022-04-27T12:40:50Z</time>
      </trkpt>
      <trkpt lat="42.789098" lon="-0.154769">
        <ele>2513.436</ele>
        <time>2022-04-27T12:40:50Z</time>
      </trkpt>
      <trkpt lat="42.789051" lon="-0.154229">
        <ele>2495.835</ele>
        <time>2022-04-27T12:40:50Z</time>
      </trkpt>
      <trkpt lat="42.789141" lon="-0.154006">
        <ele>2487.656</ele>
        <time>2022-04-27T12:40:50Z</time>
      </trkpt>
      <trkpt lat="42.789166" lon="-0.153714">
        <ele>2479.216</ele>
        <time>2022-04-27T12:40:50Z</time>
      </trkpt>
      <trkpt lat="42.789263" lon="-0.153449">
        <ele>2470.962</ele>
        <time>2022-04-27T12:40:50Z</time>
      </trkpt>
      <trkpt lat="42.789346" lon="-0.153395">
        <ele>2467.443</ele>
        <time>2022-04-27T12:40:50Z</time>
      </trkpt>
      <trkpt lat="42.789507" lon="-0.152861">
        <ele>2451.210</ele>
        <time>2022-04-27T12:40:50Z</time>
      </trkpt>
      <trkpt lat="42.789549" lon="-0.152220">
        <ele>2433.192</ele>
        <time>2022-04-27T12:40:50Z</time>
      </trkpt>
      <trkpt lat="42.789608" lon="-0.152091">
        <ele>2428.814</ele>
        <time>2022-04-27T12:40:50Z</time>
      </trkpt>
      <trkpt lat="42.789693" lon="-0.152080">
        <ele>2425.598</ele>
        <time>2022-04-27T12:40:50Z</time>
      </trkpt>
      <trkpt lat="42.789813" lon="-0.151642">
        <ele>2413.615</ele>
        <time>2022-04-27T12:40:50Z</time>
      </trkpt>
      <trkpt lat="42.789866" lon="-0.151670">
        <ele>2411.926</ele>
        <time>2022-04-27T12:40:50Z</time>
      </trkpt>
      <trkpt lat="42.789912" lon="-0.151514">
        <ele>2408.209</ele>
        <time>2022-04-27T12:40:50Z</time>
      </trkpt>
      <trkpt lat="42.790115" lon="-0.151605">
        <ele>2401.830</ele>
        <time>2022-04-27T12:40:50Z</time>
      </trkpt>
      <trkpt lat="42.790207" lon="-0.151382">
        <ele>2396.269</ele>
        <time>2022-04-27T12:40:50Z</time>
      </trkpt>
      <trkpt lat="42.790270" lon="-0.151431">
        <ele>2394.070</ele>
        <time>2022-04-27T12:40:50Z</time>
      </trkpt>
      <trkpt lat="42.790446" lon="-0.151425">
        <ele>2388.740</ele>
        <time>2022-04-27T12:40:50Z</time>
      </trkpt>
      <trkpt lat="42.790512" lon="-0.151227">
        <ele>2383.926</ele>
        <time>2022-04-27T12:40:50Z</time>
      </trkpt>
      <trkpt lat="42.790479" lon="-0.151116">
        <ele>2381.347</ele>
        <time>2022-04-27T12:40:50Z</time>
      </trkpt>
      <trkpt lat="42.790681" lon="-0.150949">
        <ele>2374.224</ele>
        <time>2022-04-27T12:40:50Z</time>
      </trkpt>
      <trkpt lat="42.790737" lon="-0.150809">
        <ele>2370.736</ele>
        <time>2022-04-27T12:40:50Z</time>
      </trkpt>
      <trkpt lat="42.790751" lon="-0.150694">
        <ele>2368.168</ele>
        <time>2022-04-27T12:40:50Z</time>
      </trkpt>
      <trkpt lat="42.790566" lon="-0.150724">
        <ele>2362.529</ele>
        <time>2022-04-27T12:40:50Z</time>
      </trkpt>
      <trkpt lat="42.790729" lon="-0.149866">
        <ele>2342.400</ele>
        <time>2022-04-27T12:40:50Z</time>
      </trkpt>
      <trkpt lat="42.790756" lon="-0.149380">
        <ele>2331.320</ele>
        <time>2022-04-27T12:40:50Z</time>
      </trkpt>
      <trkpt lat="42.790482" lon="-0.149596">
        <ele>2321.509</ele>
        <time>2022-04-27T12:40:50Z</time>
      </trkpt>
      <trkpt lat="42.790130" lon="-0.149519">
        <ele>2310.513</ele>
        <time>2022-04-27T12:40:50Z</time>
      </trkpt>
      <trkpt lat="42.789990" lon="-0.149334">
        <ele>2304.362</ele>
        <time>2022-04-27T12:40:50Z</time>
      </trkpt>
      <trkpt lat="42.789902" lon="-0.149328">
        <ele>2301.443</ele>
        <time>2022-04-27T12:40:50Z</time>
      </trkpt>
      <trkpt lat="42.789825" lon="-0.149044">
        <ele>2294.293</ele>
        <time>2022-04-27T12:40:50Z</time>
      </trkpt>
      <trkpt lat="42.789688" lon="-0.148801">
        <ele>2286.969</ele>
        <time>2022-04-27T12:40:50Z</time>
      </trkpt>
      <trkpt lat="42.789558" lon="-0.148769">
        <ele>2282.650</ele>
        <time>2022-04-27T12:40:50Z</time>
      </trkpt>
      <trkpt lat="42.789460" lon="-0.148458">
        <ele>2274.517</ele>
        <time>2022-04-27T12:40:50Z</time>
      </trkpt>
      <trkpt lat="42.789447" lon="-0.148014">
        <ele>2263.969</ele>
        <time>2022-04-27T12:40:50Z</time>
      </trkpt>
      <trkpt lat="42.789557" lon="-0.147968">
        <ele>2260.221</ele>
        <time>2022-04-27T12:40:50Z</time>
      </trkpt>
      <trkpt lat="42.789542" lon="-0.147915">
        <ele>2258.839</ele>
        <time>2022-04-27T12:40:50Z</time>
      </trkpt>
      <trkpt lat="42.789418" lon="-0.147797">
        <ele>2253.901</ele>
        <time>2022-04-27T12:40:50Z</time>
      </trkpt>
      <trkpt lat="42.789369" lon="-0.147823">
        <ele>2252.221</ele>
        <time>2022-04-27T12:40:50Z</time>
      </trkpt>
      <trkpt lat="42.789283" lon="-0.147624">
        <ele>2247.509</ele>
        <time>2022-04-27T12:40:50Z</time>
      </trkpt>
      <trkpt lat="42.789167" lon="-0.147538">
        <ele>2244.254</ele>
        <time>2022-04-27T12:40:50Z</time>
      </trkpt>
      <trkpt lat="42.789208" lon="-0.147432">
        <ele>2242.043</ele>
        <time>2022-04-27T12:40:50Z</time>
      </trkpt>
      <trkpt lat="42.788871" lon="-0.146951">
        <ele>2230.044</ele>
        <time>2022-04-27T12:40:50Z</time>
      </trkpt>
      <trkpt lat="42.788928" lon="-0.146840">
        <ele>2227.544</ele>
        <time>2022-04-27T12:40:50Z</time>
      </trkpt>
      <trkpt lat="42.789205" lon="-0.146826">
        <ele>2220.720</ele>
        <time>2022-04-27T12:40:50Z</time>
      </trkpt>
      <trkpt lat="42.789381" lon="-0.146898">
        <ele>2216.241</ele>
        <time>2022-04-27T12:40:50Z</time>
      </trkpt>
      <trkpt lat="42.789560" lon="-0.146787">
        <ele>2211.358</ele>
        <time>2022-04-27T12:40:50Z</time>
      </trkpt>
      <trkpt lat="42.789591" lon="-0.146728">
        <ele>2210.010</ele>
        <time>2022-04-27T12:40:50Z</time>
      </trkpt>
      <trkpt lat="42.789508" lon="-0.146621">
        <ele>2207.292</ele>
        <time>2022-04-27T12:40:50Z</time>
      </trkpt>
      <trkpt lat="42.789710" lon="-0.146501">
        <ele>2201.966</ele>
        <time>2022-04-27T12:40:50Z</time>
      </trkpt>
      <trkpt lat="42.789482" lon="-0.146096">
        <ele>2193.129</ele>
        <time>2022-04-27T12:40:50Z</time>
      </trkpt>
      <trkpt lat="42.789538" lon="-0.146032">
        <ele>2191.421</ele>
        <time>2022-04-27T12:40:50Z</time>
      </trkpt>
      <trkpt lat="42.789486" lon="-0.145980">
        <ele>2189.909</ele>
        <time>2022-04-27T12:40:50Z</time>
      </trkpt>
      <trkpt lat="42.789561" lon="-0.145771">
        <ele>2185.977</ele>
        <time>2022-04-27T12:40:50Z</time>
      </trkpt>
      <trkpt lat="42.789766" lon="-0.145680">
        <ele>2180.866</ele>
        <time>2022-04-27T12:40:50Z</time>
      </trkpt>
      <trkpt lat="42.789749" lon="-0.145499">
        <ele>2177.717</ele>
        <time>2022-04-27T12:40:50Z</time>
      </trkpt>
      <trkpt lat="42.789807" lon="-0.145378">
        <ele>2175.297</ele>
        <time>2022-04-27T12:40:50Z</time>
      </trkpt>
      <trkpt lat="42.790167" lon="-0.145160">
        <ele>2165.953</ele>
        <time>2022-04-27T12:40:50Z</time>
      </trkpt>
      <trkpt lat="42.790236" lon="-0.145033">
        <ele>2163.274</ele>
        <time>2022-04-27T12:40:50Z</time>
      </trkpt>
      <trkpt lat="42.790232" lon="-0.144713">
        <ele>2160.271</ele>
        <time>2022-04-27T12:40:50Z</time>
      </trkpt>
      <trkpt lat="42.790133" lon="-0.144453">
        <ele>2157.513</ele>
        <time>2022-04-27T12:40:50Z</time>
      </trkpt>
      <trkpt lat="42.790402" lon="-0.143771">
        <ele>2150.395</ele>
        <time>2022-04-27T12:40:50Z</time>
      </trkpt>
      <trkpt lat="42.791260" lon="-0.143583">
        <ele>2140.622</ele>
        <time>2022-04-27T12:40:50Z</time>
      </trkpt>
      <trkpt lat="42.791574" lon="-0.143422">
        <ele>2141.062</ele>
        <time>2022-04-27T12:40:50Z</time>
      </trkpt>
      <trkpt lat="42.791914" lon="-0.143358">
        <ele>2141.408</ele>
        <time>2022-04-27T12:40:50Z</time>
      </trkpt>
      <trkpt lat="42.791984" lon="-0.143270">
        <ele>2141.509</ele>
        <time>2022-04-27T12:40:50Z</time>
      </trkpt>
      <trkpt lat="42.792127" lon="-0.143228">
        <ele>2141.773</ele>
        <time>2022-04-27T12:40:50Z</time>
      </trkpt>
      <trkpt lat="42.792212" lon="-0.143055">
        <ele>2141.932</ele>
        <time>2022-04-27T12:40:50Z</time>
      </trkpt>
      <trkpt lat="42.792532" lon="-0.142684">
        <ele>2142.423</ele>
        <time>2022-04-27T12:40:50Z</time>
      </trkpt>
      <trkpt lat="42.792683" lon="-0.142699">
        <ele>2142.663</ele>
        <time>2022-04-27T12:40:50Z</time>
      </trkpt>
      <trkpt lat="42.792772" lon="-0.142627">
        <ele>2142.779</ele>
        <time>2022-04-27T12:40:50Z</time>
      </trkpt>
      <trkpt lat="42.792946" lon="-0.142709">
        <ele>2142.760</ele>
        <time>2022-04-27T12:40:50Z</time>
      </trkpt>
      <trkpt lat="42.793396" lon="-0.142165">
        <ele>2142.717</ele>
        <time>2022-04-27T12:40:50Z</time>
      </trkpt>
      <trkpt lat="42.793425" lon="-0.142027">
        <ele>2142.759</ele>
        <time>2022-04-27T12:40:50Z</time>
      </trkpt>
      <trkpt lat="42.793360" lon="-0.141933">
        <ele>2142.781</ele>
        <time>2022-04-27T12:40:50Z</time>
      </trkpt>
      <trkpt lat="42.793282" lon="-0.141953">
        <ele>2142.757</ele>
        <time>2022-04-27T12:40:50Z</time>
      </trkpt>
      <trkpt lat="42.792749" lon="-0.141619">
        <ele>2142.700</ele>
        <time>2022-04-27T12:40:50Z</time>
      </trkpt>
      <trkpt lat="42.792662" lon="-0.141253">
        <ele>2142.720</ele>
        <time>2022-04-27T12:40:50Z</time>
      </trkpt>
      <trkpt lat="42.792732" lon="-0.140986">
        <ele>2142.709</ele>
        <time>2022-04-27T12:40:50Z</time>
      </trkpt>
      <trkpt lat="42.792624" lon="-0.140682">
        <ele>2142.746</ele>
        <time>2022-04-27T12:40:50Z</time>
      </trkpt>
      <trkpt lat="42.792624" lon="-0.140682">
        <ele>2219.086</ele>
        <time>2022-04-27T12:40:30Z</time>
      </trkpt>
      <trkpt lat="42.792579" lon="-0.140557">
        <ele>2219.060</ele>
        <time>2022-04-27T12:40:30Z</time>
      </trkpt>
      <trkpt lat="42.792253" lon="-0.140167">
        <ele>2219.026</ele>
        <time>2022-04-27T12:40:30Z</time>
      </trkpt>
      <trkpt lat="42.790781" lon="-0.138849">
        <ele>2246.009</ele>
        <time>2022-04-27T12:40:30Z</time>
      </trkpt>
      <trkpt lat="42.790464" lon="-0.138973">
        <ele>2252.429</ele>
        <time>2022-04-27T12:40:30Z</time>
      </trkpt>
      <trkpt lat="42.790235" lon="-0.138948">
        <ele>2257.758</ele>
        <time>2022-04-27T12:40:30Z</time>
      </trkpt>
      <trkpt lat="42.789924" lon="-0.138804">
        <ele>2265.859</ele>
        <time>2022-04-27T12:40:30Z</time>
      </trkpt>
      <trkpt lat="42.790033" lon="-0.138759">
        <ele>2268.679</ele>
        <time>2022-04-27T12:40:30Z</time>
      </trkpt>
      <trkpt lat="42.789976" lon="-0.138701">
        <ele>2270.465</ele>
        <time>2022-04-27T12:40:30Z</time>
      </trkpt>
      <trkpt lat="42.789616" lon="-0.138528">
        <ele>2279.826</ele>
        <time>2022-04-27T12:40:30Z</time>
      </trkpt>
      <trkpt lat="42.789565" lon="-0.138451">
        <ele>2281.713</ele>
        <time>2022-04-27T12:40:30Z</time>
      </trkpt>
      <trkpt lat="42.789602" lon="-0.138414">
        <ele>2282.893</ele>
        <time>2022-04-27T12:40:30Z</time>
      </trkpt>
      <trkpt lat="42.789805" lon="-0.138393">
        <ele>2287.828</ele>
        <time>2022-04-27T12:40:30Z</time>
      </trkpt>
      <trkpt lat="42.789581" lon="-0.138166">
        <ele>2294.713</ele>
        <time>2022-04-27T12:40:30Z</time>
      </trkpt>
      <trkpt lat="42.788877" lon="-0.137989">
        <ele>2311.043</ele>
        <time>2022-04-27T12:40:30Z</time>
      </trkpt>
      <trkpt lat="42.788536" lon="-0.138089">
        <ele>2318.807</ele>
        <time>2022-04-27T12:40:30Z</time>
      </trkpt>
      <trkpt lat="42.787951" lon="-0.137794">
        <ele>2332.709</ele>
        <time>2022-04-27T12:40:30Z</time>
      </trkpt>
      <trkpt lat="42.788143" lon="-0.137524">
        <ele>2338.862</ele>
        <time>2022-04-27T12:40:30Z</time>
      </trkpt>
      <trkpt lat="42.788485" lon="-0.137285">
        <ele>2347.261</ele>
        <time>2022-04-27T12:40:30Z</time>
      </trkpt>
      <trkpt lat="42.789245" lon="-0.137099">
        <ele>2364.142</ele>
        <time>2022-04-27T12:40:30Z</time>
      </trkpt>
      <trkpt lat="42.789472" lon="-0.137004">
        <ele>2369.382</ele>
        <time>2022-04-27T12:40:30Z</time>
      </trkpt>
      <trkpt lat="42.789555" lon="-0.136839">
        <ele>2372.548</ele>
        <time>2022-04-27T12:40:30Z</time>
      </trkpt>
      <trkpt lat="42.789637" lon="-0.136810">
        <ele>2374.459</ele>
        <time>2022-04-27T12:40:30Z</time>
      </trkpt>
      <trkpt lat="42.789848" lon="-0.136866">
        <ele>2378.976</ele>
        <time>2022-04-27T12:40:30Z</time>
      </trkpt>
      <trkpt lat="42.790205" lon="-0.136696">
        <ele>2385.866</ele>
        <time>2022-04-27T12:40:30Z</time>
      </trkpt>
      <trkpt lat="42.790028" lon="-0.136447">
        <ele>2390.461</ele>
        <time>2022-04-27T12:40:30Z</time>
      </trkpt>
      <trkpt lat="42.790302" lon="-0.136384">
        <ele>2395.588</ele>
        <time>2022-04-27T12:40:30Z</time>
      </trkpt>
      <trkpt lat="42.790018" lon="-0.136146">
        <ele>2401.624</ele>
        <time>2022-04-27T12:40:30Z</time>
      </trkpt>
      <trkpt lat="42.790354" lon="-0.136088">
        <ele>2407.826</ele>
        <time>2022-04-27T12:40:30Z</time>
      </trkpt>
      <trkpt lat="42.790311" lon="-0.136010">
        <ele>2409.109</ele>
        <time>2022-04-27T12:40:30Z</time>
      </trkpt>
      <trkpt lat="42.790403" lon="-0.135976">
        <ele>2410.649</ele>
        <time>2022-04-27T12:40:30Z</time>
      </trkpt>
      <trkpt lat="42.790321" lon="-0.135893">
        <ele>2411.328</ele>
        <time>2022-04-27T12:40:30Z</time>
      </trkpt>
      <trkpt lat="42.790536" lon="-0.135946">
        <ele>2412.819</ele>
        <time>2022-04-27T12:40:30Z</time>
      </trkpt>
      <trkpt lat="42.790668" lon="-0.135878">
        <ele>2413.859</ele>
        <time>2022-04-27T12:40:30Z</time>
      </trkpt>
      <trkpt lat="42.790356" lon="-0.135585">
        <ele>2416.415</ele>
        <time>2022-04-27T12:40:30Z</time>
      </trkpt>
      <trkpt lat="42.790640" lon="-0.135456">
        <ele>2418.576</ele>
        <time>2022-04-27T12:40:30Z</time>
      </trkpt>
      <trkpt lat="42.790067" lon="-0.135164">
        <ele>2422.843</ele>
        <time>2022-04-27T12:40:30Z</time>
      </trkpt>
      <trkpt lat="42.789880" lon="-0.135192">
        <ele>2423.643</ele>
        <time>2022-04-27T12:40:30Z</time>
      </trkpt>
      <trkpt lat="42.789701" lon="-0.134990">
        <ele>2424.438</ele>
        <time>2022-04-27T12:40:30Z</time>
      </trkpt>
      <trkpt lat="42.789832" lon="-0.134963">
        <ele>2424.963</ele>
        <time>2022-04-27T12:40:30Z</time>
      </trkpt>
      <trkpt lat="42.790103" lon="-0.134755">
        <ele>2426.044</ele>
        <time>2022-04-27T12:40:30Z</time>
      </trkpt>
      <trkpt lat="42.790581" lon="-0.134640">
        <ele>2427.718</ele>
        <time>2022-04-27T12:40:30Z</time>
      </trkpt>
      <trkpt lat="42.790581" lon="-0.134563">
        <ele>2427.909</ele>
        <time>2022-04-27T12:40:30Z</time>
      </trkpt>
      <trkpt lat="42.790400" lon="-0.134446">
        <ele>2428.687</ele>
        <time>2022-04-27T12:40:30Z</time>
      </trkpt>
      <trkpt lat="42.790171" lon="-0.134378">
        <ele>2429.546</ele>
        <time>2022-04-27T12:40:30Z</time>
      </trkpt>
      <trkpt lat="42.790216" lon="-0.134222">
        <ele>2430.767</ele>
        <time>2022-04-27T12:40:30Z</time>
      </trkpt>
      <trkpt lat="42.790667" lon="-0.133775">
        <ele>2436.357</ele>
        <time>2022-04-27T12:40:30Z</time>
      </trkpt>
      <trkpt lat="42.790498" lon="-0.133638">
        <ele>2438.323</ele>
        <time>2022-04-27T12:40:30Z</time>
      </trkpt>
      <trkpt lat="42.790247" lon="-0.133603">
        <ele>2440.854</ele>
        <time>2022-04-27T12:40:30Z</time>
      </trkpt>
      <trkpt lat="42.790571" lon="-0.133288">
        <ele>2444.831</ele>
        <time>2022-04-27T12:40:30Z</time>
      </trkpt>
      <trkpt lat="42.790321" lon="-0.133284">
        <ele>2447.371</ele>
        <time>2022-04-27T12:40:30Z</time>
      </trkpt>
      <trkpt lat="42.790489" lon="-0.133042">
        <ele>2450.936</ele>
        <time>2022-04-27T12:40:30Z</time>
      </trkpt>
      <trkpt lat="42.789876" lon="-0.133075">
        <ele>2460.092</ele>
        <time>2022-04-27T12:40:30Z</time>
      </trkpt>
      <trkpt lat="42.790095" lon="-0.132669">
        <ele>2465.573</ele>
        <time>2022-04-27T12:40:30Z</time>
      </trkpt>
      <trkpt lat="42.790080" lon="-0.132597">
        <ele>2466.320</ele>
        <time>2022-04-27T12:40:30Z</time>
      </trkpt>
      <trkpt lat="42.789926" lon="-0.132603">
        <ele>2468.609</ele>
        <time>2022-04-27T12:40:30Z</time>
      </trkpt>
      <trkpt lat="42.789948" lon="-0.132540">
        <ele>2469.430</ele>
        <time>2022-04-27T12:40:30Z</time>
      </trkpt>
      <trkpt lat="42.789914" lon="-0.132507">
        <ele>2470.079</ele>
        <time>2022-04-27T12:40:30Z</time>
      </trkpt>
      <trkpt lat="42.789715" lon="-0.132608">
        <ele>2473.260</ele>
        <time>2022-04-27T12:40:30Z</time>
      </trkpt>
      <trkpt lat="42.789652" lon="-0.132542">
        <ele>2474.580</ele>
        <time>2022-04-27T12:40:30Z</time>
      </trkpt>
      <trkpt lat="42.789544" lon="-0.132550">
        <ele>2476.856</ele>
        <time>2022-04-27T12:40:30Z</time>
      </trkpt>
      <trkpt lat="42.789506" lon="-0.132478">
        <ele>2478.277</ele>
        <time>2022-04-27T12:40:30Z</time>
      </trkpt>
      <trkpt lat="42.789287" lon="-0.132491">
        <ele>2482.854</ele>
        <time>2022-04-27T12:40:30Z</time>
      </trkpt>
      <trkpt lat="42.789192" lon="-0.132604">
        <ele>2485.584</ele>
        <time>2022-04-27T12:40:30Z</time>
      </trkpt>
      <trkpt lat="42.789112" lon="-0.132598">
        <ele>2487.249</ele>
        <time>2022-04-27T12:40:30Z</time>
      </trkpt>
      <trkpt lat="42.788996" lon="-0.132706">
        <ele>2490.233</ele>
        <time>2022-04-27T12:40:30Z</time>
      </trkpt>
      <trkpt lat="42.788768" lon="-0.133084">
        <ele>2497.823</ele>
        <time>2022-04-27T12:40:30Z</time>
      </trkpt>
      <trkpt lat="42.788671" lon="-0.133106">
        <ele>2499.915</ele>
        <time>2022-04-27T12:40:30Z</time>
      </trkpt>
      <trkpt lat="42.788604" lon="-0.132971">
        <ele>2502.409</ele>
        <time>2022-04-27T12:40:30Z</time>
      </trkpt>
      <trkpt lat="42.788486" lon="-0.133013">
        <ele>2505.054</ele>
        <time>2022-04-27T12:40:30Z</time>
      </trkpt>
      <trkpt lat="42.788349" lon="-0.132916">
        <ele>2508.373</ele>
        <time>2022-04-27T12:40:30Z</time>
      </trkpt>
      <trkpt lat="42.788021" lon="-0.132989">
        <ele>2516.454</ele>
        <time>2022-04-27T12:40:30Z</time>
      </trkpt>
      <trkpt lat="42.787861" lon="-0.133244">
        <ele>2523.514</ele>
        <time>2022-04-27T12:40:30Z</time>
      </trkpt>
      <trkpt lat="42.787769" lon="-0.133079">
        <ele>2527.980</ele>
        <time>2022-04-27T12:40:30Z</time>
      </trkpt>
      <trkpt lat="42.787612" lon="-0.133175">
        <ele>2532.911</ele>
        <time>2022-04-27T12:40:30Z</time>
      </trkpt>
      <trkpt lat="42.787552" lon="-0.133104">
        <ele>2535.248</ele>
        <time>2022-04-27T12:40:30Z</time>
      </trkpt>
      <trkpt lat="42.787280" lon="-0.133145">
        <ele>2543.128</ele>
        <time>2022-04-27T12:40:30Z</time>
      </trkpt>
      <trkpt lat="42.787191" lon="-0.133270">
        <ele>2546.873</ele>
        <time>2022-04-27T12:40:30Z</time>
      </trkpt>
      <trkpt lat="42.786665" lon="-0.133276">
        <ele>2562.029</ele>
        <time>2022-04-27T12:40:30Z</time>
      </trkpt>
      <trkpt lat="42.786381" lon="-0.133355">
        <ele>2569.100</ele>
        <time>2022-04-27T12:40:30Z</time>
      </trkpt>
      <trkpt lat="42.785868" lon="-0.133608">
        <ele>2581.520</ele>
        <time>2022-04-27T12:40:30Z</time>
      </trkpt>
      <trkpt lat="42.785619" lon="-0.133959">
        <ele>2589.709</ele>
        <time>2022-04-27T12:40:30Z</time>
      </trkpt>
      <trkpt lat="42.785316" lon="-0.134163">
        <ele>2597.473</ele>
        <time>2022-04-27T12:40:30Z</time>
      </trkpt>
      <trkpt lat="42.785221" lon="-0.134168">
        <ele>2599.642</ele>
        <time>2022-04-27T12:40:30Z</time>
      </trkpt>
      <trkpt lat="42.785106" lon="-0.134370">
        <ele>2603.953</ele>
        <time>2022-04-27T12:40:30Z</time>
      </trkpt>
      <trkpt lat="42.784954" lon="-0.134444">
        <ele>2607.243</ele>
        <time>2022-04-27T12:40:30Z</time>
      </trkpt>
      <trkpt lat="42.784968" lon="-0.134273">
        <ele>2609.579</ele>
        <time>2022-04-27T12:40:30Z</time>
      </trkpt>
      <trkpt lat="42.784848" lon="-0.134340">
        <ele>2611.910</ele>
        <time>2022-04-27T12:40:30Z</time>
      </trkpt>
      <trkpt lat="42.784818" lon="-0.134197">
        <ele>2613.997</ele>
        <time>2022-04-27T12:40:30Z</time>
      </trkpt>
      <trkpt lat="42.784706" lon="-0.134440">
        <ele>2617.877</ele>
        <time>2022-04-27T12:40:30Z</time>
      </trkpt>
      <trkpt lat="42.784533" lon="-0.134516">
        <ele>2621.252</ele>
        <time>2022-04-27T12:40:30Z</time>
      </trkpt>
      <trkpt lat="42.783970" lon="-0.134473">
        <ele>2631.768</ele>
        <time>2022-04-27T12:40:30Z</time>
      </trkpt>
      <trkpt lat="42.783731" lon="-0.134551">
        <ele>2636.342</ele>
        <time>2022-04-27T12:40:30Z</time>
      </trkpt>
      <trkpt lat="42.783630" lon="-0.134525">
        <ele>2638.226</ele>
        <time>2022-04-27T12:40:30Z</time>
      </trkpt>
      <trkpt lat="42.783588" lon="-0.134306">
        <ele>2641.109</ele>
        <time>2022-04-27T12:40:30Z</time>
      </trkpt>
      <trkpt lat="42.783397" lon="-0.134263">
        <ele>2644.587</ele>
        <time>2022-04-27T12:40:30Z</time>
      </trkpt>
      <trkpt lat="42.783209" lon="-0.134491">
        <ele>2648.936</ele>
        <time>2022-04-27T12:40:30Z</time>
      </trkpt>
      <trkpt lat="42.782907" lon="-0.134327">
        <ele>2654.687</ele>
        <time>2022-04-27T12:40:30Z</time>
      </trkpt>
      <trkpt lat="42.782795" lon="-0.134321">
        <ele>2656.667</ele>
        <time>2022-04-27T12:40:30Z</time>
      </trkpt>
      <trkpt lat="42.782633" lon="-0.134353">
        <ele>2659.523</ele>
        <time>2022-04-27T12:40:30Z</time>
      </trkpt>
      <trkpt lat="42.782557" lon="-0.134449">
        <ele>2661.334</ele>
        <time>2022-04-27T12:40:30Z</time>
      </trkpt>
      <trkpt lat="42.782413" lon="-0.134412">
        <ele>2663.931</ele>
        <time>2022-04-27T12:40:30Z</time>
      </trkpt>
      <trkpt lat="42.782312" lon="-0.134461">
        <ele>2665.831</ele>
        <time>2022-04-27T12:40:30Z</time>
      </trkpt>
      <trkpt lat="42.781985" lon="-0.134448">
        <ele>2671.456</ele>
        <time>2022-04-27T12:40:30Z</time>
      </trkpt>
      <trkpt lat="42.781620" lon="-0.134163">
        <ele>2677.745</ele>
        <time>2022-04-27T12:40:30Z</time>
      </trkpt>
      <trkpt lat="42.781442" lon="-0.133955">
        <ele>2681.247</ele>
        <time>2022-04-27T12:40:30Z</time>
      </trkpt>
      <trkpt lat="42.781235" lon="-0.133655">
        <ele>2685.711</ele>
        <time>2022-04-27T12:40:30Z</time>
      </trkpt>
      <trkpt lat="42.781383" lon="-0.133600">
        <ele>2688.009</ele>
        <time>2022-04-27T12:40:30Z</time>
      </trkpt>
      <trkpt lat="42.781194" lon="-0.133399">
        <ele>2691.625</ele>
        <time>2022-04-27T12:40:30Z</time>
      </trkpt>
      <trkpt lat="42.781067" lon="-0.133351">
        <ele>2693.664</ele>
        <time>2022-04-27T12:40:30Z</time>
      </trkpt>
      <trkpt lat="42.781339" lon="-0.133248">
        <ele>2697.755</ele>
        <time>2022-04-27T12:40:30Z</time>
      </trkpt>
      <trkpt lat="42.780879" lon="-0.132911">
        <ele>2703.185</ele>
        <time>2022-04-27T12:40:30Z</time>
      </trkpt>
      <trkpt lat="42.780054" lon="-0.132557">
        <ele>2712.061</ele>
        <time>2022-04-27T12:40:30Z</time>
      </trkpt>
      <trkpt lat="42.779601" lon="-0.132182">
        <ele>2715.092</ele>
        <time>2022-04-27T12:40:30Z</time>
      </trkpt>
      <trkpt lat="42.779533" lon="-0.132010">
        <ele>2714.229</ele>
        <time>2022-04-27T12:40:30Z</time>
      </trkpt>
      <trkpt lat="42.779723" lon="-0.132001">
        <ele>2713.149</ele>
        <time>2022-04-27T12:40:30Z</time>
      </trkpt>
      <trkpt lat="42.779378" lon="-0.131677">
        <ele>2710.724</ele>
        <time>2022-04-27T12:40:30Z</time>
      </trkpt>
      <trkpt lat="42.779591" lon="-0.131625">
        <ele>2709.521</ele>
        <time>2022-04-27T12:40:30Z</time>
      </trkpt>
      <trkpt lat="42.779288" lon="-0.131346">
        <ele>2707.441</ele>
        <time>2022-04-27T12:40:30Z</time>
      </trkpt>
      <trkpt lat="42.779431" lon="-0.130884">
        <ele>2704.705</ele>
        <time>2022-04-27T12:40:30Z</time>
      </trkpt>
      <trkpt lat="42.779887" lon="-0.130126">
        <ele>2692.009</ele>
        <time>2022-04-27T12:40:30Z</time>
      </trkpt>
      <trkpt lat="42.779970" lon="-0.129826">
        <ele>2687.963</ele>
        <time>2022-04-27T12:40:30Z</time>
      </trkpt>
      <trkpt lat="42.780037" lon="-0.128868">
        <ele>2675.482</ele>
        <time>2022-04-27T12:40:30Z</time>
      </trkpt>
      <trkpt lat="42.779942" lon="-0.128935">
        <ele>2673.733</ele>
        <time>2022-04-27T12:40:30Z</time>
      </trkpt>
      <trkpt lat="42.779923" lon="-0.128543">
        <ele>2670.783</ele>
        <time>2022-04-27T12:40:30Z</time>
      </trkpt>
      <trkpt lat="42.780087" lon="-0.127669">
        <ele>2663.839</ele>
        <time>2022-04-27T12:40:30Z</time>
      </trkpt>
      <trkpt lat="42.779779" lon="-0.127904">
        <ele>2660.130</ele>
        <time>2022-04-27T12:40:30Z</time>
      </trkpt>
      <trkpt lat="42.779739" lon="-0.127880">
        <ele>2659.677</ele>
        <time>2022-04-27T12:40:30Z</time>
      </trkpt>
      <trkpt lat="42.779812" lon="-0.127437">
        <ele>2656.187</ele>
        <time>2022-04-27T12:40:30Z</time>
      </trkpt>
      <trkpt lat="42.780148" lon="-0.126775">
        <ele>2651.552</ele>
        <time>2022-04-27T12:40:30Z</time>
      </trkpt>
      <trkpt lat="42.779854" lon="-0.126779">
        <ele>2649.345</ele>
        <time>2022-04-27T12:40:30Z</time>
      </trkpt>
      <trkpt lat="42.779676" lon="-0.126870">
        <ele>2647.947</ele>
        <time>2022-04-27T12:40:30Z</time>
      </trkpt>
      <trkpt lat="42.779564" lon="-0.126747">
        <ele>2646.811</ele>
        <time>2022-04-27T12:40:30Z</time>
      </trkpt>
      <trkpt lat="42.779526" lon="-0.126207">
        <ele>2643.909</ele>
        <time>2022-04-27T12:40:30Z</time>
      </trkpt>
      <trkpt lat="42.779575" lon="-0.125646">
        <ele>2639.635</ele>
        <time>2022-04-27T12:40:30Z</time>
      </trkpt>
      <trkpt lat="42.779584" lon="-0.125585">
        <ele>2638.934</ele>
        <time>2022-04-27T12:40:30Z</time>
      </trkpt>
      <trkpt lat="42.779432" lon="-0.125277">
        <ele>2634.595</ele>
        <time>2022-04-27T12:40:30Z</time>
      </trkpt>
      <trkpt lat="42.779294" lon="-0.124633">
        <ele>2626.695</ele>
        <time>2022-04-27T12:40:30Z</time>
      </trkpt>
      <trkpt lat="42.779293" lon="-0.124304">
        <ele>2622.711</ele>
        <time>2022-04-27T12:40:30Z</time>
      </trkpt>
      <trkpt lat="42.779248" lon="-0.124165">
        <ele>2620.912</ele>
        <time>2022-04-27T12:40:30Z</time>
      </trkpt>
      <trkpt lat="42.779117" lon="-0.124113">
        <ele>2618.749</ele>
        <time>2022-04-27T12:40:30Z</time>
      </trkpt>
      <trkpt lat="42.778991" lon="-0.123842">
        <ele>2614.939</ele>
        <time>2022-04-27T12:40:30Z</time>
      </trkpt>
      <trkpt lat="42.778751" lon="-0.124064">
        <ele>2607.734</ele>
        <time>2022-04-27T12:40:30Z</time>
      </trkpt>
      <trkpt lat="42.778497" lon="-0.123136">
        <ele>2584.922</ele>
        <time>2022-04-27T12:40:30Z</time>
      </trkpt>
      <trkpt lat="42.778503" lon="-0.122836">
        <ele>2578.062</ele>
        <time>2022-04-27T12:40:30Z</time>
      </trkpt>
      <trkpt lat="42.778383" lon="-0.122785">
        <ele>2574.108</ele>
        <time>2022-04-27T12:40:30Z</time>
      </trkpt>
      <trkpt lat="42.778438" lon="-0.122527">
        <ele>2567.909</ele>
        <time>2022-04-27T12:40:30Z</time>
      </trkpt>
      <trkpt lat="42.778188" lon="-0.122393">
        <ele>2559.523</ele>
        <time>2022-04-27T12:40:30Z</time>
      </trkpt>
      <trkpt lat="42.778129" lon="-0.122281">
        <ele>2556.372</ele>
        <time>2022-04-27T12:40:30Z</time>
      </trkpt>
      <trkpt lat="42.778060" lon="-0.122396">
        <ele>2552.143</ele>
        <time>2022-04-27T12:40:30Z</time>
      </trkpt>
      <trkpt lat="42.777973" lon="-0.122149">
        <ele>2544.343</ele>
        <time>2022-04-27T12:40:30Z</time>
      </trkpt>
      <trkpt lat="42.777834" lon="-0.122050">
        <ele>2538.229</ele>
        <time>2022-04-27T12:40:30Z</time>
      </trkpt>
      <trkpt lat="42.777724" lon="-0.121583">
        <ele>2524.230</ele>
        <time>2022-04-27T12:40:30Z</time>
      </trkpt>
      <trkpt lat="42.777483" lon="-0.121214">
        <ele>2510.167</ele>
        <time>2022-04-27T12:40:30Z</time>
      </trkpt>
      <trkpt lat="42.777399" lon="-0.120954">
        <ele>2502.097</ele>
        <time>2022-04-27T12:40:30Z</time>
      </trkpt>
      <trkpt lat="42.777427" lon="-0.120933">
        <ele>2500.822</ele>
        <time>2022-04-27T12:40:30Z</time>
      </trkpt>
      <trkpt lat="42.777368" lon="-0.120817">
        <ele>2496.858</ele>
        <time>2022-04-27T12:40:30Z</time>
      </trkpt>
      <trkpt lat="42.777445" lon="-0.120758">
        <ele>2493.452</ele>
        <time>2022-04-27T12:40:30Z</time>
      </trkpt>
      <trkpt lat="42.777320" lon="-0.120678">
        <ele>2488.017</ele>
        <time>2022-04-27T12:40:30Z</time>
      </trkpt>
      <trkpt lat="42.777411" lon="-0.120505">
        <ele>2483.909</ele>
        <time>2022-04-27T12:40:30Z</time>
      </trkpt>
      <trkpt lat="42.777278" lon="-0.120482">
        <ele>2480.816</ele>
        <time>2022-04-27T12:40:30Z</time>
      </trkpt>
      <trkpt lat="42.777048" lon="-0.120666">
        <ele>2474.625</ele>
        <time>2022-04-27T12:40:30Z</time>
      </trkpt>
      <trkpt lat="42.776818" lon="-0.121055">
        <ele>2466.126</ele>
        <time>2022-04-27T12:40:30Z</time>
      </trkpt>
      <trkpt lat="42.776818" lon="-0.120728">
        <ele>2460.536</ele>
        <time>2022-04-27T12:40:30Z</time>
      </trkpt>
      <trkpt lat="42.776694" lon="-0.120924">
        <ele>2456.182</ele>
        <time>2022-04-27T12:40:30Z</time>
      </trkpt>
      <trkpt lat="42.776385" lon="-0.121658">
        <ele>2445.643</ele>
        <time>2022-04-27T12:40:30Z</time>
      </trkpt>
      <trkpt lat="42.776216" lon="-0.121930">
        <ele>2446.640</ele>
        <time>2022-04-27T12:40:30Z</time>
      </trkpt>
      <trkpt lat="42.775626" lon="-0.122482">
        <ele>2449.490</ele>
        <time>2022-04-27T12:40:30Z</time>
      </trkpt>
      <trkpt lat="42.775471" lon="-0.122744">
        <ele>2450.475</ele>
        <time>2022-04-27T12:40:30Z</time>
      </trkpt>
      <trkpt lat="42.775444" lon="-0.122813">
        <ele>2450.616</ele>
        <time>2022-04-27T12:40:30Z</time>
      </trkpt>
      <trkpt lat="42.775422" lon="-0.122942">
        <ele>2451.076</ele>
        <time>2022-04-27T12:40:30Z</time>
      </trkpt>
      <trkpt lat="42.775316" lon="-0.123046">
        <ele>2451.513</ele>
        <time>2022-04-27T12:40:30Z</time>
      </trkpt>
      <trkpt lat="42.775373" lon="-0.123124">
        <ele>2451.809</ele>
        <time>2022-04-27T12:40:30Z</time>
      </trkpt>
      <trkpt lat="42.775265" lon="-0.123207">
        <ele>2454.212</ele>
        <time>2022-04-27T12:40:30Z</time>
      </trkpt>
      <trkpt lat="42.775312" lon="-0.123331">
        <ele>2457.881</ele>
        <time>2022-04-27T12:40:30Z</time>
      </trkpt>
      <trkpt lat="42.775151" lon="-0.123556">
        <ele>2466.072</ele>
        <time>2022-04-27T12:40:30Z</time>
      </trkpt>
      <trkpt lat="42.775107" lon="-0.123745">
        <ele>2471.222</ele>
        <time>2022-04-27T12:40:30Z</time>
      </trkpt>
      <trkpt lat="42.775116" lon="-0.124268">
        <ele>2484.818</ele>
        <time>2022-04-27T12:40:30Z</time>
      </trkpt>
      <trkpt lat="42.775272" lon="-0.124649">
        <ele>2496.119</ele>
        <time>2022-04-27T12:40:30Z</time>
      </trkpt>
      <trkpt lat="42.775348" lon="-0.125252">
        <ele>2512.066</ele>
        <time>2022-04-27T12:40:30Z</time>
      </trkpt>
      <trkpt lat="42.775316" lon="-0.126203">
        <ele>2540.576</ele>
        <time>2022-04-27T12:40:30Z</time>
      </trkpt>
      <trkpt lat="42.775268" lon="-0.126240">
        <ele>2542.821</ele>
        <time>2022-04-27T12:40:30Z</time>
      </trkpt>
      <trkpt lat="42.775212" lon="-0.126552">
        <ele>2552.785</ele>
        <time>2022-04-27T12:40:30Z</time>
      </trkpt>
      <trkpt lat="42.775126" lon="-0.126712">
        <ele>2558.889</ele>
        <time>2022-04-27T12:40:30Z</time>
      </trkpt>
      <trkpt lat="42.775096" lon="-0.127294">
        <ele>2576.717</ele>
        <time>2022-04-27T12:40:30Z</time>
      </trkpt>
      <trkpt lat="42.775037" lon="-0.127762">
        <ele>2591.209</ele>
        <time>2022-04-27T12:40:30Z</time>
      </trkpt>
      <trkpt lat="42.774954" lon="-0.128022">
        <ele>2599.079</ele>
        <time>2022-04-27T12:40:30Z</time>
      </trkpt>
      <trkpt lat="42.774865" lon="-0.128829">
        <ele>2621.458</ele>
        <time>2022-04-27T12:40:30Z</time>
      </trkpt>
      <trkpt lat="42.774763" lon="-0.128961">
        <ele>2626.769</ele>
        <time>2022-04-27T12:40:30Z</time>
      </trkpt>
      <trkpt lat="42.774446" lon="-0.129140">
        <ele>2639.589</ele>
        <time>2022-04-27T12:40:30Z</time>
      </trkpt>
      <trkpt lat="42.774208" lon="-0.129443">
        <ele>2651.755</ele>
        <time>2022-04-27T12:40:30Z</time>
      </trkpt>
      <trkpt lat="42.773993" lon="-0.129878">
        <ele>2665.216</ele>
        <time>2022-04-27T12:40:30Z</time>
      </trkpt>
      <trkpt lat="42.773939" lon="-0.130086">
        <ele>2670.633</ele>
        <time>2022-04-27T12:40:30Z</time>
      </trkpt>
      <trkpt lat="42.773693" lon="-0.130163">
        <ele>2679.063</ele>
        <time>2022-04-27T12:40:30Z</time>
      </trkpt>
      <trkpt lat="42.773498" lon="-0.130494">
        <ele>2689.448</ele>
        <time>2022-04-27T12:40:30Z</time>
      </trkpt>
      <trkpt lat="42.773433" lon="-0.130921">
        <ele>2700.176</ele>
        <time>2022-04-27T12:40:30Z</time>
      </trkpt>
      <trkpt lat="42.773260" lon="-0.131047">
        <ele>2706.690</ele>
        <time>2022-04-27T12:40:30Z</time>
      </trkpt>
      <trkpt lat="42.773162" lon="-0.131408">
        <ele>2716.019</ele>
        <time>2022-04-27T12:40:30Z</time>
      </trkpt>
      <trkpt lat="42.772568" lon="-0.131264">
        <ele>2737.809</ele>
        <time>2022-04-27T12:40:30Z</time>
      </trkpt>
      <trkpt lat="42.771894" lon="-0.132695">
        <ele>2783.438</ele>
        <time>2022-04-27T12:40:30Z</time>
      </trkpt>
      <trkpt lat="42.771515" lon="-0.133109">
        <ele>2806.817</ele>
        <time>2022-04-27T12:40:30Z</time>
      </trkpt>
      <trkpt lat="42.771231" lon="-0.133188">
        <ele>2820.868</ele>
        <time>2022-04-27T12:40:30Z</time>
      </trkpt>
      <trkpt lat="42.771112" lon="-0.133360">
        <ele>2829.278</ele>
        <time>2022-04-27T12:40:30Z</time>
      </trkpt>
      <trkpt lat="42.771048" lon="-0.133854">
        <ele>2847.034</ele>
        <time>2022-04-27T12:40:30Z</time>
      </trkpt>
      <trkpt lat="42.771199" lon="-0.135079">
        <ele>2889.615</ele>
        <time>2022-04-27T12:40:30Z</time>
      </trkpt>
      <trkpt lat="42.771147" lon="-0.136591">
        <ele>2939.412</ele>
        <time>2022-04-27T12:40:30Z</time>
      </trkpt>
      <trkpt lat="42.771077" lon="-0.137061">
        <ele>2953.742</ele>
        <time>2022-04-27T12:40:30Z</time>
      </trkpt>
      <trkpt lat="42.771093" lon="-0.137446">
        <ele>2961.397</ele>
        <time>2022-04-27T12:40:30Z</time>
      </trkpt>
      <trkpt lat="42.770689" lon="-0.137897">
        <ele>2975.312</ele>
        <time>2022-04-27T12:40:30Z</time>
      </trkpt>
      <trkpt lat="42.770739" lon="-0.138517">
        <ele>2987.632</ele>
        <time>2022-04-27T12:40:30Z</time>
      </trkpt>
      <trkpt lat="42.770652" lon="-0.138673">
        <ele>2991.505</ele>
        <time>2022-04-27T12:40:30Z</time>
      </trkpt>
      <trkpt lat="42.770935" lon="-0.140104">
        <ele>3024.209</ele>
        <time>2022-04-27T12:40:30Z</time>
      </trkpt>
      <trkpt lat="42.771526" lon="-0.142575">
        <ele>3083.542</ele>
        <time>2022-04-27T12:40:30Z</time>
      </trkpt>
      <trkpt lat="42.772227" lon="-0.145988">
        <ele>3149.871</ele>
        <time>2022-04-27T12:40:30Z</time>
      </trkpt>
      <trkpt lat="42.772426" lon="-0.146734">
        <ele>3156.312</ele>
        <time>2022-04-27T12:40:30Z</time>
      </trkpt>
      <trkpt lat="42.772507" lon="-0.147270">
        <ele>3159.722</ele>
        <time>2022-04-27T12:40:30Z</time>
      </trkpt>
      <trkpt lat="42.772747" lon="-0.147788">
        <ele>3163.598</ele>
        <time>2022-04-27T12:40:30Z</time>
      </trkpt>
      <trkpt lat="42.772856" lon="-0.147837">
        <ele>3164.539</ele>
        <time>2022-04-27T12:40:30Z</time>
      </trkpt>
      <trkpt lat="42.772977" lon="-0.147700">
        <ele>3165.866</ele>
        <time>2022-04-27T12:40:30Z</time>
      </trkpt>
      <trkpt lat="42.773321" lon="-0.147676">
        <ele>3167.446</ele>
        <time>2022-04-27T12:40:30Z</time>
      </trkpt>
      <trkpt lat="42.773504" lon="-0.147461">
        <ele>3167.251</ele>
        <time>2022-04-27T12:40:30Z</time>
      </trkpt>
      <trkpt lat="42.773791" lon="-0.147521">
        <ele>3167.096</ele>
        <time>2022-04-27T12:40:30Z</time>
      </trkpt>
      <trkpt lat="42.773813" lon="-0.147494">
        <ele>3167.031</ele>
        <time>2022-04-27T12:40:30Z</time>
      </trkpt>
      <trkpt lat="42.773791" lon="-0.147521">
        <ele>3167.024</ele>
        <time>2022-04-27T12:40:30Z</time>
      </trkpt>
      <trkpt lat="42.773504" lon="-0.147461">
        <ele>3166.809</ele>
        <time>2022-04-27T12:40:30Z</time>
      </trkpt>
      <trkpt lat="42.773321" lon="-0.147676">
        <ele>3166.630</ele>
        <time>2022-04-27T12:40:30Z</time>
      </trkpt>
      <trkpt lat="42.772977" lon="-0.147700">
        <ele>3166.329</ele>
        <time>2022-04-27T12:40:30Z</time>
      </trkpt>
      <trkpt lat="42.772856" lon="-0.147837">
        <ele>3166.220</ele>
        <time>2022-04-27T12:40:30Z</time>
      </trkpt>
      <trkpt lat="42.772747" lon="-0.147788">
        <ele>3165.210</ele>
        <time>2022-04-27T12:40:30Z</time>
      </trkpt>
      <trkpt lat="42.772507" lon="-0.147270">
        <ele>3159.926</ele>
        <time>2022-04-27T12:40:30Z</time>
      </trkpt>
      <trkpt lat="42.772426" lon="-0.146734">
        <ele>3155.267</ele>
        <time>2022-04-27T12:40:30Z</time>
      </trkpt>
      <trkpt lat="42.772227" lon="-0.145988">
        <ele>3148.414</ele>
        <time>2022-04-27T12:40:30Z</time>
      </trkpt>
      <trkpt lat="42.771526" lon="-0.142575">
        <ele>3084.364</ele>
        <time>2022-04-27T12:40:30Z</time>
      </trkpt>
      <trkpt lat="42.770935" lon="-0.140104">
        <ele>3024.149</ele>
        <time>2022-04-27T12:40:30Z</time>
      </trkpt>
      <trkpt lat="42.770652" lon="-0.138673">
        <ele>2992.921</ele>
        <time>2022-04-27T12:40:30Z</time>
      </trkpt>
      <trkpt lat="42.770739" lon="-0.138517">
        <ele>2988.741</ele>
        <time>2022-04-27T12:40:30Z</time>
      </trkpt>
      <trkpt lat="42.770689" lon="-0.137897">
        <ele>2975.105</ele>
        <time>2022-04-27T12:40:30Z</time>
      </trkpt>
      <trkpt lat="42.771093" lon="-0.137446">
        <ele>2959.509</ele>
        <time>2022-04-27T12:40:30Z</time>
      </trkpt>
      <trkpt lat="42.771077" lon="-0.137061">
        <ele>2951.143</ele>
        <time>2022-04-27T12:40:30Z</time>
      </trkpt>
      <trkpt lat="42.771147" lon="-0.136591">
        <ele>2940.692</ele>
        <time>2022-04-27T12:40:30Z</time>
      </trkpt>
      <trkpt lat="42.771199" lon="-0.135079">
        <ele>2889.863</ele>
        <time>2022-04-27T12:40:30Z</time>
      </trkpt>
      <trkpt lat="42.771048" lon="-0.133854">
        <ele>2846.543</ele>
        <time>2022-04-27T12:40:30Z</time>
      </trkpt>
      <trkpt lat="42.771112" lon="-0.133360">
        <ele>2829.429</ele>
        <time>2022-04-27T12:40:30Z</time>
      </trkpt>
      <trkpt lat="42.771231" lon="-0.133188">
        <ele>2821.490</ele>
        <time>2022-04-27T12:40:30Z</time>
      </trkpt>
      <trkpt lat="42.771515" lon="-0.133109">
        <ele>2808.087</ele>
        <time>2022-04-27T12:40:30Z</time>
      </trkpt>
      <trkpt lat="42.771894" lon="-0.132695">
        <ele>2785.537</ele>
        <time>2022-04-27T12:40:30Z</time>
      </trkpt>
      <trkpt lat="42.772568" lon="-0.131264">
        <ele>2737.852</ele>
        <time>2022-04-27T12:40:30Z</time>
      </trkpt>
      <trkpt lat="42.773162" lon="-0.131408">
        <ele>2716.823</ele>
        <time>2022-04-27T12:40:30Z</time>
      </trkpt>
      <trkpt lat="42.773260" lon="-0.131047">
        <ele>2707.083</ele>
        <time>2022-04-27T12:40:30Z</time>
      </trkpt>
      <trkpt lat="42.773433" lon="-0.130921">
        <ele>2700.311</ele>
        <time>2022-04-27T12:40:30Z</time>
      </trkpt>
      <trkpt lat="42.773498" lon="-0.130494">
        <ele>2689.509</ele>
        <time>2022-04-27T12:40:30Z</time>
      </trkpt>
      <trkpt lat="42.773693" lon="-0.130163">
        <ele>2678.923</ele>
        <time>2022-04-27T12:40:30Z</time>
      </trkpt>
      <trkpt lat="42.773939" lon="-0.130086">
        <ele>2670.352</ele>
        <time>2022-04-27T12:40:30Z</time>
      </trkpt>
      <trkpt lat="42.773993" lon="-0.129878">
        <ele>2664.883</ele>
        <time>2022-04-27T12:40:30Z</time>
      </trkpt>
      <trkpt lat="42.774208" lon="-0.129443">
        <ele>2651.863</ele>
        <time>2022-04-27T12:40:30Z</time>
      </trkpt>
      <trkpt lat="42.774446" lon="-0.129140">
        <ele>2640.359</ele>
        <time>2022-04-27T12:40:30Z</time>
      </trkpt>
      <trkpt lat="42.774763" lon="-0.128961">
        <ele>2627.260</ele>
        <time>2022-04-27T12:40:30Z</time>
      </trkpt>
      <trkpt lat="42.774865" lon="-0.128829">
        <ele>2621.857</ele>
        <time>2022-04-27T12:40:30Z</time>
      </trkpt>
      <trkpt lat="42.774954" lon="-0.128022">
        <ele>2598.927</ele>
        <time>2022-04-27T12:40:30Z</time>
      </trkpt>
      <trkpt lat="42.775037" lon="-0.127762">
        <ele>2591.062</ele>
        <time>2022-04-27T12:40:30Z</time>
      </trkpt>
      <trkpt lat="42.775096" lon="-0.127294">
        <ele>2577.762</ele>
        <time>2022-04-27T12:40:30Z</time>
      </trkpt>
      <trkpt lat="42.775126" lon="-0.126712">
        <ele>2559.783</ele>
        <time>2022-04-27T12:40:30Z</time>
      </trkpt>
      <trkpt lat="42.775212" lon="-0.126552">
        <ele>2553.511</ele>
        <time>2022-04-27T12:40:30Z</time>
      </trkpt>
      <trkpt lat="42.775268" lon="-0.126240">
        <ele>2543.509</ele>
        <time>2022-04-27T12:40:30Z</time>
      </trkpt>
      <trkpt lat="42.775316" lon="-0.126203">
        <ele>2541.237</ele>
        <time>2022-04-27T12:40:30Z</time>
      </trkpt>
      <trkpt lat="42.775348" lon="-0.125252">
        <ele>2511.616</ele>
        <time>2022-04-27T12:40:30Z</time>
      </trkpt>
      <trkpt lat="42.775272" lon="-0.124649">
        <ele>2494.757</ele>
        <time>2022-04-27T12:40:30Z</time>
      </trkpt>
      <trkpt lat="42.775116" lon="-0.124268">
        <ele>2485.077</ele>
        <time>2022-04-27T12:40:30Z</time>
      </trkpt>
      <trkpt lat="42.775107" lon="-0.123745">
        <ele>2473.463</ele>
        <time>2022-04-27T12:40:30Z</time>
      </trkpt>
      <trkpt lat="42.775151" lon="-0.123556">
        <ele>2469.074</ele>
        <time>2022-04-27T12:40:30Z</time>
      </trkpt>
      <trkpt lat="42.775312" lon="-0.123331">
        <ele>2462.091</ele>
        <time>2022-04-27T12:40:30Z</time>
      </trkpt>
      <trkpt lat="42.775265" lon="-0.123207">
        <ele>2458.981</ele>
        <time>2022-04-27T12:40:30Z</time>
      </trkpt>
      <trkpt lat="42.775373" lon="-0.123124">
        <ele>2455.256</ele>
        <time>2022-04-27T12:40:30Z</time>
      </trkpt>
      <trkpt lat="42.775316" lon="-0.123046">
        <ele>2452.825</ele>
        <time>2022-04-27T12:40:30Z</time>
      </trkpt>
      <trkpt lat="42.775422" lon="-0.122942">
        <ele>2448.926</ele>
        <time>2022-04-27T12:40:30Z</time>
      </trkpt>
      <trkpt lat="42.775444" lon="-0.122813">
        <ele>2446.008</ele>
        <time>2022-04-27T12:40:30Z</time>
      </trkpt>
      <trkpt lat="42.775471" lon="-0.122744">
        <ele>2445.809</ele>
        <time>2022-04-27T12:40:30Z</time>
      </trkpt>
      <trkpt lat="42.775626" lon="-0.122482">
        <ele>2446.553</ele>
        <time>2022-04-27T12:40:30Z</time>
      </trkpt>
      <trkpt lat="42.776216" lon="-0.121930">
        <ele>2448.572</ele>
        <time>2022-04-27T12:40:30Z</time>
      </trkpt>
      <trkpt lat="42.776385" lon="-0.121658">
        <ele>2449.253</ele>
        <time>2022-04-27T12:40:30Z</time>
      </trkpt>
      <trkpt lat="42.776694" lon="-0.120924">
        <ele>2453.383</ele>
        <time>2022-04-27T12:40:30Z</time>
      </trkpt>
      <trkpt lat="42.776818" lon="-0.120728">
        <ele>2458.679</ele>
        <time>2022-04-27T12:40:30Z</time>
      </trkpt>
      <trkpt lat="42.776818" lon="-0.121055">
        <ele>2465.370</ele>
        <time>2022-04-27T12:40:30Z</time>
      </trkpt>
      <trkpt lat="42.777048" lon="-0.120666">
        <ele>2475.647</ele>
        <time>2022-04-27T12:40:30Z</time>
      </trkpt>
      <trkpt lat="42.777278" lon="-0.120482">
        <ele>2483.117</ele>
        <time>2022-04-27T12:40:30Z</time>
      </trkpt>
      <trkpt lat="42.777411" lon="-0.120505">
        <ele>2486.972</ele>
        <time>2022-04-27T12:40:30Z</time>
      </trkpt>
      <trkpt lat="42.777320" lon="-0.120678">
        <ele>2491.397</ele>
        <time>2022-04-27T12:40:30Z</time>
      </trkpt>
      <trkpt lat="42.777445" lon="-0.120758">
        <ele>2495.223</ele>
        <time>2022-04-27T12:40:30Z</time>
      </trkpt>
      <trkpt lat="42.777368" lon="-0.120817">
        <ele>2497.725</ele>
        <time>2022-04-27T12:40:30Z</time>
      </trkpt>
      <trkpt lat="42.777427" lon="-0.120933">
        <ele>2500.609</ele>
        <time>2022-04-27T12:40:30Z</time>
      </trkpt>
      <trkpt lat="42.777399" lon="-0.120954">
        <ele>2501.660</ele>
        <time>2022-04-27T12:40:30Z</time>
      </trkpt>
      <trkpt lat="42.777483" lon="-0.121214">
        <ele>2509.889</ele>
        <time>2022-04-27T12:40:30Z</time>
      </trkpt>
      <trkpt lat="42.777724" lon="-0.121583">
        <ele>2524.180</ele>
        <time>2022-04-27T12:40:30Z</time>
      </trkpt>
      <trkpt lat="42.777834" lon="-0.122050">
        <ele>2538.390</ele>
        <time>2022-04-27T12:40:30Z</time>
      </trkpt>
      <trkpt lat="42.777973" lon="-0.122149">
        <ele>2544.536</ele>
        <time>2022-04-27T12:40:30Z</time>
      </trkpt>
      <trkpt lat="42.778060" lon="-0.122396">
        <ele>2552.427</ele>
        <time>2022-04-27T12:40:30Z</time>
      </trkpt>
      <trkpt lat="42.778129" lon="-0.122281">
        <ele>2556.784</ele>
        <time>2022-04-27T12:40:30Z</time>
      </trkpt>
      <trkpt lat="42.778188" lon="-0.122393">
        <ele>2560.764</ele>
        <time>2022-04-27T12:40:30Z</time>
      </trkpt>
      <trkpt lat="42.778438" lon="-0.122527">
        <ele>2571.369</ele>
        <time>2022-04-27T12:40:30Z</time>
      </trkpt>
      <trkpt lat="42.778383" lon="-0.122785">
        <ele>2577.034</ele>
        <time>2022-04-27T12:40:30Z</time>
      </trkpt>
      <trkpt lat="42.778503" lon="-0.122836">
        <ele>2580.455</ele>
        <time>2022-04-27T12:40:30Z</time>
      </trkpt>
      <trkpt lat="42.778497" lon="-0.123136">
        <ele>2586.410</ele>
        <time>2022-04-27T12:40:30Z</time>
      </trkpt>
      <trkpt lat="42.778751" lon="-0.124064">
        <ele>2606.309</ele>
        <time>2022-04-27T12:40:30Z</time>
      </trkpt>
      <trkpt lat="42.778991" lon="-0.123842">
        <ele>2614.314</ele>
        <time>2022-04-27T12:40:30Z</time>
      </trkpt>
      <trkpt lat="42.779117" lon="-0.124113">
        <ele>2620.863</ele>
        <time>2022-04-27T12:40:30Z</time>
      </trkpt>
      <trkpt lat="42.779248" lon="-0.124165">
        <ele>2623.034</ele>
        <time>2022-04-27T12:40:30Z</time>
      </trkpt>
      <trkpt lat="42.779293" lon="-0.124304">
        <ele>2624.594</ele>
        <time>2022-04-27T12:40:30Z</time>
      </trkpt>
      <trkpt lat="42.779294" lon="-0.124633">
        <ele>2627.960</ele>
        <time>2022-04-27T12:40:30Z</time>
      </trkpt>
      <trkpt lat="42.779432" lon="-0.125277">
        <ele>2634.761</ele>
        <time>2022-04-27T12:40:30Z</time>
      </trkpt>
      <trkpt lat="42.779584" lon="-0.125585">
        <ele>2638.598</ele>
        <time>2022-04-27T12:40:30Z</time>
      </trkpt>
      <trkpt lat="42.779575" lon="-0.125646">
        <ele>2639.138</ele>
        <time>2022-04-27T12:40:30Z</time>
      </trkpt>
      <trkpt lat="42.779526" lon="-0.126207">
        <ele>2644.973</ele>
        <time>2022-04-27T12:40:30Z</time>
      </trkpt>
      <trkpt lat="42.779564" lon="-0.126747">
        <ele>2648.424</ele>
        <time>2022-04-27T12:40:30Z</time>
      </trkpt>
      <trkpt lat="42.779676" lon="-0.126870">
        <ele>2649.404</ele>
        <time>2022-04-27T12:40:30Z</time>
      </trkpt>
      <trkpt lat="42.779854" lon="-0.126779">
        <ele>2650.714</ele>
        <time>2022-04-27T12:40:30Z</time>
      </trkpt>
      <trkpt lat="42.780148" lon="-0.126775">
        <ele>2652.709</ele>
        <time>2022-04-27T12:40:30Z</time>
      </trkpt>
      <trkpt lat="42.779812" lon="-0.127437">
        <ele>2656.723</ele>
        <time>2022-04-27T12:40:30Z</time>
      </trkpt>
      <trkpt lat="42.779739" lon="-0.127880">
        <ele>2659.292</ele>
        <time>2022-04-27T12:40:30Z</time>
      </trkpt>
      <trkpt lat="42.779779" lon="-0.127904">
        <ele>2659.763</ele>
        <time>2022-04-27T12:40:30Z</time>
      </trkpt>
      <trkpt lat="42.780087" lon="-0.127669">
        <ele>2664.113</ele>
        <time>2022-04-27T12:40:30Z</time>
      </trkpt>
      <trkpt lat="42.779923" lon="-0.128543">
        <ele>2672.359</ele>
        <time>2022-04-27T12:40:30Z</time>
      </trkpt>
      <trkpt lat="42.779942" lon="-0.128935">
        <ele>2675.990</ele>
        <time>2022-04-27T12:40:30Z</time>
      </trkpt>
      <trkpt lat="42.780037" lon="-0.128868">
        <ele>2677.297</ele>
        <time>2022-04-27T12:40:30Z</time>
      </trkpt>
      <trkpt lat="42.779970" lon="-0.129826">
        <ele>2687.827</ele>
        <time>2022-04-27T12:40:30Z</time>
      </trkpt>
      <trkpt lat="42.779887" lon="-0.130126">
        <ele>2691.872</ele>
        <time>2022-04-27T12:40:30Z</time>
      </trkpt>
      <trkpt lat="42.779431" lon="-0.130884">
        <ele>2704.185</ele>
        <time>2022-04-27T12:40:30Z</time>
      </trkpt>
      <trkpt lat="42.779288" lon="-0.131346">
        <ele>2710.489</ele>
        <time>2022-04-27T12:40:30Z</time>
      </trkpt>
      <trkpt lat="42.779591" lon="-0.131625">
        <ele>2712.017</ele>
        <time>2022-04-27T12:40:30Z</time>
      </trkpt>
      <trkpt lat="42.779378" lon="-0.131677">
        <ele>2712.309</ele>
        <time>2022-04-27T12:40:30Z</time>
      </trkpt>
      <trkpt lat="42.779723" lon="-0.132001">
        <ele>2712.919</ele>
        <time>2022-04-27T12:40:30Z</time>
      </trkpt>
      <trkpt lat="42.779533" lon="-0.132010">
        <ele>2713.238</ele>
        <time>2022-04-27T12:40:30Z</time>
      </trkpt>
      <trkpt lat="42.779601" lon="-0.132182">
        <ele>2713.439</ele>
        <time>2022-04-27T12:40:30Z</time>
      </trkpt>
      <trkpt lat="42.780054" lon="-0.132557">
        <ele>2714.229</ele>
        <time>2022-04-27T12:40:30Z</time>
      </trkpt>
      <trkpt lat="42.780879" lon="-0.132911">
        <ele>2703.845</ele>
        <time>2022-04-27T12:40:30Z</time>
      </trkpt>
      <trkpt lat="42.781339" lon="-0.133248">
        <ele>2697.536</ele>
        <time>2022-04-27T12:40:30Z</time>
      </trkpt>
      <trkpt lat="42.781067" lon="-0.133351">
        <ele>2694.133</ele>
        <time>2022-04-27T12:40:30Z</time>
      </trkpt>
      <trkpt lat="42.781194" lon="-0.133399">
        <ele>2692.533</ele>
        <time>2022-04-27T12:40:30Z</time>
      </trkpt>
      <trkpt lat="42.781383" lon="-0.133600">
        <ele>2688.818</ele>
        <time>2022-04-27T12:40:30Z</time>
      </trkpt>
      <trkpt lat="42.781235" lon="-0.133655">
        <ele>2686.413</ele>
        <time>2022-04-27T12:40:30Z</time>
      </trkpt>
      <trkpt lat="42.781442" lon="-0.133955">
        <ele>2681.843</ele>
        <time>2022-04-27T12:40:30Z</time>
      </trkpt>
      <trkpt lat="42.781620" lon="-0.134163">
        <ele>2678.207</ele>
        <time>2022-04-27T12:40:30Z</time>
      </trkpt>
      <trkpt lat="42.781985" lon="-0.134448">
        <ele>2671.709</ele>
        <time>2022-04-27T12:40:30Z</time>
      </trkpt>
      <trkpt lat="42.782312" lon="-0.134461">
        <ele>2666.762</ele>
        <time>2022-04-27T12:40:30Z</time>
      </trkpt>
      <trkpt lat="42.782413" lon="-0.134412">
        <ele>2665.151</ele>
        <time>2022-04-27T12:40:30Z</time>
      </trkpt>
      <trkpt lat="42.782557" lon="-0.134449">
        <ele>2662.532</ele>
        <time>2022-04-27T12:40:30Z</time>
      </trkpt>
      <trkpt lat="42.782633" lon="-0.134353">
        <ele>2660.752</ele>
        <time>2022-04-27T12:40:30Z</time>
      </trkpt>
      <trkpt lat="42.782795" lon="-0.134321">
        <ele>2657.888</ele>
        <time>2022-04-27T12:40:30Z</time>
      </trkpt>
      <trkpt lat="42.782907" lon="-0.134327">
        <ele>2655.889</ele>
        <time>2022-04-27T12:40:30Z</time>
      </trkpt>
      <trkpt lat="42.783209" lon="-0.134491">
        <ele>2650.026</ele>
        <time>2022-04-27T12:40:30Z</time>
      </trkpt>
      <trkpt lat="42.783397" lon="-0.134263">
        <ele>2645.526</ele>
        <time>2022-04-27T12:40:30Z</time>
      </trkpt>
      <trkpt lat="42.783588" lon="-0.134306">
        <ele>2642.041</ele>
        <time>2022-04-27T12:40:30Z</time>
      </trkpt>
      <trkpt lat="42.783630" lon="-0.134525">
        <ele>2639.058</ele>
        <time>2022-04-27T12:40:30Z</time>
      </trkpt>
      <trkpt lat="42.783731" lon="-0.134551">
        <ele>2637.252</ele>
        <time>2022-04-27T12:40:30Z</time>
      </trkpt>
      <trkpt lat="42.783970" lon="-0.134473">
        <ele>2632.817</ele>
        <time>2022-04-27T12:40:30Z</time>
      </trkpt>
      <trkpt lat="42.784533" lon="-0.134516">
        <ele>2622.009</ele>
        <time>2022-04-27T12:40:30Z</time>
      </trkpt>
      <trkpt lat="42.784706" lon="-0.134440">
        <ele>2618.576</ele>
        <time>2022-04-27T12:40:30Z</time>
      </trkpt>
      <trkpt lat="42.784818" lon="-0.134197">
        <ele>2614.565</ele>
        <time>2022-04-27T12:40:30Z</time>
      </trkpt>
      <trkpt lat="42.784848" lon="-0.134340">
        <ele>2612.476</ele>
        <time>2022-04-27T12:40:30Z</time>
      </trkpt>
      <trkpt lat="42.784968" lon="-0.134273">
        <ele>2609.936</ele>
        <time>2022-04-27T12:40:30Z</time>
      </trkpt>
      <trkpt lat="42.784954" lon="-0.134444">
        <ele>2607.572</ele>
        <time>2022-04-27T12:40:30Z</time>
      </trkpt>
      <trkpt lat="42.785106" lon="-0.134370">
        <ele>2604.433</ele>
        <time>2022-04-27T12:40:30Z</time>
      </trkpt>
      <trkpt lat="42.785221" lon="-0.134168">
        <ele>2600.880</ele>
        <time>2022-04-27T12:40:30Z</time>
      </trkpt>
      <trkpt lat="42.785316" lon="-0.134163">
        <ele>2599.010</ele>
        <time>2022-04-27T12:40:30Z</time>
      </trkpt>
      <trkpt lat="42.785619" lon="-0.133959">
        <ele>2590.915</ele>
        <time>2022-04-27T12:40:30Z</time>
      </trkpt>
      <trkpt lat="42.785868" lon="-0.133608">
        <ele>2582.131</ele>
        <time>2022-04-27T12:40:30Z</time>
      </trkpt>
      <trkpt lat="42.786381" lon="-0.133355">
        <ele>2568.861</ele>
        <time>2022-04-27T12:40:30Z</time>
      </trkpt>
      <trkpt lat="42.786665" lon="-0.133276">
        <ele>2561.707</ele>
        <time>2022-04-27T12:40:30Z</time>
      </trkpt>
      <trkpt lat="42.787191" lon="-0.133270">
        <ele>2548.009</ele>
        <time>2022-04-27T12:40:30Z</time>
      </trkpt>
      <trkpt lat="42.787280" lon="-0.133145">
        <ele>2544.454</ele>
        <time>2022-04-27T12:40:30Z</time>
      </trkpt>
      <trkpt lat="42.787552" lon="-0.133104">
        <ele>2536.753</ele>
        <time>2022-04-27T12:40:30Z</time>
      </trkpt>
      <trkpt lat="42.787612" lon="-0.133175">
        <ele>2534.594</ele>
        <time>2022-04-27T12:40:30Z</time>
      </trkpt>
      <trkpt lat="42.787769" lon="-0.133079">
        <ele>2529.694</ele>
        <time>2022-04-27T12:40:30Z</time>
      </trkpt>
      <trkpt lat="42.787861" lon="-0.133244">
        <ele>2525.380</ele>
        <time>2022-04-27T12:40:30Z</time>
      </trkpt>
      <trkpt lat="42.788021" lon="-0.132989">
        <ele>2518.361</ele>
        <time>2022-04-27T12:40:30Z</time>
      </trkpt>
      <trkpt lat="42.788349" lon="-0.132916">
        <ele>2508.928</ele>
        <time>2022-04-27T12:40:30Z</time>
      </trkpt>
      <trkpt lat="42.788486" lon="-0.133013">
        <ele>2504.548</ele>
        <time>2022-04-27T12:40:30Z</time>
      </trkpt>
      <trkpt lat="42.788604" lon="-0.132971">
        <ele>2501.873</ele>
        <time>2022-04-27T12:40:30Z</time>
      </trkpt>
      <trkpt lat="42.788671" lon="-0.133106">
        <ele>2499.547</ele>
        <time>2022-04-27T12:40:30Z</time>
      </trkpt>
      <trkpt lat="42.788768" lon="-0.133084">
        <ele>2497.629</ele>
        <time>2022-04-27T12:40:30Z</time>
      </trkpt>
      <trkpt lat="42.788996" lon="-0.132706">
        <ele>2490.721</ele>
        <time>2022-04-27T12:40:30Z</time>
      </trkpt>
      <trkpt lat="42.789112" lon="-0.132598">
        <ele>2488.009</ele>
        <time>2022-04-27T12:40:30Z</time>
      </trkpt>
      <trkpt lat="42.789192" lon="-0.132604">
        <ele>2486.575</ele>
        <time>2022-04-27T12:40:30Z</time>
      </trkpt>
      <trkpt lat="42.789287" lon="-0.132491">
        <ele>2484.164</ele>
        <time>2022-04-27T12:40:30Z</time>
      </trkpt>
      <trkpt lat="42.789506" lon="-0.132478">
        <ele>2479.955</ele>
        <time>2022-04-27T12:40:30Z</time>
      </trkpt>
      <trkpt lat="42.789544" lon="-0.132550">
        <ele>2478.795</ele>
        <time>2022-04-27T12:40:30Z</time>
      </trkpt>
      <trkpt lat="42.789652" lon="-0.132542">
        <ele>2476.661</ele>
        <time>2022-04-27T12:40:30Z</time>
      </trkpt>
      <trkpt lat="42.789715" lon="-0.132608">
        <ele>2475.112</ele>
        <time>2022-04-27T12:40:30Z</time>
      </trkpt>
      <trkpt lat="42.789914" lon="-0.132507">
        <ele>2471.049</ele>
        <time>2022-04-27T12:40:30Z</time>
      </trkpt>
      <trkpt lat="42.789948" lon="-0.132540">
        <ele>2470.229</ele>
        <time>2022-04-27T12:40:30Z</time>
      </trkpt>
      <trkpt lat="42.789926" lon="-0.132603">
        <ele>2469.214</ele>
        <time>2022-04-27T12:40:30Z</time>
      </trkpt>
      <trkpt lat="42.790080" lon="-0.132597">
        <ele>2466.954</ele>
        <time>2022-04-27T12:40:30Z</time>
      </trkpt>
      <trkpt lat="42.790095" lon="-0.132669">
        <ele>2466.156</ele>
        <time>2022-04-27T12:40:30Z</time>
      </trkpt>
      <trkpt lat="42.789876" lon="-0.133075">
        <ele>2460.811</ele>
        <time>2022-04-27T12:40:30Z</time>
      </trkpt>
      <trkpt lat="42.790489" lon="-0.133042">
        <ele>2452.009</ele>
        <time>2022-04-27T12:40:30Z</time>
      </trkpt>
      <trkpt lat="42.790321" lon="-0.133284">
        <ele>2448.536</ele>
        <time>2022-04-27T12:40:30Z</time>
      </trkpt>
      <trkpt lat="42.790571" lon="-0.133288">
        <ele>2444.985</ele>
        <time>2022-04-27T12:40:30Z</time>
      </trkpt>
      <trkpt lat="42.790247" lon="-0.133603">
        <ele>2440.976</ele>
        <time>2022-04-27T12:40:30Z</time>
      </trkpt>
      <trkpt lat="42.790498" lon="-0.133638">
        <ele>2438.926</ele>
        <time>2022-04-27T12:40:30Z</time>
      </trkpt>
      <trkpt lat="42.790667" lon="-0.133775">
        <ele>2437.362</ele>
        <time>2022-04-27T12:40:30Z</time>
      </trkpt>
      <trkpt lat="42.790216" lon="-0.134222">
        <ele>2432.813</ele>
        <time>2022-04-27T12:40:30Z</time>
      </trkpt>
      <trkpt lat="42.790171" lon="-0.134378">
        <ele>2431.890</ele>
        <time>2022-04-27T12:40:30Z</time>
      </trkpt>
      <trkpt lat="42.790400" lon="-0.134446">
        <ele>2429.980</ele>
        <time>2022-04-27T12:40:30Z</time>
      </trkpt>
      <trkpt lat="42.790581" lon="-0.134563">
        <ele>2428.485</ele>
        <time>2022-04-27T12:40:30Z</time>
      </trkpt>
      <trkpt lat="42.790581" lon="-0.134640">
        <ele>2428.241</ele>
        <time>2022-04-27T12:40:30Z</time>
      </trkpt>
      <trkpt lat="42.790103" lon="-0.134755">
        <ele>2426.581</ele>
        <time>2022-04-27T12:40:30Z</time>
      </trkpt>
      <trkpt lat="42.789832" lon="-0.134963">
        <ele>2425.409</ele>
        <time>2022-04-27T12:40:30Z</time>
      </trkpt>
      <trkpt lat="42.789701" lon="-0.134990">
        <ele>2424.909</ele>
        <time>2022-04-27T12:40:30Z</time>
      </trkpt>
      <trkpt lat="42.789880" lon="-0.135192">
        <ele>2424.135</ele>
        <time>2022-04-27T12:40:30Z</time>
      </trkpt>
      <trkpt lat="42.790067" lon="-0.135164">
        <ele>2423.484</ele>
        <time>2022-04-27T12:40:30Z</time>
      </trkpt>
      <trkpt lat="42.790640" lon="-0.135456">
        <ele>2419.965</ele>
        <time>2022-04-27T12:40:30Z</time>
      </trkpt>
      <trkpt lat="42.790356" lon="-0.135585">
        <ele>2417.375</ele>
        <time>2022-04-27T12:40:30Z</time>
      </trkpt>
      <trkpt lat="42.790668" lon="-0.135878">
        <ele>2414.091</ele>
        <time>2022-04-27T12:40:30Z</time>
      </trkpt>
      <trkpt lat="42.790536" lon="-0.135946">
        <ele>2412.812</ele>
        <time>2022-04-27T12:40:30Z</time>
      </trkpt>
      <trkpt lat="42.790321" lon="-0.135893">
        <ele>2410.939</ele>
        <time>2022-04-27T12:40:30Z</time>
      </trkpt>
      <trkpt lat="42.790403" lon="-0.135976">
        <ele>2410.019</ele>
        <time>2022-04-27T12:40:30Z</time>
      </trkpt>
      <trkpt lat="42.790311" lon="-0.136010">
        <ele>2409.244</ele>
        <time>2022-04-27T12:40:30Z</time>
      </trkpt>
      <trkpt lat="42.790354" lon="-0.136088">
        <ele>2408.679</ele>
        <time>2022-04-27T12:40:30Z</time>
      </trkpt>
      <trkpt lat="42.790018" lon="-0.136146">
        <ele>2404.405</ele>
        <time>2022-04-27T12:40:30Z</time>
      </trkpt>
      <trkpt lat="42.790302" lon="-0.136384">
        <ele>2397.625</ele>
        <time>2022-04-27T12:40:30Z</time>
      </trkpt>
      <trkpt lat="42.790028" lon="-0.136447">
        <ele>2392.009</ele>
        <time>2022-04-27T12:40:30Z</time>
      </trkpt>
      <trkpt lat="42.790205" lon="-0.136696">
        <ele>2386.818</ele>
        <time>2022-04-27T12:40:30Z</time>
      </trkpt>
      <trkpt lat="42.789848" lon="-0.136866">
        <ele>2379.117</ele>
        <time>2022-04-27T12:40:30Z</time>
      </trkpt>
      <trkpt lat="42.789637" lon="-0.136810">
        <ele>2374.738</ele>
        <time>2022-04-27T12:40:30Z</time>
      </trkpt>
      <trkpt lat="42.789555" lon="-0.136839">
        <ele>2373.098</ele>
        <time>2022-04-27T12:40:30Z</time>
      </trkpt>
      <trkpt lat="42.789472" lon="-0.137004">
        <ele>2370.084</ele>
        <time>2022-04-27T12:40:30Z</time>
      </trkpt>
      <trkpt lat="42.789245" lon="-0.137099">
        <ele>2364.935</ele>
        <time>2022-04-27T12:40:30Z</time>
      </trkpt>
      <trkpt lat="42.788485" lon="-0.137285">
        <ele>2348.342</ele>
        <time>2022-04-27T12:40:30Z</time>
      </trkpt>
      <trkpt lat="42.788143" lon="-0.137524">
        <ele>2340.042</ele>
        <time>2022-04-27T12:40:30Z</time>
      </trkpt>
      <trkpt lat="42.787951" lon="-0.137794">
        <ele>2334.177</ele>
        <time>2022-04-27T12:40:30Z</time>
      </trkpt>
      <trkpt lat="42.788536" lon="-0.138089">
        <ele>2319.821</ele>
        <time>2022-04-27T12:40:30Z</time>
      </trkpt>
      <trkpt lat="42.788877" lon="-0.137989">
        <ele>2311.741</ele>
        <time>2022-04-27T12:40:30Z</time>
      </trkpt>
      <trkpt lat="42.789581" lon="-0.138166">
        <ele>2295.105</ele>
        <time>2022-04-27T12:40:30Z</time>
      </trkpt>
      <trkpt lat="42.789805" lon="-0.138393">
        <ele>2288.609</ele>
        <time>2022-04-27T12:40:30Z</time>
      </trkpt>
      <trkpt lat="42.789602" lon="-0.138414">
        <ele>2283.643</ele>
        <time>2022-04-27T12:40:30Z</time>
      </trkpt>
      <trkpt lat="42.789565" lon="-0.138451">
        <ele>2282.562</ele>
        <time>2022-04-27T12:40:30Z</time>
      </trkpt>
      <trkpt lat="42.789616" lon="-0.138528">
        <ele>2280.633</ele>
        <time>2022-04-27T12:40:30Z</time>
      </trkpt>
      <trkpt lat="42.789976" lon="-0.138701">
        <ele>2271.243</ele>
        <time>2022-04-27T12:40:30Z</time>
      </trkpt>
      <trkpt lat="42.790033" lon="-0.138759">
        <ele>2269.569</ele>
        <time>2022-04-27T12:40:30Z</time>
      </trkpt>
      <trkpt lat="42.789924" lon="-0.138804">
        <ele>2266.760</ele>
        <time>2022-04-27T12:40:30Z</time>
      </trkpt>
      <trkpt lat="42.790235" lon="-0.138948">
        <ele>2258.747</ele>
        <time>2022-04-27T12:40:30Z</time>
      </trkpt>
      <trkpt lat="42.790464" lon="-0.138973">
        <ele>2253.197</ele>
        <time>2022-04-27T12:40:30Z</time>
      </trkpt>
      <trkpt lat="42.790781" lon="-0.138849">
        <ele>2245.162</ele>
        <time>2022-04-27T12:40:30Z</time>
      </trkpt>
      <trkpt lat="42.792253" lon="-0.140167">
        <ele>2205.628</ele>
        <time>2022-04-27T12:40:30Z</time>
      </trkpt>
      <trkpt lat="42.792579" lon="-0.140557">
        <ele>2205.289</ele>
        <time>2022-04-27T12:40:30Z</time>
      </trkpt>
      <trkpt lat="42.792732" lon="-0.140986">
        <ele>2205.217</ele>
        <time>2022-04-27T12:40:30Z</time>
      </trkpt>
      <trkpt lat="42.792662" lon="-0.141253">
        <ele>2205.209</ele>
        <time>2022-04-27T12:40:30Z</time>
      </trkpt>
      <trkpt lat="42.792749" lon="-0.141619">
        <ele>2205.243</ele>
        <time>2022-04-27T12:40:30Z</time>
      </trkpt>
      <trkpt lat="42.793048" lon="-0.141806">
        <ele>2205.292</ele>
        <time>2022-04-27T12:40:30Z</time>
      </trkpt>
      <trkpt lat="42.792624" lon="-0.140682">
        <ele>2161.414</ele>
        <time>2022-04-27T12:40:09Z</time>
      </trkpt>
      <trkpt lat="42.792732" lon="-0.140986">
        <ele>2161.454</ele>
        <time>2022-04-27T12:40:09Z</time>
      </trkpt>
      <trkpt lat="42.792662" lon="-0.141253">
        <ele>2161.409</ele>
        <time>2022-04-27T12:40:09Z</time>
      </trkpt>
      <trkpt lat="42.792749" lon="-0.141619">
        <ele>2161.409</ele>
        <time>2022-04-27T12:40:09Z</time>
      </trkpt>
      <trkpt lat="42.793282" lon="-0.141953">
        <ele>2152.272</ele>
        <time>2022-04-27T12:40:09Z</time>
      </trkpt>
      <trkpt lat="42.793360" lon="-0.141933">
        <ele>2150.581</ele>
        <time>2022-04-27T12:40:09Z</time>
      </trkpt>
      <trkpt lat="42.793425" lon="-0.142027">
        <ele>2148.442</ele>
        <time>2022-04-27T12:40:09Z</time>
      </trkpt>
      <trkpt lat="42.793396" lon="-0.142165">
        <ele>2146.192</ele>
        <time>2022-04-27T12:40:09Z</time>
      </trkpt>
      <trkpt lat="42.793408" lon="-0.142250">
        <ele>2144.738</ele>
        <time>2022-04-27T12:40:09Z</time>
      </trkpt>
      <trkpt lat="42.793488" lon="-0.142284">
        <ele>2142.959</ele>
        <time>2022-04-27T12:40:09Z</time>
      </trkpt>
      <trkpt lat="42.793932" lon="-0.142356">
        <ele>2133.216</ele>
        <time>2022-04-27T12:40:09Z</time>
      </trkpt>
      <trkpt lat="42.793988" lon="-0.142458">
        <ele>2131.222</ele>
        <time>2022-04-27T12:40:09Z</time>
      </trkpt>
      <trkpt lat="42.794302" lon="-0.142512">
        <ele>2124.398</ele>
        <time>2022-04-27T12:40:09Z</time>
      </trkpt>
      <trkpt lat="42.794455" lon="-0.142697">
        <ele>2121.194</ele>
        <time>2022-04-27T12:40:09Z</time>
      </trkpt>
      <trkpt lat="42.794697" lon="-0.142699">
        <ele>2118.557</ele>
        <time>2022-04-27T12:40:09Z</time>
      </trkpt>
      <trkpt lat="42.794810" lon="-0.142555">
        <ele>2116.822</ele>
        <time>2022-04-27T12:40:09Z</time>
      </trkpt>
      <trkpt lat="42.794934" lon="-0.142549">
        <ele>2115.509</ele>
        <time>2022-04-27T12:40:09Z</time>
      </trkpt>
      <trkpt lat="42.794943" lon="-0.142487">
        <ele>2115.010</ele>
        <time>2022-04-27T12:40:09Z</time>
      </trkpt>
      <trkpt lat="42.794787" lon="-0.142360">
        <ele>2113.039</ele>
        <time>2022-04-27T12:40:09Z</time>
      </trkpt>
      <trkpt lat="42.794805" lon="-0.142206">
        <ele>2111.830</ele>
        <time>2022-04-27T12:40:09Z</time>
      </trkpt>
      <trkpt lat="42.794573" lon="-0.142326">
        <ele>2109.170</ele>
        <time>2022-04-27T12:40:09Z</time>
      </trkpt>
      <trkpt lat="42.794508" lon="-0.142290">
        <ele>2108.326</ele>
        <time>2022-04-27T12:40:09Z</time>
      </trkpt>
      <trkpt lat="42.794603" lon="-0.142197">
        <ele>2107.037</ele>
        <time>2022-04-27T12:40:09Z</time>
      </trkpt>
      <trkpt lat="42.794545" lon="-0.142014">
        <ele>2105.444</ele>
        <time>2022-04-27T12:40:09Z</time>
      </trkpt>
      <trkpt lat="42.794796" lon="-0.141954">
        <ele>2102.720</ele>
        <time>2022-04-27T12:40:09Z</time>
      </trkpt>
      <trkpt lat="42.794984" lon="-0.141769">
        <ele>2101.096</ele>
        <time>2022-04-27T12:40:09Z</time>
      </trkpt>
      <trkpt lat="42.795718" lon="-0.141714">
        <ele>2095.631</ele>
        <time>2022-04-27T12:40:09Z</time>
      </trkpt>
      <trkpt lat="42.795998" lon="-0.141601">
        <ele>2093.461</ele>
        <time>2022-04-27T12:40:09Z</time>
      </trkpt>
      <trkpt lat="42.795883" lon="-0.141474">
        <ele>2092.307</ele>
        <time>2022-04-27T12:40:09Z</time>
      </trkpt>
      <trkpt lat="42.795914" lon="-0.141131">
        <ele>2090.409</ele>
        <time>2022-04-27T12:40:09Z</time>
      </trkpt>
      <trkpt lat="42.796112" lon="-0.140984">
        <ele>2089.064</ele>
        <time>2022-04-27T12:40:09Z</time>
      </trkpt>
      <trkpt lat="42.796331" lon="-0.140911">
        <ele>2088.083</ele>
        <time>2022-04-27T12:40:09Z</time>
      </trkpt>
      <trkpt lat="42.796533" lon="-0.140669">
        <ele>2086.864</ele>
        <time>2022-04-27T12:40:09Z</time>
      </trkpt>
      <trkpt lat="42.796818" lon="-0.140646">
        <ele>2085.564</ele>
        <time>2022-04-27T12:40:09Z</time>
      </trkpt>
      <trkpt lat="42.797152" lon="-0.140415">
        <ele>2083.820</ele>
        <time>2022-04-27T12:40:09Z</time>
      </trkpt>
      <trkpt lat="42.797204" lon="-0.140289">
        <ele>2083.391</ele>
        <time>2022-04-27T12:40:09Z</time>
      </trkpt>
      <trkpt lat="42.797508" lon="-0.140082">
        <ele>2081.868</ele>
        <time>2022-04-27T12:40:09Z</time>
      </trkpt>
      <trkpt lat="42.797842" lon="-0.139944">
        <ele>2080.274</ele>
        <time>2022-04-27T12:40:09Z</time>
      </trkpt>
      <trkpt lat="42.798404" lon="-0.139467">
        <ele>2077.260</ele>
        <time>2022-04-27T12:40:09Z</time>
      </trkpt>
      <trkpt lat="42.798867" lon="-0.139410">
        <ele>2075.165</ele>
        <time>2022-04-27T12:40:09Z</time>
      </trkpt>
      <trkpt lat="42.799275" lon="-0.139190">
        <ele>2073.168</ele>
        <time>2022-04-27T12:40:09Z</time>
      </trkpt>
      <trkpt lat="42.799493" lon="-0.139168">
        <ele>2071.814</ele>
        <time>2022-04-27T12:40:09Z</time>
      </trkpt>
      <trkpt lat="42.799868" lon="-0.138911">
        <ele>2069.309</ele>
        <time>2022-04-27T12:40:09Z</time>
      </trkpt>
      <trkpt lat="42.800753" lon="-0.138923">
        <ele>2064.037</ele>
        <time>2022-04-27T12:40:09Z</time>
      </trkpt>
      <trkpt lat="42.801055" lon="-0.138795">
        <ele>2062.496</ele>
        <time>2022-04-27T12:40:09Z</time>
      </trkpt>
      <trkpt lat="42.801748" lon="-0.138864">
        <ele>2061.787</ele>
        <time>2022-04-27T12:40:09Z</time>
      </trkpt>
      <trkpt lat="42.801954" lon="-0.138771">
        <ele>2061.597</ele>
        <time>2022-04-27T12:40:09Z</time>
      </trkpt>
      <trkpt lat="42.802398" lon="-0.138440">
        <ele>2061.013</ele>
        <time>2022-04-27T12:40:09Z</time>
      </trkpt>
      <trkpt lat="42.802770" lon="-0.137967">
        <ele>2062.174</ele>
        <time>2022-04-27T12:40:09Z</time>
      </trkpt>
      <trkpt lat="42.802827" lon="-0.138120">
        <ele>2063.081</ele>
        <time>2022-04-27T12:40:09Z</time>
      </trkpt>
      <trkpt lat="42.802791" lon="-0.138324">
        <ele>2064.137</ele>
        <time>2022-04-27T12:40:09Z</time>
      </trkpt>
      <trkpt lat="42.802706" lon="-0.138477">
        <ele>2065.143</ele>
        <time>2022-04-27T12:40:09Z</time>
      </trkpt>
      <trkpt lat="42.802732" lon="-0.138623">
        <ele>2065.962</ele>
        <time>2022-04-27T12:40:09Z</time>
      </trkpt>
      <trkpt lat="42.802923" lon="-0.138972">
        <ele>2068.283</ele>
        <time>2022-04-27T12:40:09Z</time>
      </trkpt>
      <trkpt lat="42.803118" lon="-0.139012">
        <ele>2069.611</ele>
        <time>2022-04-27T12:40:09Z</time>
      </trkpt>
      <trkpt lat="42.803262" lon="-0.139177">
        <ele>2071.009</ele>
        <time>2022-04-27T12:40:09Z</time>
      </trkpt>
      <trkpt lat="42.803245" lon="-0.139227">
        <ele>2071.347</ele>
        <time>2022-04-27T12:40:09Z</time>
      </trkpt>
      <trkpt lat="42.803405" lon="-0.139470">
        <ele>2073.186</ele>
        <time>2022-04-27T12:40:09Z</time>
      </trkpt>
      <trkpt lat="42.803429" lon="-0.139767">
        <ele>2076.177</ele>
        <time>2022-04-27T12:40:09Z</time>
      </trkpt>
      <trkpt lat="42.803345" lon="-0.139796">
        <ele>2077.797</ele>
        <time>2022-04-27T12:40:09Z</time>
      </trkpt>
      <trkpt lat="42.803092" lon="-0.140059">
        <ele>2083.513</ele>
        <time>2022-04-27T12:40:09Z</time>
      </trkpt>
      <trkpt lat="42.802956" lon="-0.140318">
        <ele>2087.854</ele>
        <time>2022-04-27T12:40:09Z</time>
      </trkpt>
      <trkpt lat="42.802968" lon="-0.140437">
        <ele>2089.451</ele>
        <time>2022-04-27T12:40:09Z</time>
      </trkpt>
      <trkpt lat="42.803124" lon="-0.140640">
        <ele>2093.337</ele>
        <time>2022-04-27T12:40:09Z</time>
      </trkpt>
      <trkpt lat="42.802931" lon="-0.140862">
        <ele>2097.953</ele>
        <time>2022-04-27T12:40:09Z</time>
      </trkpt>
      <trkpt lat="42.802902" lon="-0.141211">
        <ele>2102.646</ele>
        <time>2022-04-27T12:40:09Z</time>
      </trkpt>
      <trkpt lat="42.802842" lon="-0.141349">
        <ele>2104.788</ele>
        <time>2022-04-27T12:40:09Z</time>
      </trkpt>
      <trkpt lat="42.803038" lon="-0.141370">
        <ele>2108.716</ele>
        <time>2022-04-27T12:40:09Z</time>
      </trkpt>
      <trkpt lat="42.803228" lon="-0.141805">
        <ele>2117.209</ele>
        <time>2022-04-27T12:40:09Z</time>
      </trkpt>
      <trkpt lat="42.802927" lon="-0.142210">
        <ele>2126.995</ele>
        <time>2022-04-27T12:40:09Z</time>
      </trkpt>
      <trkpt lat="42.802993" lon="-0.142421">
        <ele>2130.854</ele>
        <time>2022-04-27T12:40:09Z</time>
      </trkpt>
      <trkpt lat="42.803297" lon="-0.142390">
        <ele>2137.895</ele>
        <time>2022-04-27T12:40:09Z</time>
      </trkpt>
      <trkpt lat="42.803541" lon="-0.142279">
        <ele>2143.735</ele>
        <time>2022-04-27T12:40:09Z</time>
      </trkpt>
      <trkpt lat="42.803603" lon="-0.142187">
        <ele>2145.841</ele>
        <time>2022-04-27T12:40:09Z</time>
      </trkpt>
      <trkpt lat="42.803710" lon="-0.142385">
        <ele>2151.272</ele>
        <time>2022-04-27T12:40:09Z</time>
      </trkpt>
      <trkpt lat="42.803701" lon="-0.142480">
        <ele>2153.789</ele>
        <time>2022-04-27T12:40:09Z</time>
      </trkpt>
      <trkpt lat="42.803603" lon="-0.142519">
        <ele>2157.425</ele>
        <time>2022-04-27T12:40:09Z</time>
      </trkpt>
      <trkpt lat="42.803575" lon="-0.142599">
        <ele>2159.821</ele>
        <time>2022-04-27T12:40:09Z</time>
      </trkpt>
      <trkpt lat="42.803547" lon="-0.143031">
        <ele>2171.329</ele>
        <time>2022-04-27T12:40:09Z</time>
      </trkpt>
      <trkpt lat="42.803609" lon="-0.143109">
        <ele>2174.400</ele>
        <time>2022-04-27T12:40:09Z</time>
      </trkpt>
      <trkpt lat="42.803721" lon="-0.143077">
        <ele>2178.520</ele>
        <time>2022-04-27T12:40:09Z</time>
      </trkpt>
      <trkpt lat="42.803721" lon="-0.143395">
        <ele>2187.009</ele>
        <time>2022-04-27T12:40:09Z</time>
      </trkpt>
      <trkpt lat="42.803785" lon="-0.143481">
        <ele>2190.343</ele>
        <time>2022-04-27T12:40:09Z</time>
      </trkpt>
      <trkpt lat="42.803758" lon="-0.143744">
        <ele>2197.462</ele>
        <time>2022-04-27T12:40:09Z</time>
      </trkpt>
      <trkpt lat="42.803685" lon="-0.143773">
        <ele>2200.293</ele>
        <time>2022-04-27T12:40:09Z</time>
      </trkpt>
      <trkpt lat="42.803620" lon="-0.143955">
        <ele>2205.623</ele>
        <time>2022-04-27T12:40:09Z</time>
      </trkpt>
      <trkpt lat="42.803569" lon="-0.143974">
        <ele>2207.519</ele>
        <time>2022-04-27T12:40:09Z</time>
      </trkpt>
      <trkpt lat="42.803543" lon="-0.144189">
        <ele>2213.350</ele>
        <time>2022-04-27T12:40:09Z</time>
      </trkpt>
      <trkpt lat="42.803409" lon="-0.144574">
        <ele>2226.357</ele>
        <time>2022-04-27T12:40:09Z</time>
      </trkpt>
      <trkpt lat="42.803323" lon="-0.144605">
        <ele>2230.073</ele>
        <time>2022-04-27T12:40:09Z</time>
      </trkpt>
      <trkpt lat="42.803212" lon="-0.145253">
        <ele>2250.389</ele>
        <time>2022-04-27T12:40:09Z</time>
      </trkpt>
      <trkpt lat="42.803230" lon="-0.145418">
        <ele>2255.452</ele>
        <time>2022-04-27T12:40:09Z</time>
      </trkpt>
      <trkpt lat="42.803299" lon="-0.145524">
        <ele>2259.753</ele>
        <time>2022-04-27T12:40:09Z</time>
      </trkpt>
      <trkpt lat="42.803293" lon="-0.145728">
        <ele>2265.908</ele>
        <time>2022-04-27T12:40:09Z</time>
      </trkpt>
      <trkpt lat="42.803381" lon="-0.146058">
        <ele>2276.609</ele>
        <time>2022-04-27T12:40:09Z</time>
      </trkpt>
      <trkpt lat="42.803455" lon="-0.146623">
        <ele>2290.516</ele>
        <time>2022-04-27T12:40:09Z</time>
      </trkpt>
      <trkpt lat="42.803629" lon="-0.146946">
        <ele>2295.795</ele>
        <time>2022-04-27T12:40:09Z</time>
      </trkpt>
      <trkpt lat="42.803796" lon="-0.147778">
        <ele>2307.066</ele>
        <time>2022-04-27T12:40:09Z</time>
      </trkpt>
      <trkpt lat="42.803686" lon="-0.148768">
        <ele>2320.096</ele>
        <time>2022-04-27T12:40:09Z</time>
      </trkpt>
      <trkpt lat="42.803393" lon="-0.149386">
        <ele>2326.922</ele>
        <time>2022-04-27T12:40:09Z</time>
      </trkpt>
      <trkpt lat="42.803260" lon="-0.149559">
        <ele>2329.253</ele>
        <time>2022-04-27T12:40:09Z</time>
      </trkpt>
      <trkpt lat="42.803282" lon="-0.149736">
        <ele>2330.940</ele>
        <time>2022-04-27T12:40:09Z</time>
      </trkpt>
      <trkpt lat="42.803250" lon="-0.149879">
        <ele>2332.346</ele>
        <time>2022-04-27T12:40:09Z</time>
      </trkpt>
      <trkpt lat="42.803330" lon="-0.150054">
        <ele>2334.292</ele>
        <time>2022-04-27T12:40:09Z</time>
      </trkpt>
      <trkpt lat="42.803628" lon="-0.150028">
        <ele>2338.064</ele>
        <time>2022-04-27T12:40:09Z</time>
      </trkpt>
      <trkpt lat="42.803822" lon="-0.150138">
        <ele>2340.706</ele>
        <time>2022-04-27T12:40:09Z</time>
      </trkpt>
      <trkpt lat="42.803909" lon="-0.150267">
        <ele>2342.316</ele>
        <time>2022-04-27T12:40:09Z</time>
      </trkpt>
      <trkpt lat="42.804055" lon="-0.150617">
        <ele>2349.709</ele>
        <time>2022-04-27T12:40:09Z</time>
      </trkpt>
      <trkpt lat="42.804042" lon="-0.151030">
        <ele>2357.717</ele>
        <time>2022-04-27T12:40:09Z</time>
      </trkpt>
      <trkpt lat="42.803931" lon="-0.151408">
        <ele>2365.616</ele>
        <time>2022-04-27T12:40:09Z</time>
      </trkpt>
      <trkpt lat="42.804077" lon="-0.151900">
        <ele>2375.977</ele>
        <time>2022-04-27T12:40:09Z</time>
      </trkpt>
      <trkpt lat="42.804126" lon="-0.152409">
        <ele>2385.937</ele>
        <time>2022-04-27T12:40:09Z</time>
      </trkpt>
      <trkpt lat="42.804329" lon="-0.152807">
        <ele>2397.313</ele>
        <time>2022-04-27T12:40:09Z</time>
      </trkpt>
      <trkpt lat="42.804412" lon="-0.152833">
        <ele>2400.534</ele>
        <time>2022-04-27T12:40:09Z</time>
      </trkpt>
      <trkpt lat="42.804521" lon="-0.153090">
        <ele>2408.661</ele>
        <time>2022-04-27T12:40:09Z</time>
      </trkpt>
      <trkpt lat="42.804714" lon="-0.153274">
        <ele>2417.327</ele>
        <time>2022-04-27T12:40:09Z</time>
      </trkpt>
      <trkpt lat="42.804772" lon="-0.153306">
        <ele>2419.673</ele>
        <time>2022-04-27T12:40:09Z</time>
      </trkpt>
      <trkpt lat="42.804895" lon="-0.153224">
        <ele>2424.711</ele>
        <time>2022-04-27T12:40:09Z</time>
      </trkpt>
      <trkpt lat="42.804959" lon="-0.153275">
        <ele>2427.421</ele>
        <time>2022-04-27T12:40:09Z</time>
      </trkpt>
      <trkpt lat="42.805009" lon="-0.153133">
        <ele>2431.703</ele>
        <time>2022-04-27T12:40:09Z</time>
      </trkpt>
      <trkpt lat="42.805099" lon="-0.153063">
        <ele>2435.509</ele>
        <time>2022-04-27T12:40:09Z</time>
      </trkpt>
      <trkpt lat="42.805295" lon="-0.153013">
        <ele>2442.992</ele>
        <time>2022-04-27T12:40:09Z</time>
      </trkpt>
      <trkpt lat="42.805521" lon="-0.153297">
        <ele>2454.311</ele>
        <time>2022-04-27T12:40:09Z</time>
      </trkpt>
      <trkpt lat="42.805590" lon="-0.153227">
        <ele>2457.592</ele>
        <time>2022-04-27T12:40:09Z</time>
      </trkpt>
      <trkpt lat="42.805654" lon="-0.153239">
        <ele>2460.112</ele>
        <time>2022-04-27T12:40:09Z</time>
      </trkpt>
      <trkpt lat="42.805686" lon="-0.153143">
        <ele>2463.258</ele>
        <time>2022-04-27T12:40:09Z</time>
      </trkpt>
      <trkpt lat="42.805809" lon="-0.153064">
        <ele>2468.669</ele>
        <time>2022-04-27T12:40:09Z</time>
      </trkpt>
      <trkpt lat="42.806153" lon="-0.153056">
        <ele>2482.226</ele>
        <time>2022-04-27T12:40:09Z</time>
      </trkpt>
      <trkpt lat="42.806255" lon="-0.153143">
        <ele>2487.042</ele>
        <time>2022-04-27T12:40:09Z</time>
      </trkpt>
      <trkpt lat="42.806354" lon="-0.153408">
        <ele>2495.638</ele>
        <time>2022-04-27T12:40:09Z</time>
      </trkpt>
      <trkpt lat="42.806493" lon="-0.153585">
        <ele>2503.172</ele>
        <time>2022-04-27T12:40:09Z</time>
      </trkpt>
      <trkpt lat="42.806655" lon="-0.153222">
        <ele>2515.413</ele>
        <time>2022-04-27T12:40:09Z</time>
      </trkpt>
      <trkpt lat="42.806643" lon="-0.153143">
        <ele>2517.714</ele>
        <time>2022-04-27T12:40:09Z</time>
      </trkpt>
      <trkpt lat="42.806800" lon="-0.152941">
        <ele>2526.209</ele>
        <time>2022-04-27T12:40:09Z</time>
      </trkpt>
      <trkpt lat="42.807128" lon="-0.152977">
        <ele>2536.438</ele>
        <time>2022-04-27T12:40:09Z</time>
      </trkpt>
      <trkpt lat="42.807181" lon="-0.152803">
        <ele>2540.597</ele>
        <time>2022-04-27T12:40:09Z</time>
      </trkpt>
      <trkpt lat="42.807393" lon="-0.152905">
        <ele>2547.128</ele>
        <time>2022-04-27T12:40:09Z</time>
      </trkpt>
      <trkpt lat="42.807479" lon="-0.152855">
        <ele>2549.988</ele>
        <time>2022-04-27T12:40:09Z</time>
      </trkpt>
      <trkpt lat="42.807490" lon="-0.152741">
        <ele>2552.444</ele>
        <time>2022-04-27T12:40:09Z</time>
      </trkpt>
      <trkpt lat="42.807557" lon="-0.152666">
        <ele>2555.035</ele>
        <time>2022-04-27T12:40:09Z</time>
      </trkpt>
      <trkpt lat="42.807527" lon="-0.152494">
        <ele>2558.852</ele>
        <time>2022-04-27T12:40:09Z</time>
      </trkpt>
      <trkpt lat="42.807624" lon="-0.152395">
        <ele>2562.448</ele>
        <time>2022-04-27T12:40:09Z</time>
      </trkpt>
      <trkpt lat="42.807756" lon="-0.152467">
        <ele>2566.674</ele>
        <time>2022-04-27T12:40:09Z</time>
      </trkpt>
      <trkpt lat="42.807953" lon="-0.152462">
        <ele>2572.439</ele>
        <time>2022-04-27T12:40:09Z</time>
      </trkpt>
      <trkpt lat="42.808109" lon="-0.152371">
        <ele>2577.401</ele>
        <time>2022-04-27T12:40:09Z</time>
      </trkpt>
      <trkpt lat="42.808286" lon="-0.152916">
        <ele>2582.521</ele>
        <time>2022-04-27T12:40:09Z</time>
      </trkpt>
      <trkpt lat="42.808360" lon="-0.152952">
        <ele>2582.809</ele>
        <time>2022-04-27T12:40:09Z</time>
      </trkpt>
      <trkpt lat="42.808510" lon="-0.153183">
        <ele>2583.794</ele>
        <time>2022-04-27T12:40:09Z</time>
      </trkpt>
      <trkpt lat="42.808669" lon="-0.153518">
        <ele>2584.963</ele>
        <time>2022-04-27T12:40:09Z</time>
      </trkpt>
      <trkpt lat="42.808917" lon="-0.153562">
        <ele>2585.964</ele>
        <time>2022-04-27T12:40:09Z</time>
      </trkpt>
      <trkpt lat="42.809170" lon="-0.153743">
        <ele>2587.174</ele>
        <time>2022-04-27T12:40:09Z</time>
      </trkpt>
      <trkpt lat="42.809240" lon="-0.153872">
        <ele>2587.680</ele>
        <time>2022-04-27T12:40:09Z</time>
      </trkpt>
      <trkpt lat="42.809334" lon="-0.153848">
        <ele>2588.071</ele>
        <time>2022-04-27T12:40:09Z</time>
      </trkpt>
      <trkpt lat="42.809317" lon="-0.153930">
        <ele>2588.338</ele>
        <time>2022-04-27T12:40:09Z</time>
      </trkpt>
      <trkpt lat="42.809463" lon="-0.154155">
        <ele>2586.424</ele>
        <time>2022-04-27T12:40:09Z</time>
      </trkpt>
      <trkpt lat="42.809619" lon="-0.154012">
        <ele>2583.390</ele>
        <time>2022-04-27T12:40:09Z</time>
      </trkpt>
      <trkpt lat="42.809981" lon="-0.154105">
        <ele>2577.322</ele>
        <time>2022-04-27T12:40:09Z</time>
      </trkpt>
      <trkpt lat="42.810007" lon="-0.154002">
        <ele>2576.062</ele>
        <time>2022-04-27T12:40:09Z</time>
      </trkpt>
      <trkpt lat="42.810032" lon="-0.154031">
        <ele>2575.508</ele>
        <time>2022-04-27T12:40:09Z</time>
      </trkpt>
      <trkpt lat="42.810105" lon="-0.153927">
        <ele>2573.809</ele>
        <time>2022-04-27T12:40:09Z</time>
      </trkpt>
      <trkpt lat="42.810152" lon="-0.153977">
        <ele>2572.853</ele>
        <time>2022-04-27T12:40:09Z</time>
      </trkpt>
      <trkpt lat="42.810183" lon="-0.153929">
        <ele>2572.062</ele>
        <time>2022-04-27T12:40:09Z</time>
      </trkpt>
      <trkpt lat="42.810179" lon="-0.153765">
        <ele>2570.093</ele>
        <time>2022-04-27T12:40:09Z</time>
      </trkpt>
      <trkpt lat="42.810255" lon="-0.153619">
        <ele>2567.943</ele>
        <time>2022-04-27T12:40:09Z</time>
      </trkpt>
      <trkpt lat="42.810613" lon="-0.153671">
        <ele>2562.089</ele>
        <time>2022-04-27T12:40:09Z</time>
      </trkpt>
      <trkpt lat="42.810647" lon="-0.153517">
        <ele>2560.190</ele>
        <time>2022-04-27T12:40:09Z</time>
      </trkpt>
      <trkpt lat="42.810593" lon="-0.153410">
        <ele>2558.387</ele>
        <time>2022-04-27T12:40:09Z</time>
      </trkpt>
      <trkpt lat="42.810680" lon="-0.153301">
        <ele>2555.833</ele>
        <time>2022-04-27T12:40:09Z</time>
      </trkpt>
      <trkpt lat="42.810659" lon="-0.153210">
        <ele>2554.319</ele>
        <time>2022-04-27T12:40:09Z</time>
      </trkpt>
      <trkpt lat="42.810844" lon="-0.153078">
        <ele>2549.985</ele>
        <time>2022-04-27T12:40:09Z</time>
      </trkpt>
      <trkpt lat="42.810928" lon="-0.152923">
        <ele>2546.989</ele>
        <time>2022-04-27T12:40:09Z</time>
      </trkpt>
      <trkpt lat="42.811065" lon="-0.152916">
        <ele>2544.017</ele>
        <time>2022-04-27T12:40:09Z</time>
      </trkpt>
      <trkpt lat="42.811065" lon="-0.152857">
        <ele>2543.109</ele>
        <time>2022-04-27T12:40:09Z</time>
      </trkpt>
      <trkpt lat="42.811158" lon="-0.152789">
        <ele>2540.949</ele>
        <time>2022-04-27T12:40:09Z</time>
      </trkpt>
      <trkpt lat="42.811429" lon="-0.152765">
        <ele>2535.278</ele>
        <time>2022-04-27T12:40:09Z</time>
      </trkpt>
      <trkpt lat="42.811703" lon="-0.152631">
        <ele>2529.169</ele>
        <time>2022-04-27T12:40:09Z</time>
      </trkpt>
      <trkpt lat="42.811736" lon="-0.152581">
        <ele>2528.159</ele>
        <time>2022-04-27T12:40:09Z</time>
      </trkpt>
      <trkpt lat="42.811680" lon="-0.152449">
        <ele>2525.725</ele>
        <time>2022-04-27T12:40:09Z</time>
      </trkpt>
      <trkpt lat="42.811794" lon="-0.152241">
        <ele>2521.716</ele>
        <time>2022-04-27T12:40:09Z</time>
      </trkpt>
      <trkpt lat="42.812267" lon="-0.151973">
        <ele>2513.153</ele>
        <time>2022-04-27T12:40:09Z</time>
      </trkpt>
      <trkpt lat="42.812540" lon="-0.151895">
        <ele>2508.459</ele>
        <time>2022-04-27T12:40:09Z</time>
      </trkpt>
      <trkpt lat="42.812638" lon="-0.151938">
        <ele>2506.755</ele>
        <time>2022-04-27T12:40:09Z</time>
      </trkpt>
      <trkpt lat="42.812955" lon="-0.151916">
        <ele>2501.486</ele>
        <time>2022-04-27T12:40:09Z</time>
      </trkpt>
      <trkpt lat="42.813038" lon="-0.151997">
        <ele>2499.760</ele>
        <time>2022-04-27T12:40:09Z</time>
      </trkpt>
      <trkpt lat="42.813156" lon="-0.151992">
        <ele>2497.726</ele>
        <time>2022-04-27T12:40:09Z</time>
      </trkpt>
      <trkpt lat="42.813775" lon="-0.151600">
        <ele>2486.709</ele>
        <time>2022-04-27T12:40:09Z</time>
      </trkpt>
      <trkpt lat="42.813857" lon="-0.151625">
        <ele>2485.469</ele>
        <time>2022-04-27T12:40:09Z</time>
      </trkpt>
      <trkpt lat="42.814152" lon="-0.151510">
        <ele>2480.788</ele>
        <time>2022-04-27T12:40:09Z</time>
      </trkpt>
      <trkpt lat="42.814428" lon="-0.151575">
        <ele>2476.499</ele>
        <time>2022-04-27T12:40:09Z</time>
      </trkpt>
      <trkpt lat="42.814491" lon="-0.151533">
        <ele>2475.349</ele>
        <time>2022-04-27T12:40:09Z</time>
      </trkpt>
      <trkpt lat="42.814565" lon="-0.151593">
        <ele>2474.055</ele>
        <time>2022-04-27T12:40:09Z</time>
      </trkpt>
      <trkpt lat="42.814594" lon="-0.151522">
        <ele>2473.156</ele>
        <time>2022-04-27T12:40:09Z</time>
      </trkpt>
      <trkpt lat="42.814648" lon="-0.151692">
        <ele>2471.023</ele>
        <time>2022-04-27T12:40:09Z</time>
      </trkpt>
      <trkpt lat="42.814691" lon="-0.151622">
        <ele>2470.019</ele>
        <time>2022-04-27T12:40:09Z</time>
      </trkpt>
      <trkpt lat="42.815016" lon="-0.151474">
        <ele>2464.775</ele>
        <time>2022-04-27T12:40:09Z</time>
      </trkpt>
      <trkpt lat="42.815034" lon="-0.151375">
        <ele>2463.449</ele>
        <time>2022-04-27T12:40:09Z</time>
      </trkpt>
      <trkpt lat="42.815382" lon="-0.151312">
        <ele>2453.802</ele>
        <time>2022-04-27T12:40:09Z</time>
      </trkpt>
      <trkpt lat="42.815631" lon="-0.151142">
        <ele>2446.222</ele>
        <time>2022-04-27T12:40:09Z</time>
      </trkpt>
      <trkpt lat="42.815842" lon="-0.151247">
        <ele>2440.009</ele>
        <time>2022-04-27T12:40:09Z</time>
      </trkpt>
      <trkpt lat="42.815981" lon="-0.151176">
        <ele>2435.915</ele>
        <time>2022-04-27T12:40:09Z</time>
      </trkpt>
      <trkpt lat="42.816100" lon="-0.151211">
        <ele>2432.644</ele>
        <time>2022-04-27T12:40:09Z</time>
      </trkpt>
      <trkpt lat="42.816312" lon="-0.151395">
        <ele>2425.755</ele>
        <time>2022-04-27T12:40:09Z</time>
      </trkpt>
      <trkpt lat="42.816415" lon="-0.151622">
        <ele>2420.365</ele>
        <time>2022-04-27T12:40:09Z</time>
      </trkpt>
      <trkpt lat="42.816352" lon="-0.151668">
        <ele>2418.311</ele>
        <time>2022-04-27T12:40:09Z</time>
      </trkpt>
      <trkpt lat="42.816410" lon="-0.151713">
        <ele>2416.582</ele>
        <time>2022-04-27T12:40:09Z</time>
      </trkpt>
      <trkpt lat="42.816373" lon="-0.151759">
        <ele>2415.179</ele>
        <time>2022-04-27T12:40:09Z</time>
      </trkpt>
      <trkpt lat="42.816406" lon="-0.151834">
        <ele>2413.125</ele>
        <time>2022-04-27T12:40:09Z</time>
      </trkpt>
      <trkpt lat="42.816380" lon="-0.151899">
        <ele>2411.381</ele>
        <time>2022-04-27T12:40:09Z</time>
      </trkpt>
      <trkpt lat="42.816444" lon="-0.151915">
        <ele>2409.146</ele>
        <time>2022-04-27T12:40:09Z</time>
      </trkpt>
      <trkpt lat="42.816510" lon="-0.152055">
        <ele>2405.088</ele>
        <time>2022-04-27T12:40:09Z</time>
      </trkpt>
      <trkpt lat="42.816634" lon="-0.152166">
        <ele>2400.016</ele>
        <time>2022-04-27T12:40:09Z</time>
      </trkpt>
      <trkpt lat="42.816602" lon="-0.152283">
        <ele>2396.909</ele>
        <time>2022-04-27T12:40:09Z</time>
      </trkpt>
      <trkpt lat="42.816644" lon="-0.152348">
        <ele>2394.855</ele>
        <time>2022-04-27T12:40:09Z</time>
      </trkpt>
      <trkpt lat="42.816602" lon="-0.152455">
        <ele>2391.894</ele>
        <time>2022-04-27T12:40:09Z</time>
      </trkpt>
      <trkpt lat="42.816671" lon="-0.152623">
        <ele>2387.125</ele>
        <time>2022-04-27T12:40:09Z</time>
      </trkpt>
      <trkpt lat="42.816719" lon="-0.152625">
        <ele>2385.535</ele>
        <time>2022-04-27T12:40:09Z</time>
      </trkpt>
      <trkpt lat="42.816728" lon="-0.152783">
        <ele>2381.611</ele>
        <time>2022-04-27T12:40:09Z</time>
      </trkpt>
      <trkpt lat="42.816792" lon="-0.152777">
        <ele>2379.532</ele>
        <time>2022-04-27T12:40:09Z</time>
      </trkpt>
      <trkpt lat="42.816904" lon="-0.152966">
        <ele>2373.569</ele>
        <time>2022-04-27T12:40:09Z</time>
      </trkpt>
      <trkpt lat="42.817037" lon="-0.152871">
        <ele>2368.545</ele>
        <time>2022-04-27T12:40:09Z</time>
      </trkpt>
      <trkpt lat="42.817056" lon="-0.153005">
        <ele>2365.221</ele>
        <time>2022-04-27T12:40:09Z</time>
      </trkpt>
      <trkpt lat="42.817121" lon="-0.152980">
        <ele>2362.969</ele>
        <time>2022-04-27T12:40:09Z</time>
      </trkpt>
      <trkpt lat="42.817075" lon="-0.153818">
        <ele>2338.804</ele>
        <time>2022-04-27T12:40:09Z</time>
      </trkpt>
      <trkpt lat="42.817169" lon="-0.153913">
        <ele>2333.724</ele>
        <time>2022-04-27T12:40:09Z</time>
      </trkpt>
      <trkpt lat="42.817267" lon="-0.154192">
        <ele>2323.809</ele>
        <time>2022-04-27T12:40:09Z</time>
      </trkpt>
      <trkpt lat="42.817388" lon="-0.154262">
        <ele>2318.137</ele>
        <time>2022-04-27T12:40:09Z</time>
      </trkpt>
      <trkpt lat="42.817563" lon="-0.154564">
        <ele>2305.846</ele>
        <time>2022-04-27T12:40:09Z</time>
      </trkpt>
      <trkpt lat="42.817654" lon="-0.154526">
        <ele>2301.737</ele>
        <time>2022-04-27T12:40:09Z</time>
      </trkpt>
      <trkpt lat="42.817955" lon="-0.154806">
        <ele>2285.967</ele>
        <time>2022-04-27T12:40:09Z</time>
      </trkpt>
      <trkpt lat="42.818181" lon="-0.154828">
        <ele>2276.173</ele>
        <time>2022-04-27T12:40:09Z</time>
      </trkpt>
      <trkpt lat="42.818330" lon="-0.155180">
        <ele>2265.894</ele>
        <time>2022-04-27T12:40:09Z</time>
      </trkpt>
      <trkpt lat="42.818503" lon="-0.155330">
        <ele>2258.741</ele>
        <time>2022-04-27T12:40:09Z</time>
      </trkpt>
      <trkpt lat="42.818681" lon="-0.155304">
        <ele>2252.577</ele>
        <time>2022-04-27T12:40:09Z</time>
      </trkpt>
      <trkpt lat="42.818952" lon="-0.155420">
        <ele>2242.763</ele>
        <time>2022-04-27T12:40:09Z</time>
      </trkpt>
      <trkpt lat="42.819082" lon="-0.155371">
        <ele>2238.088</ele>
        <time>2022-04-27T12:40:09Z</time>
      </trkpt>
      <trkpt lat="42.819127" lon="-0.155414">
        <ele>2236.124</ele>
        <time>2022-04-27T12:40:09Z</time>
      </trkpt>
      <trkpt lat="42.819181" lon="-0.155358">
        <ele>2233.726</ele>
        <time>2022-04-27T12:40:09Z</time>
      </trkpt>
      <trkpt lat="42.819428" lon="-0.155500">
        <ele>2224.409</ele>
        <time>2022-04-27T12:40:09Z</time>
      </trkpt>
      <trkpt lat="42.819647" lon="-0.155521">
        <ele>2216.869</ele>
        <time>2022-04-27T12:40:09Z</time>
      </trkpt>
      <trkpt lat="42.819625" lon="-0.155769">
        <ele>2212.338</ele>
        <time>2022-04-27T12:40:09Z</time>
      </trkpt>
      <trkpt lat="42.819634" lon="-0.155860">
        <ele>2211.329</ele>
        <time>2022-04-27T12:40:09Z</time>
      </trkpt>
      <trkpt lat="42.819690" lon="-0.155890">
        <ele>2210.459</ele>
        <time>2022-04-27T12:40:09Z</time>
      </trkpt>
      <trkpt lat="42.819671" lon="-0.156037">
        <ele>2208.765</ele>
        <time>2022-04-27T12:40:09Z</time>
      </trkpt>
      <trkpt lat="42.819628" lon="-0.156128">
        <ele>2207.516</ele>
        <time>2022-04-27T12:40:09Z</time>
      </trkpt>
      <trkpt lat="42.819476" lon="-0.156198">
        <ele>2205.163</ele>
        <time>2022-04-27T12:40:09Z</time>
      </trkpt>
      <trkpt lat="42.819368" lon="-0.156385">
        <ele>2202.499</ele>
        <time>2022-04-27T12:40:09Z</time>
      </trkpt>
      <trkpt lat="42.819221" lon="-0.156490">
        <ele>2199.975</ele>
        <time>2022-04-27T12:40:09Z</time>
      </trkpt>
      <trkpt lat="42.819212" lon="-0.156634">
        <ele>2198.356</ele>
        <time>2022-04-27T12:40:09Z</time>
      </trkpt>
      <trkpt lat="42.819411" lon="-0.156975">
        <ele>2193.459</ele>
        <time>2022-04-27T12:40:09Z</time>
      </trkpt>
      <trkpt lat="42.819424" lon="-0.157179">
        <ele>2191.114</ele>
        <time>2022-04-27T12:40:09Z</time>
      </trkpt>
      <trkpt lat="42.819515" lon="-0.157379">
        <ele>2188.509</ele>
        <time>2022-04-27T12:40:09Z</time>
      </trkpt>
      <trkpt lat="42.819684" lon="-0.157299">
        <ele>2185.356</ele>
        <time>2022-04-27T12:40:09Z</time>
      </trkpt>
      <trkpt lat="42.819986" lon="-0.157155">
        <ele>2176.885</ele>
        <time>2022-04-27T12:40:09Z</time>
      </trkpt>
      <trkpt lat="42.820226" lon="-0.157141">
        <ele>2170.496</ele>
        <time>2022-04-27T12:40:09Z</time>
      </trkpt>
      <trkpt lat="42.820449" lon="-0.156873">
        <ele>2162.566</ele>
        <time>2022-04-27T12:40:09Z</time>
      </trkpt>
      <trkpt lat="42.820716" lon="-0.156844">
        <ele>2155.322</ele>
        <time>2022-04-27T12:40:09Z</time>
      </trkpt>
      <trkpt lat="42.821598" lon="-0.156285">
        <ele>2129.483</ele>
        <time>2022-04-27T12:40:09Z</time>
      </trkpt>
      <trkpt lat="42.821992" lon="-0.156216">
        <ele>2118.940</ele>
        <time>2022-04-27T12:40:09Z</time>
      </trkpt>
      <trkpt lat="42.822469" lon="-0.155935">
        <ele>2105.236</ele>
        <time>2022-04-27T12:40:09Z</time>
      </trkpt>
      <trkpt lat="42.823136" lon="-0.155776">
        <ele>2088.622</ele>
        <time>2022-04-27T12:40:09Z</time>
      </trkpt>
      <trkpt lat="42.823698" lon="-0.155545">
        <ele>2078.647</ele>
        <time>2022-04-27T12:40:09Z</time>
      </trkpt>
      <trkpt lat="42.823839" lon="-0.155456">
        <ele>2076.029</ele>
        <time>2022-04-27T12:40:09Z</time>
      </trkpt>
      <trkpt lat="42.824004" lon="-0.155201">
        <ele>2071.821</ele>
        <time>2022-04-27T12:40:09Z</time>
      </trkpt>
      <trkpt lat="42.824256" lon="-0.155049">
        <ele>2067.109</ele>
        <time>2022-04-27T12:40:09Z</time>
      </trkpt>
      <trkpt lat="42.824954" lon="-0.154931">
        <ele>2055.535</ele>
        <time>2022-04-27T12:40:09Z</time>
      </trkpt>
      <trkpt lat="42.825582" lon="-0.154952">
        <ele>2045.634</ele>
        <time>2022-04-27T12:40:09Z</time>
      </trkpt>
      <trkpt lat="42.825856" lon="-0.154764">
        <ele>2040.835</ele>
        <time>2022-04-27T12:40:09Z</time>
      </trkpt>
      <trkpt lat="42.826638" lon="-0.154855">
        <ele>2029.535</ele>
        <time>2022-04-27T12:40:09Z</time>
      </trkpt>
      <trkpt lat="42.827026" lon="-0.154684">
        <ele>2025.011</ele>
        <time>2022-04-27T12:40:09Z</time>
      </trkpt>
      <trkpt lat="42.827639" lon="-0.154637">
        <ele>2018.262</ele>
        <time>2022-04-27T12:40:09Z</time>
      </trkpt>
      <trkpt lat="42.828058" lon="-0.154729">
        <ele>2013.569</ele>
        <time>2022-04-27T12:40:09Z</time>
      </trkpt>
      <trkpt lat="42.828650" lon="-0.155187">
        <ele>2008.975</ele>
        <time>2022-04-27T12:40:09Z</time>
      </trkpt>
      <trkpt lat="42.828943" lon="-0.155345">
        <ele>2007.021</ele>
        <time>2022-04-27T12:40:09Z</time>
      </trkpt>
      <trkpt lat="42.829297" lon="-0.155371">
        <ele>2004.973</ele>
        <time>2022-04-27T12:40:09Z</time>
      </trkpt>
      <trkpt lat="42.829802" lon="-0.155319">
        <ele>2001.985</ele>
        <time>2022-04-27T12:40:09Z</time>
      </trkpt>
      <trkpt lat="42.830063" lon="-0.155369">
        <ele>2000.713</ele>
        <time>2022-04-27T12:40:09Z</time>
      </trkpt>
      <trkpt lat="42.830706" lon="-0.155183">
        <ele>1997.809</ele>
        <time>2022-04-27T12:40:09Z</time>
      </trkpt>
      <trkpt lat="42.830875" lon="-0.155336">
        <ele>1996.968</ele>
        <time>2022-04-27T12:40:09Z</time>
      </trkpt>
      <trkpt lat="42.831218" lon="-0.155472">
        <ele>1995.367</ele>
        <time>2022-04-27T12:40:09Z</time>
      </trkpt>
      <trkpt lat="42.831431" lon="-0.155213">
        <ele>1994.198</ele>
        <time>2022-04-27T12:40:09Z</time>
      </trkpt>
      <trkpt lat="42.831609" lon="-0.155301">
        <ele>1993.188</ele>
        <time>2022-04-27T12:40:09Z</time>
      </trkpt>
      <trkpt lat="42.831664" lon="-0.155260">
        <ele>1992.724</ele>
        <time>2022-04-27T12:40:09Z</time>
      </trkpt>
      <trkpt lat="42.831695" lon="-0.155277">
        <ele>1992.595</ele>
        <time>2022-04-27T12:40:09Z</time>
      </trkpt>
      <trkpt lat="42.831651" lon="-0.155489">
        <ele>1991.552</ele>
        <time>2022-04-27T12:40:09Z</time>
      </trkpt>
      <trkpt lat="42.831770" lon="-0.155512">
        <ele>1990.728</ele>
        <time>2022-04-27T12:40:09Z</time>
      </trkpt>
      <trkpt lat="42.831958" lon="-0.155655">
        <ele>1989.374</ele>
        <time>2022-04-27T12:40:09Z</time>
      </trkpt>
      <trkpt lat="42.832298" lon="-0.156127">
        <ele>1986.239</ele>
        <time>2022-04-27T12:40:09Z</time>
      </trkpt>
      <trkpt lat="42.832362" lon="-0.156175">
        <ele>1985.701</ele>
        <time>2022-04-27T12:40:09Z</time>
      </trkpt>
      <trkpt lat="42.832460" lon="-0.156055">
        <ele>1984.921</ele>
        <time>2022-04-27T12:40:09Z</time>
      </trkpt>
      <trkpt lat="42.833037" lon="-0.156349">
        <ele>1980.209</ele>
        <time>2022-04-27T12:40:09Z</time>
      </trkpt>
      <trkpt lat="42.833353" lon="-0.157005">
        <ele>1974.394</ele>
        <time>2022-04-27T12:40:09Z</time>
      </trkpt>
      <trkpt lat="42.833608" lon="-0.157050">
        <ele>1971.743</ele>
        <time>2022-04-27T12:40:09Z</time>
      </trkpt>
      <trkpt lat="42.833747" lon="-0.157398">
        <ele>1968.754</ele>
        <time>2022-04-27T12:40:09Z</time>
      </trkpt>
      <trkpt lat="42.833983" lon="-0.157682">
        <ele>1965.584</ele>
        <time>2022-04-27T12:40:09Z</time>
      </trkpt>
      <trkpt lat="42.834022" lon="-0.157667">
        <ele>1965.130</ele>
        <time>2022-04-27T12:40:09Z</time>
      </trkpt>
      <trkpt lat="42.834302" lon="-0.157861">
        <ele>1960.681</ele>
        <time>2022-04-27T12:40:09Z</time>
      </trkpt>
      <trkpt lat="42.834626" lon="-0.157802">
        <ele>1955.158</ele>
        <time>2022-04-27T12:40:09Z</time>
      </trkpt>
      <trkpt lat="42.834675" lon="-0.157969">
        <ele>1952.934</ele>
        <time>2022-04-27T12:40:09Z</time>
      </trkpt>
      <trkpt lat="42.834847" lon="-0.158156">
        <ele>1949.240</ele>
        <time>2022-04-27T12:40:09Z</time>
      </trkpt>
      <trkpt lat="42.834890" lon="-0.158459">
        <ele>1945.459</ele>
        <time>2022-04-27T12:40:09Z</time>
      </trkpt>
      <trkpt lat="42.835107" lon="-0.158885">
        <ele>1939.003</ele>
        <time>2022-04-27T12:40:09Z</time>
      </trkpt>
      <trkpt lat="42.835156" lon="-0.159183">
        <ele>1935.223</ele>
        <time>2022-04-27T12:40:09Z</time>
      </trkpt>
      <trkpt lat="42.835416" lon="-0.159588">
        <ele>1926.209</ele>
        <time>2022-04-27T12:40:09Z</time>
      </trkpt>
      <trkpt lat="42.835543" lon="-0.159996">
        <ele>1918.186</ele>
        <time>2022-04-27T12:40:09Z</time>
      </trkpt>
      <trkpt lat="42.835686" lon="-0.160250">
        <ele>1912.285</ele>
        <time>2022-04-27T12:40:09Z</time>
      </trkpt>
      <trkpt lat="42.835710" lon="-0.160792">
        <ele>1902.376</ele>
        <time>2022-04-27T12:40:09Z</time>
      </trkpt>
      <trkpt lat="42.835833" lon="-0.161059">
        <ele>1896.576</ele>
        <time>2022-04-27T12:40:09Z</time>
      </trkpt>
      <trkpt lat="42.836176" lon="-0.161340">
        <ele>1886.192</ele>
        <time>2022-04-27T12:40:09Z</time>
      </trkpt>
      <trkpt lat="42.836186" lon="-0.161708">
        <ele>1878.153</ele>
        <time>2022-04-27T12:40:09Z</time>
      </trkpt>
      <trkpt lat="42.836387" lon="-0.162002">
        <ele>1869.460</ele>
        <time>2022-04-27T12:40:09Z</time>
      </trkpt>
      <trkpt lat="42.836470" lon="-0.162263">
        <ele>1863.246</ele>
        <time>2022-04-27T12:40:09Z</time>
      </trkpt>
      <trkpt lat="42.836716" lon="-0.162417">
        <ele>1855.292</ele>
        <time>2022-04-27T12:40:09Z</time>
      </trkpt>
      <trkpt lat="42.836686" lon="-0.162551">
        <ele>1852.236</ele>
        <time>2022-04-27T12:40:09Z</time>
      </trkpt>
      <trkpt lat="42.836779" lon="-0.162872">
        <ele>1844.717</ele>
        <time>2022-04-27T12:40:09Z</time>
      </trkpt>
      <trkpt lat="42.836926" lon="-0.163006">
        <ele>1839.518</ele>
        <time>2022-04-27T12:40:09Z</time>
      </trkpt>
      <trkpt lat="42.836828" lon="-0.163213">
        <ele>1833.909</ele>
        <time>2022-04-27T12:40:09Z</time>
      </trkpt>
      <trkpt lat="42.836868" lon="-0.163447">
        <ele>1827.764</ele>
        <time>2022-04-27T12:40:09Z</time>
      </trkpt>
      <trkpt lat="42.836981" lon="-0.163420">
        <ele>1823.763</ele>
        <time>2022-04-27T12:40:09Z</time>
      </trkpt>
      <trkpt lat="42.837201" lon="-0.163541">
        <ele>1815.484</ele>
        <time>2022-04-27T12:40:09Z</time>
      </trkpt>
      <trkpt lat="42.837456" lon="-0.164036">
        <ele>1799.934</ele>
        <time>2022-04-27T12:40:09Z</time>
      </trkpt>
      <trkpt lat="42.837412" lon="-0.164357">
        <ele>1791.570</ele>
        <time>2022-04-27T12:40:09Z</time>
      </trkpt>
      <trkpt lat="42.837589" lon="-0.164531">
        <ele>1783.911</ele>
        <time>2022-04-27T12:40:09Z</time>
      </trkpt>
      <trkpt lat="42.837564" lon="-0.164785">
        <ele>1777.368</ele>
        <time>2022-04-27T12:40:09Z</time>
      </trkpt>
      <trkpt lat="42.837657" lon="-0.164812">
        <ele>1774.084</ele>
        <time>2022-04-27T12:40:09Z</time>
      </trkpt>
      <trkpt lat="42.837697" lon="-0.165006">
        <ele>1769.550</ele>
        <time>2022-04-27T12:40:09Z</time>
      </trkpt>
      <trkpt lat="42.837785" lon="-0.165012">
        <ele>1767.022</ele>
        <time>2022-04-27T12:40:09Z</time>
      </trkpt>
      <trkpt lat="42.837898" lon="-0.165180">
        <ele>1762.362</ele>
        <time>2022-04-27T12:40:09Z</time>
      </trkpt>
      <trkpt lat="42.837868" lon="-0.165253">
        <ele>1760.608</ele>
        <time>2022-04-27T12:40:09Z</time>
      </trkpt>
      <trkpt lat="42.837932" lon="-0.165327">
        <ele>1758.209</ele>
        <time>2022-04-27T12:40:09Z</time>
      </trkpt>
      <trkpt lat="42.837903" lon="-0.165387">
        <ele>1756.763</ele>
        <time>2022-04-27T12:40:09Z</time>
      </trkpt>
      <trkpt lat="42.838015" lon="-0.165481">
        <ele>1753.032</ele>
        <time>2022-04-27T12:40:09Z</time>
      </trkpt>
      <trkpt lat="42.838094" lon="-0.165661">
        <ele>1748.713</ele>
        <time>2022-04-27T12:40:09Z</time>
      </trkpt>
      <trkpt lat="42.838187" lon="-0.165708">
        <ele>1745.923</ele>
        <time>2022-04-27T12:40:09Z</time>
      </trkpt>
      <trkpt lat="42.838217" lon="-0.165860">
        <ele>1742.649</ele>
        <time>2022-04-27T12:40:09Z</time>
      </trkpt>
      <trkpt lat="42.838070" lon="-0.165989">
        <ele>1737.720</ele>
        <time>2022-04-27T12:40:09Z</time>
      </trkpt>
      <trkpt lat="42.838034" lon="-0.166046">
        <ele>1736.117</ele>
        <time>2022-04-27T12:40:09Z</time>
      </trkpt>
      <trkpt lat="42.837964" lon="-0.166278">
        <ele>1730.953</ele>
        <time>2022-04-27T12:40:09Z</time>
      </trkpt>
      <trkpt lat="42.837927" lon="-0.166676">
        <ele>1722.629</ele>
        <time>2022-04-27T12:40:09Z</time>
      </trkpt>
      <trkpt lat="42.837747" lon="-0.166911">
        <ele>1720.038</ele>
        <time>2022-04-27T12:40:09Z</time>
      </trkpt>
      <trkpt lat="42.837664" lon="-0.166897">
        <ele>1719.470</ele>
        <time>2022-04-27T12:40:09Z</time>
      </trkpt>
      <trkpt lat="42.837263" lon="-0.166500">
        <ele>1715.617</ele>
        <time>2022-04-27T12:40:09Z</time>
      </trkpt>
      <trkpt lat="42.837149" lon="-0.166565">
        <ele>1714.709</ele>
        <time>2022-04-27T12:40:09Z</time>
      </trkpt>
      <trkpt lat="42.837283" lon="-0.167227">
        <ele>1710.854</ele>
        <time>2022-04-27T12:40:09Z</time>
      </trkpt>
      <trkpt lat="42.837249" lon="-0.167307">
        <ele>1710.353</ele>
        <time>2022-04-27T12:40:09Z</time>
      </trkpt>
      <trkpt lat="42.837066" lon="-0.167414">
        <ele>1708.824</ele>
        <time>2022-04-27T12:40:09Z</time>
      </trkpt>
      <trkpt lat="42.836974" lon="-0.167651">
        <ele>1708.314</ele>
        <time>2022-04-27T12:40:09Z</time>
      </trkpt>
      <trkpt lat="42.836961" lon="-0.167802">
        <ele>1708.840</ele>
        <time>2022-04-27T12:40:09Z</time>
      </trkpt>
      <trkpt lat="42.837093" lon="-0.168242">
        <ele>1710.291</ele>
        <time>2022-04-27T12:40:09Z</time>
      </trkpt>
      <trkpt lat="42.836613" lon="-0.169186">
        <ele>1713.688</ele>
        <time>2022-04-27T12:40:09Z</time>
      </trkpt>
      <trkpt lat="42.836413" lon="-0.169928">
        <ele>1716.424</ele>
        <time>2022-04-27T12:40:09Z</time>
      </trkpt>
      <trkpt lat="42.835802" lon="-0.170696">
        <ele>1722.090</ele>
        <time>2022-04-27T12:40:09Z</time>
      </trkpt>
      <trkpt lat="42.835768" lon="-0.170848">
        <ele>1722.893</ele>
        <time>2022-04-27T12:40:09Z</time>
      </trkpt>
      <trkpt lat="42.835798" lon="-0.171674">
        <ele>1726.965</ele>
        <time>2022-04-27T12:40:09Z</time>
      </trkpt>
      <trkpt lat="42.835742" lon="-0.171873">
        <ele>1728.621</ele>
        <time>2022-04-27T12:40:09Z</time>
      </trkpt>
      <trkpt lat="42.835624" lon="-0.172004">
        <ele>1730.909</ele>
        <time>2022-04-27T12:40:09Z</time>
      </trkpt>
      <trkpt lat="42.834715" lon="-0.172304">
        <ele>1745.190</ele>
        <time>2022-04-27T12:40:09Z</time>
      </trkpt>
      <trkpt lat="42.834095" lon="-0.172781">
        <ele>1756.339</ele>
        <time>2022-04-27T12:40:09Z</time>
      </trkpt>
      <trkpt lat="42.833819" lon="-0.172889">
        <ele>1762.060</ele>
        <time>2022-04-27T12:40:09Z</time>
      </trkpt>
      <trkpt lat="42.833357" lon="-0.172931">
        <ele>1771.260</ele>
        <time>2022-04-27T12:40:09Z</time>
      </trkpt>
      <trkpt lat="42.833094" lon="-0.172868">
        <ele>1776.556</ele>
        <time>2022-04-27T12:40:09Z</time>
      </trkpt>
      <trkpt lat="42.832397" lon="-0.173180">
        <ele>1790.497</ele>
        <time>2022-04-27T12:40:09Z</time>
      </trkpt>
      <trkpt lat="42.831775" lon="-0.173378">
        <ele>1790.964</ele>
        <time>2022-04-27T12:40:09Z</time>
      </trkpt>
      <trkpt lat="42.831496" lon="-0.173506">
        <ele>1791.160</ele>
        <time>2022-04-27T12:40:09Z</time>
      </trkpt>
      <trkpt lat="42.831334" lon="-0.173875">
        <ele>1791.346</ele>
        <time>2022-04-27T12:40:09Z</time>
      </trkpt>
      <trkpt lat="42.831365" lon="-0.174022">
        <ele>1791.424</ele>
        <time>2022-04-27T12:40:09Z</time>
      </trkpt>
      <trkpt lat="42.831052" lon="-0.174484">
        <ele>1791.004</ele>
        <time>2022-04-27T12:40:09Z</time>
      </trkpt>
      <trkpt lat="42.830720" lon="-0.175155">
        <ele>1783.514</ele>
        <time>2022-04-27T12:40:09Z</time>
      </trkpt>
      <trkpt lat="42.830264" lon="-0.175542">
        <ele>1776.709</ele>
        <time>2022-04-27T12:40:09Z</time>
      </trkpt>
      <trkpt lat="42.830054" lon="-0.175867">
        <ele>1772.763</ele>
        <time>2022-04-27T12:40:09Z</time>
      </trkpt>
      <trkpt lat="42.829662" lon="-0.176126">
        <ele>1767.512</ele>
        <time>2022-04-27T12:40:09Z</time>
      </trkpt>
      <trkpt lat="42.828929" lon="-0.177239">
        <ele>1756.443</ele>
        <time>2022-04-27T12:40:09Z</time>
      </trkpt>
      <trkpt lat="42.828786" lon="-0.177391">
        <ele>1754.623</ele>
        <time>2022-04-27T12:40:09Z</time>
      </trkpt>
      <trkpt lat="42.828637" lon="-0.177759">
        <ele>1751.519</ele>
        <time>2022-04-27T12:40:09Z</time>
      </trkpt>
      <trkpt lat="42.828005" lon="-0.178585">
        <ele>1748.580</ele>
        <time>2022-04-27T12:40:09Z</time>
      </trkpt>
      <trkpt lat="42.828018" lon="-0.178639">
        <ele>1748.467</ele>
        <time>2022-04-27T12:40:09Z</time>
      </trkpt>
      <trkpt lat="42.828229" lon="-0.178667">
        <ele>1747.853</ele>
        <time>2022-04-27T12:40:09Z</time>
      </trkpt>
      <trkpt lat="42.828544" lon="-0.178614">
        <ele>1746.979</ele>
        <time>2022-04-27T12:40:09Z</time>
      </trkpt>
      <trkpt lat="42.828544" lon="-0.178710">
        <ele>1746.732</ele>
        <time>2022-04-27T12:40:09Z</time>
      </trkpt>
      <trkpt lat="42.827749" lon="-0.179558">
        <ele>1750.592</ele>
        <time>2022-04-27T12:40:09Z</time>
      </trkpt>
      <trkpt lat="42.827473" lon="-0.179740">
        <ele>1752.711</ele>
        <time>2022-04-27T12:40:09Z</time>
      </trkpt>
      <trkpt lat="42.827544" lon="-0.179923">
        <ele>1753.809</ele>
        <time>2022-04-27T12:40:09Z</time>
      </trkpt>
      <trkpt lat="42.827316" lon="-0.180073">
        <ele>1755.684</ele>
        <time>2022-04-27T12:40:09Z</time>
      </trkpt>
      <trkpt lat="42.827064" lon="-0.180835">
        <ele>1760.773</ele>
        <time>2022-04-27T12:40:09Z</time>
      </trkpt>
      <trkpt lat="42.826592" lon="-0.181360">
        <ele>1767.484</ele>
        <time>2022-04-27T12:40:09Z</time>
      </trkpt>
      <trkpt lat="42.826458" lon="-0.181725">
        <ele>1770.774</ele>
        <time>2022-04-27T12:40:09Z</time>
      </trkpt>
      <trkpt lat="42.826128" lon="-0.181940">
        <ele>1774.720</ele>
        <time>2022-04-27T12:40:09Z</time>
      </trkpt>
      <trkpt lat="42.825483" lon="-0.182669">
        <ele>1781.151</ele>
        <time>2022-04-27T12:40:09Z</time>
      </trkpt>
      <trkpt lat="42.825365" lon="-0.182873">
        <ele>1782.128</ele>
        <time>2022-04-27T12:40:09Z</time>
      </trkpt>
      <trkpt lat="42.825310" lon="-0.183195">
        <ele>1783.464</ele>
        <time>2022-04-27T12:40:09Z</time>
      </trkpt>
      <trkpt lat="42.825160" lon="-0.183366">
        <ele>1784.480</ele>
        <time>2022-04-27T12:40:09Z</time>
      </trkpt>
      <trkpt lat="42.824995" lon="-0.183452">
        <ele>1785.321</ele>
        <time>2022-04-27T12:40:09Z</time>
      </trkpt>
      <trkpt lat="42.824704" lon="-0.183452">
        <ele>1786.841</ele>
        <time>2022-04-27T12:40:09Z</time>
      </trkpt>
      <trkpt lat="42.824617" lon="-0.183806">
        <ele>1788.105</ele>
        <time>2022-04-27T12:40:09Z</time>
      </trkpt>
      <trkpt lat="42.824452" lon="-0.183935">
        <ele>1788.809</ele>
        <time>2022-04-27T12:40:09Z</time>
      </trkpt>
      <trkpt lat="42.824365" lon="-0.183882">
        <ele>1789.243</ele>
        <time>2022-04-27T12:40:09Z</time>
      </trkpt>
      <trkpt lat="42.824192" lon="-0.183967">
        <ele>1789.952</ele>
        <time>2022-04-27T12:40:09Z</time>
      </trkpt>
      <trkpt lat="42.823925" lon="-0.184332">
        <ele>1791.323</ele>
        <time>2022-04-27T12:40:09Z</time>
      </trkpt>
      <trkpt lat="42.823720" lon="-0.184793">
        <ele>1792.843</ele>
        <time>2022-04-27T12:40:09Z</time>
      </trkpt>
      <trkpt lat="42.823216" lon="-0.185233">
        <ele>1795.369</ele>
        <time>2022-04-27T12:40:09Z</time>
      </trkpt>
      <trkpt lat="42.823004" lon="-0.185330">
        <ele>1796.660</ele>
        <time>2022-04-27T12:40:09Z</time>
      </trkpt>
      <trkpt lat="42.822839" lon="-0.185308">
        <ele>1797.647</ele>
        <time>2022-04-27T12:40:09Z</time>
      </trkpt>
      <trkpt lat="42.822398" lon="-0.185577">
        <ele>1800.553</ele>
        <time>2022-04-27T12:40:09Z</time>
      </trkpt>
      <trkpt lat="42.822107" lon="-0.185641">
        <ele>1802.369</ele>
        <time>2022-04-27T12:40:09Z</time>
      </trkpt>
      <trkpt lat="42.821706" lon="-0.185941">
        <ele>1805.194</ele>
        <time>2022-04-27T12:40:09Z</time>
      </trkpt>
      <trkpt lat="42.821548" lon="-0.186177">
        <ele>1806.057</ele>
        <time>2022-04-27T12:40:09Z</time>
      </trkpt>
      <trkpt lat="42.821454" lon="-0.186478">
        <ele>1806.822</ele>
        <time>2022-04-27T12:40:09Z</time>
      </trkpt>
      <trkpt lat="42.821170" lon="-0.187047">
        <ele>1808.409</ele>
        <time>2022-04-27T12:40:09Z</time>
      </trkpt>
      <trkpt lat="42.821107" lon="-0.187347">
        <ele>1809.130</ele>
        <time>2022-04-27T12:40:09Z</time>
      </trkpt>
      <trkpt lat="42.820572" lon="-0.187958">
        <ele>1811.439</ele>
        <time>2022-04-27T12:40:09Z</time>
      </trkpt>
      <trkpt lat="42.820509" lon="-0.188184">
        <ele>1812.150</ele>
        <time>2022-04-27T12:40:09Z</time>
      </trkpt>
      <trkpt lat="42.820029" lon="-0.188784">
        <ele>1814.740</ele>
        <time>2022-04-27T12:40:09Z</time>
      </trkpt>
      <trkpt lat="42.819786" lon="-0.189219">
        <ele>1816.336</ele>
        <time>2022-04-27T12:40:09Z</time>
      </trkpt>
      <trkpt lat="42.819565" lon="-0.189916">
        <ele>1818.687</ele>
        <time>2022-04-27T12:40:09Z</time>
      </trkpt>
      <trkpt lat="42.819339" lon="-0.190346">
        <ele>1821.364</ele>
        <time>2022-04-27T12:40:09Z</time>
      </trkpt>
      <trkpt lat="42.819276" lon="-0.190605">
        <ele>1822.750</ele>
        <time>2022-04-27T12:40:09Z</time>
      </trkpt>
      <trkpt lat="42.819333" lon="-0.191173">
        <ele>1825.746</ele>
        <time>2022-04-27T12:40:09Z</time>
      </trkpt>
      <trkpt lat="42.819294" lon="-0.191427">
        <ele>1827.046</ele>
        <time>2022-04-27T12:40:09Z</time>
      </trkpt>
      <trkpt lat="42.819231" lon="-0.191638">
        <ele>1828.288</ele>
        <time>2022-04-27T12:40:09Z</time>
      </trkpt>
      <trkpt lat="42.819087" lon="-0.191826">
        <ele>1829.616</ele>
        <time>2022-04-27T12:40:09Z</time>
      </trkpt>
      <trkpt lat="42.819198" lon="-0.192056">
        <ele>1831.009</ele>
        <time>2022-04-27T12:40:09Z</time>
      </trkpt>
      <trkpt lat="42.819238" lon="-0.192363">
        <ele>1832.375</ele>
        <time>2022-04-27T12:40:09Z</time>
      </trkpt>
      <trkpt lat="42.819207" lon="-0.192686">
        <ele>1833.694</ele>
        <time>2022-04-27T12:40:09Z</time>
      </trkpt>
      <trkpt lat="42.819097" lon="-0.192987">
        <ele>1835.015</ele>
        <time>2022-04-27T12:40:09Z</time>
      </trkpt>
      <trkpt lat="42.819089" lon="-0.193225">
        <ele>1836.085</ele>
        <time>2022-04-27T12:40:09Z</time>
      </trkpt>
      <trkpt lat="42.819161" lon="-0.193303">
        <ele>1836.571</ele>
        <time>2022-04-27T12:40:09Z</time>
      </trkpt>
      <trkpt lat="42.819283" lon="-0.193261">
        <ele>1837.282</ele>
        <time>2022-04-27T12:40:09Z</time>
      </trkpt>
      <trkpt lat="42.819321" lon="-0.193300">
        <ele>1837.549</ele>
        <time>2022-04-27T12:40:09Z</time>
      </trkpt>
      <trkpt lat="42.819319" lon="-0.193588">
        <ele>1838.745</ele>
        <time>2022-04-27T12:40:09Z</time>
      </trkpt>
      <trkpt lat="42.819452" lon="-0.193511">
        <ele>1839.561</ele>
        <time>2022-04-27T12:40:09Z</time>
      </trkpt>
      <trkpt lat="42.819521" lon="-0.193595">
        <ele>1840.051</ele>
        <time>2022-04-27T12:40:09Z</time>
      </trkpt>
      <trkpt lat="42.819605" lon="-0.193837">
        <ele>1841.101</ele>
        <time>2022-04-27T12:40:09Z</time>
      </trkpt>
      <trkpt lat="42.819567" lon="-0.194073">
        <ele>1841.111</ele>
        <time>2022-04-27T12:40:09Z</time>
      </trkpt>
      <trkpt lat="42.819837" lon="-0.194570">
        <ele>1841.109</ele>
        <time>2022-04-27T12:40:09Z</time>
      </trkpt>
      <trkpt lat="42.819941" lon="-0.194822">
        <ele>1841.146</ele>
        <time>2022-04-27T12:40:09Z</time>
      </trkpt>
      <trkpt lat="42.820029" lon="-0.194837">
        <ele>1841.175</ele>
        <time>2022-04-27T12:40:09Z</time>
      </trkpt>
      <trkpt lat="42.820069" lon="-0.195005">
        <ele>1841.136</ele>
        <time>2022-04-27T12:40:09Z</time>
      </trkpt>
      <trkpt lat="42.820069" lon="-0.195005">
        <ele>1863.059</ele>
        <time>2022-04-27T12:39:50Z</time>
      </trkpt>
      <trkpt lat="42.820071" lon="-0.195012">
        <ele>1863.003</ele>
        <time>2022-04-27T12:39:50Z</time>
      </trkpt>
      <trkpt lat="42.820159" lon="-0.195300">
        <ele>1863.023</ele>
        <time>2022-04-27T12:39:50Z</time>
      </trkpt>
      <trkpt lat="42.820255" lon="-0.195360">
        <ele>1863.009</ele>
        <time>2022-04-27T12:39:50Z</time>
      </trkpt>
      <trkpt lat="42.820356" lon="-0.195540">
        <ele>1863.026</ele>
        <time>2022-04-27T12:39:50Z</time>
      </trkpt>
      <trkpt lat="42.820479" lon="-0.195566">
        <ele>1863.095</ele>
        <time>2022-04-27T12:39:50Z</time>
      </trkpt>
      <trkpt lat="42.820596" lon="-0.195760">
        <ele>1863.046</ele>
        <time>2022-04-27T12:39:50Z</time>
      </trkpt>
      <trkpt lat="42.820737" lon="-0.195871">
        <ele>1863.936</ele>
        <time>2022-04-27T12:39:50Z</time>
      </trkpt>
      <trkpt lat="42.820753" lon="-0.195969">
        <ele>1864.782</ele>
        <time>2022-04-27T12:39:50Z</time>
      </trkpt>
      <trkpt lat="42.820846" lon="-0.195986">
        <ele>1865.883</ele>
        <time>2022-04-27T12:39:50Z</time>
      </trkpt>
      <trkpt lat="42.820826" lon="-0.196073">
        <ele>1866.619</ele>
        <time>2022-04-27T12:39:50Z</time>
      </trkpt>
      <trkpt lat="42.820919" lon="-0.196149">
        <ele>1867.813</ele>
        <time>2022-04-27T12:39:50Z</time>
      </trkpt>
      <trkpt lat="42.820925" lon="-0.196300">
        <ele>1869.046</ele>
        <time>2022-04-27T12:39:50Z</time>
      </trkpt>
      <trkpt lat="42.821148" lon="-0.196602">
        <ele>1872.545</ele>
        <time>2022-04-27T12:39:50Z</time>
      </trkpt>
      <trkpt lat="42.821261" lon="-0.196585">
        <ele>1873.847</ele>
        <time>2022-04-27T12:39:50Z</time>
      </trkpt>
      <trkpt lat="42.821432" lon="-0.196317">
        <ele>1876.711</ele>
        <time>2022-04-27T12:39:50Z</time>
      </trkpt>
      <trkpt lat="42.821523" lon="-0.196284">
        <ele>1877.809</ele>
        <time>2022-04-27T12:39:50Z</time>
      </trkpt>
      <trkpt lat="42.821647" lon="-0.196658">
        <ele>1881.295</ele>
        <time>2022-04-27T12:39:50Z</time>
      </trkpt>
      <trkpt lat="42.821651" lon="-0.196813">
        <ele>1882.524</ele>
        <time>2022-04-27T12:39:50Z</time>
      </trkpt>
      <trkpt lat="42.821803" lon="-0.197117">
        <ele>1887.995</ele>
        <time>2022-04-27T12:39:50Z</time>
      </trkpt>
      <trkpt lat="42.821922" lon="-0.197200">
        <ele>1891.035</ele>
        <time>2022-04-27T12:39:50Z</time>
      </trkpt>
      <trkpt lat="42.822201" lon="-0.197579">
        <ele>1900.061</ele>
        <time>2022-04-27T12:39:50Z</time>
      </trkpt>
      <trkpt lat="42.822302" lon="-0.197908">
        <ele>1906.072</ele>
        <time>2022-04-27T12:39:50Z</time>
      </trkpt>
      <trkpt lat="42.822496" lon="-0.198231">
        <ele>1913.048</ele>
        <time>2022-04-27T12:39:50Z</time>
      </trkpt>
      <trkpt lat="42.822509" lon="-0.198462">
        <ele>1916.972</ele>
        <time>2022-04-27T12:39:50Z</time>
      </trkpt>
      <trkpt lat="42.822736" lon="-0.198752">
        <ele>1924.025</ele>
        <time>2022-04-27T12:39:50Z</time>
      </trkpt>
      <trkpt lat="42.822858" lon="-0.198835">
        <ele>1927.937</ele>
        <time>2022-04-27T12:39:50Z</time>
      </trkpt>
      <trkpt lat="42.822997" lon="-0.199243">
        <ele>1937.849</ele>
        <time>2022-04-27T12:39:50Z</time>
      </trkpt>
      <trkpt lat="42.823249" lon="-0.199311">
        <ele>1945.513</ele>
        <time>2022-04-27T12:39:50Z</time>
      </trkpt>
      <trkpt lat="42.823237" lon="-0.199228">
        <ele>1947.409</ele>
        <time>2022-04-27T12:39:50Z</time>
      </trkpt>
      <trkpt lat="42.823272" lon="-0.199193">
        <ele>1948.774</ele>
        <time>2022-04-27T12:39:50Z</time>
      </trkpt>
      <trkpt lat="42.823588" lon="-0.199141">
        <ele>1958.323</ele>
        <time>2022-04-27T12:39:50Z</time>
      </trkpt>
      <trkpt lat="42.823632" lon="-0.199177">
        <ele>1959.894</ele>
        <time>2022-04-27T12:39:50Z</time>
      </trkpt>
      <trkpt lat="42.823721" lon="-0.199111">
        <ele>1962.834</ele>
        <time>2022-04-27T12:39:50Z</time>
      </trkpt>
      <trkpt lat="42.823740" lon="-0.199069">
        <ele>1963.940</ele>
        <time>2022-04-27T12:39:50Z</time>
      </trkpt>
      <trkpt lat="42.824178" lon="-0.199104">
        <ele>1977.141</ele>
        <time>2022-04-27T12:39:50Z</time>
      </trkpt>
      <trkpt lat="42.824440" lon="-0.199284">
        <ele>1983.017</ele>
        <time>2022-04-27T12:39:50Z</time>
      </trkpt>
      <trkpt lat="42.824988" lon="-0.199698">
        <ele>1994.371</ele>
        <time>2022-04-27T12:39:50Z</time>
      </trkpt>
      <trkpt lat="42.825111" lon="-0.199994">
        <ele>1998.824</ele>
        <time>2022-04-27T12:39:50Z</time>
      </trkpt>
      <trkpt lat="42.825396" lon="-0.200308">
        <ele>2005.427</ele>
        <time>2022-04-27T12:39:50Z</time>
      </trkpt>
      <trkpt lat="42.825709" lon="-0.200429">
        <ele>2011.168</ele>
        <time>2022-04-27T12:39:50Z</time>
      </trkpt>
      <trkpt lat="42.825855" lon="-0.201155">
        <ele>2016.614</ele>
        <time>2022-04-27T12:39:50Z</time>
      </trkpt>
      <trkpt lat="42.826083" lon="-0.201421">
        <ele>2019.609</ele>
        <time>2022-04-27T12:39:50Z</time>
      </trkpt>
      <trkpt lat="42.826055" lon="-0.201548">
        <ele>2020.613</ele>
        <time>2022-04-27T12:39:50Z</time>
      </trkpt>
      <trkpt lat="42.826210" lon="-0.201985">
        <ele>2024.232</ele>
        <time>2022-04-27T12:39:50Z</time>
      </trkpt>
      <trkpt lat="42.826051" lon="-0.202813">
        <ele>2030.073</ele>
        <time>2022-04-27T12:39:50Z</time>
      </trkpt>
      <trkpt lat="42.826122" lon="-0.203104">
        <ele>2031.693</ele>
        <time>2022-04-27T12:39:50Z</time>
      </trkpt>
      <trkpt lat="42.826010" lon="-0.203351">
        <ele>2033.199</ele>
        <time>2022-04-27T12:39:50Z</time>
      </trkpt>
      <trkpt lat="42.826130" lon="-0.203792">
        <ele>2035.540</ele>
        <time>2022-04-27T12:39:50Z</time>
      </trkpt>
      <trkpt lat="42.826532" lon="-0.204520">
        <ele>2040.276</ele>
        <time>2022-04-27T12:39:50Z</time>
      </trkpt>
      <trkpt lat="42.826539" lon="-0.204602">
        <ele>2040.640</ele>
        <time>2022-04-27T12:39:50Z</time>
      </trkpt>
      <trkpt lat="42.826504" lon="-0.204676">
        <ele>2041.163</ele>
        <time>2022-04-27T12:39:50Z</time>
      </trkpt>
      <trkpt lat="42.826220" lon="-0.204801">
        <ele>2044.061</ele>
        <time>2022-04-27T12:39:50Z</time>
      </trkpt>
      <trkpt lat="42.826289" lon="-0.205359">
        <ele>2048.321</ele>
        <time>2022-04-27T12:39:50Z</time>
      </trkpt>
      <trkpt lat="42.826401" lon="-0.205041">
        <ele>2051.013</ele>
        <time>2022-04-27T12:39:50Z</time>
      </trkpt>
      <trkpt lat="42.826450" lon="-0.205489">
        <ele>2054.409</ele>
        <time>2022-04-27T12:39:50Z</time>
      </trkpt>
      <trkpt lat="42.826411" lon="-0.205586">
        <ele>2055.247</ele>
        <time>2022-04-27T12:39:50Z</time>
      </trkpt>
      <trkpt lat="42.826702" lon="-0.206431">
        <ele>2064.056</ele>
        <time>2022-04-27T12:39:50Z</time>
      </trkpt>
      <trkpt lat="42.826788" lon="-0.207079">
        <ele>2073.187</ele>
        <time>2022-04-27T12:39:50Z</time>
      </trkpt>
      <trkpt lat="42.826946" lon="-0.207491">
        <ele>2079.597</ele>
        <time>2022-04-27T12:39:50Z</time>
      </trkpt>
      <trkpt lat="42.826998" lon="-0.207754">
        <ele>2083.373</ele>
        <time>2022-04-27T12:39:50Z</time>
      </trkpt>
      <trkpt lat="42.826957" lon="-0.207836">
        <ele>2084.744</ele>
        <time>2022-04-27T12:39:50Z</time>
      </trkpt>
      <trkpt lat="42.827134" lon="-0.207990">
        <ele>2088.610</ele>
        <time>2022-04-27T12:39:50Z</time>
      </trkpt>
      <trkpt lat="42.827481" lon="-0.208978">
        <ele>2104.534</ele>
        <time>2022-04-27T12:39:50Z</time>
      </trkpt>
      <trkpt lat="42.827487" lon="-0.209098">
        <ele>2106.337</ele>
        <time>2022-04-27T12:39:50Z</time>
      </trkpt>
      <trkpt lat="42.827548" lon="-0.209184">
        <ele>2108.111</ele>
        <time>2022-04-27T12:39:50Z</time>
      </trkpt>
      <trkpt lat="42.827572" lon="-0.209409">
        <ele>2111.521</ele>
        <time>2022-04-27T12:39:50Z</time>
      </trkpt>
      <trkpt lat="42.827469" lon="-0.209986">
        <ele>2120.403</ele>
        <time>2022-04-27T12:39:50Z</time>
      </trkpt>
      <trkpt lat="42.827743" lon="-0.210791">
        <ele>2133.909</ele>
        <time>2022-04-27T12:39:50Z</time>
      </trkpt>
      <trkpt lat="42.827759" lon="-0.210968">
        <ele>2136.822</ele>
        <time>2022-04-27T12:39:50Z</time>
      </trkpt>
      <trkpt lat="42.827914" lon="-0.211185">
        <ele>2141.751</ele>
        <time>2022-04-27T12:39:50Z</time>
      </trkpt>
      <trkpt lat="42.828270" lon="-0.212008">
        <ele>2157.222</ele>
        <time>2022-04-27T12:39:50Z</time>
      </trkpt>
      <trkpt lat="42.828604" lon="-0.212373">
        <ele>2166.782</ele>
        <time>2022-04-27T12:39:50Z</time>
      </trkpt>
      <trkpt lat="42.828736" lon="-0.212668">
        <ele>2173.148</ele>
        <time>2022-04-27T12:39:50Z</time>
      </trkpt>
      <trkpt lat="42.828784" lon="-0.213119">
        <ele>2183.899</ele>
        <time>2022-04-27T12:39:50Z</time>
      </trkpt>
      <trkpt lat="42.828852" lon="-0.213172">
        <ele>2186.355</ele>
        <time>2022-04-27T12:39:50Z</time>
      </trkpt>
      <trkpt lat="42.828782" lon="-0.213561">
        <ele>2195.779</ele>
        <time>2022-04-27T12:39:50Z</time>
      </trkpt>
      <trkpt lat="42.828929" lon="-0.215131">
        <ele>2232.822</ele>
        <time>2022-04-27T12:39:50Z</time>
      </trkpt>
      <trkpt lat="42.828724" lon="-0.215506">
        <ele>2243.975</ele>
        <time>2022-04-27T12:39:50Z</time>
      </trkpt>
      <trkpt lat="42.828606" lon="-0.215887">
        <ele>2253.728</ele>
        <time>2022-04-27T12:39:50Z</time>
      </trkpt>
      <trkpt lat="42.828392" lon="-0.216276">
        <ele>2265.320</ele>
        <time>2022-04-27T12:39:50Z</time>
      </trkpt>
      <trkpt lat="42.828178" lon="-0.216922">
        <ele>2282.209</ele>
        <time>2022-04-27T12:39:50Z</time>
      </trkpt>
      <trkpt lat="42.828044" lon="-0.217081">
        <ele>2287.038</ele>
        <time>2022-04-27T12:39:50Z</time>
      </trkpt>
      <trkpt lat="42.827922" lon="-0.217365">
        <ele>2290.347</ele>
        <time>2022-04-27T12:39:50Z</time>
      </trkpt>
      <trkpt lat="42.827841" lon="-0.217663">
        <ele>2293.518</ele>
        <time>2022-04-27T12:39:50Z</time>
      </trkpt>
      <trkpt lat="42.827891" lon="-0.218135">
        <ele>2298.368</ele>
        <time>2022-04-27T12:39:50Z</time>
      </trkpt>
      <trkpt lat="42.827843" lon="-0.218306">
        <ele>2300.144</ele>
        <time>2022-04-27T12:39:50Z</time>
      </trkpt>
      <trkpt lat="42.827906" lon="-0.218344">
        <ele>2301.075</ele>
        <time>2022-04-27T12:39:50Z</time>
      </trkpt>
      <trkpt lat="42.827981" lon="-0.218531">
        <ele>2303.141</ele>
        <time>2022-04-27T12:39:50Z</time>
      </trkpt>
      <trkpt lat="42.828044" lon="-0.219135">
        <ele>2309.275</ele>
        <time>2022-04-27T12:39:50Z</time>
      </trkpt>
      <trkpt lat="42.827942" lon="-0.219385">
        <ele>2311.258</ele>
        <time>2022-04-27T12:39:50Z</time>
      </trkpt>
      <trkpt lat="42.827906" lon="-0.219759">
        <ele>2312.494</ele>
        <time>2022-04-27T12:39:50Z</time>
      </trkpt>
      <trkpt lat="42.827696" lon="-0.220135">
        <ele>2314.057</ele>
        <time>2022-04-27T12:39:50Z</time>
      </trkpt>
      <trkpt lat="42.827618" lon="-0.220394">
        <ele>2314.922</ele>
        <time>2022-04-27T12:39:50Z</time>
      </trkpt>
      <trkpt lat="42.827808" lon="-0.220686">
        <ele>2316.209</ele>
        <time>2022-04-27T12:39:50Z</time>
      </trkpt>
      <trkpt lat="42.827883" lon="-0.221091">
        <ele>2317.660</ele>
        <time>2022-04-27T12:39:50Z</time>
      </trkpt>
      <trkpt lat="42.827892" lon="-0.221631">
        <ele>2319.729</ele>
        <time>2022-04-27T12:39:50Z</time>
      </trkpt>
      <trkpt lat="42.828081" lon="-0.221994">
        <ele>2322.060</ele>
        <time>2022-04-27T12:39:50Z</time>
      </trkpt>
      <trkpt lat="42.828256" lon="-0.222654">
        <ele>2325.650</ele>
        <time>2022-04-27T12:39:50Z</time>
      </trkpt>
      <trkpt lat="42.828261" lon="-0.222870">
        <ele>2326.746</ele>
        <time>2022-04-27T12:39:50Z</time>
      </trkpt>
      <trkpt lat="42.827962" lon="-0.223142">
        <ele>2329.247</ele>
        <time>2022-04-27T12:39:50Z</time>
      </trkpt>
      <trkpt lat="42.827899" lon="-0.223269">
        <ele>2330.023</ele>
        <time>2022-04-27T12:39:50Z</time>
      </trkpt>
      <trkpt lat="42.827928" lon="-0.223536">
        <ele>2331.417</ele>
        <time>2022-04-27T12:39:50Z</time>
      </trkpt>
      <trkpt lat="42.828001" lon="-0.223855">
        <ele>2334.060</ele>
        <time>2022-04-27T12:39:50Z</time>
      </trkpt>
      <trkpt lat="42.828341" lon="-0.224178">
        <ele>2338.625</ele>
        <time>2022-04-27T12:39:50Z</time>
      </trkpt>
      <trkpt lat="42.828343" lon="-0.224228">
        <ele>2339.026</ele>
        <time>2022-04-27T12:39:50Z</time>
      </trkpt>
      <trkpt lat="42.828111" lon="-0.224490">
        <ele>2342.308</ele>
        <time>2022-04-27T12:39:50Z</time>
      </trkpt>
      <trkpt lat="42.827944" lon="-0.224873">
        <ele>2345.909</ele>
        <time>2022-04-27T12:39:50Z</time>
      </trkpt>
      <trkpt lat="42.828240" lon="-0.225288">
        <ele>2350.613</ele>
        <time>2022-04-27T12:39:50Z</time>
      </trkpt>
      <trkpt lat="42.828206" lon="-0.225609">
        <ele>2352.652</ele>
        <time>2022-04-27T12:39:50Z</time>
      </trkpt>
      <trkpt lat="42.828286" lon="-0.225805">
        <ele>2353.823</ele>
        <time>2022-04-27T12:39:50Z</time>
      </trkpt>
      <trkpt lat="42.828685" lon="-0.226005">
        <ele>2357.093</ele>
        <time>2022-04-27T12:39:50Z</time>
      </trkpt>
      <trkpt lat="42.828981" lon="-0.226060">
        <ele>2359.259</ele>
        <time>2022-04-27T12:39:50Z</time>
      </trkpt>
      <trkpt lat="42.829031" lon="-0.226190">
        <ele>2360.070</ele>
        <time>2022-04-27T12:39:50Z</time>
      </trkpt>
      <trkpt lat="42.829291" lon="-0.226454">
        <ele>2362.446</ele>
        <time>2022-04-27T12:39:50Z</time>
      </trkpt>
      <trkpt lat="42.829489" lon="-0.226754">
        <ele>2364.640</ele>
        <time>2022-04-27T12:39:50Z</time>
      </trkpt>
      <trkpt lat="42.829625" lon="-0.226688">
        <ele>2365.483</ele>
        <time>2022-04-27T12:39:50Z</time>
      </trkpt>
      <trkpt lat="42.830004" lon="-0.226836">
        <ele>2367.497</ele>
        <time>2022-04-27T12:39:50Z</time>
      </trkpt>
      <trkpt lat="42.830056" lon="-0.226909">
        <ele>2367.823</ele>
        <time>2022-04-27T12:39:50Z</time>
      </trkpt>
      <trkpt lat="42.829983" lon="-0.227023">
        <ele>2368.425</ele>
        <time>2022-04-27T12:39:50Z</time>
      </trkpt>
      <trkpt lat="42.830050" lon="-0.227292">
        <ele>2369.509</ele>
        <time>2022-04-27T12:39:50Z</time>
      </trkpt>
      <trkpt lat="42.829997" lon="-0.227571">
        <ele>2370.640</ele>
        <time>2022-04-27T12:39:50Z</time>
      </trkpt>
      <trkpt lat="42.830052" lon="-0.227780">
        <ele>2371.419</ele>
        <time>2022-04-27T12:39:50Z</time>
      </trkpt>
      <trkpt lat="42.829995" lon="-0.228029">
        <ele>2372.410</ele>
        <time>2022-04-27T12:39:50Z</time>
      </trkpt>
      <trkpt lat="42.830092" lon="-0.228389">
        <ele>2373.840</ele>
        <time>2022-04-27T12:39:50Z</time>
      </trkpt>
      <trkpt lat="42.830247" lon="-0.229580">
        <ele>2384.136</ele>
        <time>2022-04-27T12:39:50Z</time>
      </trkpt>
      <trkpt lat="42.830438" lon="-0.230422">
        <ele>2391.897</ele>
        <time>2022-04-27T12:39:50Z</time>
      </trkpt>
      <trkpt lat="42.830538" lon="-0.230634">
        <ele>2394.053</ele>
        <time>2022-04-27T12:39:50Z</time>
      </trkpt>
      <trkpt lat="42.830536" lon="-0.230797">
        <ele>2395.477</ele>
        <time>2022-04-27T12:39:50Z</time>
      </trkpt>
      <trkpt lat="42.830644" lon="-0.231312">
        <ele>2400.620</ele>
        <time>2022-04-27T12:39:50Z</time>
      </trkpt>
      <trkpt lat="42.830635" lon="-0.231613">
        <ele>2403.544</ele>
        <time>2022-04-27T12:39:50Z</time>
      </trkpt>
      <trkpt lat="42.830511" lon="-0.231859">
        <ele>2406.405</ele>
        <time>2022-04-27T12:39:50Z</time>
      </trkpt>
      <trkpt lat="42.830574" lon="-0.231985">
        <ele>2407.915</ele>
        <time>2022-04-27T12:39:50Z</time>
      </trkpt>
      <trkpt lat="42.830650" lon="-0.232533">
        <ele>2413.309</ele>
        <time>2022-04-27T12:39:50Z</time>
      </trkpt>
      <trkpt lat="42.830715" lon="-0.232570">
        <ele>2414.225</ele>
        <time>2022-04-27T12:39:50Z</time>
      </trkpt>
      <trkpt lat="42.830582" lon="-0.233324">
        <ele>2423.564</ele>
        <time>2022-04-27T12:39:50Z</time>
      </trkpt>
      <trkpt lat="42.830363" lon="-0.233616">
        <ele>2430.265</ele>
        <time>2022-04-27T12:39:50Z</time>
      </trkpt>
      <trkpt lat="42.830343" lon="-0.233761">
        <ele>2432.655</ele>
        <time>2022-04-27T12:39:50Z</time>
      </trkpt>
      <trkpt lat="42.830153" lon="-0.233734">
        <ele>2436.821</ele>
        <time>2022-04-27T12:39:50Z</time>
      </trkpt>
      <trkpt lat="42.830184" lon="-0.233898">
        <ele>2439.532</ele>
        <time>2022-04-27T12:39:50Z</time>
      </trkpt>
      <trkpt lat="42.830339" lon="-0.234031">
        <ele>2443.568</ele>
        <time>2022-04-27T12:39:50Z</time>
      </trkpt>
      <trkpt lat="42.830065" lon="-0.234161">
        <ele>2449.952</ele>
        <time>2022-04-27T12:39:50Z</time>
      </trkpt>
      <trkpt lat="42.830139" lon="-0.234475">
        <ele>2455.215</ele>
        <time>2022-04-27T12:39:50Z</time>
      </trkpt>
      <trkpt lat="42.829809" lon="-0.236015">
        <ele>2485.831</ele>
        <time>2022-04-27T12:39:50Z</time>
      </trkpt>
      <trkpt lat="42.829826" lon="-0.236116">
        <ele>2487.861</ele>
        <time>2022-04-27T12:39:50Z</time>
      </trkpt>
      <trkpt lat="42.829921" lon="-0.236076">
        <ele>2490.407</ele>
        <time>2022-04-27T12:39:50Z</time>
      </trkpt>
      <trkpt lat="42.830308" lon="-0.236214">
        <ele>2501.109</ele>
        <time>2022-04-27T12:39:50Z</time>
      </trkpt>
      <trkpt lat="42.830427" lon="-0.236381">
        <ele>2505.734</ele>
        <time>2022-04-27T12:39:50Z</time>
      </trkpt>
      <trkpt lat="42.830226" lon="-0.236484">
        <ele>2510.283</ele>
        <time>2022-04-27T12:39:50Z</time>
      </trkpt>
      <trkpt lat="42.830405" lon="-0.236851">
        <ele>2516.734</ele>
        <time>2022-04-27T12:39:50Z</time>
      </trkpt>
      <trkpt lat="42.830255" lon="-0.237035">
        <ele>2520.834</ele>
        <time>2022-04-27T12:39:50Z</time>
      </trkpt>
      <trkpt lat="42.830253" lon="-0.237213">
        <ele>2523.490</ele>
        <time>2022-04-27T12:39:50Z</time>
      </trkpt>
      <trkpt lat="42.830111" lon="-0.237672">
        <ele>2530.821</ele>
        <time>2022-04-27T12:39:50Z</time>
      </trkpt>
      <trkpt lat="42.830119" lon="-0.237806">
        <ele>2532.887</ele>
        <time>2022-04-27T12:39:50Z</time>
      </trkpt>
      <trkpt lat="42.829978" lon="-0.237970">
        <ele>2536.511</ele>
        <time>2022-04-27T12:39:50Z</time>
      </trkpt>
      <trkpt lat="42.829777" lon="-0.238530">
        <ele>2545.324</ele>
        <time>2022-04-27T12:39:50Z</time>
      </trkpt>
      <trkpt lat="42.829661" lon="-0.238594">
        <ele>2547.576</ele>
        <time>2022-04-27T12:39:50Z</time>
      </trkpt>
      <trkpt lat="42.829588" lon="-0.238774">
        <ele>2550.190</ele>
        <time>2022-04-27T12:39:50Z</time>
      </trkpt>
      <trkpt lat="42.829592" lon="-0.239031">
        <ele>2553.419</ele>
        <time>2022-04-27T12:39:50Z</time>
      </trkpt>
      <trkpt lat="42.829802" lon="-0.239391">
        <ele>2559.309</ele>
        <time>2022-04-27T12:39:50Z</time>
      </trkpt>
      <trkpt lat="42.829909" lon="-0.239894">
        <ele>2566.078</ele>
        <time>2022-04-27T12:39:50Z</time>
      </trkpt>
      <trkpt lat="42.829904" lon="-0.240109">
        <ele>2568.867</ele>
        <time>2022-04-27T12:39:50Z</time>
      </trkpt>
      <trkpt lat="42.829771" lon="-0.240518">
        <ele>2574.638</ele>
        <time>2022-04-27T12:39:50Z</time>
      </trkpt>
      <trkpt lat="42.829639" lon="-0.241358">
        <ele>2586.488</ele>
        <time>2022-04-27T12:39:50Z</time>
      </trkpt>
      <trkpt lat="42.829403" lon="-0.241680">
        <ele>2592.684</ele>
        <time>2022-04-27T12:39:50Z</time>
      </trkpt>
      <trkpt lat="42.829420" lon="-0.242265">
        <ele>2600.635</ele>
        <time>2022-04-27T12:39:50Z</time>
      </trkpt>
      <trkpt lat="42.829530" lon="-0.242995">
        <ele>2611.791</ele>
        <time>2022-04-27T12:39:50Z</time>
      </trkpt>
      <trkpt lat="42.829200" lon="-0.243470">
        <ele>2623.385</ele>
        <time>2022-04-27T12:39:50Z</time>
      </trkpt>
      <trkpt lat="42.828725" lon="-0.243613">
        <ele>2635.128</ele>
        <time>2022-04-27T12:39:50Z</time>
      </trkpt>
      <trkpt lat="42.827773" lon="-0.243552">
        <ele>2655.268</ele>
        <time>2022-04-27T12:39:50Z</time>
      </trkpt>
      <trkpt lat="42.827403" lon="-0.243961">
        <ele>2661.742</ele>
        <time>2022-04-27T12:39:50Z</time>
      </trkpt>
      <trkpt lat="42.827207" lon="-0.244016">
        <ele>2664.426</ele>
        <time>2022-04-27T12:39:50Z</time>
      </trkpt>
      <trkpt lat="42.827134" lon="-0.244232">
        <ele>2666.809</ele>
        <time>2022-04-27T12:39:50Z</time>
      </trkpt>
      <trkpt lat="42.827156" lon="-0.244395">
        <ele>2668.577</ele>
        <time>2022-04-27T12:39:50Z</time>
      </trkpt>
      <trkpt lat="42.827514" lon="-0.244480">
        <ele>2673.596</ele>
        <time>2022-04-27T12:39:50Z</time>
      </trkpt>
      <trkpt lat="42.827617" lon="-0.244559">
        <ele>2675.127</ele>
        <time>2022-04-27T12:39:50Z</time>
      </trkpt>
      <trkpt lat="42.827700" lon="-0.244621">
        <ele>2676.017</ele>
        <time>2022-04-27T12:39:50Z</time>
      </trkpt>
      <trkpt lat="42.827625" lon="-0.244739">
        <ele>2676.113</ele>
        <time>2022-04-27T12:39:50Z</time>
      </trkpt>
      <trkpt lat="42.827704" lon="-0.244689">
        <ele>2676.224</ele>
        <time>2022-04-27T12:39:50Z</time>
      </trkpt>
      <trkpt lat="42.827647" lon="-0.244820">
        <ele>2676.330</ele>
        <time>2022-04-27T12:39:50Z</time>
      </trkpt>
      <trkpt lat="42.827770" lon="-0.244707">
        <ele>2676.464</ele>
        <time>2022-04-27T12:39:50Z</time>
      </trkpt>
      <trkpt lat="42.827688" lon="-0.244879">
        <ele>2676.567</ele>
        <time>2022-04-27T12:39:50Z</time>
      </trkpt>
      <trkpt lat="42.827871" lon="-0.244729">
        <ele>2676.717</ele>
        <time>2022-04-27T12:39:50Z</time>
      </trkpt>
      <trkpt lat="42.827782" lon="-0.245107">
        <ele>2676.987</ele>
        <time>2022-04-27T12:39:50Z</time>
      </trkpt>
      <trkpt lat="42.827916" lon="-0.244962">
        <ele>2677.015</ele>
        <time>2022-04-27T12:39:50Z</time>
      </trkpt>
      <trkpt lat="42.828162" lon="-0.244833">
        <ele>2677.209</ele>
        <time>2022-04-27T12:39:50Z</time>
      </trkpt>
      <trkpt lat="42.828083" lon="-0.245206">
        <ele>2676.732</ele>
        <time>2022-04-27T12:39:50Z</time>
      </trkpt>
      <trkpt lat="42.828191" lon="-0.245096">
        <ele>2675.521</ele>
        <time>2022-04-27T12:39:50Z</time>
      </trkpt>
      <trkpt lat="42.828443" lon="-0.245002">
        <ele>2673.372</ele>
        <time>2022-04-27T12:39:50Z</time>
      </trkpt>
      <trkpt lat="42.828313" lon="-0.245203">
        <ele>2671.692</ele>
        <time>2022-04-27T12:39:50Z</time>
      </trkpt>
      <trkpt lat="42.828595" lon="-0.245072">
        <ele>2669.078</ele>
        <time>2022-04-27T12:39:50Z</time>
      </trkpt>
      <trkpt lat="42.828485" lon="-0.245246">
        <ele>2667.669</ele>
        <time>2022-04-27T12:39:50Z</time>
      </trkpt>
      <trkpt lat="42.828807" lon="-0.245166">
        <ele>2664.885</ele>
        <time>2022-04-27T12:39:50Z</time>
      </trkpt>
      <trkpt lat="42.828740" lon="-0.245464">
        <ele>2662.819</ele>
        <time>2022-04-27T12:39:50Z</time>
      </trkpt>
      <trkpt lat="42.828648" lon="-0.245547">
        <ele>2661.972</ele>
        <time>2022-04-27T12:39:50Z</time>
      </trkpt>
      <trkpt lat="42.828510" lon="-0.245942">
        <ele>2656.316</ele>
        <time>2022-04-27T12:39:50Z</time>
      </trkpt>
      <trkpt lat="42.828673" lon="-0.246491">
        <ele>2648.676</ele>
        <time>2022-04-27T12:39:50Z</time>
      </trkpt>
      <trkpt lat="42.828597" lon="-0.247113">
        <ele>2640.413</ele>
        <time>2022-04-27T12:39:50Z</time>
      </trkpt>
      <trkpt lat="42.828705" lon="-0.247041">
        <ele>2638.309</ele>
        <time>2022-04-27T12:39:50Z</time>
      </trkpt>
      <trkpt lat="42.828673" lon="-0.247210">
        <ele>2636.012</ele>
        <time>2022-04-27T12:39:50Z</time>
      </trkpt>
      <trkpt lat="42.828809" lon="-0.247076">
        <ele>2633.041</ele>
        <time>2022-04-27T12:39:50Z</time>
      </trkpt>
      <trkpt lat="42.828760" lon="-0.247290">
        <ele>2630.122</ele>
        <time>2022-04-27T12:39:50Z</time>
      </trkpt>
      <trkpt lat="42.829124" lon="-0.247116">
        <ele>2621.592</ele>
        <time>2022-04-27T12:39:50Z</time>
      </trkpt>
      <trkpt lat="42.829013" lon="-0.247515">
        <ele>2614.538</ele>
        <time>2022-04-27T12:39:50Z</time>
      </trkpt>
      <trkpt lat="42.829087" lon="-0.247854">
        <ele>2608.769</ele>
        <time>2022-04-27T12:39:50Z</time>
      </trkpt>
      <trkpt lat="42.828925" lon="-0.248071">
        <ele>2603.615</ele>
        <time>2022-04-27T12:39:50Z</time>
      </trkpt>
      <trkpt lat="42.828872" lon="-0.248401">
        <ele>2598.199</ele>
        <time>2022-04-27T12:39:50Z</time>
      </trkpt>
      <trkpt lat="42.828664" lon="-0.248554">
        <ele>2592.812</ele>
        <time>2022-04-27T12:39:50Z</time>
      </trkpt>
      <trkpt lat="42.828601" lon="-0.248781">
        <ele>2588.244</ele>
        <time>2022-04-27T12:39:50Z</time>
      </trkpt>
      <trkpt lat="42.828323" lon="-0.249128">
        <ele>2574.305</ele>
        <time>2022-04-27T12:39:50Z</time>
      </trkpt>
      <trkpt lat="42.828101" lon="-0.249854">
        <ele>2553.015</ele>
        <time>2022-04-27T12:39:50Z</time>
      </trkpt>
      <trkpt lat="42.828022" lon="-0.250431">
        <ele>2537.109</ele>
        <time>2022-04-27T12:39:50Z</time>
      </trkpt>
      <trkpt lat="42.827881" lon="-0.250635">
        <ele>2529.565</ele>
        <time>2022-04-27T12:39:50Z</time>
      </trkpt>
      <trkpt lat="42.827835" lon="-0.250863">
        <ele>2523.214</ele>
        <time>2022-04-27T12:39:50Z</time>
      </trkpt>
      <trkpt lat="42.827862" lon="-0.250998">
        <ele>2520.135</ele>
        <time>2022-04-27T12:39:50Z</time>
      </trkpt>
      <trkpt lat="42.828091" lon="-0.251204">
        <ele>2511.775</ele>
        <time>2022-04-27T12:39:50Z</time>
      </trkpt>
      <trkpt lat="42.828184" lon="-0.251397">
        <ele>2506.511</ele>
        <time>2022-04-27T12:39:50Z</time>
      </trkpt>
      <trkpt lat="42.828148" lon="-0.251641">
        <ele>2500.972</ele>
        <time>2022-04-27T12:39:50Z</time>
      </trkpt>
      <trkpt lat="42.828062" lon="-0.251735">
        <ele>2497.548</ele>
        <time>2022-04-27T12:39:50Z</time>
      </trkpt>
      <trkpt lat="42.827997" lon="-0.252078">
        <ele>2489.642</ele>
        <time>2022-04-27T12:39:50Z</time>
      </trkpt>
      <trkpt lat="42.827704" lon="-0.252781">
        <ele>2471.535</ele>
        <time>2022-04-27T12:39:50Z</time>
      </trkpt>
      <trkpt lat="42.827768" lon="-0.253394">
        <ele>2462.436</ele>
        <time>2022-04-27T12:39:50Z</time>
      </trkpt>
      <trkpt lat="42.827591" lon="-0.253659">
        <ele>2457.917</ele>
        <time>2022-04-27T12:39:50Z</time>
      </trkpt>
      <trkpt lat="42.826653" lon="-0.254707">
        <ele>2437.218</ele>
        <time>2022-04-27T12:39:50Z</time>
      </trkpt>
      <trkpt lat="42.826161" lon="-0.255412">
        <ele>2429.109</ele>
        <time>2022-04-27T12:39:50Z</time>
      </trkpt>
      <trkpt lat="42.826004" lon="-0.255535">
        <ele>2427.064</ele>
        <time>2022-04-27T12:39:50Z</time>
      </trkpt>
      <trkpt lat="42.825892" lon="-0.255468">
        <ele>2425.643</ele>
        <time>2022-04-27T12:39:50Z</time>
      </trkpt>
      <trkpt lat="42.825719" lon="-0.255594">
        <ele>2423.414</ele>
        <time>2022-04-27T12:39:50Z</time>
      </trkpt>
      <trkpt lat="42.825605" lon="-0.255718">
        <ele>2421.754</ele>
        <time>2022-04-27T12:39:50Z</time>
      </trkpt>
      <trkpt lat="42.825571" lon="-0.255852">
        <ele>2420.580</ele>
        <time>2022-04-27T12:39:50Z</time>
      </trkpt>
      <trkpt lat="42.825398" lon="-0.256120">
        <ele>2417.561</ele>
        <time>2022-04-27T12:39:50Z</time>
      </trkpt>
      <trkpt lat="42.824993" lon="-0.256230">
        <ele>2413.267</ele>
        <time>2022-04-27T12:39:50Z</time>
      </trkpt>
      <trkpt lat="42.824440" lon="-0.256587">
        <ele>2406.991</ele>
        <time>2022-04-27T12:39:50Z</time>
      </trkpt>
      <trkpt lat="42.824387" lon="-0.256783">
        <ele>2405.354</ele>
        <time>2022-04-27T12:39:50Z</time>
      </trkpt>
      <trkpt lat="42.824108" lon="-0.257048">
        <ele>2401.831</ele>
        <time>2022-04-27T12:39:50Z</time>
      </trkpt>
      <trkpt lat="42.823950" lon="-0.257367">
        <ele>2398.961</ele>
        <time>2022-04-27T12:39:50Z</time>
      </trkpt>
      <trkpt lat="42.823500" lon="-0.257888">
        <ele>2388.707</ele>
        <time>2022-04-27T12:39:50Z</time>
      </trkpt>
      <trkpt lat="42.823462" lon="-0.258097">
        <ele>2385.909</ele>
        <time>2022-04-27T12:39:50Z</time>
      </trkpt>
      <trkpt lat="42.823230" lon="-0.258708">
        <ele>2377.034</ele>
        <time>2022-04-27T12:39:50Z</time>
      </trkpt>
      <trkpt lat="42.823203" lon="-0.258915">
        <ele>2374.323</ele>
        <time>2022-04-27T12:39:50Z</time>
      </trkpt>
      <trkpt lat="42.822856" lon="-0.259787">
        <ele>2361.284</ele>
        <time>2022-04-27T12:39:50Z</time>
      </trkpt>
      <trkpt lat="42.822946" lon="-0.259970">
        <ele>2358.254</ele>
        <time>2022-04-27T12:39:50Z</time>
      </trkpt>
      <trkpt lat="42.823045" lon="-0.260045">
        <ele>2356.180</ele>
        <time>2022-04-27T12:39:50Z</time>
      </trkpt>
      <trkpt lat="42.824534" lon="-0.258670">
        <ele>2327.271</ele>
        <time>2022-04-27T12:39:50Z</time>
      </trkpt>
      <trkpt lat="42.825311" lon="-0.258055">
        <ele>2317.247</ele>
        <time>2022-04-27T12:39:50Z</time>
      </trkpt>
      <trkpt lat="42.825850" lon="-0.258013">
        <ele>2311.931</ele>
        <time>2022-04-27T12:39:50Z</time>
      </trkpt>
      <trkpt lat="42.826169" lon="-0.258050">
        <ele>2309.474</ele>
        <time>2022-04-27T12:39:50Z</time>
      </trkpt>
      <trkpt lat="42.827060" lon="-0.257884">
        <ele>2302.532</ele>
        <time>2022-04-27T12:39:50Z</time>
      </trkpt>
      <trkpt lat="42.827814" lon="-0.258007">
        <ele>2296.092</ele>
        <time>2022-04-27T12:39:50Z</time>
      </trkpt>
      <trkpt lat="42.828376" lon="-0.258016">
        <ele>2290.711</ele>
        <time>2022-04-27T12:39:50Z</time>
      </trkpt>
      <trkpt lat="42.829457" lon="-0.257649">
        <ele>2280.209</ele>
        <time>2022-04-27T12:39:50Z</time>
      </trkpt>
      <trkpt lat="42.829625" lon="-0.257638">
        <ele>2278.794</ele>
        <time>2022-04-27T12:39:50Z</time>
      </trkpt>
      <trkpt lat="42.830189" lon="-0.257304">
        <ele>2273.083</ele>
        <time>2022-04-27T12:39:50Z</time>
      </trkpt>
      <trkpt lat="42.830650" lon="-0.257393">
        <ele>2268.714</ele>
        <time>2022-04-27T12:39:50Z</time>
      </trkpt>
      <trkpt lat="42.830956" lon="-0.257373">
        <ele>2265.964</ele>
        <time>2022-04-27T12:39:50Z</time>
      </trkpt>
      <trkpt lat="42.830936" lon="-0.257198">
        <ele>2264.930</ele>
        <time>2022-04-27T12:39:50Z</time>
      </trkpt>
      <trkpt lat="42.831174" lon="-0.256843">
        <ele>2262.211</ele>
        <time>2022-04-27T12:39:50Z</time>
      </trkpt>
      <trkpt lat="42.831139" lon="-0.257112">
        <ele>2260.747</ele>
        <time>2022-04-27T12:39:50Z</time>
      </trkpt>
      <trkpt lat="42.831263" lon="-0.256918">
        <ele>2259.361</ele>
        <time>2022-04-27T12:39:50Z</time>
      </trkpt>
      <trkpt lat="42.831240" lon="-0.257178">
        <ele>2257.894</ele>
        <time>2022-04-27T12:39:50Z</time>
      </trkpt>
      <trkpt lat="42.831438" lon="-0.256846">
        <ele>2255.438</ele>
        <time>2022-04-27T12:39:50Z</time>
      </trkpt>
      <trkpt lat="42.831385" lon="-0.257224">
        <ele>2253.370</ele>
        <time>2022-04-27T12:39:50Z</time>
      </trkpt>
      <trkpt lat="42.831631" lon="-0.256890">
        <ele>2249.317</ele>
        <time>2022-04-27T12:39:50Z</time>
      </trkpt>
      <trkpt lat="42.831949" lon="-0.256740">
        <ele>2244.809</ele>
        <time>2022-04-27T12:39:50Z</time>
      </trkpt>
      <trkpt lat="42.832229" lon="-0.256392">
        <ele>2239.864</ele>
        <time>2022-04-27T12:39:50Z</time>
      </trkpt>
      <trkpt lat="42.832202" lon="-0.256557">
        <ele>2238.243</ele>
        <time>2022-04-27T12:39:50Z</time>
      </trkpt>
      <trkpt lat="42.832351" lon="-0.256386">
        <ele>2235.634</ele>
        <time>2022-04-27T12:39:50Z</time>
      </trkpt>
      <trkpt lat="42.832335" lon="-0.256595">
        <ele>2233.694</ele>
        <time>2022-04-27T12:39:50Z</time>
      </trkpt>
      <trkpt lat="42.832512" lon="-0.256402">
        <ele>2230.640</ele>
        <time>2022-04-27T12:39:50Z</time>
      </trkpt>
      <trkpt lat="42.832856" lon="-0.256233">
        <ele>2224.671</ele>
        <time>2022-04-27T12:39:50Z</time>
      </trkpt>
      <trkpt lat="42.833100" lon="-0.255945">
        <ele>2218.697</ele>
        <time>2022-04-27T12:39:50Z</time>
      </trkpt>
      <trkpt lat="42.833509" lon="-0.255783">
        <ele>2210.771</ele>
        <time>2022-04-27T12:39:50Z</time>
      </trkpt>
      <trkpt lat="42.833735" lon="-0.255547">
        <ele>2205.434</ele>
        <time>2022-04-27T12:39:50Z</time>
      </trkpt>
      <trkpt lat="42.834269" lon="-0.255239">
        <ele>2194.883</ele>
        <time>2022-04-27T12:39:50Z</time>
      </trkpt>
      <trkpt lat="42.834557" lon="-0.254984">
        <ele>2191.225</ele>
        <time>2022-04-27T12:39:50Z</time>
      </trkpt>
      <trkpt lat="42.834803" lon="-0.254966">
        <ele>2188.617</ele>
        <time>2022-04-27T12:39:50Z</time>
      </trkpt>
      <trkpt lat="42.835562" lon="-0.254727">
        <ele>2180.409</ele>
        <time>2022-04-27T12:39:50Z</time>
      </trkpt>
      <trkpt lat="42.835729" lon="-0.254770">
        <ele>2178.669</ele>
        <time>2022-04-27T12:39:50Z</time>
      </trkpt>
      <trkpt lat="42.835898" lon="-0.254735">
        <ele>2176.818</ele>
        <time>2022-04-27T12:39:50Z</time>
      </trkpt>
      <trkpt lat="42.836436" lon="-0.254433">
        <ele>2176.479</ele>
        <time>2022-04-27T12:39:50Z</time>
      </trkpt>
      <trkpt lat="42.836647" lon="-0.254247">
        <ele>2176.519</ele>
        <time>2022-04-27T12:39:50Z</time>
      </trkpt>
      <trkpt lat="42.836942" lon="-0.254139">
        <ele>2176.645</ele>
        <time>2022-04-27T12:39:50Z</time>
      </trkpt>
      <trkpt lat="42.837050" lon="-0.254041">
        <ele>2176.776</ele>
        <time>2022-04-27T12:39:50Z</time>
      </trkpt>
      <trkpt lat="42.837058" lon="-0.253961">
        <ele>2176.782</ele>
        <time>2022-04-27T12:39:50Z</time>
      </trkpt>
      <trkpt lat="42.837290" lon="-0.253773">
        <ele>2176.816</ele>
        <time>2022-04-27T12:39:50Z</time>
      </trkpt>
      <trkpt lat="42.837710" lon="-0.253746">
        <ele>2176.569</ele>
        <time>2022-04-27T12:39:50Z</time>
      </trkpt>
      <trkpt lat="42.837939" lon="-0.253821">
        <ele>2175.953</ele>
        <time>2022-04-27T12:39:50Z</time>
      </trkpt>
      <trkpt lat="42.838142" lon="-0.253678">
        <ele>2175.304</ele>
        <time>2022-04-27T12:39:50Z</time>
      </trkpt>
      <trkpt lat="42.838433" lon="-0.253585">
        <ele>2174.514</ele>
        <time>2022-04-27T12:39:50Z</time>
      </trkpt>
      <trkpt lat="42.838767" lon="-0.253794">
        <ele>2173.609</ele>
        <time>2022-04-27T12:39:50Z</time>
      </trkpt>
      <trkpt lat="42.839078" lon="-0.253765">
        <ele>2172.836</ele>
        <time>2022-04-27T12:39:50Z</time>
      </trkpt>
      <trkpt lat="42.839514" lon="-0.253557">
        <ele>2169.575</ele>
        <time>2022-04-27T12:39:50Z</time>
      </trkpt>
      <trkpt lat="42.839700" lon="-0.253628">
        <ele>2167.576</ele>
        <time>2022-04-27T12:39:50Z</time>
      </trkpt>
      <trkpt lat="42.839912" lon="-0.253601">
        <ele>2165.336</ele>
        <time>2022-04-27T12:39:50Z</time>
      </trkpt>
      <trkpt lat="42.840012" lon="-0.253760">
        <ele>2163.752</ele>
        <time>2022-04-27T12:39:50Z</time>
      </trkpt>
      <trkpt lat="42.840145" lon="-0.253830">
        <ele>2162.273</ele>
        <time>2022-04-27T12:39:50Z</time>
      </trkpt>
      <trkpt lat="42.840672" lon="-0.253947">
        <ele>2156.679</ele>
        <time>2022-04-27T12:39:50Z</time>
      </trkpt>
      <trkpt lat="42.840839" lon="-0.253930">
        <ele>2154.853</ele>
        <time>2022-04-27T12:39:50Z</time>
      </trkpt>
      <trkpt lat="42.841322" lon="-0.253670">
        <ele>2148.326</ele>
        <time>2022-04-27T12:39:50Z</time>
      </trkpt>
      <trkpt lat="42.841513" lon="-0.253653">
        <ele>2145.879</ele>
        <time>2022-04-27T12:39:50Z</time>
      </trkpt>
      <trkpt lat="42.841695" lon="-0.253541">
        <ele>2143.205</ele>
        <time>2022-04-27T12:39:50Z</time>
      </trkpt>
      <trkpt lat="42.841816" lon="-0.253550">
        <ele>2141.625</ele>
        <time>2022-04-27T12:39:50Z</time>
      </trkpt>
      <trkpt lat="42.842641" lon="-0.253774">
        <ele>2130.609</ele>
        <time>2022-04-27T12:39:50Z</time>
      </trkpt>
      <trkpt lat="42.842894" lon="-0.254027">
        <ele>2126.288</ele>
        <time>2022-04-27T12:39:50Z</time>
      </trkpt>
      <trkpt lat="42.843113" lon="-0.254350">
        <ele>2121.727</ele>
        <time>2022-04-27T12:39:50Z</time>
      </trkpt>
      <trkpt lat="42.843344" lon="-0.254563">
        <ele>2117.838</ele>
        <time>2022-04-27T12:39:50Z</time>
      </trkpt>
      <trkpt lat="42.843600" lon="-0.254692">
        <ele>2114.048</ele>
        <time>2022-04-27T12:39:50Z</time>
      </trkpt>
      <trkpt lat="42.844048" lon="-0.254837">
        <ele>2107.554</ele>
        <time>2022-04-27T12:39:50Z</time>
      </trkpt>
      <trkpt lat="42.844750" lon="-0.255240">
        <ele>2100.965</ele>
        <time>2022-04-27T12:39:50Z</time>
      </trkpt>
      <trkpt lat="42.845518" lon="-0.255366">
        <ele>2095.711</ele>
        <time>2022-04-27T12:39:50Z</time>
      </trkpt>
      <trkpt lat="42.845846" lon="-0.255531">
        <ele>2093.435</ele>
        <time>2022-04-27T12:39:50Z</time>
      </trkpt>
      <trkpt lat="42.846133" lon="-0.255558">
        <ele>2092.368</ele>
        <time>2022-04-27T12:39:50Z</time>
      </trkpt>
      <trkpt lat="42.846673" lon="-0.255412">
        <ele>2091.464</ele>
        <time>2022-04-27T12:39:50Z</time>
      </trkpt>
      <trkpt lat="42.846890" lon="-0.255451">
        <ele>2091.106</ele>
        <time>2022-04-27T12:39:50Z</time>
      </trkpt>
      <trkpt lat="42.847673" lon="-0.255329">
        <ele>2089.916</ele>
        <time>2022-04-27T12:39:50Z</time>
      </trkpt>
      <trkpt lat="42.848040" lon="-0.255169">
        <ele>2087.609</ele>
        <time>2022-04-27T12:39:50Z</time>
      </trkpt>
      <trkpt lat="42.848910" lon="-0.255211">
        <ele>2081.587</ele>
        <time>2022-04-27T12:39:50Z</time>
      </trkpt>
      <trkpt lat="42.849513" lon="-0.255041">
        <ele>2077.226</ele>
        <time>2022-04-27T12:39:50Z</time>
      </trkpt>
      <trkpt lat="42.849826" lon="-0.255036">
        <ele>2070.767</ele>
        <time>2022-04-27T12:39:50Z</time>
      </trkpt>
      <trkpt lat="42.850222" lon="-0.254934">
        <ele>2062.347</ele>
        <time>2022-04-27T12:39:50Z</time>
      </trkpt>
      <trkpt lat="42.850398" lon="-0.255020">
        <ele>2058.483</ele>
        <time>2022-04-27T12:39:50Z</time>
      </trkpt>
      <trkpt lat="42.850893" lon="-0.255456">
        <ele>2046.154</ele>
        <time>2022-04-27T12:39:50Z</time>
      </trkpt>
      <trkpt lat="42.851012" lon="-0.255433">
        <ele>2043.660</ele>
        <time>2022-04-27T12:39:50Z</time>
      </trkpt>
      <trkpt lat="42.851110" lon="-0.255491">
        <ele>2041.414</ele>
        <time>2022-04-27T12:39:50Z</time>
      </trkpt>
      <trkpt lat="42.851473" lon="-0.255937">
        <ele>2031.077</ele>
        <time>2022-04-27T12:39:50Z</time>
      </trkpt>
      <trkpt lat="42.852012" lon="-0.256065">
        <ele>2019.326</ele>
        <time>2022-04-27T12:39:50Z</time>
      </trkpt>
      <trkpt lat="42.852344" lon="-0.256003">
        <ele>2012.147</ele>
        <time>2022-04-27T12:39:50Z</time>
      </trkpt>
      <trkpt lat="42.852353" lon="-0.256085">
        <ele>2010.811</ele>
        <time>2022-04-27T12:39:50Z</time>
      </trkpt>
      <trkpt lat="42.852012" lon="-0.256294">
        <ele>2002.809</ele>
        <time>2022-04-27T12:39:50Z</time>
      </trkpt>
      <trkpt lat="42.851487" lon="-0.256521">
        <ele>1991.933</ele>
        <time>2022-04-27T12:39:50Z</time>
      </trkpt>
      <trkpt lat="42.852172" lon="-0.256638">
        <ele>1978.432</ele>
        <time>2022-04-27T12:39:50Z</time>
      </trkpt>
      <trkpt lat="42.852698" lon="-0.256551">
        <ele>1968.173</ele>
        <time>2022-04-27T12:39:50Z</time>
      </trkpt>
      <trkpt lat="42.852906" lon="-0.256576">
        <ele>1964.373</ele>
        <time>2022-04-27T12:39:50Z</time>
      </trkpt>
      <trkpt lat="42.853108" lon="-0.256476">
        <ele>1960.769</ele>
        <time>2022-04-27T12:39:50Z</time>
      </trkpt>
      <trkpt lat="42.853424" lon="-0.256559">
        <ele>1955.380</ele>
        <time>2022-04-27T12:39:50Z</time>
      </trkpt>
      <trkpt lat="42.853119" lon="-0.256655">
        <ele>1950.086</ele>
        <time>2022-04-27T12:39:50Z</time>
      </trkpt>
      <trkpt lat="42.852932" lon="-0.256842">
        <ele>1946.160</ele>
        <time>2022-04-27T12:39:50Z</time>
      </trkpt>
      <trkpt lat="42.853203" lon="-0.256762">
        <ele>1941.443</ele>
        <time>2022-04-27T12:39:50Z</time>
      </trkpt>
      <trkpt lat="42.853768" lon="-0.256917">
        <ele>1933.873</ele>
        <time>2022-04-27T12:39:50Z</time>
      </trkpt>
      <trkpt lat="42.854291" lon="-0.256783">
        <ele>1929.585</ele>
        <time>2022-04-27T12:39:50Z</time>
      </trkpt>
      <trkpt lat="42.853820" lon="-0.257302">
        <ele>1924.613</ele>
        <time>2022-04-27T12:39:50Z</time>
      </trkpt>
      <trkpt lat="42.854195" lon="-0.257174">
        <ele>1921.509</ele>
        <time>2022-04-27T12:39:50Z</time>
      </trkpt>
      <trkpt lat="42.854392" lon="-0.257214">
        <ele>1919.968</ele>
        <time>2022-04-27T12:39:50Z</time>
      </trkpt>
      <trkpt lat="42.854129" lon="-0.257369">
        <ele>1917.537</ele>
        <time>2022-04-27T12:39:50Z</time>
      </trkpt>
      <trkpt lat="42.853809" lon="-0.257700">
        <ele>1914.288</ele>
        <time>2022-04-27T12:39:50Z</time>
      </trkpt>
      <trkpt lat="42.854039" lon="-0.257688">
        <ele>1912.338</ele>
        <time>2022-04-27T12:39:50Z</time>
      </trkpt>
      <trkpt lat="42.854271" lon="-0.257583">
        <ele>1910.354</ele>
        <time>2022-04-27T12:39:50Z</time>
      </trkpt>
      <trkpt lat="42.854449" lon="-0.257644">
        <ele>1908.895</ele>
        <time>2022-04-27T12:39:50Z</time>
      </trkpt>
      <trkpt lat="42.854282" lon="-0.257738">
        <ele>1907.321</ele>
        <time>2022-04-27T12:39:50Z</time>
      </trkpt>
      <trkpt lat="42.853931" lon="-0.258134">
        <ele>1901.065</ele>
        <time>2022-04-27T12:39:50Z</time>
      </trkpt>
      <trkpt lat="42.855039" lon="-0.258033">
        <ele>1883.968</ele>
        <time>2022-04-27T12:39:50Z</time>
      </trkpt>
      <trkpt lat="42.855058" lon="-0.258074">
        <ele>1883.466</ele>
        <time>2022-04-27T12:39:50Z</time>
      </trkpt>
      <trkpt lat="42.854914" lon="-0.258224">
        <ele>1880.629</ele>
        <time>2022-04-27T12:39:50Z</time>
      </trkpt>
      <trkpt lat="42.855137" lon="-0.258273">
        <ele>1876.421</ele>
        <time>2022-04-27T12:39:50Z</time>
      </trkpt>
      <trkpt lat="42.855580" lon="-0.258148">
        <ele>1866.309</ele>
        <time>2022-04-27T12:39:50Z</time>
      </trkpt>
      <trkpt lat="42.855379" lon="-0.258350">
        <ele>1860.867</ele>
        <time>2022-04-27T12:39:50Z</time>
      </trkpt>
      <trkpt lat="42.855186" lon="-0.258698">
        <ele>1853.746</ele>
        <time>2022-04-27T12:39:50Z</time>
      </trkpt>
      <trkpt lat="42.854916" lon="-0.259046">
        <ele>1845.447</ele>
        <time>2022-04-27T12:39:50Z</time>
      </trkpt>
      <trkpt lat="42.855770" lon="-0.259392">
        <ele>1825.397</ele>
        <time>2022-04-27T12:39:50Z</time>
      </trkpt>
      <trkpt lat="42.855904" lon="-0.259771">
        <ele>1818.313</ele>
        <time>2022-04-27T12:39:50Z</time>
      </trkpt>
      <trkpt lat="42.855881" lon="-0.259993">
        <ele>1814.614</ele>
        <time>2022-04-27T12:39:50Z</time>
      </trkpt>
      <trkpt lat="42.856038" lon="-0.260087">
        <ele>1810.750</ele>
        <time>2022-04-27T12:39:50Z</time>
      </trkpt>
      <trkpt lat="42.856196" lon="-0.260098">
        <ele>1807.154</ele>
        <time>2022-04-27T12:39:50Z</time>
      </trkpt>
      <trkpt lat="42.856226" lon="-0.260118">
        <ele>1806.387</ele>
        <time>2022-04-27T12:39:50Z</time>
      </trkpt>
      <trkpt lat="42.856243" lon="-0.260186">
        <ele>1805.121</ele>
        <time>2022-04-27T12:39:50Z</time>
      </trkpt>
      <trkpt lat="42.856318" lon="-0.260729">
        <ele>1798.341</ele>
        <time>2022-04-27T12:39:50Z</time>
      </trkpt>
      <trkpt lat="42.856336" lon="-0.261007">
        <ele>1799.005</ele>
        <time>2022-04-27T12:39:50Z</time>
      </trkpt>
      <trkpt lat="42.856265" lon="-0.261090">
        <ele>1799.309</ele>
        <time>2022-04-27T12:39:50Z</time>
      </trkpt>
      <trkpt lat="42.856305" lon="-0.261205">
        <ele>1799.673</ele>
        <time>2022-04-27T12:39:50Z</time>
      </trkpt>
      <trkpt lat="42.856252" lon="-0.261309">
        <ele>1799.932</ele>
        <time>2022-04-27T12:39:50Z</time>
      </trkpt>
      <trkpt lat="42.856114" lon="-0.261281">
        <ele>1800.473</ele>
        <time>2022-04-27T12:39:50Z</time>
      </trkpt>
      <trkpt lat="42.855974" lon="-0.261330">
        <ele>1800.963</ele>
        <time>2022-04-27T12:39:50Z</time>
      </trkpt>
      <trkpt lat="42.855718" lon="-0.261517">
        <ele>1801.939</ele>
        <time>2022-04-27T12:39:50Z</time>
      </trkpt>
      <trkpt lat="42.855794" lon="-0.261650">
        <ele>1802.340</ele>
        <time>2022-04-27T12:39:50Z</time>
      </trkpt>
      <trkpt lat="42.855565" lon="-0.261735">
        <ele>1803.246</ele>
        <time>2022-04-27T12:39:50Z</time>
      </trkpt>
      <trkpt lat="42.855626" lon="-0.261929">
        <ele>1803.880</ele>
        <time>2022-04-27T12:39:50Z</time>
      </trkpt>
      <trkpt lat="42.855544" lon="-0.261899">
        <ele>1804.133</ele>
        <time>2022-04-27T12:39:50Z</time>
      </trkpt>
      <trkpt lat="42.855560" lon="-0.262020">
        <ele>1805.043</ele>
        <time>2022-04-27T12:39:50Z</time>
      </trkpt>
      <trkpt lat="42.855430" lon="-0.262034">
        <ele>1807.264</ele>
        <time>2022-04-27T12:39:50Z</time>
      </trkpt>
      <trkpt lat="42.855477" lon="-0.262148">
        <ele>1808.810</ele>
        <time>2022-04-27T12:39:50Z</time>
      </trkpt>
      <trkpt lat="42.855677" lon="-0.262352">
        <ele>1813.009</ele>
        <time>2022-04-27T12:39:50Z</time>
      </trkpt>
      <trkpt lat="42.855539" lon="-0.262351">
        <ele>1815.375</ele>
        <time>2022-04-27T12:39:50Z</time>
      </trkpt>
      <trkpt lat="42.855596" lon="-0.262518">
        <ele>1817.694</ele>
        <time>2022-04-27T12:39:50Z</time>
      </trkpt>
      <trkpt lat="42.855385" lon="-0.262510">
        <ele>1821.275</ele>
        <time>2022-04-27T12:39:50Z</time>
      </trkpt>
      <trkpt lat="42.855434" lon="-0.262726">
        <ele>1824.055</ele>
        <time>2022-04-27T12:39:50Z</time>
      </trkpt>
      <trkpt lat="42.855270" lon="-0.262659">
        <ele>1826.911</ele>
        <time>2022-04-27T12:39:50Z</time>
      </trkpt>
      <trkpt lat="42.855327" lon="-0.262927">
        <ele>1830.392</ele>
        <time>2022-04-27T12:39:50Z</time>
      </trkpt>
      <trkpt lat="42.855210" lon="-0.262880">
        <ele>1832.488</ele>
        <time>2022-04-27T12:39:50Z</time>
      </trkpt>
      <trkpt lat="42.855237" lon="-0.263057">
        <ele>1834.662</ele>
        <time>2022-04-27T12:39:50Z</time>
      </trkpt>
      <trkpt lat="42.855032" lon="-0.263018">
        <ele>1837.525</ele>
        <time>2022-04-27T12:39:50Z</time>
      </trkpt>
      <trkpt lat="42.855080" lon="-0.263173">
        <ele>1839.286</ele>
        <time>2022-04-27T12:39:50Z</time>
      </trkpt>
      <trkpt lat="42.855032" lon="-0.263192">
        <ele>1839.960</ele>
        <time>2022-04-27T12:39:50Z</time>
      </trkpt>
      <trkpt lat="42.855142" lon="-0.263501">
        <ele>1843.426</ele>
        <time>2022-04-27T12:39:50Z</time>
      </trkpt>
      <trkpt lat="42.854931" lon="-0.263446">
        <ele>1846.409</ele>
        <time>2022-04-27T12:39:50Z</time>
      </trkpt>
      <trkpt lat="42.854957" lon="-0.263579">
        <ele>1847.829</ele>
        <time>2022-04-27T12:39:50Z</time>
      </trkpt>
      <trkpt lat="42.854871" lon="-0.263614">
        <ele>1849.058</ele>
        <time>2022-04-27T12:39:50Z</time>
      </trkpt>
      <trkpt lat="42.854904" lon="-0.263691">
        <ele>1849.959</ele>
        <time>2022-04-27T12:39:50Z</time>
      </trkpt>
      <trkpt lat="42.854811" lon="-0.263726">
        <ele>1851.269</ele>
        <time>2022-04-27T12:39:50Z</time>
      </trkpt>
      <trkpt lat="42.854782" lon="-0.263818">
        <ele>1852.255</ele>
        <time>2022-04-27T12:39:50Z</time>
      </trkpt>
      <trkpt lat="42.854837" lon="-0.263854">
        <ele>1853.036</ele>
        <time>2022-04-27T12:39:50Z</time>
      </trkpt>
      <trkpt lat="42.854756" lon="-0.263985">
        <ele>1854.762</ele>
        <time>2022-04-27T12:39:50Z</time>
      </trkpt>
      <trkpt lat="42.854805" lon="-0.263987">
        <ele>1855.476</ele>
        <time>2022-04-27T12:39:50Z</time>
      </trkpt>
      <trkpt lat="42.854736" lon="-0.264160">
        <ele>1857.439</ele>
        <time>2022-04-27T12:39:50Z</time>
      </trkpt>
      <trkpt lat="42.854806" lon="-0.264135">
        <ele>1858.444</ele>
        <time>2022-04-27T12:39:50Z</time>
      </trkpt>
      <trkpt lat="42.854725" lon="-0.264368">
        <ele>1859.405</ele>
        <time>2022-04-27T12:39:50Z</time>
      </trkpt>
      <trkpt lat="42.854816" lon="-0.264363">
        <ele>1859.415</ele>
        <time>2022-04-27T12:39:50Z</time>
      </trkpt>
      <trkpt lat="42.854785" lon="-0.264513">
        <ele>1859.409</ele>
        <time>2022-04-27T12:39:50Z</time>
      </trkpt>
      <trkpt lat="42.854685" lon="-0.264651">
        <ele>1859.415</ele>
        <time>2022-04-27T12:39:50Z</time>
      </trkpt>
      <trkpt lat="42.854731" lon="-0.264735">
        <ele>1859.464</ele>
        <time>2022-04-27T12:39:50Z</time>
      </trkpt>
      <trkpt lat="42.854842" lon="-0.264751">
        <ele>1859.445</ele>
        <time>2022-04-27T12:39:50Z</time>
      </trkpt>
      <trkpt lat="42.855485" lon="-0.264565">
        <ele>1859.445</ele>
        <time>2022-04-27T12:39:50Z</time>
      </trkpt>
      <trkpt lat="42.855485" lon="-0.264565">
        <ele>1863.751</ele>
        <time>2022-04-27T12:39:27Z</time>
      </trkpt>
      <trkpt lat="42.854842" lon="-0.264751">
        <ele>1863.701</ele>
        <time>2022-04-27T12:39:27Z</time>
      </trkpt>
      <trkpt lat="42.854731" lon="-0.264735">
        <ele>1863.711</ele>
        <time>2022-04-27T12:39:27Z</time>
      </trkpt>
      <trkpt lat="42.854685" lon="-0.264651">
        <ele>1863.709</ele>
        <time>2022-04-27T12:39:27Z</time>
      </trkpt>
      <trkpt lat="42.854785" lon="-0.264513">
        <ele>1862.616</ele>
        <time>2022-04-27T12:39:27Z</time>
      </trkpt>
      <trkpt lat="42.854816" lon="-0.264363">
        <ele>1861.275</ele>
        <time>2022-04-27T12:39:27Z</time>
      </trkpt>
      <trkpt lat="42.854725" lon="-0.264368">
        <ele>1860.186</ele>
        <time>2022-04-27T12:39:27Z</time>
      </trkpt>
      <trkpt lat="42.854806" lon="-0.264135">
        <ele>1857.766</ele>
        <time>2022-04-27T12:39:27Z</time>
      </trkpt>
      <trkpt lat="42.854736" lon="-0.264160">
        <ele>1856.842</ele>
        <time>2022-04-27T12:39:27Z</time>
      </trkpt>
      <trkpt lat="42.854805" lon="-0.263987">
        <ele>1855.013</ele>
        <time>2022-04-27T12:39:27Z</time>
      </trkpt>
      <trkpt lat="42.854756" lon="-0.263985">
        <ele>1854.479</ele>
        <time>2022-04-27T12:39:27Z</time>
      </trkpt>
      <trkpt lat="42.854837" lon="-0.263854">
        <ele>1852.899</ele>
        <time>2022-04-27T12:39:27Z</time>
      </trkpt>
      <trkpt lat="42.854782" lon="-0.263818">
        <ele>1852.024</ele>
        <time>2022-04-27T12:39:27Z</time>
      </trkpt>
      <trkpt lat="42.854811" lon="-0.263726">
        <ele>1851.173</ele>
        <time>2022-04-27T12:39:27Z</time>
      </trkpt>
      <trkpt lat="42.854904" lon="-0.263691">
        <ele>1849.985</ele>
        <time>2022-04-27T12:39:27Z</time>
      </trkpt>
      <trkpt lat="42.854871" lon="-0.263614">
        <ele>1849.113</ele>
        <time>2022-04-27T12:39:27Z</time>
      </trkpt>
      <trkpt lat="42.854957" lon="-0.263579">
        <ele>1848.009</ele>
        <time>2022-04-27T12:39:27Z</time>
      </trkpt>
      <trkpt lat="42.854931" lon="-0.263446">
        <ele>1846.758</ele>
        <time>2022-04-27T12:39:27Z</time>
      </trkpt>
      <trkpt lat="42.855142" lon="-0.263501">
        <ele>1844.077</ele>
        <time>2022-04-27T12:39:27Z</time>
      </trkpt>
      <trkpt lat="42.855032" lon="-0.263192">
        <ele>1840.778</ele>
        <time>2022-04-27T12:39:27Z</time>
      </trkpt>
      <trkpt lat="42.855080" lon="-0.263173">
        <ele>1839.978</ele>
        <time>2022-04-27T12:39:27Z</time>
      </trkpt>
      <trkpt lat="42.855032" lon="-0.263018">
        <ele>1837.914</ele>
        <time>2022-04-27T12:39:27Z</time>
      </trkpt>
      <trkpt lat="42.855237" lon="-0.263057">
        <ele>1834.515</ele>
        <time>2022-04-27T12:39:27Z</time>
      </trkpt>
      <trkpt lat="42.855210" lon="-0.262880">
        <ele>1832.341</ele>
        <time>2022-04-27T12:39:27Z</time>
      </trkpt>
      <trkpt lat="42.855327" lon="-0.262927">
        <ele>1830.331</ele>
        <time>2022-04-27T12:39:27Z</time>
      </trkpt>
      <trkpt lat="42.855270" lon="-0.262659">
        <ele>1827.026</ele>
        <time>2022-04-27T12:39:27Z</time>
      </trkpt>
      <trkpt lat="42.855434" lon="-0.262726">
        <ele>1824.292</ele>
        <time>2022-04-27T12:39:27Z</time>
      </trkpt>
      <trkpt lat="42.855385" lon="-0.262510">
        <ele>1821.573</ele>
        <time>2022-04-27T12:39:27Z</time>
      </trkpt>
      <trkpt lat="42.855596" lon="-0.262518">
        <ele>1818.120</ele>
        <time>2022-04-27T12:39:27Z</time>
      </trkpt>
      <trkpt lat="42.855539" lon="-0.262351">
        <ele>1815.909</ele>
        <time>2022-04-27T12:39:27Z</time>
      </trkpt>
      <trkpt lat="42.855677" lon="-0.262352">
        <ele>1813.790</ele>
        <time>2022-04-27T12:39:27Z</time>
      </trkpt>
      <trkpt lat="42.855477" lon="-0.262148">
        <ele>1809.359</ele>
        <time>2022-04-27T12:39:27Z</time>
      </trkpt>
      <trkpt lat="42.855430" lon="-0.262034">
        <ele>1807.560</ele>
        <time>2022-04-27T12:39:27Z</time>
      </trkpt>
      <trkpt lat="42.855560" lon="-0.262020">
        <ele>1805.140</ele>
        <time>2022-04-27T12:39:27Z</time>
      </trkpt>
      <trkpt lat="42.855544" lon="-0.261899">
        <ele>1803.416</ele>
        <time>2022-04-27T12:39:27Z</time>
      </trkpt>
      <trkpt lat="42.855626" lon="-0.261929">
        <ele>1801.817</ele>
        <time>2022-04-27T12:39:27Z</time>
      </trkpt>
      <trkpt lat="42.855565" lon="-0.261735">
        <ele>1798.983</ele>
        <time>2022-04-27T12:39:27Z</time>
      </trkpt>
      <trkpt lat="42.855794" lon="-0.261650">
        <ele>1794.533</ele>
        <time>2022-04-27T12:39:27Z</time>
      </trkpt>
      <trkpt lat="42.855718" lon="-0.261517">
        <ele>1792.268</ele>
        <time>2022-04-27T12:39:27Z</time>
      </trkpt>
      <trkpt lat="42.855974" lon="-0.261330">
        <ele>1786.833</ele>
        <time>2022-04-27T12:39:27Z</time>
      </trkpt>
      <trkpt lat="42.856114" lon="-0.261281">
        <ele>1784.123</ele>
        <time>2022-04-27T12:39:27Z</time>
      </trkpt>
      <trkpt lat="42.856252" lon="-0.261309">
        <ele>1781.515</ele>
        <time>2022-04-27T12:39:27Z</time>
      </trkpt>
      <trkpt lat="42.856305" lon="-0.261205">
        <ele>1779.809</ele>
        <time>2022-04-27T12:39:27Z</time>
      </trkpt>
      <trkpt lat="42.856265" lon="-0.261090">
        <ele>1778.364</ele>
        <time>2022-04-27T12:39:27Z</time>
      </trkpt>
      <trkpt lat="42.856336" lon="-0.261007">
        <ele>1777.473</ele>
        <time>2022-04-27T12:39:27Z</time>
      </trkpt>
      <trkpt lat="42.856318" lon="-0.260729">
        <ele>1775.584</ele>
        <time>2022-04-27T12:39:27Z</time>
      </trkpt>
      <trkpt lat="42.856613" lon="-0.261033">
        <ele>1772.194</ele>
        <time>2022-04-27T12:39:27Z</time>
      </trkpt>
      <trkpt lat="42.856764" lon="-0.260791">
        <ele>1770.010</ele>
        <time>2022-04-27T12:39:27Z</time>
      </trkpt>
      <trkpt lat="42.858002" lon="-0.260972">
        <ele>1761.781</ele>
        <time>2022-04-27T12:39:27Z</time>
      </trkpt>
      <trkpt lat="42.858219" lon="-0.260812">
        <ele>1761.647</ele>
        <time>2022-04-27T12:39:27Z</time>
      </trkpt>
      <trkpt lat="42.858210" lon="-0.260709">
        <ele>1761.657</ele>
        <time>2022-04-27T12:39:27Z</time>
      </trkpt>
      <trkpt lat="42.858230" lon="-0.260634">
        <ele>1761.692</ele>
        <time>2022-04-27T12:39:27Z</time>
      </trkpt>
      <trkpt lat="42.858483" lon="-0.260519">
        <ele>1761.499</ele>
        <time>2022-04-27T12:39:27Z</time>
      </trkpt>
      <trkpt lat="42.858637" lon="-0.260293">
        <ele>1761.307</ele>
        <time>2022-04-27T12:39:27Z</time>
      </trkpt>
      <trkpt lat="42.859178" lon="-0.260114">
        <ele>1761.027</ele>
        <time>2022-04-27T12:39:27Z</time>
      </trkpt>
      <trkpt lat="42.859541" lon="-0.260180">
        <ele>1760.409</ele>
        <time>2022-04-27T12:39:27Z</time>
      </trkpt>
      <trkpt lat="42.859909" lon="-0.260414">
        <ele>1759.760</ele>
        <time>2022-04-27T12:39:27Z</time>
      </trkpt>
      <trkpt lat="42.860098" lon="-0.260437">
        <ele>1759.449</ele>
        <time>2022-04-27T12:39:27Z</time>
      </trkpt>
      <trkpt lat="42.860374" lon="-0.260595">
        <ele>1758.980</ele>
        <time>2022-04-27T12:39:27Z</time>
      </trkpt>
      <trkpt lat="42.860942" lon="-0.260770">
        <ele>1757.960</ele>
        <time>2022-04-27T12:39:27Z</time>
      </trkpt>
      <trkpt lat="42.861189" lon="-0.260699">
        <ele>1757.416</ele>
        <time>2022-04-27T12:39:27Z</time>
      </trkpt>
      <trkpt lat="42.861639" lon="-0.260445">
        <ele>1756.437</ele>
        <time>2022-04-27T12:39:27Z</time>
      </trkpt>
      <trkpt lat="42.862006" lon="-0.260335">
        <ele>1755.643</ele>
        <time>2022-04-27T12:39:27Z</time>
      </trkpt>
      <trkpt lat="42.862268" lon="-0.260351">
        <ele>1755.023</ele>
        <time>2022-04-27T12:39:27Z</time>
      </trkpt>
      <trkpt lat="42.862762" lon="-0.260524">
        <ele>1753.468</ele>
        <time>2022-04-27T12:39:27Z</time>
      </trkpt>
      <trkpt lat="42.863177" lon="-0.260792">
        <ele>1750.785</ele>
        <time>2022-04-27T12:39:27Z</time>
      </trkpt>
      <trkpt lat="42.863544" lon="-0.260863">
        <ele>1748.589</ele>
        <time>2022-04-27T12:39:27Z</time>
      </trkpt>
      <trkpt lat="42.864049" lon="-0.261259">
        <ele>1745.017</ele>
        <time>2022-04-27T12:39:27Z</time>
      </trkpt>
      <trkpt lat="42.864320" lon="-0.261561">
        <ele>1742.709</ele>
        <time>2022-04-27T12:39:27Z</time>
      </trkpt>
      <trkpt lat="42.864790" lon="-0.261896">
        <ele>1738.339</ele>
        <time>2022-04-27T12:39:27Z</time>
      </trkpt>
      <trkpt lat="42.865028" lon="-0.262025">
        <ele>1736.288</ele>
        <time>2022-04-27T12:39:27Z</time>
      </trkpt>
      <trkpt lat="42.865418" lon="-0.262072">
        <ele>1733.059</ele>
        <time>2022-04-27T12:39:27Z</time>
      </trkpt>
      <trkpt lat="42.865921" lon="-0.262147">
        <ele>1728.859</ele>
        <time>2022-04-27T12:39:27Z</time>
      </trkpt>
      <trkpt lat="42.866198" lon="-0.262101">
        <ele>1726.275</ele>
        <time>2022-04-27T12:39:27Z</time>
      </trkpt>
      <trkpt lat="42.866681" lon="-0.262144">
        <ele>1721.636</ele>
        <time>2022-04-27T12:39:27Z</time>
      </trkpt>
      <trkpt lat="42.867070" lon="-0.262277">
        <ele>1717.862</ele>
        <time>2022-04-27T12:39:27Z</time>
      </trkpt>
      <trkpt lat="42.867641" lon="-0.262569">
        <ele>1712.052</ele>
        <time>2022-04-27T12:39:27Z</time>
      </trkpt>
      <trkpt lat="42.868029" lon="-0.262670">
        <ele>1705.427</ele>
        <time>2022-04-27T12:39:27Z</time>
      </trkpt>
      <trkpt lat="42.868557" lon="-0.262679">
        <ele>1696.258</ele>
        <time>2022-04-27T12:39:27Z</time>
      </trkpt>
      <trkpt lat="42.868738" lon="-0.262593">
        <ele>1692.852</ele>
        <time>2022-04-27T12:39:27Z</time>
      </trkpt>
      <trkpt lat="42.869120" lon="-0.262669">
        <ele>1686.017</ele>
        <time>2022-04-27T12:39:27Z</time>
      </trkpt>
      <trkpt lat="42.869756" lon="-0.263220">
        <ele>1670.309</ele>
        <time>2022-04-27T12:39:27Z</time>
      </trkpt>
      <trkpt lat="42.870240" lon="-0.263759">
        <ele>1655.636</ele>
        <time>2022-04-27T12:39:27Z</time>
      </trkpt>
      <trkpt lat="42.870462" lon="-0.263936">
        <ele>1649.535</ele>
        <time>2022-04-27T12:39:27Z</time>
      </trkpt>
      <trkpt lat="42.870563" lon="-0.264094">
        <ele>1645.916</ele>
        <time>2022-04-27T12:39:27Z</time>
      </trkpt>
      <trkpt lat="42.870874" lon="-0.264352">
        <ele>1637.426</ele>
        <time>2022-04-27T12:39:27Z</time>
      </trkpt>
      <trkpt lat="42.871118" lon="-0.264732">
        <ele>1630.952</ele>
        <time>2022-04-27T12:39:27Z</time>
      </trkpt>
      <trkpt lat="42.871478" lon="-0.265152">
        <ele>1622.643</ele>
        <time>2022-04-27T12:39:27Z</time>
      </trkpt>
      <trkpt lat="42.871612" lon="-0.265457">
        <ele>1618.049</ele>
        <time>2022-04-27T12:39:27Z</time>
      </trkpt>
      <trkpt lat="42.872030" lon="-0.265787">
        <ele>1609.639</ele>
        <time>2022-04-27T12:39:27Z</time>
      </trkpt>
      <trkpt lat="42.872715" lon="-0.266080">
        <ele>1601.254</ele>
        <time>2022-04-27T12:39:27Z</time>
      </trkpt>
      <trkpt lat="42.872916" lon="-0.266110">
        <ele>1599.371</ele>
        <time>2022-04-27T12:39:27Z</time>
      </trkpt>
      <trkpt lat="42.873207" lon="-0.266280">
        <ele>1596.341</ele>
        <time>2022-04-27T12:39:27Z</time>
      </trkpt>
      <trkpt lat="42.873840" lon="-0.266249">
        <ele>1590.315</ele>
        <time>2022-04-27T12:39:27Z</time>
      </trkpt>
      <trkpt lat="42.874023" lon="-0.266183">
        <ele>1588.809</ele>
        <time>2022-04-27T12:39:27Z</time>
      </trkpt>
      <trkpt lat="42.874342" lon="-0.266311">
        <ele>1586.918</ele>
        <time>2022-04-27T12:39:27Z</time>
      </trkpt>
      <trkpt lat="42.874529" lon="-0.266225">
        <ele>1585.857</ele>
        <time>2022-04-27T12:39:27Z</time>
      </trkpt>
      <trkpt lat="42.874789" lon="-0.266256">
        <ele>1584.338</ele>
        <time>2022-04-27T12:39:27Z</time>
      </trkpt>
      <trkpt lat="42.875812" lon="-0.266168">
        <ele>1578.558</ele>
        <time>2022-04-27T12:39:27Z</time>
      </trkpt>
      <trkpt lat="42.875914" lon="-0.266041">
        <ele>1577.664</ele>
        <time>2022-04-27T12:39:27Z</time>
      </trkpt>
      <trkpt lat="42.876239" lon="-0.265902">
        <ele>1575.355</ele>
        <time>2022-04-27T12:39:27Z</time>
      </trkpt>
      <trkpt lat="42.876311" lon="-0.265964">
        <ele>1574.761</ele>
        <time>2022-04-27T12:39:27Z</time>
      </trkpt>
      <trkpt lat="42.876526" lon="-0.266402">
        <ele>1572.171</ele>
        <time>2022-04-27T12:39:27Z</time>
      </trkpt>
      <trkpt lat="42.876932" lon="-0.266691">
        <ele>1569.056</ele>
        <time>2022-04-27T12:39:27Z</time>
      </trkpt>
      <trkpt lat="42.877055" lon="-0.266968">
        <ele>1567.465</ele>
        <time>2022-04-27T12:39:27Z</time>
      </trkpt>
      <trkpt lat="42.877222" lon="-0.267156">
        <ele>1565.568</ele>
        <time>2022-04-27T12:39:27Z</time>
      </trkpt>
      <trkpt lat="42.877629" lon="-0.267385">
        <ele>1561.214</ele>
        <time>2022-04-27T12:39:27Z</time>
      </trkpt>
      <trkpt lat="42.877821" lon="-0.267557">
        <ele>1558.909</ele>
        <time>2022-04-27T12:39:27Z</time>
      </trkpt>
      <trkpt lat="42.878162" lon="-0.267704">
        <ele>1555.477</ele>
        <time>2022-04-27T12:39:27Z</time>
      </trkpt>
      <trkpt lat="42.878434" lon="-0.268237">
        <ele>1550.746</ele>
        <time>2022-04-27T12:39:27Z</time>
      </trkpt>
      <trkpt lat="42.878653" lon="-0.268386">
        <ele>1547.987</ele>
        <time>2022-04-27T12:39:27Z</time>
      </trkpt>
      <trkpt lat="42.878940" lon="-0.268479">
        <ele>1543.927</ele>
        <time>2022-04-27T12:39:27Z</time>
      </trkpt>
      <trkpt lat="42.878983" lon="-0.268551">
        <ele>1543.093</ele>
        <time>2022-04-27T12:39:27Z</time>
      </trkpt>
      <trkpt lat="42.879660" lon="-0.268517">
        <ele>1533.794</ele>
        <time>2022-04-27T12:39:27Z</time>
      </trkpt>
      <trkpt lat="42.879764" lon="-0.268885">
        <ele>1529.790</ele>
        <time>2022-04-27T12:39:27Z</time>
      </trkpt>
      <trkpt lat="42.879864" lon="-0.268961">
        <ele>1528.150</ele>
        <time>2022-04-27T12:39:27Z</time>
      </trkpt>
      <trkpt lat="42.879980" lon="-0.268941">
        <ele>1526.565</ele>
        <time>2022-04-27T12:39:27Z</time>
      </trkpt>
      <trkpt lat="42.880076" lon="-0.268913">
        <ele>1525.277</ele>
        <time>2022-04-27T12:39:27Z</time>
      </trkpt>
      <trkpt lat="42.880104" lon="-0.268966">
        <ele>1524.561</ele>
        <time>2022-04-27T12:39:27Z</time>
      </trkpt>
      <trkpt lat="42.880341" lon="-0.268917">
        <ele>1522.027</ele>
        <time>2022-04-27T12:39:27Z</time>
      </trkpt>
      <trkpt lat="42.880499" lon="-0.269160">
        <ele>1519.509</ele>
        <time>2022-04-27T12:39:27Z</time>
      </trkpt>
      <trkpt lat="42.880933" lon="-0.269418">
        <ele>1514.568</ele>
        <time>2022-04-27T12:39:27Z</time>
      </trkpt>
      <trkpt lat="42.881098" lon="-0.269600">
        <ele>1512.387</ele>
        <time>2022-04-27T12:39:27Z</time>
      </trkpt>
      <trkpt lat="42.881205" lon="-0.269851">
        <ele>1510.138</ele>
        <time>2022-04-27T12:39:27Z</time>
      </trkpt>
      <trkpt lat="42.881380" lon="-0.269760">
        <ele>1508.168</ele>
        <time>2022-04-27T12:39:27Z</time>
      </trkpt>
      <trkpt lat="42.881539" lon="-0.269784">
        <ele>1506.444</ele>
        <time>2022-04-27T12:39:27Z</time>
      </trkpt>
      <trkpt lat="42.881583" lon="-0.269579">
        <ele>1505.135</ele>
        <time>2022-04-27T12:39:27Z</time>
      </trkpt>
      <trkpt lat="42.881538" lon="-0.269443">
        <ele>1504.381</ele>
        <time>2022-04-27T12:39:27Z</time>
      </trkpt>
      <trkpt lat="42.881543" lon="-0.269211">
        <ele>1503.121</ele>
        <time>2022-04-27T12:39:27Z</time>
      </trkpt>
      <trkpt lat="42.881674" lon="-0.269091">
        <ele>1502.016</ele>
        <time>2022-04-27T12:39:27Z</time>
      </trkpt>
      <trkpt lat="42.882064" lon="-0.270067">
        <ele>1496.448</ele>
        <time>2022-04-27T12:39:27Z</time>
      </trkpt>
      <trkpt lat="42.882320" lon="-0.270493">
        <ele>1493.661</ele>
        <time>2022-04-27T12:39:27Z</time>
      </trkpt>
      <trkpt lat="42.882497" lon="-0.270736">
        <ele>1491.717</ele>
        <time>2022-04-27T12:39:27Z</time>
      </trkpt>
      <trkpt lat="42.882809" lon="-0.270734">
        <ele>1489.309</ele>
        <time>2022-04-27T12:39:27Z</time>
      </trkpt>
      <trkpt lat="42.883009" lon="-0.270706">
        <ele>1487.715</ele>
        <time>2022-04-27T12:39:27Z</time>
      </trkpt>
      <trkpt lat="42.883052" lon="-0.270516">
        <ele>1486.634</ele>
        <time>2022-04-27T12:39:27Z</time>
      </trkpt>
      <trkpt lat="42.883079" lon="-0.270503">
        <ele>1486.415</ele>
        <time>2022-04-27T12:39:27Z</time>
      </trkpt>
      <trkpt lat="42.883809" lon="-0.270448">
        <ele>1480.735</ele>
        <time>2022-04-27T12:39:27Z</time>
      </trkpt>
      <trkpt lat="42.884113" lon="-0.270257">
        <ele>1477.871</ele>
        <time>2022-04-27T12:39:27Z</time>
      </trkpt>
      <trkpt lat="42.884270" lon="-0.270248">
        <ele>1476.282</ele>
        <time>2022-04-27T12:39:27Z</time>
      </trkpt>
      <trkpt lat="42.884492" lon="-0.270352">
        <ele>1473.958</ele>
        <time>2022-04-27T12:39:27Z</time>
      </trkpt>
      <trkpt lat="42.885366" lon="-0.270374">
        <ele>1465.228</ele>
        <time>2022-04-27T12:39:27Z</time>
      </trkpt>
      <trkpt lat="42.885467" lon="-0.270475">
        <ele>1463.983</ele>
        <time>2022-04-27T12:39:27Z</time>
      </trkpt>
      <trkpt lat="42.885909" lon="-0.270512">
        <ele>1459.267</ele>
        <time>2022-04-27T12:39:27Z</time>
      </trkpt>
      <trkpt lat="42.886012" lon="-0.270672">
        <ele>1457.481</ele>
        <time>2022-04-27T12:39:27Z</time>
      </trkpt>
      <trkpt lat="42.886341" lon="-0.270807">
        <ele>1453.419</ele>
        <time>2022-04-27T12:39:27Z</time>
      </trkpt>
      <trkpt lat="42.886712" lon="-0.271417">
        <ele>1446.709</ele>
        <time>2022-04-27T12:39:27Z</time>
      </trkpt>
      <trkpt lat="42.886998" lon="-0.271721">
        <ele>1442.557</ele>
        <time>2022-04-27T12:39:27Z</time>
      </trkpt>
      <trkpt lat="42.887049" lon="-0.271751">
        <ele>1441.986</ele>
        <time>2022-04-27T12:39:27Z</time>
      </trkpt>
      <trkpt lat="42.887062" lon="-0.271812">
        <ele>1441.487</ele>
        <time>2022-04-27T12:39:27Z</time>
      </trkpt>
      <trkpt lat="42.887145" lon="-0.271858">
        <ele>1440.677</ele>
        <time>2022-04-27T12:39:27Z</time>
      </trkpt>
      <trkpt lat="42.887378" lon="-0.271809">
        <ele>1441.973</ele>
        <time>2022-04-27T12:39:27Z</time>
      </trkpt>
      <trkpt lat="42.887682" lon="-0.271897">
        <ele>1443.624</ele>
        <time>2022-04-27T12:39:27Z</time>
      </trkpt>
      <trkpt lat="42.887675" lon="-0.272063">
        <ele>1444.310</ele>
        <time>2022-04-27T12:39:27Z</time>
      </trkpt>
      <trkpt lat="42.887548" lon="-0.272271">
        <ele>1445.440</ele>
        <time>2022-04-27T12:39:27Z</time>
      </trkpt>
      <trkpt lat="42.887484" lon="-0.272728">
        <ele>1447.315</ele>
        <time>2022-04-27T12:39:27Z</time>
      </trkpt>
      <trkpt lat="42.887311" lon="-0.272801">
        <ele>1448.326</ele>
        <time>2022-04-27T12:39:27Z</time>
      </trkpt>
      <trkpt lat="42.887167" lon="-0.273007">
        <ele>1449.547</ele>
        <time>2022-04-27T12:39:27Z</time>
      </trkpt>
      <trkpt lat="42.887091" lon="-0.273277">
        <ele>1451.311</ele>
        <time>2022-04-27T12:39:27Z</time>
      </trkpt>
      <trkpt lat="42.886867" lon="-0.273577">
        <ele>1460.109</ele>
        <time>2022-04-27T12:39:27Z</time>
      </trkpt>
      <trkpt lat="42.886828" lon="-0.273772">
        <ele>1464.383</ele>
        <time>2022-04-27T12:39:27Z</time>
      </trkpt>
      <trkpt lat="42.886704" lon="-0.273883">
        <ele>1468.532</ele>
        <time>2022-04-27T12:39:27Z</time>
      </trkpt>
      <trkpt lat="42.886730" lon="-0.274275">
        <ele>1476.683</ele>
        <time>2022-04-27T12:39:27Z</time>
      </trkpt>
      <trkpt lat="42.886690" lon="-0.274403">
        <ele>1479.553</ele>
        <time>2022-04-27T12:39:27Z</time>
      </trkpt>
      <trkpt lat="42.886246" lon="-0.274416">
        <ele>1492.019</ele>
        <time>2022-04-27T12:39:27Z</time>
      </trkpt>
      <trkpt lat="42.886273" lon="-0.274622">
        <ele>1496.330</ele>
        <time>2022-04-27T12:39:27Z</time>
      </trkpt>
      <trkpt lat="42.886027" lon="-0.274627">
        <ele>1504.676</ele>
        <time>2022-04-27T12:39:27Z</time>
      </trkpt>
      <trkpt lat="42.886030" lon="-0.274810">
        <ele>1510.916</ele>
        <time>2022-04-27T12:39:27Z</time>
      </trkpt>
      <trkpt lat="42.885894" lon="-0.274892">
        <ele>1517.911</ele>
        <time>2022-04-27T12:39:27Z</time>
      </trkpt>
      <trkpt lat="42.885965" lon="-0.275072">
        <ele>1524.965</ele>
        <time>2022-04-27T12:39:27Z</time>
      </trkpt>
      <trkpt lat="42.885753" lon="-0.275197">
        <ele>1535.768</ele>
        <time>2022-04-27T12:39:27Z</time>
      </trkpt>
      <trkpt lat="42.885870" lon="-0.275412">
        <ele>1544.914</ele>
        <time>2022-04-27T12:39:27Z</time>
      </trkpt>
      <trkpt lat="42.885864" lon="-0.275781">
        <ele>1557.609</ele>
        <time>2022-04-27T12:39:27Z</time>
      </trkpt>
      <trkpt lat="42.885803" lon="-0.276066">
        <ele>1567.837</ele>
        <time>2022-04-27T12:39:27Z</time>
      </trkpt>
      <trkpt lat="42.885840" lon="-0.276496">
        <ele>1582.786</ele>
        <time>2022-04-27T12:39:27Z</time>
      </trkpt>
      <trkpt lat="42.885736" lon="-0.276828">
        <ele>1592.437</ele>
        <time>2022-04-27T12:39:27Z</time>
      </trkpt>
      <trkpt lat="42.885611" lon="-0.276944">
        <ele>1597.557</ele>
        <time>2022-04-27T12:39:27Z</time>
      </trkpt>
      <trkpt lat="42.885583" lon="-0.277077">
        <ele>1600.983</ele>
        <time>2022-04-27T12:39:27Z</time>
      </trkpt>
      <trkpt lat="42.885523" lon="-0.277116">
        <ele>1603.174</ele>
        <time>2022-04-27T12:39:27Z</time>
      </trkpt>
      <trkpt lat="42.885482" lon="-0.277133">
        <ele>1604.570</ele>
        <time>2022-04-27T12:39:27Z</time>
      </trkpt>
      <trkpt lat="42.885352" lon="-0.277005">
        <ele>1609.940</ele>
        <time>2022-04-27T12:39:27Z</time>
      </trkpt>
      <trkpt lat="42.885283" lon="-0.277063">
        <ele>1612.625</ele>
        <time>2022-04-27T12:39:27Z</time>
      </trkpt>
      <trkpt lat="42.885254" lon="-0.277191">
        <ele>1615.954</ele>
        <time>2022-04-27T12:39:27Z</time>
      </trkpt>
      <trkpt lat="42.885216" lon="-0.277148">
        <ele>1617.556</ele>
        <time>2022-04-27T12:39:27Z</time>
      </trkpt>
      <trkpt lat="42.885023" lon="-0.277174">
        <ele>1624.011</ele>
        <time>2022-04-27T12:39:27Z</time>
      </trkpt>
      <trkpt lat="42.885015" lon="-0.277371">
        <ele>1628.809</ele>
        <time>2022-04-27T12:39:27Z</time>
      </trkpt>
      <trkpt lat="42.884861" lon="-0.277323">
        <ele>1634.166</ele>
        <time>2022-04-27T12:39:27Z</time>
      </trkpt>
      <trkpt lat="42.884872" lon="-0.277500">
        <ele>1638.455</ele>
        <time>2022-04-27T12:39:27Z</time>
      </trkpt>
      <trkpt lat="42.884766" lon="-0.277455">
        <ele>1642.146</ele>
        <time>2022-04-27T12:39:27Z</time>
      </trkpt>
      <trkpt lat="42.884803" lon="-0.277531">
        <ele>1644.316</ele>
        <time>2022-04-27T12:39:27Z</time>
      </trkpt>
      <trkpt lat="42.884733" lon="-0.277547">
        <ele>1646.492</ele>
        <time>2022-04-27T12:39:27Z</time>
      </trkpt>
      <trkpt lat="42.884729" lon="-0.277696">
        <ele>1649.273</ele>
        <time>2022-04-27T12:39:27Z</time>
      </trkpt>
      <trkpt lat="42.884683" lon="-0.277627">
        <ele>1651.069</ele>
        <time>2022-04-27T12:39:27Z</time>
      </trkpt>
      <trkpt lat="42.884684" lon="-0.277737">
        <ele>1653.189</ele>
        <time>2022-04-27T12:39:27Z</time>
      </trkpt>
      <trkpt lat="42.884608" lon="-0.277709">
        <ele>1655.174</ele>
        <time>2022-04-27T12:39:27Z</time>
      </trkpt>
      <trkpt lat="42.884647" lon="-0.277968">
        <ele>1660.195</ele>
        <time>2022-04-27T12:39:27Z</time>
      </trkpt>
      <trkpt lat="42.884548" lon="-0.277868">
        <ele>1663.349</ele>
        <time>2022-04-27T12:39:27Z</time>
      </trkpt>
      <trkpt lat="42.884553" lon="-0.278006">
        <ele>1665.923</ele>
        <time>2022-04-27T12:39:27Z</time>
      </trkpt>
      <trkpt lat="42.884431" lon="-0.277895">
        <ele>1669.709</ele>
        <time>2022-04-27T12:39:27Z</time>
      </trkpt>
      <trkpt lat="42.884444" lon="-0.278057">
        <ele>1672.830</ele>
        <time>2022-04-27T12:39:27Z</time>
      </trkpt>
      <trkpt lat="42.884334" lon="-0.277965">
        <ele>1676.179</ele>
        <time>2022-04-27T12:39:27Z</time>
      </trkpt>
      <trkpt lat="42.884274" lon="-0.278056">
        <ele>1678.460</ele>
        <time>2022-04-27T12:39:27Z</time>
      </trkpt>
      <trkpt lat="42.884098" lon="-0.277803">
        <ele>1685.040</ele>
        <time>2022-04-27T12:39:27Z</time>
      </trkpt>
      <trkpt lat="42.884072" lon="-0.277974">
        <ele>1688.366</ele>
        <time>2022-04-27T12:39:27Z</time>
      </trkpt>
      <trkpt lat="42.884109" lon="-0.278087">
        <ele>1690.757</ele>
        <time>2022-04-27T12:39:27Z</time>
      </trkpt>
      <trkpt lat="42.884052" lon="-0.278108">
        <ele>1692.393</ele>
        <time>2022-04-27T12:39:27Z</time>
      </trkpt>
      <trkpt lat="42.884089" lon="-0.278209">
        <ele>1695.243</ele>
        <time>2022-04-27T12:39:27Z</time>
      </trkpt>
      <trkpt lat="42.884018" lon="-0.278374">
        <ele>1700.138</ele>
        <time>2022-04-27T12:39:27Z</time>
      </trkpt>
      <trkpt lat="42.884099" lon="-0.278595">
        <ele>1706.563</ele>
        <time>2022-04-27T12:39:27Z</time>
      </trkpt>
      <trkpt lat="42.883774" lon="-0.278450">
        <ele>1718.544</ele>
        <time>2022-04-27T12:39:27Z</time>
      </trkpt>
      <trkpt lat="42.883579" lon="-0.278219">
        <ele>1727.618</ele>
        <time>2022-04-27T12:39:27Z</time>
      </trkpt>
      <trkpt lat="42.883472" lon="-0.278267">
        <ele>1731.609</ele>
        <time>2022-04-27T12:39:27Z</time>
      </trkpt>
      <trkpt lat="42.883471" lon="-0.278414">
        <ele>1735.497</ele>
        <time>2022-04-27T12:39:27Z</time>
      </trkpt>
      <trkpt lat="42.883273" lon="-0.278444">
        <ele>1742.426</ele>
        <time>2022-04-27T12:39:27Z</time>
      </trkpt>
      <trkpt lat="42.883116" lon="-0.278214">
        <ele>1750.587</ele>
        <time>2022-04-27T12:39:27Z</time>
      </trkpt>
      <trkpt lat="42.883090" lon="-0.278368">
        <ele>1754.637</ele>
        <time>2022-04-27T12:39:27Z</time>
      </trkpt>
      <trkpt lat="42.882754" lon="-0.278141">
        <ele>1767.273</ele>
        <time>2022-04-27T12:39:27Z</time>
      </trkpt>
      <trkpt lat="42.882810" lon="-0.278326">
        <ele>1772.124</ele>
        <time>2022-04-27T12:39:27Z</time>
      </trkpt>
      <trkpt lat="42.882743" lon="-0.278607">
        <ele>1779.320</ele>
        <time>2022-04-27T12:39:27Z</time>
      </trkpt>
      <trkpt lat="42.882678" lon="-0.278679">
        <ele>1782.130</ele>
        <time>2022-04-27T12:39:27Z</time>
      </trkpt>
      <trkpt lat="42.882766" lon="-0.279024">
        <ele>1791.065</ele>
        <time>2022-04-27T12:39:27Z</time>
      </trkpt>
      <trkpt lat="42.882686" lon="-0.279179">
        <ele>1795.639</ele>
        <time>2022-04-27T12:39:27Z</time>
      </trkpt>
      <trkpt lat="42.882386" lon="-0.279456">
        <ele>1807.701</ele>
        <time>2022-04-27T12:39:27Z</time>
      </trkpt>
      <trkpt lat="42.882460" lon="-0.279462">
        <ele>1810.221</ele>
        <time>2022-04-27T12:39:27Z</time>
      </trkpt>
      <trkpt lat="42.882443" lon="-0.279496">
        <ele>1811.209</ele>
        <time>2022-04-27T12:39:27Z</time>
      </trkpt>
      <trkpt lat="42.882287" lon="-0.279638">
        <ele>1817.424</ele>
        <time>2022-04-27T12:39:27Z</time>
      </trkpt>
      <trkpt lat="42.882574" lon="-0.279843">
        <ele>1827.833</ele>
        <time>2022-04-27T12:39:27Z</time>
      </trkpt>
      <trkpt lat="42.882482" lon="-0.279908">
        <ele>1831.144</ele>
        <time>2022-04-27T12:39:27Z</time>
      </trkpt>
      <trkpt lat="42.882577" lon="-0.280096">
        <ele>1836.594</ele>
        <time>2022-04-27T12:39:27Z</time>
      </trkpt>
      <trkpt lat="42.882496" lon="-0.280093">
        <ele>1839.140</ele>
        <time>2022-04-27T12:39:27Z</time>
      </trkpt>
      <trkpt lat="42.882548" lon="-0.280251">
        <ele>1843.241</ele>
        <time>2022-04-27T12:39:27Z</time>
      </trkpt>
      <trkpt lat="42.882475" lon="-0.280279">
        <ele>1845.677</ele>
        <time>2022-04-27T12:39:27Z</time>
      </trkpt>
      <trkpt lat="42.882488" lon="-0.280348">
        <ele>1847.397</ele>
        <time>2022-04-27T12:39:27Z</time>
      </trkpt>
      <trkpt lat="42.882446" lon="-0.280355">
        <ele>1848.792</ele>
        <time>2022-04-27T12:39:27Z</time>
      </trkpt>
      <trkpt lat="42.882435" lon="-0.280856">
        <ele>1860.592</ele>
        <time>2022-04-27T12:39:27Z</time>
      </trkpt>
      <trkpt lat="42.882296" lon="-0.280507">
        <ele>1869.973</ele>
        <time>2022-04-27T12:39:27Z</time>
      </trkpt>
      <trkpt lat="42.882151" lon="-0.280555">
        <ele>1874.920</ele>
        <time>2022-04-27T12:39:27Z</time>
      </trkpt>
      <trkpt lat="42.882218" lon="-0.280666">
        <ele>1878.709</ele>
        <time>2022-04-27T12:39:27Z</time>
      </trkpt>
      <trkpt lat="42.881884" lon="-0.280801">
        <ele>1891.110</ele>
        <time>2022-04-27T12:39:27Z</time>
      </trkpt>
      <trkpt lat="42.881923" lon="-0.280844">
        <ele>1892.969</ele>
        <time>2022-04-27T12:39:27Z</time>
      </trkpt>
      <trkpt lat="42.881679" lon="-0.281175">
        <ele>1905.230</ele>
        <time>2022-04-27T12:39:27Z</time>
      </trkpt>
      <trkpt lat="42.881798" lon="-0.281214">
        <ele>1909.690</ele>
        <time>2022-04-27T12:39:27Z</time>
      </trkpt>
      <trkpt lat="42.881803" lon="-0.281265">
        <ele>1910.996</ele>
        <time>2022-04-27T12:39:27Z</time>
      </trkpt>
      <trkpt lat="42.881609" lon="-0.281310">
        <ele>1917.917</ele>
        <time>2022-04-27T12:39:27Z</time>
      </trkpt>
      <trkpt lat="42.881734" lon="-0.281496">
        <ele>1924.593</ele>
        <time>2022-04-27T12:39:27Z</time>
      </trkpt>
      <trkpt lat="42.881454" lon="-0.281496">
        <ele>1934.563</ele>
        <time>2022-04-27T12:39:27Z</time>
      </trkpt>
      <trkpt lat="42.881332" lon="-0.281518">
        <ele>1938.628</ele>
        <time>2022-04-27T12:39:27Z</time>
      </trkpt>
      <trkpt lat="42.881153" lon="-0.281801">
        <ele>1946.222</ele>
        <time>2022-04-27T12:39:27Z</time>
      </trkpt>
      <trkpt lat="42.881081" lon="-0.282042">
        <ele>1951.562</ele>
        <time>2022-04-27T12:39:27Z</time>
      </trkpt>
      <trkpt lat="42.881326" lon="-0.282151">
        <ele>1958.708</ele>
        <time>2022-04-27T12:39:27Z</time>
      </trkpt>
      <trkpt lat="42.881202" lon="-0.282238">
        <ele>1962.609</ele>
        <time>2022-04-27T12:39:27Z</time>
      </trkpt>
      <trkpt lat="42.881460" lon="-0.282343">
        <ele>1970.153</ele>
        <time>2022-04-27T12:39:27Z</time>
      </trkpt>
      <trkpt lat="42.881484" lon="-0.282432">
        <ele>1972.072</ele>
        <time>2022-04-27T12:39:27Z</time>
      </trkpt>
      <trkpt lat="42.881529" lon="-0.282671">
        <ele>1977.093</ele>
        <time>2022-04-27T12:39:27Z</time>
      </trkpt>
      <trkpt lat="42.881456" lon="-0.282705">
        <ele>1979.173</ele>
        <time>2022-04-27T12:39:27Z</time>
      </trkpt>
      <trkpt lat="42.881373" lon="-0.282866">
        <ele>1983.199</ele>
        <time>2022-04-27T12:39:27Z</time>
      </trkpt>
      <trkpt lat="42.881314" lon="-0.283180">
        <ele>1989.580</ele>
        <time>2022-04-27T12:39:27Z</time>
      </trkpt>
      <trkpt lat="42.881412" lon="-0.283593">
        <ele>1997.676</ele>
        <time>2022-04-27T12:39:27Z</time>
      </trkpt>
      <trkpt lat="42.881357" lon="-0.283807">
        <ele>2001.886</ele>
        <time>2022-04-27T12:39:27Z</time>
      </trkpt>
      <trkpt lat="42.880963" lon="-0.284338">
        <ele>2015.931</ele>
        <time>2022-04-27T12:39:27Z</time>
      </trkpt>
      <trkpt lat="42.880839" lon="-0.284349">
        <ele>2019.197</ele>
        <time>2022-04-27T12:39:27Z</time>
      </trkpt>
      <trkpt lat="42.881080" lon="-0.284666">
        <ele>2027.623</ele>
        <time>2022-04-27T12:39:27Z</time>
      </trkpt>
      <trkpt lat="42.881094" lon="-0.284747">
        <ele>2029.225</ele>
        <time>2022-04-27T12:39:27Z</time>
      </trkpt>
      <trkpt lat="42.880906" lon="-0.284978">
        <ele>2036.509</ele>
        <time>2022-04-27T12:39:27Z</time>
      </trkpt>
      <trkpt lat="42.880959" lon="-0.285181">
        <ele>2042.110</ele>
        <time>2022-04-27T12:39:27Z</time>
      </trkpt>
      <trkpt lat="42.880918" lon="-0.285501">
        <ele>2050.569</ele>
        <time>2022-04-27T12:39:27Z</time>
      </trkpt>
      <trkpt lat="42.880667" lon="-0.285569">
        <ele>2059.550</ele>
        <time>2022-04-27T12:39:27Z</time>
      </trkpt>
      <trkpt lat="42.880518" lon="-0.285736">
        <ele>2066.350</ele>
        <time>2022-04-27T12:39:27Z</time>
      </trkpt>
      <trkpt lat="42.880586" lon="-0.286219">
        <ele>2079.036</ele>
        <time>2022-04-27T12:39:27Z</time>
      </trkpt>
      <trkpt lat="42.880452" lon="-0.286523">
        <ele>2088.287</ele>
        <time>2022-04-27T12:39:27Z</time>
      </trkpt>
      <trkpt lat="42.880263" lon="-0.286699">
        <ele>2096.343</ele>
        <time>2022-04-27T12:39:27Z</time>
      </trkpt>
      <trkpt lat="42.880293" lon="-0.286859">
        <ele>2100.273</ele>
        <time>2022-04-27T12:39:27Z</time>
      </trkpt>
      <trkpt lat="42.880261" lon="-0.287289">
        <ele>2110.448</ele>
        <time>2022-04-27T12:39:27Z</time>
      </trkpt>
      <trkpt lat="42.880334" lon="-0.287591">
        <ele>2117.988</ele>
        <time>2022-04-27T12:39:27Z</time>
      </trkpt>
      <trkpt lat="42.880758" lon="-0.288183">
        <ele>2137.424</ele>
        <time>2022-04-27T12:39:27Z</time>
      </trkpt>
      <trkpt lat="42.880839" lon="-0.288262">
        <ele>2140.626</ele>
        <time>2022-04-27T12:39:27Z</time>
      </trkpt>
      <trkpt lat="42.881010" lon="-0.288224">
        <ele>2146.209</ele>
        <time>2022-04-27T12:39:27Z</time>
      </trkpt>
      <trkpt lat="42.881439" lon="-0.288675">
        <ele>2156.499</ele>
        <time>2022-04-27T12:39:27Z</time>
      </trkpt>
      <trkpt lat="42.881556" lon="-0.289111">
        <ele>2158.588</ele>
        <time>2022-04-27T12:39:27Z</time>
      </trkpt>
      <trkpt lat="42.881708" lon="-0.289062">
        <ele>2159.569</ele>
        <time>2022-04-27T12:39:27Z</time>
      </trkpt>
      <trkpt lat="42.882193" lon="-0.289146">
        <ele>2162.599</ele>
        <time>2022-04-27T12:39:27Z</time>
      </trkpt>
      <trkpt lat="42.882473" lon="-0.289501">
        <ele>2164.965</ele>
        <time>2022-04-27T12:39:27Z</time>
      </trkpt>
      <trkpt lat="42.882861" lon="-0.289569">
        <ele>2165.076</ele>
        <time>2022-04-27T12:39:27Z</time>
      </trkpt>
      <trkpt lat="42.883361" lon="-0.289518">
        <ele>2163.272</ele>
        <time>2022-04-27T12:39:27Z</time>
      </trkpt>
      <trkpt lat="42.883707" lon="-0.289626">
        <ele>2162.032</ele>
        <time>2022-04-27T12:39:27Z</time>
      </trkpt>
      <trkpt lat="42.884331" lon="-0.289540">
        <ele>2159.877</ele>
        <time>2022-04-27T12:39:27Z</time>
      </trkpt>
      <trkpt lat="42.884574" lon="-0.289629">
        <ele>2160.233</ele>
        <time>2022-04-27T12:39:27Z</time>
      </trkpt>
      <trkpt lat="42.884954" lon="-0.289455">
        <ele>2161.823</ele>
        <time>2022-04-27T12:39:27Z</time>
      </trkpt>
      <trkpt lat="42.885245" lon="-0.289798">
        <ele>2163.315</ele>
        <time>2022-04-27T12:39:27Z</time>
      </trkpt>
      <trkpt lat="42.885716" lon="-0.289947">
        <ele>2165.209</ele>
        <time>2022-04-27T12:39:27Z</time>
      </trkpt>
      <trkpt lat="42.885812" lon="-0.289856">
        <ele>2165.754</ele>
        <time>2022-04-27T12:39:27Z</time>
      </trkpt>
      <trkpt lat="42.885867" lon="-0.289723">
        <ele>2166.133</ele>
        <time>2022-04-27T12:39:27Z</time>
      </trkpt>
      <trkpt lat="42.885968" lon="-0.289731">
        <ele>2166.574</ele>
        <time>2022-04-27T12:39:27Z</time>
      </trkpt>
      <trkpt lat="42.886200" lon="-0.289990">
        <ele>2168.934</ele>
        <time>2022-04-27T12:39:27Z</time>
      </trkpt>
      <trkpt lat="42.886365" lon="-0.290215">
        <ele>2170.890</ele>
        <time>2022-04-27T12:39:27Z</time>
      </trkpt>
      <trkpt lat="42.886483" lon="-0.290353">
        <ele>2172.141</ele>
        <time>2022-04-27T12:39:27Z</time>
      </trkpt>
      <trkpt lat="42.886962" lon="-0.290631">
        <ele>2176.467</ele>
        <time>2022-04-27T12:39:27Z</time>
      </trkpt>
      <trkpt lat="42.887060" lon="-0.290613">
        <ele>2177.257</ele>
        <time>2022-04-27T12:39:27Z</time>
      </trkpt>
      <trkpt lat="42.887713" lon="-0.290864">
        <ele>2183.632</ele>
        <time>2022-04-27T12:39:27Z</time>
      </trkpt>
      <trkpt lat="42.887970" lon="-0.291174">
        <ele>2188.163</ele>
        <time>2022-04-27T12:39:27Z</time>
      </trkpt>
      <trkpt lat="42.888089" lon="-0.291347">
        <ele>2190.444</ele>
        <time>2022-04-27T12:39:27Z</time>
      </trkpt>
      <trkpt lat="42.888337" lon="-0.292168">
        <ele>2198.918</ele>
        <time>2022-04-27T12:39:27Z</time>
      </trkpt>
      <trkpt lat="42.888297" lon="-0.292286">
        <ele>2200.109</ele>
        <time>2022-04-27T12:39:27Z</time>
      </trkpt>
      <trkpt lat="42.888368" lon="-0.292661">
        <ele>2203.847</ele>
        <time>2022-04-27T12:39:27Z</time>
      </trkpt>
      <trkpt lat="42.888258" lon="-0.293010">
        <ele>2207.636</ele>
        <time>2022-04-27T12:39:27Z</time>
      </trkpt>
      <trkpt lat="42.888258" lon="-0.293192">
        <ele>2209.427</ele>
        <time>2022-04-27T12:39:27Z</time>
      </trkpt>
      <trkpt lat="42.887983" lon="-0.293975">
        <ele>2218.217</ele>
        <time>2022-04-27T12:39:27Z</time>
      </trkpt>
      <trkpt lat="42.887865" lon="-0.294131">
        <ele>2220.553</ele>
        <time>2022-04-27T12:39:27Z</time>
      </trkpt>
      <trkpt lat="42.887794" lon="-0.294469">
        <ele>2224.034</ele>
        <time>2022-04-27T12:39:27Z</time>
      </trkpt>
      <trkpt lat="42.887908" lon="-0.295086">
        <ele>2230.450</ele>
        <time>2022-04-27T12:39:27Z</time>
      </trkpt>
      <trkpt lat="42.887853" lon="-0.295692">
        <ele>2236.290</ele>
        <time>2022-04-27T12:39:27Z</time>
      </trkpt>
      <trkpt lat="42.887881" lon="-0.295821">
        <ele>2237.555</ele>
        <time>2022-04-27T12:39:27Z</time>
      </trkpt>
      <trkpt lat="42.887794" lon="-0.296186">
        <ele>2241.236</ele>
        <time>2022-04-27T12:39:27Z</time>
      </trkpt>
      <trkpt lat="42.887653" lon="-0.296309">
        <ele>2243.417</ele>
        <time>2022-04-27T12:39:27Z</time>
      </trkpt>
      <trkpt lat="42.887562" lon="-0.296513">
        <ele>2245.718</ele>
        <time>2022-04-27T12:39:27Z</time>
      </trkpt>
      <trkpt lat="42.887723" lon="-0.296840">
        <ele>2249.509</ele>
        <time>2022-04-27T12:39:27Z</time>
      </trkpt>
      <trkpt lat="42.887492" lon="-0.297607">
        <ele>2258.724</ele>
        <time>2022-04-27T12:39:27Z</time>
      </trkpt>
      <trkpt lat="42.887393" lon="-0.297704">
        <ele>2260.843</ele>
        <time>2022-04-27T12:39:27Z</time>
      </trkpt>
      <trkpt lat="42.887338" lon="-0.297543">
        <ele>2263.084</ele>
        <time>2022-04-27T12:39:27Z</time>
      </trkpt>
      <trkpt lat="42.887114" lon="-0.297993">
        <ele>2269.854</ele>
        <time>2022-04-27T12:39:27Z</time>
      </trkpt>
      <trkpt lat="42.886933" lon="-0.298138">
        <ele>2273.490</ele>
        <time>2022-04-27T12:39:27Z</time>
      </trkpt>
      <trkpt lat="42.886918" lon="-0.298374">
        <ele>2276.471</ele>
        <time>2022-04-27T12:39:27Z</time>
      </trkpt>
      <trkpt lat="42.886784" lon="-0.298487">
        <ele>2279.127</ele>
        <time>2022-04-27T12:39:27Z</time>
      </trkpt>
      <trkpt lat="42.886724" lon="-0.298712">
        <ele>2282.167</ele>
        <time>2022-04-27T12:39:27Z</time>
      </trkpt>
      <trkpt lat="42.886618" lon="-0.298777">
        <ele>2284.152</ele>
        <time>2022-04-27T12:39:27Z</time>
      </trkpt>
      <trkpt lat="42.886398" lon="-0.298605">
        <ele>2288.773</ele>
        <time>2022-04-27T12:39:27Z</time>
      </trkpt>
      <trkpt lat="42.886304" lon="-0.298777">
        <ele>2291.685</ele>
        <time>2022-04-27T12:39:27Z</time>
      </trkpt>
      <trkpt lat="42.886061" lon="-0.298810">
        <ele>2296.013</ele>
        <time>2022-04-27T12:39:27Z</time>
      </trkpt>
      <trkpt lat="42.885871" lon="-0.298604">
        <ele>2300.409</ele>
        <time>2022-04-27T12:39:27Z</time>
      </trkpt>
      <trkpt lat="42.885642" lon="-0.298942">
        <ele>2306.578</ele>
        <time>2022-04-27T12:39:27Z</time>
      </trkpt>
      <trkpt lat="42.885483" lon="-0.298889">
        <ele>2309.567</ele>
        <time>2022-04-27T12:39:27Z</time>
      </trkpt>
      <trkpt lat="42.885143" lon="-0.299493">
        <ele>2316.898</ele>
        <time>2022-04-27T12:39:27Z</time>
      </trkpt>
      <trkpt lat="42.884956" lon="-0.299592">
        <ele>2316.838</ele>
        <time>2022-04-27T12:39:27Z</time>
      </trkpt>
      <trkpt lat="42.884753" lon="-0.299947">
        <ele>2316.874</ele>
        <time>2022-04-27T12:39:27Z</time>
      </trkpt>
      <trkpt lat="42.884643" lon="-0.300032">
        <ele>2316.885</ele>
        <time>2022-04-27T12:39:27Z</time>
      </trkpt>
      <trkpt lat="42.884521" lon="-0.300033">
        <ele>2316.831</ele>
        <time>2022-04-27T12:39:27Z</time>
      </trkpt>
      <trkpt lat="42.884388" lon="-0.299886">
        <ele>2316.891</ele>
        <time>2022-04-27T12:39:27Z</time>
      </trkpt>
      <trkpt lat="42.883997" lon="-0.299914">
        <ele>2316.876</ele>
        <time>2022-04-27T12:39:27Z</time>
      </trkpt>
      <trkpt lat="42.883723" lon="-0.300217">
        <ele>2316.832</ele>
        <time>2022-04-27T12:39:27Z</time>
      </trkpt>
      <trkpt lat="42.883723" lon="-0.300217">
        <ele>2358.614</ele>
        <time>2022-04-27T12:39:02Z</time>
      </trkpt>
      <trkpt lat="42.883659" lon="-0.300214">
        <ele>2358.654</ele>
        <time>2022-04-27T12:39:02Z</time>
      </trkpt>
      <trkpt lat="42.883562" lon="-0.300119">
        <ele>2358.609</ele>
        <time>2022-04-27T12:39:02Z</time>
      </trkpt>
      <trkpt lat="42.883691" lon="-0.300000">
        <ele>2358.609</ele>
        <time>2022-04-27T12:39:02Z</time>
      </trkpt>
      <trkpt lat="42.883756" lon="-0.299841">
        <ele>2358.632</ele>
        <time>2022-04-27T12:39:02Z</time>
      </trkpt>
      <trkpt lat="42.883577" lon="-0.299758">
        <ele>2358.671</ele>
        <time>2022-04-27T12:39:02Z</time>
      </trkpt>
      <trkpt lat="42.882953" lon="-0.299888">
        <ele>2365.132</ele>
        <time>2022-04-27T12:39:02Z</time>
      </trkpt>
      <trkpt lat="42.882842" lon="-0.299994">
        <ele>2367.352</ele>
        <time>2022-04-27T12:39:02Z</time>
      </trkpt>
      <trkpt lat="42.882359" lon="-0.300221">
        <ele>2375.738</ele>
        <time>2022-04-27T12:39:02Z</time>
      </trkpt>
      <trkpt lat="42.882361" lon="-0.300133">
        <ele>2376.879</ele>
        <time>2022-04-27T12:39:02Z</time>
      </trkpt>
      <trkpt lat="42.882214" lon="-0.300209">
        <ele>2379.495</ele>
        <time>2022-04-27T12:39:02Z</time>
      </trkpt>
      <trkpt lat="42.882213" lon="-0.300122">
        <ele>2380.523</ele>
        <time>2022-04-27T12:39:02Z</time>
      </trkpt>
      <trkpt lat="42.882059" lon="-0.300053">
        <ele>2383.236</ele>
        <time>2022-04-27T12:39:02Z</time>
      </trkpt>
      <trkpt lat="42.881714" lon="-0.300214">
        <ele>2388.689</ele>
        <time>2022-04-27T12:39:02Z</time>
      </trkpt>
      <trkpt lat="42.881583" lon="-0.300410">
        <ele>2389.506</ele>
        <time>2022-04-27T12:39:02Z</time>
      </trkpt>
      <trkpt lat="42.881348" lon="-0.300547">
        <ele>2390.726</ele>
        <time>2022-04-27T12:39:02Z</time>
      </trkpt>
      <trkpt lat="42.881199" lon="-0.300579">
        <ele>2391.409</ele>
        <time>2022-04-27T12:39:02Z</time>
      </trkpt>
      <trkpt lat="42.881053" lon="-0.300509">
        <ele>2392.269</ele>
        <time>2022-04-27T12:39:02Z</time>
      </trkpt>
      <trkpt lat="42.880736" lon="-0.300686">
        <ele>2393.958</ele>
        <time>2022-04-27T12:39:02Z</time>
      </trkpt>
      <trkpt lat="42.880647" lon="-0.300807">
        <ele>2394.529</ele>
        <time>2022-04-27T12:39:02Z</time>
      </trkpt>
      <trkpt lat="42.880446" lon="-0.300873">
        <ele>2395.569</ele>
        <time>2022-04-27T12:39:02Z</time>
      </trkpt>
      <trkpt lat="42.880269" lon="-0.301063">
        <ele>2396.695</ele>
        <time>2022-04-27T12:39:02Z</time>
      </trkpt>
      <trkpt lat="42.880253" lon="-0.301144">
        <ele>2396.956</ele>
        <time>2022-04-27T12:39:02Z</time>
      </trkpt>
      <trkpt lat="42.880027" lon="-0.301314">
        <ele>2394.932</ele>
        <time>2022-04-27T12:39:02Z</time>
      </trkpt>
      <trkpt lat="42.879980" lon="-0.301464">
        <ele>2393.860</ele>
        <time>2022-04-27T12:39:02Z</time>
      </trkpt>
      <trkpt lat="42.879622" lon="-0.301668">
        <ele>2390.263</ele>
        <time>2022-04-27T12:39:02Z</time>
      </trkpt>
      <trkpt lat="42.879186" lon="-0.301700">
        <ele>2386.266</ele>
        <time>2022-04-27T12:39:02Z</time>
      </trkpt>
      <trkpt lat="42.878978" lon="-0.301877">
        <ele>2383.929</ele>
        <time>2022-04-27T12:39:02Z</time>
      </trkpt>
      <trkpt lat="42.878604" lon="-0.301984">
        <ele>2380.321</ele>
        <time>2022-04-27T12:39:02Z</time>
      </trkpt>
      <trkpt lat="42.878571" lon="-0.302072">
        <ele>2379.109</ele>
        <time>2022-04-27T12:39:02Z</time>
      </trkpt>
      <trkpt lat="42.878413" lon="-0.302076">
        <ele>2376.527</ele>
        <time>2022-04-27T12:39:02Z</time>
      </trkpt>
      <trkpt lat="42.878380" lon="-0.302274">
        <ele>2374.056</ele>
        <time>2022-04-27T12:39:02Z</time>
      </trkpt>
      <trkpt lat="42.878481" lon="-0.302650">
        <ele>2369.197</ele>
        <time>2022-04-27T12:39:02Z</time>
      </trkpt>
      <trkpt lat="42.878460" lon="-0.302799">
        <ele>2367.247</ele>
        <time>2022-04-27T12:39:02Z</time>
      </trkpt>
      <trkpt lat="42.878310" lon="-0.303031">
        <ele>2363.473</ele>
        <time>2022-04-27T12:39:02Z</time>
      </trkpt>
      <trkpt lat="42.878337" lon="-0.303417">
        <ele>2358.734</ele>
        <time>2022-04-27T12:39:02Z</time>
      </trkpt>
      <trkpt lat="42.878162" lon="-0.303897">
        <ele>2352.160</ele>
        <time>2022-04-27T12:39:02Z</time>
      </trkpt>
      <trkpt lat="42.877920" lon="-0.304382">
        <ele>2346.378</ele>
        <time>2022-04-27T12:39:02Z</time>
      </trkpt>
      <trkpt lat="42.877889" lon="-0.304677">
        <ele>2343.641</ele>
        <time>2022-04-27T12:39:02Z</time>
      </trkpt>
      <trkpt lat="42.877987" lon="-0.305321">
        <ele>2337.653</ele>
        <time>2022-04-27T12:39:02Z</time>
      </trkpt>
      <trkpt lat="42.878169" lon="-0.305380">
        <ele>2335.304</ele>
        <time>2022-04-27T12:39:02Z</time>
      </trkpt>
      <trkpt lat="42.878328" lon="-0.305672">
        <ele>2332.014</ele>
        <time>2022-04-27T12:39:02Z</time>
      </trkpt>
      <trkpt lat="42.878549" lon="-0.305793">
        <ele>2329.009</ele>
        <time>2022-04-27T12:39:02Z</time>
      </trkpt>
      <trkpt lat="42.878765" lon="-0.306248">
        <ele>2328.876</ele>
        <time>2022-04-27T12:39:02Z</time>
      </trkpt>
      <trkpt lat="42.878740" lon="-0.306346">
        <ele>2329.015</ele>
        <time>2022-04-27T12:39:02Z</time>
      </trkpt>
      <trkpt lat="42.878549" lon="-0.306355">
        <ele>2329.566</ele>
        <time>2022-04-27T12:39:02Z</time>
      </trkpt>
      <trkpt lat="42.878325" lon="-0.306640">
        <ele>2330.426</ele>
        <time>2022-04-27T12:39:02Z</time>
      </trkpt>
      <trkpt lat="42.878353" lon="-0.306788">
        <ele>2330.742</ele>
        <time>2022-04-27T12:39:02Z</time>
      </trkpt>
      <trkpt lat="42.878312" lon="-0.306959">
        <ele>2331.183</ele>
        <time>2022-04-27T12:39:02Z</time>
      </trkpt>
      <trkpt lat="42.878205" lon="-0.307145">
        <ele>2331.649</ele>
        <time>2022-04-27T12:39:02Z</time>
      </trkpt>
      <trkpt lat="42.878182" lon="-0.307366">
        <ele>2332.147</ele>
        <time>2022-04-27T12:39:02Z</time>
      </trkpt>
      <trkpt lat="42.878113" lon="-0.307448">
        <ele>2332.430</ele>
        <time>2022-04-27T12:39:02Z</time>
      </trkpt>
      <trkpt lat="42.878343" lon="-0.307743">
        <ele>2334.242</ele>
        <time>2022-04-27T12:39:02Z</time>
      </trkpt>
      <trkpt lat="42.878282" lon="-0.308041">
        <ele>2337.622</ele>
        <time>2022-04-27T12:39:02Z</time>
      </trkpt>
      <trkpt lat="42.878172" lon="-0.308277">
        <ele>2340.614</ele>
        <time>2022-04-27T12:39:02Z</time>
      </trkpt>
      <trkpt lat="42.877956" lon="-0.308437">
        <ele>2344.209</ele>
        <time>2022-04-27T12:39:02Z</time>
      </trkpt>
      <trkpt lat="42.877704" lon="-0.308443">
        <ele>2347.915</ele>
        <time>2022-04-27T12:39:02Z</time>
      </trkpt>
      <trkpt lat="42.877387" lon="-0.308254">
        <ele>2353.014</ele>
        <time>2022-04-27T12:39:02Z</time>
      </trkpt>
      <trkpt lat="42.877448" lon="-0.308686">
        <ele>2357.815</ele>
        <time>2022-04-27T12:39:02Z</time>
      </trkpt>
      <trkpt lat="42.877350" lon="-0.308702">
        <ele>2359.375</ele>
        <time>2022-04-27T12:39:02Z</time>
      </trkpt>
      <trkpt lat="42.877193" lon="-0.308491">
        <ele>2363.231</ele>
        <time>2022-04-27T12:39:02Z</time>
      </trkpt>
      <trkpt lat="42.877089" lon="-0.308634">
        <ele>2365.872</ele>
        <time>2022-04-27T12:39:02Z</time>
      </trkpt>
      <trkpt lat="42.876988" lon="-0.308575">
        <ele>2367.838</ele>
        <time>2022-04-27T12:39:02Z</time>
      </trkpt>
      <trkpt lat="42.876953" lon="-0.308695">
        <ele>2369.556</ele>
        <time>2022-04-27T12:39:02Z</time>
      </trkpt>
      <trkpt lat="42.876849" lon="-0.308666">
        <ele>2371.499</ele>
        <time>2022-04-27T12:39:02Z</time>
      </trkpt>
      <trkpt lat="42.876750" lon="-0.308757">
        <ele>2373.542</ele>
        <time>2022-04-27T12:39:02Z</time>
      </trkpt>
      <trkpt lat="42.876817" lon="-0.308929">
        <ele>2376.122</ele>
        <time>2022-04-27T12:39:02Z</time>
      </trkpt>
      <trkpt lat="42.876788" lon="-0.308980">
        <ele>2376.914</ele>
        <time>2022-04-27T12:39:02Z</time>
      </trkpt>
      <trkpt lat="42.876689" lon="-0.308872">
        <ele>2379.209</ele>
        <time>2022-04-27T12:39:02Z</time>
      </trkpt>
      <trkpt lat="42.876619" lon="-0.308881">
        <ele>2380.565</ele>
        <time>2022-04-27T12:39:02Z</time>
      </trkpt>
      <trkpt lat="42.876624" lon="-0.309004">
        <ele>2382.174</ele>
        <time>2022-04-27T12:39:02Z</time>
      </trkpt>
      <trkpt lat="42.876396" lon="-0.309090">
        <ele>2386.375</ele>
        <time>2022-04-27T12:39:02Z</time>
      </trkpt>
      <trkpt lat="42.876163" lon="-0.309101">
        <ele>2390.555</ele>
        <time>2022-04-27T12:39:02Z</time>
      </trkpt>
      <trkpt lat="42.876151" lon="-0.309157">
        <ele>2391.331</ele>
        <time>2022-04-27T12:39:02Z</time>
      </trkpt>
      <trkpt lat="42.876366" lon="-0.309449">
        <ele>2396.372</ele>
        <time>2022-04-27T12:39:02Z</time>
      </trkpt>
      <trkpt lat="42.876125" lon="-0.309449">
        <ele>2400.258</ele>
        <time>2022-04-27T12:39:02Z</time>
      </trkpt>
      <trkpt lat="42.876021" lon="-0.309377">
        <ele>2402.126</ele>
        <time>2022-04-27T12:39:02Z</time>
      </trkpt>
      <trkpt lat="42.876060" lon="-0.309526">
        <ele>2404.019</ele>
        <time>2022-04-27T12:39:02Z</time>
      </trkpt>
      <trkpt lat="42.875849" lon="-0.309394">
        <ele>2407.826</ele>
        <time>2022-04-27T12:39:02Z</time>
      </trkpt>
      <trkpt lat="42.875947" lon="-0.309750">
        <ele>2412.347</ele>
        <time>2022-04-27T12:39:02Z</time>
      </trkpt>
      <trkpt lat="42.875739" lon="-0.309620">
        <ele>2416.011</ele>
        <time>2022-04-27T12:39:02Z</time>
      </trkpt>
      <trkpt lat="42.875775" lon="-0.309826">
        <ele>2418.509</ele>
        <time>2022-04-27T12:39:02Z</time>
      </trkpt>
      <trkpt lat="42.875650" lon="-0.309716">
        <ele>2420.943</ele>
        <time>2022-04-27T12:39:02Z</time>
      </trkpt>
      <trkpt lat="42.875741" lon="-0.310022">
        <ele>2423.312</ele>
        <time>2022-04-27T12:39:02Z</time>
      </trkpt>
      <trkpt lat="42.875603" lon="-0.310001">
        <ele>2424.673</ele>
        <time>2022-04-27T12:39:02Z</time>
      </trkpt>
      <trkpt lat="42.875562" lon="-0.310094">
        <ele>2425.353</ele>
        <time>2022-04-27T12:39:02Z</time>
      </trkpt>
      <trkpt lat="42.875414" lon="-0.309983">
        <ele>2426.929</ele>
        <time>2022-04-27T12:39:02Z</time>
      </trkpt>
      <trkpt lat="42.875462" lon="-0.310103">
        <ele>2427.860</ele>
        <time>2022-04-27T12:39:02Z</time>
      </trkpt>
      <trkpt lat="42.875210" lon="-0.309944">
        <ele>2430.476</ele>
        <time>2022-04-27T12:39:02Z</time>
      </trkpt>
      <trkpt lat="42.875234" lon="-0.310049">
        <ele>2431.244</ele>
        <time>2022-04-27T12:39:02Z</time>
      </trkpt>
      <trkpt lat="42.876196" lon="-0.311557">
        <ele>2434.617</ele>
        <time>2022-04-27T12:39:02Z</time>
      </trkpt>
      <trkpt lat="42.875510" lon="-0.311353">
        <ele>2431.353</ele>
        <time>2022-04-27T12:39:02Z</time>
      </trkpt>
      <trkpt lat="42.875745" lon="-0.311872">
        <ele>2428.304</ele>
        <time>2022-04-27T12:39:02Z</time>
      </trkpt>
      <trkpt lat="42.875652" lon="-0.311881">
        <ele>2427.014</ele>
        <time>2022-04-27T12:39:02Z</time>
      </trkpt>
      <trkpt lat="42.876087" lon="-0.312414">
        <ele>2418.509</ele>
        <time>2022-04-27T12:39:02Z</time>
      </trkpt>
      <trkpt lat="42.875955" lon="-0.312365">
        <ele>2416.566</ele>
        <time>2022-04-27T12:39:02Z</time>
      </trkpt>
      <trkpt lat="42.875986" lon="-0.312468">
        <ele>2415.365</ele>
        <time>2022-04-27T12:39:02Z</time>
      </trkpt>
      <trkpt lat="42.876167" lon="-0.312685">
        <ele>2411.886</ele>
        <time>2022-04-27T12:39:02Z</time>
      </trkpt>
      <trkpt lat="42.875982" lon="-0.312785">
        <ele>2408.936</ele>
        <time>2022-04-27T12:39:02Z</time>
      </trkpt>
      <trkpt lat="42.876039" lon="-0.312904">
        <ele>2407.492</ele>
        <time>2022-04-27T12:39:02Z</time>
      </trkpt>
      <trkpt lat="42.875899" lon="-0.312874">
        <ele>2405.483</ele>
        <time>2022-04-27T12:39:02Z</time>
      </trkpt>
      <trkpt lat="42.875978" lon="-0.313062">
        <ele>2402.679</ele>
        <time>2022-04-27T12:39:02Z</time>
      </trkpt>
      <trkpt lat="42.875810" lon="-0.312992">
        <ele>2397.457</ele>
        <time>2022-04-27T12:39:02Z</time>
      </trkpt>
      <trkpt lat="42.875852" lon="-0.313175">
        <ele>2393.350</ele>
        <time>2022-04-27T12:39:02Z</time>
      </trkpt>
      <trkpt lat="42.875904" lon="-0.313226">
        <ele>2391.449</ele>
        <time>2022-04-27T12:39:02Z</time>
      </trkpt>
      <trkpt lat="42.876218" lon="-0.313294">
        <ele>2382.002</ele>
        <time>2022-04-27T12:39:02Z</time>
      </trkpt>
      <trkpt lat="42.876374" lon="-0.313841">
        <ele>2369.322</ele>
        <time>2022-04-27T12:39:02Z</time>
      </trkpt>
      <trkpt lat="42.876848" lon="-0.314446">
        <ele>2350.109</ele>
        <time>2022-04-27T12:39:02Z</time>
      </trkpt>
      <trkpt lat="42.876903" lon="-0.315003">
        <ele>2335.265</ele>
        <time>2022-04-27T12:39:02Z</time>
      </trkpt>
      <trkpt lat="42.877086" lon="-0.315567">
        <ele>2318.824</ele>
        <time>2022-04-27T12:39:02Z</time>
      </trkpt>
      <trkpt lat="42.877251" lon="-0.315901">
        <ele>2308.165</ele>
        <time>2022-04-27T12:39:02Z</time>
      </trkpt>
      <trkpt lat="42.877563" lon="-0.316202">
        <ele>2294.395</ele>
        <time>2022-04-27T12:39:02Z</time>
      </trkpt>
      <trkpt lat="42.877633" lon="-0.316398">
        <ele>2288.551</ele>
        <time>2022-04-27T12:39:02Z</time>
      </trkpt>
      <trkpt lat="42.877681" lon="-0.316836">
        <ele>2278.412</ele>
        <time>2022-04-27T12:39:02Z</time>
      </trkpt>
      <trkpt lat="42.877965" lon="-0.317532">
        <ele>2261.458</ele>
        <time>2022-04-27T12:39:02Z</time>
      </trkpt>
      <trkpt lat="42.877851" lon="-0.318775">
        <ele>2234.786</ele>
        <time>2022-04-27T12:39:02Z</time>
      </trkpt>
      <trkpt lat="42.877913" lon="-0.319172">
        <ele>2228.779</ele>
        <time>2022-04-27T12:39:02Z</time>
      </trkpt>
      <trkpt lat="42.877730" lon="-0.319952">
        <ele>2218.055</ele>
        <time>2022-04-27T12:39:02Z</time>
      </trkpt>
      <trkpt lat="42.877552" lon="-0.320358">
        <ele>2211.807</ele>
        <time>2022-04-27T12:39:02Z</time>
      </trkpt>
      <trkpt lat="42.877404" lon="-0.320507">
        <ele>2208.517</ele>
        <time>2022-04-27T12:39:02Z</time>
      </trkpt>
      <trkpt lat="42.877338" lon="-0.320735">
        <ele>2205.309</ele>
        <time>2022-04-27T12:39:02Z</time>
      </trkpt>
      <trkpt lat="42.877325" lon="-0.321090">
        <ele>2200.736</ele>
        <time>2022-04-27T12:39:02Z</time>
      </trkpt>
      <trkpt lat="42.877282" lon="-0.321162">
        <ele>2199.755</ele>
        <time>2022-04-27T12:39:02Z</time>
      </trkpt>
      <trkpt lat="42.877336" lon="-0.321497">
        <ele>2195.836</ele>
        <time>2022-04-27T12:39:02Z</time>
      </trkpt>
      <trkpt lat="42.877242" lon="-0.321897">
        <ele>2191.136</ele>
        <time>2022-04-27T12:39:02Z</time>
      </trkpt>
      <trkpt lat="42.877087" lon="-0.322200">
        <ele>2186.962</ele>
        <time>2022-04-27T12:39:02Z</time>
      </trkpt>
      <trkpt lat="42.877112" lon="-0.322308">
        <ele>2185.633</ele>
        <time>2022-04-27T12:39:02Z</time>
      </trkpt>
      <trkpt lat="42.876748" lon="-0.323037">
        <ele>2175.629</ele>
        <time>2022-04-27T12:39:02Z</time>
      </trkpt>
      <trkpt lat="42.876484" lon="-0.323382">
        <ele>2168.827</ele>
        <time>2022-04-27T12:39:02Z</time>
      </trkpt>
      <trkpt lat="42.876574" lon="-0.323433">
        <ele>2166.760</ele>
        <time>2022-04-27T12:39:02Z</time>
      </trkpt>
      <trkpt lat="42.876550" lon="-0.323509">
        <ele>2165.443</ele>
        <time>2022-04-27T12:39:02Z</time>
      </trkpt>
      <trkpt lat="42.876595" lon="-0.323566">
        <ele>2164.164</ele>
        <time>2022-04-27T12:39:02Z</time>
      </trkpt>
      <trkpt lat="42.876560" lon="-0.323651">
        <ele>2162.610</ele>
        <time>2022-04-27T12:39:02Z</time>
      </trkpt>
      <trkpt lat="42.876601" lon="-0.323896">
        <ele>2158.709</ele>
        <time>2022-04-27T12:39:02Z</time>
      </trkpt>
      <trkpt lat="42.876542" lon="-0.324133">
        <ele>2154.875</ele>
        <time>2022-04-27T12:39:02Z</time>
      </trkpt>
      <trkpt lat="42.876358" lon="-0.324397">
        <ele>2149.174</ele>
        <time>2022-04-27T12:39:02Z</time>
      </trkpt>
      <trkpt lat="42.876312" lon="-0.324655">
        <ele>2144.965</ele>
        <time>2022-04-27T12:39:02Z</time>
      </trkpt>
      <trkpt lat="42.876419" lon="-0.324917">
        <ele>2140.295</ele>
        <time>2022-04-27T12:39:02Z</time>
      </trkpt>
      <trkpt lat="42.876391" lon="-0.325129">
        <ele>2136.821</ele>
        <time>2022-04-27T12:39:02Z</time>
      </trkpt>
      <trkpt lat="42.876320" lon="-0.325229">
        <ele>2134.672</ele>
        <time>2022-04-27T12:39:02Z</time>
      </trkpt>
      <trkpt lat="42.876207" lon="-0.325261">
        <ele>2132.178</ele>
        <time>2022-04-27T12:39:02Z</time>
      </trkpt>
      <trkpt lat="42.875928" lon="-0.325210">
        <ele>2125.956</ele>
        <time>2022-04-27T12:39:02Z</time>
      </trkpt>
      <trkpt lat="42.875700" lon="-0.325253">
        <ele>2120.999</ele>
        <time>2022-04-27T12:39:02Z</time>
      </trkpt>
      <trkpt lat="42.875566" lon="-0.325392">
        <ele>2117.298</ele>
        <time>2022-04-27T12:39:02Z</time>
      </trkpt>
      <trkpt lat="42.875533" lon="-0.325332">
        <ele>2116.015</ele>
        <time>2022-04-27T12:39:02Z</time>
      </trkpt>
      <trkpt lat="42.875437" lon="-0.325337">
        <ele>2113.926</ele>
        <time>2022-04-27T12:39:02Z</time>
      </trkpt>
      <trkpt lat="42.875091" lon="-0.325866">
        <ele>2102.509</ele>
        <time>2022-04-27T12:39:02Z</time>
      </trkpt>
      <trkpt lat="42.875066" lon="-0.325965">
        <ele>2100.830</ele>
        <time>2022-04-27T12:39:02Z</time>
      </trkpt>
      <trkpt lat="42.875102" lon="-0.326036">
        <ele>2099.429</ele>
        <time>2022-04-27T12:39:02Z</time>
      </trkpt>
      <trkpt lat="42.875023" lon="-0.326060">
        <ele>2097.650</ele>
        <time>2022-04-27T12:39:02Z</time>
      </trkpt>
      <trkpt lat="42.875003" lon="-0.326175">
        <ele>2095.780</ele>
        <time>2022-04-27T12:39:02Z</time>
      </trkpt>
      <trkpt lat="42.875220" lon="-0.326103">
        <ele>2091.266</ele>
        <time>2022-04-27T12:39:02Z</time>
      </trkpt>
      <trkpt lat="42.875271" lon="-0.326139">
        <ele>2090.137</ele>
        <time>2022-04-27T12:39:02Z</time>
      </trkpt>
      <trkpt lat="42.875155" lon="-0.326280">
        <ele>2087.053</ele>
        <time>2022-04-27T12:39:02Z</time>
      </trkpt>
      <trkpt lat="42.874673" lon="-0.327470">
        <ele>2067.181</ele>
        <time>2022-04-27T12:39:02Z</time>
      </trkpt>
      <trkpt lat="42.874576" lon="-0.327605">
        <ele>2064.384</ele>
        <time>2022-04-27T12:39:02Z</time>
      </trkpt>
      <trkpt lat="42.874542" lon="-0.327759">
        <ele>2061.973</ele>
        <time>2022-04-27T12:39:02Z</time>
      </trkpt>
      <trkpt lat="42.874643" lon="-0.327853">
        <ele>2059.585</ele>
        <time>2022-04-27T12:39:02Z</time>
      </trkpt>
      <trkpt lat="42.874583" lon="-0.327970">
        <ele>2057.913</ele>
        <time>2022-04-27T12:39:02Z</time>
      </trkpt>
      <trkpt lat="42.874438" lon="-0.328085">
        <ele>2055.509</ele>
        <time>2022-04-27T12:39:02Z</time>
      </trkpt>
      <trkpt lat="42.874470" lon="-0.328271">
        <ele>2053.558</ele>
        <time>2022-04-27T12:39:02Z</time>
      </trkpt>
      <trkpt lat="42.874530" lon="-0.328322">
        <ele>2052.577</ele>
        <time>2022-04-27T12:39:02Z</time>
      </trkpt>
      <trkpt lat="42.874393" lon="-0.328508">
        <ele>2049.798</ele>
        <time>2022-04-27T12:39:02Z</time>
      </trkpt>
      <trkpt lat="42.874377" lon="-0.328682">
        <ele>2047.888</ele>
        <time>2022-04-27T12:39:02Z</time>
      </trkpt>
      <trkpt lat="42.874200" lon="-0.329048">
        <ele>2043.194</ele>
        <time>2022-04-27T12:39:02Z</time>
      </trkpt>
      <trkpt lat="42.874052" lon="-0.329276">
        <ele>2039.945</ele>
        <time>2022-04-27T12:39:02Z</time>
      </trkpt>
      <trkpt lat="42.873765" lon="-0.329536">
        <ele>2034.911</ele>
        <time>2022-04-27T12:39:02Z</time>
      </trkpt>
      <trkpt lat="42.873606" lon="-0.329786">
        <ele>2033.339</ele>
        <time>2022-04-27T12:39:02Z</time>
      </trkpt>
      <trkpt lat="42.873416" lon="-0.329817">
        <ele>2033.412</ele>
        <time>2022-04-27T12:39:02Z</time>
      </trkpt>
      <trkpt lat="42.872902" lon="-0.329741">
        <ele>2033.593</ele>
        <time>2022-04-27T12:39:02Z</time>
      </trkpt>
      <trkpt lat="42.872638" lon="-0.329597">
        <ele>2033.665</ele>
        <time>2022-04-27T12:39:02Z</time>
      </trkpt>
      <trkpt lat="42.871604" lon="-0.329283">
        <ele>2035.921</ele>
        <time>2022-04-27T12:39:02Z</time>
      </trkpt>
      <trkpt lat="42.871323" lon="-0.329248">
        <ele>2037.409</ele>
        <time>2022-04-27T12:39:02Z</time>
      </trkpt>
      <trkpt lat="42.870568" lon="-0.329421">
        <ele>2041.590</ele>
        <time>2022-04-27T12:39:02Z</time>
      </trkpt>
      <trkpt lat="42.869782" lon="-0.329793">
        <ele>2045.739</ele>
        <time>2022-04-27T12:39:02Z</time>
      </trkpt>
      <trkpt lat="42.869783" lon="-0.329882">
        <ele>2046.080</ele>
        <time>2022-04-27T12:39:02Z</time>
      </trkpt>
      <trkpt lat="42.869557" lon="-0.330121">
        <ele>2047.430</ele>
        <time>2022-04-27T12:39:02Z</time>
      </trkpt>
      <trkpt lat="42.869310" lon="-0.330614">
        <ele>2049.536</ele>
        <time>2022-04-27T12:39:02Z</time>
      </trkpt>
      <trkpt lat="42.868744" lon="-0.331108">
        <ele>2053.527</ele>
        <time>2022-04-27T12:39:02Z</time>
      </trkpt>
      <trkpt lat="42.868582" lon="-0.331205">
        <ele>2055.433</ele>
        <time>2022-04-27T12:39:02Z</time>
      </trkpt>
      <trkpt lat="42.868135" lon="-0.331302">
        <ele>2060.211</ele>
        <time>2022-04-27T12:39:02Z</time>
      </trkpt>
      <trkpt lat="42.867301" lon="-0.331188">
        <ele>2069.044</ele>
        <time>2022-04-27T12:39:02Z</time>
      </trkpt>
      <trkpt lat="42.867261" lon="-0.331138">
        <ele>2069.693</ele>
        <time>2022-04-27T12:39:02Z</time>
      </trkpt>
      <trkpt lat="42.867391" lon="-0.331079">
        <ele>2071.065</ele>
        <time>2022-04-27T12:39:02Z</time>
      </trkpt>
      <trkpt lat="42.867123" lon="-0.330906">
        <ele>2072.721</ele>
        <time>2022-04-27T12:39:02Z</time>
      </trkpt>
      <trkpt lat="42.867015" lon="-0.331000">
        <ele>2073.409</ele>
        <time>2022-04-27T12:39:02Z</time>
      </trkpt>
      <trkpt lat="42.866696" lon="-0.330927">
        <ele>2075.270</ele>
        <time>2022-04-27T12:39:02Z</time>
      </trkpt>
      <trkpt lat="42.866457" lon="-0.330965">
        <ele>2076.699</ele>
        <time>2022-04-27T12:39:02Z</time>
      </trkpt>
      <trkpt lat="42.866162" lon="-0.330883">
        <ele>2078.340</ele>
        <time>2022-04-27T12:39:02Z</time>
      </trkpt>
      <trkpt lat="42.865976" lon="-0.331002">
        <ele>2079.530</ele>
        <time>2022-04-27T12:39:02Z</time>
      </trkpt>
      <trkpt lat="42.865914" lon="-0.330977">
        <ele>2079.976</ele>
        <time>2022-04-27T12:39:02Z</time>
      </trkpt>
      <trkpt lat="42.865825" lon="-0.330811">
        <ele>2080.747</ele>
        <time>2022-04-27T12:39:02Z</time>
      </trkpt>
      <trkpt lat="42.865688" lon="-0.330751">
        <ele>2080.733</ele>
        <time>2022-04-27T12:39:02Z</time>
      </trkpt>
      <trkpt lat="42.865623" lon="-0.330859">
        <ele>2079.471</ele>
        <time>2022-04-27T12:39:02Z</time>
      </trkpt>
      <trkpt lat="42.865333" lon="-0.330824">
        <ele>2075.624</ele>
        <time>2022-04-27T12:39:02Z</time>
      </trkpt>
      <trkpt lat="42.865090" lon="-0.330890">
        <ele>2072.452</ele>
        <time>2022-04-27T12:39:02Z</time>
      </trkpt>
      <trkpt lat="42.865055" lon="-0.330794">
        <ele>2071.453</ele>
        <time>2022-04-27T12:39:02Z</time>
      </trkpt>
      <trkpt lat="42.865013" lon="-0.330802">
        <ele>2070.808</ele>
        <time>2022-04-27T12:39:02Z</time>
      </trkpt>
      <trkpt lat="42.864642" lon="-0.331143">
        <ele>2065.009</ele>
        <time>2022-04-27T12:39:02Z</time>
      </trkpt>
      <trkpt lat="42.864335" lon="-0.331512">
        <ele>2059.746</ele>
        <time>2022-04-27T12:39:02Z</time>
      </trkpt>
      <trkpt lat="42.864229" lon="-0.331492">
        <ele>2058.385</ele>
        <time>2022-04-27T12:39:02Z</time>
      </trkpt>
      <trkpt lat="42.864246" lon="-0.331548">
        <ele>2057.526</ele>
        <time>2022-04-27T12:39:02Z</time>
      </trkpt>
      <trkpt lat="42.864179" lon="-0.331556">
        <ele>2055.786</ele>
        <time>2022-04-27T12:39:02Z</time>
      </trkpt>
      <trkpt lat="42.864215" lon="-0.331627">
        <ele>2054.082</ele>
        <time>2022-04-27T12:39:02Z</time>
      </trkpt>
      <trkpt lat="42.864117" lon="-0.331820">
        <ele>2049.593</ele>
        <time>2022-04-27T12:39:02Z</time>
      </trkpt>
      <trkpt lat="42.864106" lon="-0.331734">
        <ele>2047.879</ele>
        <time>2022-04-27T12:39:02Z</time>
      </trkpt>
      <trkpt lat="42.863747" lon="-0.332108">
        <ele>2036.057</ele>
        <time>2022-04-27T12:39:02Z</time>
      </trkpt>
      <trkpt lat="42.863111" lon="-0.332315">
        <ele>2018.990</ele>
        <time>2022-04-27T12:39:02Z</time>
      </trkpt>
      <trkpt lat="42.863002" lon="-0.332297">
        <ele>2016.055</ele>
        <time>2022-04-27T12:39:02Z</time>
      </trkpt>
      <trkpt lat="42.862751" lon="-0.332992">
        <ele>2005.907</ele>
        <time>2022-04-27T12:39:02Z</time>
      </trkpt>
      <trkpt lat="42.862611" lon="-0.334052">
        <ele>1995.417</ele>
        <time>2022-04-27T12:39:02Z</time>
      </trkpt>
      <trkpt lat="42.862384" lon="-0.334331">
        <ele>1991.309</ele>
        <time>2022-04-27T12:39:02Z</time>
      </trkpt>
      <trkpt lat="42.862283" lon="-0.334345">
        <ele>1990.066</ele>
        <time>2022-04-27T12:39:02Z</time>
      </trkpt>
      <trkpt lat="42.862151" lon="-0.334770">
        <ele>1986.915</ele>
        <time>2022-04-27T12:39:02Z</time>
      </trkpt>
      <trkpt lat="42.862191" lon="-0.335090">
        <ele>1986.956</ele>
        <time>2022-04-27T12:39:02Z</time>
      </trkpt>
      <trkpt lat="42.862059" lon="-0.335298">
        <ele>1986.976</ele>
        <time>2022-04-27T12:39:02Z</time>
      </trkpt>
      <trkpt lat="42.862036" lon="-0.335430">
        <ele>1986.992</ele>
        <time>2022-04-27T12:39:02Z</time>
      </trkpt>
      <trkpt lat="42.862073" lon="-0.335559">
        <ele>1986.993</ele>
        <time>2022-04-27T12:39:02Z</time>
      </trkpt>
      <trkpt lat="42.862286" lon="-0.335767">
        <ele>1986.999</ele>
        <time>2022-04-27T12:39:02Z</time>
      </trkpt>
      <trkpt lat="42.862347" lon="-0.335948">
        <ele>1986.987</ele>
        <time>2022-04-27T12:39:02Z</time>
      </trkpt>
      <trkpt lat="42.862353" lon="-0.336029">
        <ele>1986.930</ele>
        <time>2022-04-27T12:39:02Z</time>
      </trkpt>
      <trkpt lat="42.862376" lon="-0.336081">
        <ele>1986.992</ele>
        <time>2022-04-27T12:39:02Z</time>
      </trkpt>
      <trkpt lat="42.862282" lon="-0.336156">
        <ele>1986.973</ele>
        <time>2022-04-27T12:39:02Z</time>
      </trkpt>
      <trkpt lat="42.861955" lon="-0.336725">
        <ele>1987.120</ele>
        <time>2022-04-27T12:39:02Z</time>
      </trkpt>
      <trkpt lat="42.861867" lon="-0.336796">
        <ele>1987.209</ele>
        <time>2022-04-27T12:39:02Z</time>
      </trkpt>
      <trkpt lat="42.861683" lon="-0.336757">
        <ele>1987.590</ele>
        <time>2022-04-27T12:39:02Z</time>
      </trkpt>
      <trkpt lat="42.861472" lon="-0.336593">
        <ele>1987.899</ele>
        <time>2022-04-27T12:39:02Z</time>
      </trkpt>
      <trkpt lat="42.860970" lon="-0.336475">
        <ele>1988.510</ele>
        <time>2022-04-27T12:39:02Z</time>
      </trkpt>
      <trkpt lat="42.860695" lon="-0.336159">
        <ele>1989.030</ele>
        <time>2022-04-27T12:39:02Z</time>
      </trkpt>
      <trkpt lat="42.860635" lon="-0.335794">
        <ele>1989.456</ele>
        <time>2022-04-27T12:39:02Z</time>
      </trkpt>
      <trkpt lat="42.860585" lon="-0.335787">
        <ele>1989.417</ele>
        <time>2022-04-27T12:39:02Z</time>
      </trkpt>
      <trkpt lat="42.860566" lon="-0.335885">
        <ele>1989.483</ele>
        <time>2022-04-27T12:39:02Z</time>
      </trkpt>
      <trkpt lat="42.860444" lon="-0.335751">
        <ele>1989.491</ele>
        <time>2022-04-27T12:39:02Z</time>
      </trkpt>
      <trkpt lat="42.860245" lon="-0.335791">
        <ele>1989.424</ele>
        <time>2022-04-27T12:39:02Z</time>
      </trkpt>
      <trkpt lat="42.860161" lon="-0.335904">
        <ele>1989.489</ele>
        <time>2022-04-27T12:39:02Z</time>
      </trkpt>
      <trkpt lat="42.860027" lon="-0.335956">
        <ele>1989.406</ele>
        <time>2022-04-27T12:39:02Z</time>
      </trkpt>
      <trkpt lat="42.859771" lon="-0.335957">
        <ele>1989.426</ele>
        <time>2022-04-27T12:39:02Z</time>
      </trkpt>
      <trkpt lat="42.859405" lon="-0.335651">
        <ele>1989.409</ele>
        <time>2022-04-27T12:39:02Z</time>
      </trkpt>
      <trkpt lat="42.858961" lon="-0.335695">
        <ele>1989.519</ele>
        <time>2022-04-27T12:39:02Z</time>
      </trkpt>
      <trkpt lat="42.858582" lon="-0.335493">
        <ele>1989.778</ele>
        <time>2022-04-27T12:39:02Z</time>
      </trkpt>
      <trkpt lat="42.858338" lon="-0.335483">
        <ele>1989.889</ele>
        <time>2022-04-27T12:39:02Z</time>
      </trkpt>
      <trkpt lat="42.858120" lon="-0.335544">
        <ele>1989.969</ele>
        <time>2022-04-27T12:39:02Z</time>
      </trkpt>
      <trkpt lat="42.857390" lon="-0.336033">
        <ele>1990.335</ele>
        <time>2022-04-27T12:39:02Z</time>
      </trkpt>
      <trkpt lat="42.856824" lon="-0.335982">
        <ele>1991.796</ele>
        <time>2022-04-27T12:39:02Z</time>
      </trkpt>
      <trkpt lat="42.856581" lon="-0.336092">
        <ele>1992.452</ele>
        <time>2022-04-27T12:39:02Z</time>
      </trkpt>
      <trkpt lat="42.856451" lon="-0.336033">
        <ele>1992.820</ele>
        <time>2022-04-27T12:39:02Z</time>
      </trkpt>
      <trkpt lat="42.856295" lon="-0.336078">
        <ele>1993.253</ele>
        <time>2022-04-27T12:39:02Z</time>
      </trkpt>
      <trkpt lat="42.856100" lon="-0.335963">
        <ele>1993.882</ele>
        <time>2022-04-27T12:39:02Z</time>
      </trkpt>
      <trkpt lat="42.855830" lon="-0.335912">
        <ele>1994.543</ele>
        <time>2022-04-27T12:39:02Z</time>
      </trkpt>
      <trkpt lat="42.855474" lon="-0.336081">
        <ele>1996.417</ele>
        <time>2022-04-27T12:39:02Z</time>
      </trkpt>
      <trkpt lat="42.854841" lon="-0.336540">
        <ele>2004.109</ele>
        <time>2022-04-27T12:39:02Z</time>
      </trkpt>
      <trkpt lat="42.854729" lon="-0.336459">
        <ele>2005.529</ele>
        <time>2022-04-27T12:39:02Z</time>
      </trkpt>
      <trkpt lat="42.853987" lon="-0.336848">
        <ele>2014.168</ele>
        <time>2022-04-27T12:39:02Z</time>
      </trkpt>
      <trkpt lat="42.853403" lon="-0.336946">
        <ele>2021.519</ele>
        <time>2022-04-27T12:39:02Z</time>
      </trkpt>
      <trkpt lat="42.852728" lon="-0.336808">
        <ele>2030.169</ele>
        <time>2022-04-27T12:39:02Z</time>
      </trkpt>
      <trkpt lat="42.852649" lon="-0.336525">
        <ele>2032.945</ele>
        <time>2022-04-27T12:39:02Z</time>
      </trkpt>
      <trkpt lat="42.852603" lon="-0.336592">
        <ele>2033.846</ele>
        <time>2022-04-27T12:39:02Z</time>
      </trkpt>
      <trkpt lat="42.852214" lon="-0.336684">
        <ele>2039.592</ele>
        <time>2022-04-27T12:39:02Z</time>
      </trkpt>
      <trkpt lat="42.852227" lon="-0.336456">
        <ele>2042.730</ele>
        <time>2022-04-27T12:39:02Z</time>
      </trkpt>
      <trkpt lat="42.852440" lon="-0.335710">
        <ele>2053.973</ele>
        <time>2022-04-27T12:39:02Z</time>
      </trkpt>
      <trkpt lat="42.852361" lon="-0.335464">
        <ele>2057.745</ele>
        <time>2022-04-27T12:39:02Z</time>
      </trkpt>
      <trkpt lat="42.852339" lon="-0.335108">
        <ele>2062.747</ele>
        <time>2022-04-27T12:39:02Z</time>
      </trkpt>
      <trkpt lat="42.852214" lon="-0.335356">
        <ele>2066.911</ele>
        <time>2022-04-27T12:39:02Z</time>
      </trkpt>
      <trkpt lat="42.852127" lon="-0.335852">
        <ele>2075.409</ele>
        <time>2022-04-27T12:39:02Z</time>
      </trkpt>
      <trkpt lat="42.852099" lon="-0.335864">
        <ele>2076.345</ele>
        <time>2022-04-27T12:39:02Z</time>
      </trkpt>
      <trkpt lat="42.852058" lon="-0.335739">
        <ele>2079.354</ele>
        <time>2022-04-27T12:39:02Z</time>
      </trkpt>
      <trkpt lat="42.851903" lon="-0.335651">
        <ele>2084.485</ele>
        <time>2022-04-27T12:39:02Z</time>
      </trkpt>
      <trkpt lat="42.851842" lon="-0.335500">
        <ele>2088.285</ele>
        <time>2022-04-27T12:39:02Z</time>
      </trkpt>
      <trkpt lat="42.851696" lon="-0.335420">
        <ele>2093.081</ele>
        <time>2022-04-27T12:39:02Z</time>
      </trkpt>
      <trkpt lat="42.851712" lon="-0.335215">
        <ele>2097.632</ele>
        <time>2022-04-27T12:39:02Z</time>
      </trkpt>
      <trkpt lat="42.851665" lon="-0.335274">
        <ele>2099.548</ele>
        <time>2022-04-27T12:39:02Z</time>
      </trkpt>
      <trkpt lat="42.851705" lon="-0.335018">
        <ele>2105.356</ele>
        <time>2022-04-27T12:39:02Z</time>
      </trkpt>
      <trkpt lat="42.851678" lon="-0.334548">
        <ele>2115.899</ele>
        <time>2022-04-27T12:39:02Z</time>
      </trkpt>
      <trkpt lat="42.851542" lon="-0.334679">
        <ele>2120.818</ele>
        <time>2022-04-27T12:39:02Z</time>
      </trkpt>
      <trkpt lat="42.851578" lon="-0.334440">
        <ele>2126.298</ele>
        <time>2022-04-27T12:39:02Z</time>
      </trkpt>
      <trkpt lat="42.851405" lon="-0.334455">
        <ele>2129.617</ele>
        <time>2022-04-27T12:39:02Z</time>
      </trkpt>
      <trkpt lat="42.851515" lon="-0.334280">
        <ele>2132.909</ele>
        <time>2022-04-27T12:39:02Z</time>
      </trkpt>
      <trkpt lat="42.851288" lon="-0.334303">
        <ele>2137.472</ele>
        <time>2022-04-27T12:39:02Z</time>
      </trkpt>
      <trkpt lat="42.851022" lon="-0.334510">
        <ele>2143.431</ele>
        <time>2022-04-27T12:39:02Z</time>
      </trkpt>
      <trkpt lat="42.850870" lon="-0.334311">
        <ele>2147.542</ele>
        <time>2022-04-27T12:39:02Z</time>
      </trkpt>
      <trkpt lat="42.850775" lon="-0.334254">
        <ele>2149.532</ele>
        <time>2022-04-27T12:39:02Z</time>
      </trkpt>
      <trkpt lat="42.850680" lon="-0.334293">
        <ele>2151.598</ele>
        <time>2022-04-27T12:39:02Z</time>
      </trkpt>
      <trkpt lat="42.850683" lon="-0.334136">
        <ele>2153.869</ele>
        <time>2022-04-27T12:39:02Z</time>
      </trkpt>
      <trkpt lat="42.850931" lon="-0.333975">
        <ele>2159.295</ele>
        <time>2022-04-27T12:39:02Z</time>
      </trkpt>
      <trkpt lat="42.850870" lon="-0.333857">
        <ele>2161.373</ele>
        <time>2022-04-27T12:39:02Z</time>
      </trkpt>
      <trkpt lat="42.850937" lon="-0.333749">
        <ele>2163.136</ele>
        <time>2022-04-27T12:39:02Z</time>
      </trkpt>
      <trkpt lat="42.850758" lon="-0.333591">
        <ele>2166.783</ele>
        <time>2022-04-27T12:39:02Z</time>
      </trkpt>
      <trkpt lat="42.850497" lon="-0.333601">
        <ele>2171.125</ele>
        <time>2022-04-27T12:39:02Z</time>
      </trkpt>
      <trkpt lat="42.850543" lon="-0.333555">
        <ele>2172.117</ele>
        <time>2022-04-27T12:39:02Z</time>
      </trkpt>
      <trkpt lat="42.850303" lon="-0.333531">
        <ele>2176.209</ele>
        <time>2022-04-27T12:39:02Z</time>
      </trkpt>
      <trkpt lat="42.850419" lon="-0.333433">
        <ele>2178.529</ele>
        <time>2022-04-27T12:39:02Z</time>
      </trkpt>
      <trkpt lat="42.850240" lon="-0.333400">
        <ele>2181.568</ele>
        <time>2022-04-27T12:39:02Z</time>
      </trkpt>
      <trkpt lat="42.850387" lon="-0.333280">
        <ele>2184.439</ele>
        <time>2022-04-27T12:39:02Z</time>
      </trkpt>
      <trkpt lat="42.850212" lon="-0.333234">
        <ele>2187.419</ele>
        <time>2022-04-27T12:39:02Z</time>
      </trkpt>
      <trkpt lat="42.850388" lon="-0.333056">
        <ele>2191.175</ele>
        <time>2022-04-27T12:39:02Z</time>
      </trkpt>
      <trkpt lat="42.850138" lon="-0.333058">
        <ele>2195.866</ele>
        <time>2022-04-27T12:39:02Z</time>
      </trkpt>
      <trkpt lat="42.850245" lon="-0.332934">
        <ele>2198.562</ele>
        <time>2022-04-27T12:39:02Z</time>
      </trkpt>
      <trkpt lat="42.850015" lon="-0.332913">
        <ele>2203.020</ele>
        <time>2022-04-27T12:39:02Z</time>
      </trkpt>
      <trkpt lat="42.850173" lon="-0.332686">
        <ele>2207.513</ele>
        <time>2022-04-27T12:39:02Z</time>
      </trkpt>
      <trkpt lat="42.850194" lon="-0.332543">
        <ele>2209.653</ele>
        <time>2022-04-27T12:39:02Z</time>
      </trkpt>
      <trkpt lat="42.850122" lon="-0.332522">
        <ele>2211.004</ele>
        <time>2022-04-27T12:39:02Z</time>
      </trkpt>
      <trkpt lat="42.850050" lon="-0.332397">
        <ele>2213.314</ele>
        <time>2022-04-27T12:39:02Z</time>
      </trkpt>
      <trkpt lat="42.850017" lon="-0.332493">
        <ele>2214.809</ele>
        <time>2022-04-27T12:39:02Z</time>
      </trkpt>
      <trkpt lat="42.849940" lon="-0.332515">
        <ele>2216.316</ele>
        <time>2022-04-27T12:39:02Z</time>
      </trkpt>
      <trkpt lat="42.849933" lon="-0.332461">
        <ele>2217.175</ele>
        <time>2022-04-27T12:39:02Z</time>
      </trkpt>
      <trkpt lat="42.849503" lon="-0.332562">
        <ele>2225.616</ele>
        <time>2022-04-27T12:39:02Z</time>
      </trkpt>
      <trkpt lat="42.849447" lon="-0.332527">
        <ele>2226.876</ele>
        <time>2022-04-27T12:39:02Z</time>
      </trkpt>
      <trkpt lat="42.849415" lon="-0.332382">
        <ele>2228.532</ele>
        <time>2022-04-27T12:39:02Z</time>
      </trkpt>
      <trkpt lat="42.849279" lon="-0.332242">
        <ele>2231.033</ele>
        <time>2022-04-27T12:39:02Z</time>
      </trkpt>
      <trkpt lat="42.849335" lon="-0.332184">
        <ele>2232.059</ele>
        <time>2022-04-27T12:39:02Z</time>
      </trkpt>
      <trkpt lat="42.849121" lon="-0.331985">
        <ele>2235.867</ele>
        <time>2022-04-27T12:39:02Z</time>
      </trkpt>
      <trkpt lat="42.848988" lon="-0.331961">
        <ele>2237.820</ele>
        <time>2022-04-27T12:39:02Z</time>
      </trkpt>
      <trkpt lat="42.848941" lon="-0.331857">
        <ele>2239.136</ele>
        <time>2022-04-27T12:39:02Z</time>
      </trkpt>
      <trkpt lat="42.848615" lon="-0.331813">
        <ele>2243.917</ele>
        <time>2022-04-27T12:39:02Z</time>
      </trkpt>
      <trkpt lat="42.848647" lon="-0.331575">
        <ele>2246.518</ele>
        <time>2022-04-27T12:39:02Z</time>
      </trkpt>
      <trkpt lat="42.848397" lon="-0.331369">
        <ele>2250.809</ele>
        <time>2022-04-27T12:39:02Z</time>
      </trkpt>
      <trkpt lat="42.848303" lon="-0.331141">
        <ele>2253.414</ele>
        <time>2022-04-27T12:39:02Z</time>
      </trkpt>
      <trkpt lat="42.848177" lon="-0.331017">
        <ele>2254.263</ele>
        <time>2022-04-27T12:39:02Z</time>
      </trkpt>
      <trkpt lat="42.848113" lon="-0.330826">
        <ele>2255.064</ele>
        <time>2022-04-27T12:39:02Z</time>
      </trkpt>
      <trkpt lat="42.847849" lon="-0.330931">
        <ele>2256.514</ele>
        <time>2022-04-27T12:39:02Z</time>
      </trkpt>
      <trkpt lat="42.847690" lon="-0.330369">
        <ele>2258.940</ele>
        <time>2022-04-27T12:39:02Z</time>
      </trkpt>
      <trkpt lat="42.847533" lon="-0.330379">
        <ele>2259.751</ele>
        <time>2022-04-27T12:39:02Z</time>
      </trkpt>
      <trkpt lat="42.847337" lon="-0.330537">
        <ele>2260.957</ele>
        <time>2022-04-27T12:39:02Z</time>
      </trkpt>
      <trkpt lat="42.847279" lon="-0.330769">
        <ele>2261.945</ele>
        <time>2022-04-27T12:39:02Z</time>
      </trkpt>
      <trkpt lat="42.847102" lon="-0.330736">
        <ele>2262.938</ele>
        <time>2022-04-27T12:39:02Z</time>
      </trkpt>
      <trkpt lat="42.846725" lon="-0.330470">
        <ele>2265.726</ele>
        <time>2022-04-27T12:39:02Z</time>
      </trkpt>
      <trkpt lat="42.846104" lon="-0.329722">
        <ele>2271.247</ele>
        <time>2022-04-27T12:39:02Z</time>
      </trkpt>
      <trkpt lat="42.846078" lon="-0.329670">
        <ele>2271.511</ele>
        <time>2022-04-27T12:39:02Z</time>
      </trkpt>
      <trkpt lat="42.846127" lon="-0.329565">
        <ele>2272.109</ele>
        <time>2022-04-27T12:39:02Z</time>
      </trkpt>
      <trkpt lat="42.846045" lon="-0.329307">
        <ele>2273.583</ele>
        <time>2022-04-27T12:39:02Z</time>
      </trkpt>
      <trkpt lat="42.845933" lon="-0.329167">
        <ele>2274.562</ele>
        <time>2022-04-27T12:39:02Z</time>
      </trkpt>
      <trkpt lat="42.845745" lon="-0.328676">
        <ele>2279.373</ele>
        <time>2022-04-27T12:39:02Z</time>
      </trkpt>
      <trkpt lat="42.845746" lon="-0.328468">
        <ele>2281.353</ele>
        <time>2022-04-27T12:39:02Z</time>
      </trkpt>
      <trkpt lat="42.845659" lon="-0.328102">
        <ele>2284.949</ele>
        <time>2022-04-27T12:39:02Z</time>
      </trkpt>
      <trkpt lat="42.845557" lon="-0.327933">
        <ele>2287.050</ele>
        <time>2022-04-27T12:39:02Z</time>
      </trkpt>
      <trkpt lat="42.845526" lon="-0.327618">
        <ele>2290.056</ele>
        <time>2022-04-27T12:39:02Z</time>
      </trkpt>
      <trkpt lat="42.845504" lon="-0.327322">
        <ele>2292.834</ele>
        <time>2022-04-27T12:39:02Z</time>
      </trkpt>
      <trkpt lat="42.845580" lon="-0.327050">
        <ele>2295.567</ele>
        <time>2022-04-27T12:39:02Z</time>
      </trkpt>
      <trkpt lat="42.845356" lon="-0.326654">
        <ele>2302.186</ele>
        <time>2022-04-27T12:39:02Z</time>
      </trkpt>
      <trkpt lat="42.845115" lon="-0.326363">
        <ele>2309.760</ele>
        <time>2022-04-27T12:39:02Z</time>
      </trkpt>
      <trkpt lat="42.845071" lon="-0.325780">
        <ele>2319.926</ele>
        <time>2022-04-27T12:39:02Z</time>
      </trkpt>
      <trkpt lat="42.844823" lon="-0.325460">
        <ele>2328.009</ele>
        <time>2022-04-27T12:39:02Z</time>
      </trkpt>
      <trkpt lat="42.844519" lon="-0.325350">
        <ele>2335.529</ele>
        <time>2022-04-27T12:39:02Z</time>
      </trkpt>
      <trkpt lat="42.844206" lon="-0.325147">
        <ele>2343.988</ele>
        <time>2022-04-27T12:39:02Z</time>
      </trkpt>
      <trkpt lat="42.844153" lon="-0.325054">
        <ele>2346.139</ele>
        <time>2022-04-27T12:39:02Z</time>
      </trkpt>
      <trkpt lat="42.843891" lon="-0.325043">
        <ele>2352.659</ele>
        <time>2022-04-27T12:39:02Z</time>
      </trkpt>
      <trkpt lat="42.843773" lon="-0.324881">
        <ele>2356.825</ele>
        <time>2022-04-27T12:39:02Z</time>
      </trkpt>
      <trkpt lat="42.843442" lon="-0.324847">
        <ele>2365.156</ele>
        <time>2022-04-27T12:39:02Z</time>
      </trkpt>
      <trkpt lat="42.843326" lon="-0.324733">
        <ele>2368.772</ele>
        <time>2022-04-27T12:39:02Z</time>
      </trkpt>
      <trkpt lat="42.843255" lon="-0.324556">
        <ele>2372.480</ele>
        <time>2022-04-27T12:39:02Z</time>
      </trkpt>
      <trkpt lat="42.842999" lon="-0.324410">
        <ele>2379.323</ele>
        <time>2022-04-27T12:39:02Z</time>
      </trkpt>
      <trkpt lat="42.842564" lon="-0.323786">
        <ele>2393.281</ele>
        <time>2022-04-27T12:39:02Z</time>
      </trkpt>
      <trkpt lat="42.841916" lon="-0.323172">
        <ele>2408.961</ele>
        <time>2022-04-27T12:39:02Z</time>
      </trkpt>
      <trkpt lat="42.841482" lon="-0.322906">
        <ele>2418.417</ele>
        <time>2022-04-27T12:39:02Z</time>
      </trkpt>
      <trkpt lat="42.841414" lon="-0.322792">
        <ele>2420.509</ele>
        <time>2022-04-27T12:39:02Z</time>
      </trkpt>
      <trkpt lat="42.841308" lon="-0.322845">
        <ele>2420.889</ele>
        <time>2022-04-27T12:39:02Z</time>
      </trkpt>
      <trkpt lat="42.841110" lon="-0.322798">
        <ele>2418.638</ele>
        <time>2022-04-27T12:39:02Z</time>
      </trkpt>
      <trkpt lat="42.841050" lon="-0.322521">
        <ele>2416.339</ele>
        <time>2022-04-27T12:39:02Z</time>
      </trkpt>
      <trkpt lat="42.840771" lon="-0.322502">
        <ele>2413.389</ele>
        <time>2022-04-27T12:39:02Z</time>
      </trkpt>
      <trkpt lat="42.840382" lon="-0.322254">
        <ele>2408.615</ele>
        <time>2022-04-27T12:39:02Z</time>
      </trkpt>
      <trkpt lat="42.840027" lon="-0.321740">
        <ele>2403.066</ele>
        <time>2022-04-27T12:39:02Z</time>
      </trkpt>
      <trkpt lat="42.839898" lon="-0.321707">
        <ele>2400.892</ele>
        <time>2022-04-27T12:39:02Z</time>
      </trkpt>
      <trkpt lat="42.839917" lon="-0.321634">
        <ele>2398.890</ele>
        <time>2022-04-27T12:39:02Z</time>
      </trkpt>
      <trkpt lat="42.839695" lon="-0.321574">
        <ele>2391.023</ele>
        <time>2022-04-27T12:39:02Z</time>
      </trkpt>
      <trkpt lat="42.839635" lon="-0.321475">
        <ele>2387.713</ele>
        <time>2022-04-27T12:39:02Z</time>
      </trkpt>
      <trkpt lat="42.839568" lon="-0.321305">
        <ele>2382.843</ele>
        <time>2022-04-27T12:39:02Z</time>
      </trkpt>
      <trkpt lat="42.839566" lon="-0.321138">
        <ele>2378.607</ele>
        <time>2022-04-27T12:39:02Z</time>
      </trkpt>
      <trkpt lat="42.839487" lon="-0.321056">
        <ele>2375.209</ele>
        <time>2022-04-27T12:39:02Z</time>
      </trkpt>
      <trkpt lat="42.839388" lon="-0.320694">
        <ele>2365.482</ele>
        <time>2022-04-27T12:39:02Z</time>
      </trkpt>
      <trkpt lat="42.839446" lon="-0.320676">
        <ele>2363.361</ele>
        <time>2022-04-27T12:39:02Z</time>
      </trkpt>
      <trkpt lat="42.839541" lon="-0.320415">
        <ele>2355.992</ele>
        <time>2022-04-27T12:39:02Z</time>
      </trkpt>
      <trkpt lat="42.839379" lon="-0.320250">
        <ele>2348.992</ele>
        <time>2022-04-27T12:39:02Z</time>
      </trkpt>
      <trkpt lat="42.839404" lon="-0.319979">
        <ele>2342.088</ele>
        <time>2022-04-27T12:39:02Z</time>
      </trkpt>
      <trkpt lat="42.839504" lon="-0.319720">
        <ele>2336.349</ele>
        <time>2022-04-27T12:39:02Z</time>
      </trkpt>
      <trkpt lat="42.839615" lon="-0.319597">
        <ele>2333.095</ele>
        <time>2022-04-27T12:39:02Z</time>
      </trkpt>
      <trkpt lat="42.839760" lon="-0.319191">
        <ele>2325.543</ele>
        <time>2022-04-27T12:39:02Z</time>
      </trkpt>
      <trkpt lat="42.840107" lon="-0.318643">
        <ele>2313.416</ele>
        <time>2022-04-27T12:39:02Z</time>
      </trkpt>
      <trkpt lat="42.840096" lon="-0.318571">
        <ele>2312.266</ele>
        <time>2022-04-27T12:39:02Z</time>
      </trkpt>
      <trkpt lat="42.839931" lon="-0.318524">
        <ele>2308.429</ele>
        <time>2022-04-27T12:39:02Z</time>
      </trkpt>
      <trkpt lat="42.839844" lon="-0.318177">
        <ele>2302.321</ele>
        <time>2022-04-27T12:39:02Z</time>
      </trkpt>
      <trkpt lat="42.839644" lon="-0.318110">
        <ele>2297.909</ele>
        <time>2022-04-27T12:39:02Z</time>
      </trkpt>
      <trkpt lat="42.839592" lon="-0.317852">
        <ele>2294.417</ele>
        <time>2022-04-27T12:39:02Z</time>
      </trkpt>
      <trkpt lat="42.839418" lon="-0.317658">
        <ele>2290.466</ele>
        <time>2022-04-27T12:39:02Z</time>
      </trkpt>
      <trkpt lat="42.839238" lon="-0.317718">
        <ele>2287.187</ele>
        <time>2022-04-27T12:39:02Z</time>
      </trkpt>
      <trkpt lat="42.838395" lon="-0.317192">
        <ele>2270.777</ele>
        <time>2022-04-27T12:39:02Z</time>
      </trkpt>
      <trkpt lat="42.837862" lon="-0.316180">
        <ele>2258.383</ele>
        <time>2022-04-27T12:39:02Z</time>
      </trkpt>
      <trkpt lat="42.837680" lon="-0.315341">
        <ele>2250.464</ele>
        <time>2022-04-27T12:39:02Z</time>
      </trkpt>
      <trkpt lat="42.837436" lon="-0.314982">
        <ele>2246.040</ele>
        <time>2022-04-27T12:39:02Z</time>
      </trkpt>
      <trkpt lat="42.837227" lon="-0.314863">
        <ele>2244.858</ele>
        <time>2022-04-27T12:39:02Z</time>
      </trkpt>
      <trkpt lat="42.837162" lon="-0.314659">
        <ele>2244.851</ele>
        <time>2022-04-27T12:39:02Z</time>
      </trkpt>
      <trkpt lat="42.837074" lon="-0.314631">
        <ele>2244.877</ele>
        <time>2022-04-27T12:39:02Z</time>
      </trkpt>
      <trkpt lat="42.837050" lon="-0.314506">
        <ele>2244.861</ele>
        <time>2022-04-27T12:39:02Z</time>
      </trkpt>
      <trkpt lat="42.837266" lon="-0.314043">
        <ele>2244.827</ele>
        <time>2022-04-27T12:39:02Z</time>
      </trkpt>
      <trkpt lat="42.837337" lon="-0.313980">
        <ele>2244.809</ele>
        <time>2022-04-27T12:39:02Z</time>
      </trkpt>
      <trkpt lat="42.837361" lon="-0.313959">
        <ele>2270.712</ele>
        <time>2022-04-27T12:37:19Z</time>
      </trkpt>
      <trkpt lat="42.837801" lon="-0.313569">
        <ele>2270.732</ele>
        <time>2022-04-27T12:37:19Z</time>
      </trkpt>
      <trkpt lat="42.837821" lon="-0.313061">
        <ele>2270.705</ele>
        <time>2022-04-27T12:37:19Z</time>
      </trkpt>
      <trkpt lat="42.838243" lon="-0.312637">
        <ele>2288.909</ele>
        <time>2022-04-27T12:37:19Z</time>
      </trkpt>
      <trkpt lat="42.838716" lon="-0.312057">
        <ele>2311.082</ele>
        <time>2022-04-27T12:37:19Z</time>
      </trkpt>
      <trkpt lat="42.838795" lon="-0.311654">
        <ele>2321.621</ele>
        <time>2022-04-27T12:37:19Z</time>
      </trkpt>
      <trkpt lat="42.838707" lon="-0.311091">
        <ele>2336.082</ele>
        <time>2022-04-27T12:37:19Z</time>
      </trkpt>
      <trkpt lat="42.838574" lon="-0.310654">
        <ele>2346.922</ele>
        <time>2022-04-27T12:37:19Z</time>
      </trkpt>
      <trkpt lat="42.838501" lon="-0.310546">
        <ele>2350.358</ele>
        <time>2022-04-27T12:37:19Z</time>
      </trkpt>
      <trkpt lat="42.838386" lon="-0.310506">
        <ele>2354.059</ele>
        <time>2022-04-27T12:37:19Z</time>
      </trkpt>
      <trkpt lat="42.838407" lon="-0.310422">
        <ele>2356.093</ele>
        <time>2022-04-27T12:37:19Z</time>
      </trkpt>
      <trkpt lat="42.838316" lon="-0.310385">
        <ele>2359.011</ele>
        <time>2022-04-27T12:37:19Z</time>
      </trkpt>
      <trkpt lat="42.838196" lon="-0.309866">
        <ele>2371.582</ele>
        <time>2022-04-27T12:37:19Z</time>
      </trkpt>
      <trkpt lat="42.838226" lon="-0.309719">
        <ele>2375.067</ele>
        <time>2022-04-27T12:37:19Z</time>
      </trkpt>
      <trkpt lat="42.838168" lon="-0.309702">
        <ele>2376.981</ele>
        <time>2022-04-27T12:37:19Z</time>
      </trkpt>
      <trkpt lat="42.838142" lon="-0.309316">
        <ele>2385.819</ele>
        <time>2022-04-27T12:37:19Z</time>
      </trkpt>
      <trkpt lat="42.837949" lon="-0.309170">
        <ele>2391.609</ele>
        <time>2022-04-27T12:37:19Z</time>
      </trkpt>
      <trkpt lat="42.838024" lon="-0.308385">
        <ele>2402.957</ele>
        <time>2022-04-27T12:37:19Z</time>
      </trkpt>
      <trkpt lat="42.837961" lon="-0.307965">
        <ele>2409.066</ele>
        <time>2022-04-27T12:37:19Z</time>
      </trkpt>
      <trkpt lat="42.837989" lon="-0.307577">
        <ele>2414.687</ele>
        <time>2022-04-27T12:37:19Z</time>
      </trkpt>
      <trkpt lat="42.838051" lon="-0.307532">
        <ele>2416.017</ele>
        <time>2022-04-27T12:37:19Z</time>
      </trkpt>
      <trkpt lat="42.838141" lon="-0.307467">
        <ele>2418.023</ele>
        <time>2022-04-27T12:37:19Z</time>
      </trkpt>
      <trkpt lat="42.838287" lon="-0.307257">
        <ele>2422.184</ele>
        <time>2022-04-27T12:37:19Z</time>
      </trkpt>
      <trkpt lat="42.838316" lon="-0.307114">
        <ele>2424.298</ele>
        <time>2022-04-27T12:37:19Z</time>
      </trkpt>
      <trkpt lat="42.838328" lon="-0.306673">
        <ele>2430.696</ele>
        <time>2022-04-27T12:37:19Z</time>
      </trkpt>
      <trkpt lat="42.837780" lon="-0.305281">
        <ele>2453.517</ele>
        <time>2022-04-27T12:37:19Z</time>
      </trkpt>
      <trkpt lat="42.837671" lon="-0.305099">
        <ele>2456.992</ele>
        <time>2022-04-27T12:37:19Z</time>
      </trkpt>
      <trkpt lat="42.837669" lon="-0.304772">
        <ele>2462.673</ele>
        <time>2022-04-27T12:37:19Z</time>
      </trkpt>
      <trkpt lat="42.837589" lon="-0.304309">
        <ele>2474.520</ele>
        <time>2022-04-27T12:37:19Z</time>
      </trkpt>
      <trkpt lat="42.837644" lon="-0.303744">
        <ele>2488.709</ele>
        <time>2022-04-27T12:37:19Z</time>
      </trkpt>
      <trkpt lat="42.837730" lon="-0.303611">
        <ele>2493.140</ele>
        <time>2022-04-27T12:37:19Z</time>
      </trkpt>
      <trkpt lat="42.837883" lon="-0.303452">
        <ele>2499.769</ele>
        <time>2022-04-27T12:37:19Z</time>
      </trkpt>
      <trkpt lat="42.837993" lon="-0.303034">
        <ele>2510.810</ele>
        <time>2022-04-27T12:37:19Z</time>
      </trkpt>
      <trkpt lat="42.838149" lon="-0.302753">
        <ele>2519.680</ele>
        <time>2022-04-27T12:37:19Z</time>
      </trkpt>
      <trkpt lat="42.838218" lon="-0.302203">
        <ele>2535.756</ele>
        <time>2022-04-27T12:37:19Z</time>
      </trkpt>
      <trkpt lat="42.838163" lon="-0.302022">
        <ele>2541.587</ele>
        <time>2022-04-27T12:37:19Z</time>
      </trkpt>
      <trkpt lat="42.838254" lon="-0.301785">
        <ele>2549.421</ele>
        <time>2022-04-27T12:37:19Z</time>
      </trkpt>
      <trkpt lat="42.838236" lon="-0.301479">
        <ele>2558.489</ele>
        <time>2022-04-27T12:37:19Z</time>
      </trkpt>
      <trkpt lat="42.838337" lon="-0.301167">
        <ele>2568.460</ele>
        <time>2022-04-27T12:37:19Z</time>
      </trkpt>
      <trkpt lat="42.838277" lon="-0.300929">
        <ele>2575.888</ele>
        <time>2022-04-27T12:37:19Z</time>
      </trkpt>
      <trkpt lat="42.838360" lon="-0.300542">
        <ele>2587.724</ele>
        <time>2022-04-27T12:37:19Z</time>
      </trkpt>
      <trkpt lat="42.838470" lon="-0.300374">
        <ele>2594.426</ele>
        <time>2022-04-27T12:37:19Z</time>
      </trkpt>
      <trkpt lat="42.838155" lon="-0.299789">
        <ele>2618.809</ele>
        <time>2022-04-27T12:37:19Z</time>
      </trkpt>
      <trkpt lat="42.838087" lon="-0.299318">
        <ele>2634.989</ele>
        <time>2022-04-27T12:37:19Z</time>
      </trkpt>
      <trkpt lat="42.838147" lon="-0.299045">
        <ele>2644.558</ele>
        <time>2022-04-27T12:37:19Z</time>
      </trkpt>
      <trkpt lat="42.838144" lon="-0.298595">
        <ele>2659.619</ele>
        <time>2022-04-27T12:37:19Z</time>
      </trkpt>
      <trkpt lat="42.837962" lon="-0.297957">
        <ele>2685.379</ele>
        <time>2022-04-27T12:37:19Z</time>
      </trkpt>
      <trkpt lat="42.837729" lon="-0.297640">
        <ele>2706.755</ele>
        <time>2022-04-27T12:37:19Z</time>
      </trkpt>
      <trkpt lat="42.837720" lon="-0.297441">
        <ele>2716.286</ele>
        <time>2022-04-27T12:37:19Z</time>
      </trkpt>
      <trkpt lat="42.837706" lon="-0.296975">
        <ele>2738.590</ele>
        <time>2022-04-27T12:37:19Z</time>
      </trkpt>
      <trkpt lat="42.837789" lon="-0.296620">
        <ele>2756.318</ele>
        <time>2022-04-27T12:37:19Z</time>
      </trkpt>
      <trkpt lat="42.837830" lon="-0.296526">
        <ele>2761.539</ele>
        <time>2022-04-27T12:37:19Z</time>
      </trkpt>
      <trkpt lat="42.838274" lon="-0.296197">
        <ele>2794.719</ele>
        <time>2022-04-27T12:37:19Z</time>
      </trkpt>
      <trkpt lat="42.838441" lon="-0.295678">
        <ele>2828.009</ele>
        <time>2022-04-27T12:37:19Z</time>
      </trkpt>
      <trkpt lat="42.838587" lon="-0.295534">
        <ele>2842.419</ele>
        <time>2022-04-27T12:37:19Z</time>
      </trkpt>
      <trkpt lat="42.838652" lon="-0.295335">
        <ele>2855.209</ele>
        <time>2022-04-27T12:37:19Z</time>
      </trkpt>
      <trkpt lat="42.838693" lon="-0.294765">
        <ele>2888.932</ele>
        <time>2022-04-27T12:37:19Z</time>
      </trkpt>
      <trkpt lat="42.838795" lon="-0.294620">
        <ele>2900.771</ele>
        <time>2022-04-27T12:37:19Z</time>
      </trkpt>
      <trkpt lat="42.838630" lon="-0.294198">
        <ele>2928.832</ele>
        <time>2022-04-27T12:37:19Z</time>
      </trkpt>
      <trkpt lat="42.838769" lon="-0.293117">
        <ele>2979.462</ele>
        <time>2022-04-27T12:37:19Z</time>
      </trkpt>
      <trkpt lat="42.838960" lon="-0.292473">
        <ele>3010.118</ele>
        <time>2022-04-27T12:37:19Z</time>
      </trkpt>
      <trkpt lat="42.839168" lon="-0.291982">
        <ele>3035.159</ele>
        <time>2022-04-27T12:37:19Z</time>
      </trkpt>
      <trkpt lat="42.839404" lon="-0.291743">
        <ele>3048.423</ele>
        <time>2022-04-27T12:37:19Z</time>
      </trkpt>
      <trkpt lat="42.839538" lon="-0.291512">
        <ele>3053.381</ele>
        <time>2022-04-27T12:37:19Z</time>
      </trkpt>
      <trkpt lat="42.839608" lon="-0.291054">
        <ele>3061.192</ele>
        <time>2022-04-27T12:37:19Z</time>
      </trkpt>
      <trkpt lat="42.839767" lon="-0.290663">
        <ele>3068.621</ele>
        <time>2022-04-27T12:37:19Z</time>
      </trkpt>
      <trkpt lat="42.839281" lon="-0.290595">
        <ele>3079.741</ele>
        <time>2022-04-27T12:37:19Z</time>
      </trkpt>
      <trkpt lat="42.839262" lon="-0.290512">
        <ele>3081.205</ele>
        <time>2022-04-27T12:37:19Z</time>
      </trkpt>
      <trkpt lat="42.839332" lon="-0.290141">
        <ele>3086.409</ele>
        <time>2022-04-27T12:37:19Z</time>
      </trkpt>
      <trkpt lat="42.839246" lon="-0.290115">
        <ele>3085.783</ele>
        <time>2022-04-27T12:37:19Z</time>
      </trkpt>
      <trkpt lat="42.839124" lon="-0.290225">
        <ele>3084.582</ele>
        <time>2022-04-27T12:37:19Z</time>
      </trkpt>
      <trkpt lat="42.838954" lon="-0.290241">
        <ele>3083.143</ele>
        <time>2022-04-27T12:37:19Z</time>
      </trkpt>
      <trkpt lat="42.838954" lon="-0.290241">
        <ele>3083.143</ele>
        <time>2022-04-27T12:37:19Z</time>
      </trkpt>
      <trkpt lat="42.838954" lon="-0.290241">
        <ele>3083.149</ele>
        <time>2022-04-27T12:37:19Z</time>
      </trkpt>
      <trkpt lat="42.839124" lon="-0.290225">
        <ele>3081.740</ele>
        <time>2022-04-27T12:37:19Z</time>
      </trkpt>
      <trkpt lat="42.839246" lon="-0.290115">
        <ele>3080.574</ele>
        <time>2022-04-27T12:37:19Z</time>
      </trkpt>
      <trkpt lat="42.839332" lon="-0.290141">
        <ele>3079.852</ele>
        <time>2022-04-27T12:37:19Z</time>
      </trkpt>
      <trkpt lat="42.839262" lon="-0.290512">
        <ele>3077.673</ele>
        <time>2022-04-27T12:37:19Z</time>
      </trkpt>
      <trkpt lat="42.839281" lon="-0.290595">
        <ele>3077.128</ele>
        <time>2022-04-27T12:37:19Z</time>
      </trkpt>
      <trkpt lat="42.839767" lon="-0.290663">
        <ele>3073.289</ele>
        <time>2022-04-27T12:37:19Z</time>
      </trkpt>
      <trkpt lat="42.839608" lon="-0.291054">
        <ele>3063.817</ele>
        <time>2022-04-27T12:37:19Z</time>
      </trkpt>
      <trkpt lat="42.839538" lon="-0.291512">
        <ele>3050.009</ele>
        <time>2022-04-27T12:37:19Z</time>
      </trkpt>
      <trkpt lat="42.839404" lon="-0.291743">
        <ele>3041.333</ele>
        <time>2022-04-27T12:37:19Z</time>
      </trkpt>
      <trkpt lat="42.839168" lon="-0.291982">
        <ele>3029.552</ele>
        <time>2022-04-27T12:37:19Z</time>
      </trkpt>
      <trkpt lat="42.838960" lon="-0.292473">
        <ele>3012.883</ele>
        <time>2022-04-27T12:37:19Z</time>
      </trkpt>
      <trkpt lat="42.838769" lon="-0.293117">
        <ele>2985.743</ele>
        <time>2022-04-27T12:37:19Z</time>
      </trkpt>
      <trkpt lat="42.838630" lon="-0.294198">
        <ele>2925.549</ele>
        <time>2022-04-27T12:37:19Z</time>
      </trkpt>
      <trkpt lat="42.838795" lon="-0.294620">
        <ele>2899.330</ele>
        <time>2022-04-27T12:37:19Z</time>
      </trkpt>
      <trkpt lat="42.838693" lon="-0.294765">
        <ele>2888.334</ele>
        <time>2022-04-27T12:37:19Z</time>
      </trkpt>
      <trkpt lat="42.838652" lon="-0.295335">
        <ele>2856.352</ele>
        <time>2022-04-27T12:37:19Z</time>
      </trkpt>
      <trkpt lat="42.838587" lon="-0.295534">
        <ele>2843.613</ele>
        <time>2022-04-27T12:37:19Z</time>
      </trkpt>
      <trkpt lat="42.838441" lon="-0.295678">
        <ele>2829.356</ele>
        <time>2022-04-27T12:37:19Z</time>
      </trkpt>
      <trkpt lat="42.838274" lon="-0.296197">
        <ele>2796.259</ele>
        <time>2022-04-27T12:37:19Z</time>
      </trkpt>
      <trkpt lat="42.837830" lon="-0.296526">
        <ele>2756.014</ele>
        <time>2022-04-27T12:37:19Z</time>
      </trkpt>
      <trkpt lat="42.837789" lon="-0.296620">
        <ele>2749.609</ele>
        <time>2022-04-27T12:37:19Z</time>
      </trkpt>
      <trkpt lat="42.837706" lon="-0.296975">
        <ele>2727.856</ele>
        <time>2022-04-27T12:37:19Z</time>
      </trkpt>
      <trkpt lat="42.837720" lon="-0.297441">
        <ele>2708.815</ele>
        <time>2022-04-27T12:37:19Z</time>
      </trkpt>
      <trkpt lat="42.837729" lon="-0.297640">
        <ele>2701.626</ele>
        <time>2022-04-27T12:37:19Z</time>
      </trkpt>
      <trkpt lat="42.837458" lon="-0.297951">
        <ele>2684.146</ele>
        <time>2022-04-27T12:37:19Z</time>
      </trkpt>
      <trkpt lat="42.836946" lon="-0.298337">
        <ele>2655.262</ele>
        <time>2022-04-27T12:37:19Z</time>
      </trkpt>
      <trkpt lat="42.836624" lon="-0.298809">
        <ele>2633.163</ele>
        <time>2022-04-27T12:37:19Z</time>
      </trkpt>
      <trkpt lat="42.836192" lon="-0.299799">
        <ele>2622.327</ele>
        <time>2022-04-27T12:37:19Z</time>
      </trkpt>
      <trkpt lat="42.836037" lon="-0.300291">
        <ele>2617.375</ele>
        <time>2022-04-27T12:37:19Z</time>
      </trkpt>
      <trkpt lat="42.835970" lon="-0.300724">
        <ele>2613.226</ele>
        <time>2022-04-27T12:37:19Z</time>
      </trkpt>
      <trkpt lat="42.835771" lon="-0.300941">
        <ele>2610.434</ele>
        <time>2022-04-27T12:37:19Z</time>
      </trkpt>
      <trkpt lat="42.835705" lon="-0.301137">
        <ele>2609.955</ele>
        <time>2022-04-27T12:37:19Z</time>
      </trkpt>
      <trkpt lat="42.835549" lon="-0.301601">
        <ele>2608.710</ele>
        <time>2022-04-27T12:37:19Z</time>
      </trkpt>
      <trkpt lat="42.835214" lon="-0.303256">
        <ele>2603.809</ele>
        <time>2022-04-27T12:37:19Z</time>
      </trkpt>
      <trkpt lat="42.835081" lon="-0.303386">
        <ele>2599.494</ele>
        <time>2022-04-27T12:37:19Z</time>
      </trkpt>
      <trkpt lat="42.834973" lon="-0.303619">
        <ele>2594.013</ele>
        <time>2022-04-27T12:37:19Z</time>
      </trkpt>
      <trkpt lat="42.834979" lon="-0.303804">
        <ele>2590.474</ele>
        <time>2022-04-27T12:37:19Z</time>
      </trkpt>
      <trkpt lat="42.834899" lon="-0.304028">
        <ele>2585.574</ele>
        <time>2022-04-27T12:37:19Z</time>
      </trkpt>
      <trkpt lat="42.834948" lon="-0.304227">
        <ele>2581.450</ele>
        <time>2022-04-27T12:37:19Z</time>
      </trkpt>
      <trkpt lat="42.834783" lon="-0.304626">
        <ele>2572.421</ele>
        <time>2022-04-27T12:37:19Z</time>
      </trkpt>
      <trkpt lat="42.834893" lon="-0.304838">
        <ele>2567.375</ele>
        <time>2022-04-27T12:37:19Z</time>
      </trkpt>
      <trkpt lat="42.834806" lon="-0.305879">
        <ele>2539.653</ele>
        <time>2022-04-27T12:37:19Z</time>
      </trkpt>
      <trkpt lat="42.834304" lon="-0.307034">
        <ele>2494.884</ele>
        <time>2022-04-27T12:37:19Z</time>
      </trkpt>
      <trkpt lat="42.834286" lon="-0.307221">
        <ele>2488.523</ele>
        <time>2022-04-27T12:37:19Z</time>
      </trkpt>
      <trkpt lat="42.833965" lon="-0.307682">
        <ele>2467.683</ele>
        <time>2022-04-27T12:37:19Z</time>
      </trkpt>
      <trkpt lat="42.833681" lon="-0.307821">
        <ele>2454.511</ele>
        <time>2022-04-27T12:37:19Z</time>
      </trkpt>
      <trkpt lat="42.833477" lon="-0.308078">
        <ele>2442.409</ele>
        <time>2022-04-27T12:37:19Z</time>
      </trkpt>
      <trkpt lat="42.833252" lon="-0.308901">
        <ele>2414.463</ele>
        <time>2022-04-27T12:37:19Z</time>
      </trkpt>
      <trkpt lat="42.833255" lon="-0.309298">
        <ele>2401.882</ele>
        <time>2022-04-27T12:37:19Z</time>
      </trkpt>
      <trkpt lat="42.833049" lon="-0.309463">
        <ele>2393.033</ele>
        <time>2022-04-27T12:37:19Z</time>
      </trkpt>
      <trkpt lat="42.833044" lon="-0.309752">
        <ele>2386.693</ele>
        <time>2022-04-27T12:37:19Z</time>
      </trkpt>
      <trkpt lat="42.832525" lon="-0.310278">
        <ele>2367.089</ele>
        <time>2022-04-27T12:37:19Z</time>
      </trkpt>
      <trkpt lat="42.832249" lon="-0.310417">
        <ele>2358.180</ele>
        <time>2022-04-27T12:37:19Z</time>
      </trkpt>
      <trkpt lat="42.831901" lon="-0.310430">
        <ele>2347.554</ele>
        <time>2022-04-27T12:37:19Z</time>
      </trkpt>
      <trkpt lat="42.831901" lon="-0.310430">
        <ele>2347.552</ele>
        <time>2022-04-27T12:37:19Z</time>
      </trkpt>
      <trkpt lat="42.831901" lon="-0.310430">
        <ele>2347.553</ele>
        <time>2022-04-27T12:37:19Z</time>
      </trkpt>
      <trkpt lat="42.831589" lon="-0.311394">
        <ele>2325.446</ele>
        <time>2022-04-27T12:37:19Z</time>
      </trkpt>
      <trkpt lat="42.831541" lon="-0.312424">
        <ele>2304.188</ele>
        <time>2022-04-27T12:37:19Z</time>
      </trkpt>
      <trkpt lat="42.831604" lon="-0.313443">
        <ele>2283.716</ele>
        <time>2022-04-27T12:37:19Z</time>
      </trkpt>
      <trkpt lat="42.831746" lon="-0.314441">
        <ele>2264.409</ele>
        <time>2022-04-27T12:37:19Z</time>
      </trkpt>
      <trkpt lat="42.831771" lon="-0.315484">
        <ele>2244.835</ele>
        <time>2022-04-27T12:37:19Z</time>
      </trkpt>
      <trkpt lat="42.831681" lon="-0.315718">
        <ele>2242.474</ele>
        <time>2022-04-27T12:37:19Z</time>
      </trkpt>
      <trkpt lat="42.831314" lon="-0.315976">
        <ele>2237.355</ele>
        <time>2022-04-27T12:37:19Z</time>
      </trkpt>
      <trkpt lat="42.830728" lon="-0.317353">
        <ele>2222.885</ele>
        <time>2022-04-27T12:37:19Z</time>
      </trkpt>
      <trkpt lat="42.830573" lon="-0.317437">
        <ele>2221.411</ele>
        <time>2022-04-27T12:37:19Z</time>
      </trkpt>
      <trkpt lat="42.830418" lon="-0.317609">
        <ele>2219.742</ele>
        <time>2022-04-27T12:37:19Z</time>
      </trkpt>
      <trkpt lat="42.830195" lon="-0.318143">
        <ele>2215.956</ele>
        <time>2022-04-27T12:37:19Z</time>
      </trkpt>
      <trkpt lat="42.830264" lon="-0.318378">
        <ele>2214.314</ele>
        <time>2022-04-27T12:37:19Z</time>
      </trkpt>
      <trkpt lat="42.830202" lon="-0.318679">
        <ele>2212.495</ele>
        <time>2022-04-27T12:37:19Z</time>
      </trkpt>
      <trkpt lat="42.830199" lon="-0.318949">
        <ele>2210.716</ele>
        <time>2022-04-27T12:37:19Z</time>
      </trkpt>
      <trkpt lat="42.829970" lon="-0.319516">
        <ele>2207.076</ele>
        <time>2022-04-27T12:37:19Z</time>
      </trkpt>
      <trkpt lat="42.829880" lon="-0.319432">
        <ele>2206.413</ele>
        <time>2022-04-27T12:37:19Z</time>
      </trkpt>
      <trkpt lat="42.829713" lon="-0.319403">
        <ele>2205.509</ele>
        <time>2022-04-27T12:37:19Z</time>
      </trkpt>
      <trkpt lat="42.829518" lon="-0.319721">
        <ele>2203.842</ele>
        <time>2022-04-27T12:37:19Z</time>
      </trkpt>
      <trkpt lat="42.829427" lon="-0.320089">
        <ele>2202.231</ele>
        <time>2022-04-27T12:37:19Z</time>
      </trkpt>
      <trkpt lat="42.829298" lon="-0.320382">
        <ele>2200.852</ele>
        <time>2022-04-27T12:37:19Z</time>
      </trkpt>
      <trkpt lat="42.829236" lon="-0.320934">
        <ele>2198.682</ele>
        <time>2022-04-27T12:37:19Z</time>
      </trkpt>
      <trkpt lat="42.829019" lon="-0.321507">
        <ele>2197.928</ele>
        <time>2022-04-27T12:37:19Z</time>
      </trkpt>
      <trkpt lat="42.828984" lon="-0.321194">
        <ele>2198.149</ele>
        <time>2022-04-27T12:37:19Z</time>
      </trkpt>
      <trkpt lat="42.828835" lon="-0.320891">
        <ele>2198.343</ele>
        <time>2022-04-27T12:37:19Z</time>
      </trkpt>
      <trkpt lat="42.828769" lon="-0.320890">
        <ele>2198.391</ele>
        <time>2022-04-27T12:37:19Z</time>
      </trkpt>
      <trkpt lat="42.828291" lon="-0.321678">
        <ele>2198.982</ele>
        <time>2022-04-27T12:37:19Z</time>
      </trkpt>
      <trkpt lat="42.828172" lon="-0.321765">
        <ele>2199.091</ele>
        <time>2022-04-27T12:37:19Z</time>
      </trkpt>
      <trkpt lat="42.828026" lon="-0.321651">
        <ele>2198.681</ele>
        <time>2022-04-27T12:37:19Z</time>
      </trkpt>
      <trkpt lat="42.827953" lon="-0.321704">
        <ele>2198.319</ele>
        <time>2022-04-27T12:37:19Z</time>
      </trkpt>
      <trkpt lat="42.827879" lon="-0.321680">
        <ele>2198.009</ele>
        <time>2022-04-27T12:37:19Z</time>
      </trkpt>
      <trkpt lat="42.827833" lon="-0.321594">
        <ele>2197.790</ele>
        <time>2022-04-27T12:37:19Z</time>
      </trkpt>
      <trkpt lat="42.827654" lon="-0.321478">
        <ele>2197.089</ele>
        <time>2022-04-27T12:37:19Z</time>
      </trkpt>
      <trkpt lat="42.827459" lon="-0.321413">
        <ele>2196.310</ele>
        <time>2022-04-27T12:37:19Z</time>
      </trkpt>
      <trkpt lat="42.827202" lon="-0.320952">
        <ele>2194.850</ele>
        <time>2022-04-27T12:37:19Z</time>
      </trkpt>
      <trkpt lat="42.826929" lon="-0.320582">
        <ele>2193.436</ele>
        <time>2022-04-27T12:37:19Z</time>
      </trkpt>
      <trkpt lat="42.826764" lon="-0.320551">
        <ele>2192.887</ele>
        <time>2022-04-27T12:37:19Z</time>
      </trkpt>
      <trkpt lat="42.826747" lon="-0.320547">
        <ele>2192.791</ele>
        <time>2022-04-27T12:37:19Z</time>
      </trkpt>
      <trkpt lat="42.826405" lon="-0.320737">
        <ele>2187.399</ele>
        <time>2022-04-27T12:37:19Z</time>
      </trkpt>
      <trkpt lat="42.826376" lon="-0.321087">
        <ele>2183.180</ele>
        <time>2022-04-27T12:37:19Z</time>
      </trkpt>
      <trkpt lat="42.825804" lon="-0.320957">
        <ele>2173.741</ele>
        <time>2022-04-27T12:37:19Z</time>
      </trkpt>
      <trkpt lat="42.825371" lon="-0.320464">
        <ele>2164.681</ele>
        <time>2022-04-27T12:37:19Z</time>
      </trkpt>
      <trkpt lat="42.825095" lon="-0.319960">
        <ele>2159.409</ele>
        <time>2022-04-27T12:37:19Z</time>
      </trkpt>
      <trkpt lat="42.825003" lon="-0.319944">
        <ele>2158.409</ele>
        <time>2022-04-27T12:37:19Z</time>
      </trkpt>
      <trkpt lat="42.824931" lon="-0.319091">
        <ele>2151.965</ele>
        <time>2022-04-27T12:37:19Z</time>
      </trkpt>
      <trkpt lat="42.824641" lon="-0.318428">
        <ele>2146.154</ele>
        <time>2022-04-27T12:37:19Z</time>
      </trkpt>
      <trkpt lat="42.824241" lon="-0.317059">
        <ele>2147.165</ele>
        <time>2022-04-27T12:37:19Z</time>
      </trkpt>
      <trkpt lat="42.823902" lon="-0.316329">
        <ele>2148.685</ele>
        <time>2022-04-27T12:37:19Z</time>
      </trkpt>
      <trkpt lat="42.823902" lon="-0.316086">
        <ele>2149.031</ele>
        <time>2022-04-27T12:37:19Z</time>
      </trkpt>
      <trkpt lat="42.823806" lon="-0.315925">
        <ele>2150.472</ele>
        <time>2022-04-27T12:37:19Z</time>
      </trkpt>
      <trkpt lat="42.823653" lon="-0.314955">
        <ele>2158.526</ele>
        <time>2022-04-27T12:37:19Z</time>
      </trkpt>
      <trkpt lat="42.823385" lon="-0.314237">
        <ele>2165.194</ele>
        <time>2022-04-27T12:37:19Z</time>
      </trkpt>
      <trkpt lat="42.823311" lon="-0.313632">
        <ele>2169.545</ele>
        <time>2022-04-27T12:37:19Z</time>
      </trkpt>
      <trkpt lat="42.823167" lon="-0.312922">
        <ele>2172.092</ele>
        <time>2022-04-27T12:37:19Z</time>
      </trkpt>
      <trkpt lat="42.823062" lon="-0.312746">
        <ele>2172.873</ele>
        <time>2022-04-27T12:37:19Z</time>
      </trkpt>
      <trkpt lat="42.822821" lon="-0.311343">
        <ele>2177.220</ele>
        <time>2022-04-27T12:37:19Z</time>
      </trkpt>
      <trkpt lat="42.821869" lon="-0.308345">
        <ele>2168.509</ele>
        <time>2022-04-27T12:37:19Z</time>
      </trkpt>
      <trkpt lat="42.821812" lon="-0.307918">
        <ele>2168.930</ele>
        <time>2022-04-27T12:37:19Z</time>
      </trkpt>
      <trkpt lat="42.821867" lon="-0.306346">
        <ele>2171.119</ele>
        <time>2022-04-27T12:37:19Z</time>
      </trkpt>
      <trkpt lat="42.821751" lon="-0.305938">
        <ele>2172.370</ele>
        <time>2022-04-27T12:37:19Z</time>
      </trkpt>
      <trkpt lat="42.821846" lon="-0.305429">
        <ele>2173.750</ele>
        <time>2022-04-27T12:37:19Z</time>
      </trkpt>
      <trkpt lat="42.821826" lon="-0.305286">
        <ele>2174.196</ele>
        <time>2022-04-27T12:37:19Z</time>
      </trkpt>
      <trkpt lat="42.821660" lon="-0.305062">
        <ele>2175.067</ele>
        <time>2022-04-27T12:37:19Z</time>
      </trkpt>
      <trkpt lat="42.821245" lon="-0.303988">
        <ele>2173.121</ele>
        <time>2022-04-27T12:37:19Z</time>
      </trkpt>
      <trkpt lat="42.821012" lon="-0.303703">
        <ele>2170.879</ele>
        <time>2022-04-27T12:37:19Z</time>
      </trkpt>
      <trkpt lat="42.821055" lon="-0.303979">
        <ele>2169.380</ele>
        <time>2022-04-27T12:37:19Z</time>
      </trkpt>
      <trkpt lat="42.821146" lon="-0.304184">
        <ele>2168.052</ele>
        <time>2022-04-27T12:37:19Z</time>
      </trkpt>
      <trkpt lat="42.820608" lon="-0.303776">
        <ele>2163.553</ele>
        <time>2022-04-27T12:37:19Z</time>
      </trkpt>
      <trkpt lat="42.820450" lon="-0.303469">
        <ele>2161.008</ele>
        <time>2022-04-27T12:37:19Z</time>
      </trkpt>
      <trkpt lat="42.820274" lon="-0.302966">
        <ele>2157.309</ele>
        <time>2022-04-27T12:37:19Z</time>
      </trkpt>
      <trkpt lat="42.820099" lon="-0.302800">
        <ele>2155.326</ele>
        <time>2022-04-27T12:37:19Z</time>
      </trkpt>
      <trkpt lat="42.819680" lon="-0.301253">
        <ele>2145.945</ele>
        <time>2022-04-27T12:37:19Z</time>
      </trkpt>
      <trkpt lat="42.819322" lon="-0.300531">
        <ele>2143.796</ele>
        <time>2022-04-27T12:37:19Z</time>
      </trkpt>
      <trkpt lat="42.819059" lon="-0.299849">
        <ele>2141.876</ele>
        <time>2022-04-27T12:37:19Z</time>
      </trkpt>
      <trkpt lat="42.818952" lon="-0.299152">
        <ele>2140.652</ele>
        <time>2022-04-27T12:37:19Z</time>
      </trkpt>
      <trkpt lat="42.818643" lon="-0.298122">
        <ele>2139.843</ele>
        <time>2022-04-27T12:37:19Z</time>
      </trkpt>
      <trkpt lat="42.818412" lon="-0.297826">
        <ele>2139.557</ele>
        <time>2022-04-27T12:37:19Z</time>
      </trkpt>
      <trkpt lat="42.818143" lon="-0.297764">
        <ele>2139.215</ele>
        <time>2022-04-27T12:37:19Z</time>
      </trkpt>
      <trkpt lat="42.818020" lon="-0.297386">
        <ele>2138.886</ele>
        <time>2022-04-27T12:37:19Z</time>
      </trkpt>
      <trkpt lat="42.817808" lon="-0.297347">
        <ele>2138.374</ele>
        <time>2022-04-27T12:37:19Z</time>
      </trkpt>
      <trkpt lat="42.817593" lon="-0.296519">
        <ele>2136.956</ele>
        <time>2022-04-27T12:37:19Z</time>
      </trkpt>
      <trkpt lat="42.817374" lon="-0.296036">
        <ele>2136.021</ele>
        <time>2022-04-27T12:37:19Z</time>
      </trkpt>
      <trkpt lat="42.817218" lon="-0.295542">
        <ele>2135.109</ele>
        <time>2022-04-27T12:37:19Z</time>
      </trkpt>
      <trkpt lat="42.817318" lon="-0.295152">
        <ele>2134.898</ele>
        <time>2022-04-27T12:37:19Z</time>
      </trkpt>
      <trkpt lat="42.817326" lon="-0.294748">
        <ele>2134.557</ele>
        <time>2022-04-27T12:37:19Z</time>
      </trkpt>
      <trkpt lat="42.817453" lon="-0.294226">
        <ele>2134.148</ele>
        <time>2022-04-27T12:37:19Z</time>
      </trkpt>
      <trkpt lat="42.817469" lon="-0.293614">
        <ele>2133.778</ele>
        <time>2022-04-27T12:37:19Z</time>
      </trkpt>
      <trkpt lat="42.817497" lon="-0.293561">
        <ele>2133.784</ele>
        <time>2022-04-27T12:37:19Z</time>
      </trkpt>
      <trkpt lat="42.817549" lon="-0.293835">
        <ele>2133.575</ele>
        <time>2022-04-27T12:37:19Z</time>
      </trkpt>
      <trkpt lat="42.817565" lon="-0.294719">
        <ele>2133.439</ele>
        <time>2022-04-27T12:37:19Z</time>
      </trkpt>
      <trkpt lat="42.817620" lon="-0.294688">
        <ele>2133.487</ele>
        <time>2022-04-27T12:37:19Z</time>
      </trkpt>
      <trkpt lat="42.817731" lon="-0.293911">
        <ele>2133.478</ele>
        <time>2022-04-27T12:37:19Z</time>
      </trkpt>
      <trkpt lat="42.817710" lon="-0.293527">
        <ele>2133.458</ele>
        <time>2022-04-27T12:37:19Z</time>
      </trkpt>
      <trkpt lat="42.817835" lon="-0.292686">
        <ele>2133.952</ele>
        <time>2022-04-27T12:37:19Z</time>
      </trkpt>
      <trkpt lat="42.817702" lon="-0.291368">
        <ele>2135.617</ele>
        <time>2022-04-27T12:37:19Z</time>
      </trkpt>
      <trkpt lat="42.817614" lon="-0.291123">
        <ele>2135.909</ele>
        <time>2022-04-27T12:37:19Z</time>
      </trkpt>
      <trkpt lat="42.817719" lon="-0.290408">
        <ele>2136.456</ele>
        <time>2022-04-27T12:37:19Z</time>
      </trkpt>
      <trkpt lat="42.817690" lon="-0.290183">
        <ele>2136.465</ele>
        <time>2022-04-27T12:37:19Z</time>
      </trkpt>
      <trkpt lat="42.817717" lon="-0.290006">
        <ele>2136.426</ele>
        <time>2022-04-27T12:37:19Z</time>
      </trkpt>
      <trkpt lat="42.817668" lon="-0.289707">
        <ele>2136.456</ele>
        <time>2022-04-27T12:37:19Z</time>
      </trkpt>
      <trkpt lat="42.817688" lon="-0.289116">
        <ele>2136.492</ele>
        <time>2022-04-27T12:37:19Z</time>
      </trkpt>
      <trkpt lat="42.817629" lon="-0.288734">
        <ele>2136.453</ele>
        <time>2022-04-27T12:37:19Z</time>
      </trkpt>
      <trkpt lat="42.817420" lon="-0.288137">
        <ele>2136.447</ele>
        <time>2022-04-27T12:37:19Z</time>
      </trkpt>
      <trkpt lat="42.817169" lon="-0.288120">
        <ele>2136.415</ele>
        <time>2022-04-27T12:37:19Z</time>
      </trkpt>
      <trkpt lat="42.817017" lon="-0.287833">
        <ele>2136.456</ele>
        <time>2022-04-27T12:37:19Z</time>
      </trkpt>
      <trkpt lat="42.816950" lon="-0.287831">
        <ele>2136.453</ele>
        <time>2022-04-27T12:37:19Z</time>
      </trkpt>
      <trkpt lat="42.816950" lon="-0.287831">
        <ele>2143.073</ele>
        <time>2022-04-27T12:36:07Z</time>
      </trkpt>
      <trkpt lat="42.816861" lon="-0.287827">
        <ele>2143.085</ele>
        <time>2022-04-27T12:36:07Z</time>
      </trkpt>
      <trkpt lat="42.816837" lon="-0.287642">
        <ele>2143.013</ele>
        <time>2022-04-27T12:36:07Z</time>
      </trkpt>
      <trkpt lat="42.816867" lon="-0.287523">
        <ele>2143.009</ele>
        <time>2022-04-27T12:36:07Z</time>
      </trkpt>
      <trkpt lat="42.816804" lon="-0.287182">
        <ele>2143.048</ele>
        <time>2022-04-27T12:36:07Z</time>
      </trkpt>
      <trkpt lat="42.816662" lon="-0.287149">
        <ele>2143.057</ele>
        <time>2022-04-27T12:36:07Z</time>
      </trkpt>
      <trkpt lat="42.816529" lon="-0.287151">
        <ele>2143.088</ele>
        <time>2022-04-27T12:36:07Z</time>
      </trkpt>
      <trkpt lat="42.816234" lon="-0.286732">
        <ele>2141.868</ele>
        <time>2022-04-27T12:36:07Z</time>
      </trkpt>
      <trkpt lat="42.815950" lon="-0.286633">
        <ele>2140.994</ele>
        <time>2022-04-27T12:36:07Z</time>
      </trkpt>
      <trkpt lat="42.815891" lon="-0.286335">
        <ele>2140.285</ele>
        <time>2022-04-27T12:36:07Z</time>
      </trkpt>
      <trkpt lat="42.815706" lon="-0.286283">
        <ele>2139.688</ele>
        <time>2022-04-27T12:36:07Z</time>
      </trkpt>
      <trkpt lat="42.815521" lon="-0.285901">
        <ele>2138.523</ele>
        <time>2022-04-27T12:36:07Z</time>
      </trkpt>
      <trkpt lat="42.815181" lon="-0.285714">
        <ele>2137.324</ele>
        <time>2022-04-27T12:36:07Z</time>
      </trkpt>
      <trkpt lat="42.814841" lon="-0.285299">
        <ele>2136.872</ele>
        <time>2022-04-27T12:36:07Z</time>
      </trkpt>
      <trkpt lat="42.814847" lon="-0.284624">
        <ele>2136.313</ele>
        <time>2022-04-27T12:36:07Z</time>
      </trkpt>
      <trkpt lat="42.814650" lon="-0.284384">
        <ele>2136.014</ele>
        <time>2022-04-27T12:36:07Z</time>
      </trkpt>
      <trkpt lat="42.814337" lon="-0.283754">
        <ele>2135.509</ele>
        <time>2022-04-27T12:36:07Z</time>
      </trkpt>
      <trkpt lat="42.814213" lon="-0.283642">
        <ele>2135.478</ele>
        <time>2022-04-27T12:36:07Z</time>
      </trkpt>
      <trkpt lat="42.814095" lon="-0.283845">
        <ele>2135.267</ele>
        <time>2022-04-27T12:36:07Z</time>
      </trkpt>
      <trkpt lat="42.814078" lon="-0.284109">
        <ele>2135.088</ele>
        <time>2022-04-27T12:36:07Z</time>
      </trkpt>
      <trkpt lat="42.813959" lon="-0.284131">
        <ele>2134.988</ele>
        <time>2022-04-27T12:36:07Z</time>
      </trkpt>
      <trkpt lat="42.813910" lon="-0.284064">
        <ele>2134.854</ele>
        <time>2022-04-27T12:36:07Z</time>
      </trkpt>
      <trkpt lat="42.813449" lon="-0.284128">
        <ele>2134.435</ele>
        <time>2022-04-27T12:36:07Z</time>
      </trkpt>
      <trkpt lat="42.813363" lon="-0.284215">
        <ele>2134.358</ele>
        <time>2022-04-27T12:36:07Z</time>
      </trkpt>
      <trkpt lat="42.812733" lon="-0.283984">
        <ele>2133.713</ele>
        <time>2022-04-27T12:36:07Z</time>
      </trkpt>
      <trkpt lat="42.812495" lon="-0.284078">
        <ele>2133.554</ele>
        <time>2022-04-27T12:36:07Z</time>
      </trkpt>
      <trkpt lat="42.812299" lon="-0.284230">
        <ele>2133.331</ele>
        <time>2022-04-27T12:36:07Z</time>
      </trkpt>
      <trkpt lat="42.812078" lon="-0.283784">
        <ele>2132.961</ele>
        <time>2022-04-27T12:36:07Z</time>
      </trkpt>
      <trkpt lat="42.812247" lon="-0.283175">
        <ele>2132.407</ele>
        <time>2022-04-27T12:36:07Z</time>
      </trkpt>
      <trkpt lat="42.812215" lon="-0.282767">
        <ele>2132.109</ele>
        <time>2022-04-27T12:36:07Z</time>
      </trkpt>
      <trkpt lat="42.812074" lon="-0.282516">
        <ele>2133.094</ele>
        <time>2022-04-27T12:36:07Z</time>
      </trkpt>
      <trkpt lat="42.811815" lon="-0.282396">
        <ele>2134.363</ele>
        <time>2022-04-27T12:36:07Z</time>
      </trkpt>
      <trkpt lat="42.811302" lon="-0.281849">
        <ele>2137.594</ele>
        <time>2022-04-27T12:36:07Z</time>
      </trkpt>
      <trkpt lat="42.810849" lon="-0.281241">
        <ele>2140.634</ele>
        <time>2022-04-27T12:36:07Z</time>
      </trkpt>
      <trkpt lat="42.810394" lon="-0.280887">
        <ele>2147.740</ele>
        <time>2022-04-27T12:36:07Z</time>
      </trkpt>
      <trkpt lat="42.810215" lon="-0.280018">
        <ele>2157.241</ele>
        <time>2022-04-27T12:36:07Z</time>
      </trkpt>
      <trkpt lat="42.810138" lon="-0.279640">
        <ele>2161.384</ele>
        <time>2022-04-27T12:36:07Z</time>
      </trkpt>
      <trkpt lat="42.809865" lon="-0.279417">
        <ele>2165.979</ele>
        <time>2022-04-27T12:36:07Z</time>
      </trkpt>
      <trkpt lat="42.809666" lon="-0.279103">
        <ele>2170.690</ele>
        <time>2022-04-27T12:36:07Z</time>
      </trkpt>
      <trkpt lat="42.809155" lon="-0.278615">
        <ele>2180.552</ele>
        <time>2022-04-27T12:36:07Z</time>
      </trkpt>
      <trkpt lat="42.808706" lon="-0.278022">
        <ele>2190.453</ele>
        <time>2022-04-27T12:36:07Z</time>
      </trkpt>
      <trkpt lat="42.808626" lon="-0.278014">
        <ele>2191.708</ele>
        <time>2022-04-27T12:36:07Z</time>
      </trkpt>
      <trkpt lat="42.808401" lon="-0.277513">
        <ele>2198.209</ele>
        <time>2022-04-27T12:36:07Z</time>
      </trkpt>
      <trkpt lat="42.808347" lon="-0.277179">
        <ele>2201.876</ele>
        <time>2022-04-27T12:36:07Z</time>
      </trkpt>
      <trkpt lat="42.808109" lon="-0.276953">
        <ele>2206.085</ele>
        <time>2022-04-27T12:36:07Z</time>
      </trkpt>
      <trkpt lat="42.807625" lon="-0.276090">
        <ele>2217.446</ele>
        <time>2022-04-27T12:36:07Z</time>
      </trkpt>
      <trkpt lat="42.807238" lon="-0.275643">
        <ele>2225.226</ele>
        <time>2022-04-27T12:36:07Z</time>
      </trkpt>
      <trkpt lat="42.807046" lon="-0.275040">
        <ele>2233.052</ele>
        <time>2022-04-27T12:36:07Z</time>
      </trkpt>
      <trkpt lat="42.806797" lon="-0.274775">
        <ele>2238.153</ele>
        <time>2022-04-27T12:36:07Z</time>
      </trkpt>
      <trkpt lat="42.806705" lon="-0.274542">
        <ele>2241.236</ele>
        <time>2022-04-27T12:36:07Z</time>
      </trkpt>
      <trkpt lat="42.806338" lon="-0.274562">
        <ele>2247.211</ele>
        <time>2022-04-27T12:36:07Z</time>
      </trkpt>
      <trkpt lat="42.806250" lon="-0.274302">
        <ele>2250.852</ele>
        <time>2022-04-27T12:36:07Z</time>
      </trkpt>
      <trkpt lat="42.806064" lon="-0.274233">
        <ele>2255.053</ele>
        <time>2022-04-27T12:36:07Z</time>
      </trkpt>
      <trkpt lat="42.805617" lon="-0.274276">
        <ele>2264.804</ele>
        <time>2022-04-27T12:36:07Z</time>
      </trkpt>
      <trkpt lat="42.805153" lon="-0.274477">
        <ele>2275.514</ele>
        <time>2022-04-27T12:36:07Z</time>
      </trkpt>
      <trkpt lat="42.804675" lon="-0.274578">
        <ele>2286.109</ele>
        <time>2022-04-27T12:36:07Z</time>
      </trkpt>
      <trkpt lat="42.804273" lon="-0.274493">
        <ele>2296.386</ele>
        <time>2022-04-27T12:36:07Z</time>
      </trkpt>
      <trkpt lat="42.803512" lon="-0.274737">
        <ele>2317.535</ele>
        <time>2022-04-27T12:36:07Z</time>
      </trkpt>
      <trkpt lat="42.803355" lon="-0.274734">
        <ele>2321.826</ele>
        <time>2022-04-27T12:36:07Z</time>
      </trkpt>
      <trkpt lat="42.802935" lon="-0.274952">
        <ele>2334.076</ele>
        <time>2022-04-27T12:36:07Z</time>
      </trkpt>
      <trkpt lat="42.802779" lon="-0.275181">
        <ele>2340.112</ele>
        <time>2022-04-27T12:36:07Z</time>
      </trkpt>
      <trkpt lat="42.802446" lon="-0.275003">
        <ele>2349.233</ele>
        <time>2022-04-27T12:36:07Z</time>
      </trkpt>
      <trkpt lat="42.802378" lon="-0.275344">
        <ele>2355.816</ele>
        <time>2022-04-27T12:36:07Z</time>
      </trkpt>
      <trkpt lat="42.802233" lon="-0.275489">
        <ele>2360.451</ele>
        <time>2022-04-27T12:36:07Z</time>
      </trkpt>
      <trkpt lat="42.802255" lon="-0.275788">
        <ele>2366.052</ele>
        <time>2022-04-27T12:36:07Z</time>
      </trkpt>
      <trkpt lat="42.802139" lon="-0.275855">
        <ele>2369.291</ele>
        <time>2022-04-27T12:36:07Z</time>
      </trkpt>
      <trkpt lat="42.801923" lon="-0.275805">
        <ele>2374.881</ele>
        <time>2022-04-27T12:36:07Z</time>
      </trkpt>
      <trkpt lat="42.801827" lon="-0.275880">
        <ele>2377.619</ele>
        <time>2022-04-27T12:36:07Z</time>
      </trkpt>
      <trkpt lat="42.801634" lon="-0.275917">
        <ele>2382.509</ele>
        <time>2022-04-27T12:36:07Z</time>
      </trkpt>
      <trkpt lat="42.801442" lon="-0.275835">
        <ele>2387.740</ele>
        <time>2022-04-27T12:36:07Z</time>
      </trkpt>
      <trkpt lat="42.801167" lon="-0.275483">
        <ele>2397.519</ele>
        <time>2022-04-27T12:36:07Z</time>
      </trkpt>
      <trkpt lat="42.801072" lon="-0.275246">
        <ele>2402.740</ele>
        <time>2022-04-27T12:36:07Z</time>
      </trkpt>
      <trkpt lat="42.800917" lon="-0.274701">
        <ele>2413.990</ele>
        <time>2022-04-27T12:36:07Z</time>
      </trkpt>
      <trkpt lat="42.800831" lon="-0.274104">
        <ele>2425.586</ele>
        <time>2022-04-27T12:36:07Z</time>
      </trkpt>
      <trkpt lat="42.800693" lon="-0.274038">
        <ele>2429.387</ele>
        <time>2022-04-27T12:36:07Z</time>
      </trkpt>
      <trkpt lat="42.800460" lon="-0.274107">
        <ele>2434.180</ele>
        <time>2022-04-27T12:36:07Z</time>
      </trkpt>
      <trkpt lat="42.800212" lon="-0.274029">
        <ele>2438.825</ele>
        <time>2022-04-27T12:36:07Z</time>
      </trkpt>
      <trkpt lat="42.798899" lon="-0.273955">
        <ele>2463.116</ele>
        <time>2022-04-27T12:36:07Z</time>
      </trkpt>
      <trkpt lat="42.798697" lon="-0.273723">
        <ele>2467.762</ele>
        <time>2022-04-27T12:36:07Z</time>
      </trkpt>
      <trkpt lat="42.797968" lon="-0.273579">
        <ele>2480.283</ele>
        <time>2022-04-27T12:36:07Z</time>
      </trkpt>
      <trkpt lat="42.797683" lon="-0.273163">
        <ele>2487.311</ele>
        <time>2022-04-27T12:36:07Z</time>
      </trkpt>
      <trkpt lat="42.797677" lon="-0.272516">
        <ele>2495.709</ele>
        <time>2022-04-27T12:36:07Z</time>
      </trkpt>
      <trkpt lat="42.797398" lon="-0.272263">
        <ele>2504.067</ele>
        <time>2022-04-27T12:36:07Z</time>
      </trkpt>
      <trkpt lat="42.797268" lon="-0.272217">
        <ele>2507.356</ele>
        <time>2022-04-27T12:36:07Z</time>
      </trkpt>
      <trkpt lat="42.797132" lon="-0.271475">
        <ele>2521.217</ele>
        <time>2022-04-27T12:36:07Z</time>
      </trkpt>
      <trkpt lat="42.796255" lon="-0.270162">
        <ele>2560.837</ele>
        <time>2022-04-27T12:36:07Z</time>
      </trkpt>
      <trkpt lat="42.796067" lon="-0.269658">
        <ele>2576.313</ele>
        <time>2022-04-27T12:36:07Z</time>
      </trkpt>
      <trkpt lat="42.795526" lon="-0.269193">
        <ele>2600.264</ele>
        <time>2022-04-27T12:36:07Z</time>
      </trkpt>
      <trkpt lat="42.794119" lon="-0.267448">
        <ele>2684.947</ele>
        <time>2022-04-27T12:36:07Z</time>
      </trkpt>
      <trkpt lat="42.793521" lon="-0.266885">
        <ele>2705.662</ele>
        <time>2022-04-27T12:36:07Z</time>
      </trkpt>
      <trkpt lat="42.792423" lon="-0.266162">
        <ele>2736.913</ele>
        <time>2022-04-27T12:36:07Z</time>
      </trkpt>
      <trkpt lat="42.792127" lon="-0.266719">
        <ele>2740.995</ele>
        <time>2022-04-27T12:36:07Z</time>
      </trkpt>
      <trkpt lat="42.791944" lon="-0.266782">
        <ele>2742.449</ele>
        <time>2022-04-27T12:36:07Z</time>
      </trkpt>
      <trkpt lat="42.791747" lon="-0.266658">
        <ele>2744.123</ele>
        <time>2022-04-27T12:36:07Z</time>
      </trkpt>
      <trkpt lat="42.791414" lon="-0.266033">
        <ele>2748.609</ele>
        <time>2022-04-27T12:36:07Z</time>
      </trkpt>
      <trkpt lat="42.791167" lon="-0.265809">
        <ele>2750.090</ele>
        <time>2022-04-27T12:36:07Z</time>
      </trkpt>
      <trkpt lat="42.790855" lon="-0.265338">
        <ele>2746.339</ele>
        <time>2022-04-27T12:36:07Z</time>
      </trkpt>
      <trkpt lat="42.790342" lon="-0.265112">
        <ele>2742.060</ele>
        <time>2022-04-27T12:36:07Z</time>
      </trkpt>
      <trkpt lat="42.789687" lon="-0.264719">
        <ele>2736.380</ele>
        <time>2022-04-27T12:36:07Z</time>
      </trkpt>
      <trkpt lat="42.789607" lon="-0.264734">
        <ele>2734.796</ele>
        <time>2022-04-27T12:36:07Z</time>
      </trkpt>
      <trkpt lat="42.789265" lon="-0.264378">
        <ele>2724.957</ele>
        <time>2022-04-27T12:36:07Z</time>
      </trkpt>
      <trkpt lat="42.789053" lon="-0.263252">
        <ele>2705.450</ele>
        <time>2022-04-27T12:36:07Z</time>
      </trkpt>
      <trkpt lat="42.789084" lon="-0.262259">
        <ele>2686.335</ele>
        <time>2022-04-27T12:36:07Z</time>
      </trkpt>
      <trkpt lat="42.788986" lon="-0.262099">
        <ele>2681.586</ele>
        <time>2022-04-27T12:36:07Z</time>
      </trkpt>
      <trkpt lat="42.788948" lon="-0.261530">
        <ele>2668.236</ele>
        <time>2022-04-27T12:36:07Z</time>
      </trkpt>
      <trkpt lat="42.789014" lon="-0.261369">
        <ele>2663.917</ele>
        <time>2022-04-27T12:36:07Z</time>
      </trkpt>
      <trkpt lat="42.789020" lon="-0.261028">
        <ele>2656.018</ele>
        <time>2022-04-27T12:36:07Z</time>
      </trkpt>
      <trkpt lat="42.789160" lon="-0.260564">
        <ele>2644.409</ele>
        <time>2022-04-27T12:36:07Z</time>
      </trkpt>
      <trkpt lat="42.789325" lon="-0.259393">
        <ele>2618.994</ele>
        <time>2022-04-27T12:36:07Z</time>
      </trkpt>
      <trkpt lat="42.789257" lon="-0.259041">
        <ele>2611.373</ele>
        <time>2022-04-27T12:36:07Z</time>
      </trkpt>
      <trkpt lat="42.789396" lon="-0.258875">
        <ele>2606.094</ele>
        <time>2022-04-27T12:36:07Z</time>
      </trkpt>
      <trkpt lat="42.789572" lon="-0.258351">
        <ele>2593.914</ele>
        <time>2022-04-27T12:36:07Z</time>
      </trkpt>
      <trkpt lat="42.789595" lon="-0.258052">
        <ele>2587.690</ele>
        <time>2022-04-27T12:36:07Z</time>
      </trkpt>
      <trkpt lat="42.789846" lon="-0.257255">
        <ele>2575.121</ele>
        <time>2022-04-27T12:36:07Z</time>
      </trkpt>
      <trkpt lat="42.789685" lon="-0.256504">
        <ele>2564.014</ele>
        <time>2022-04-27T12:36:07Z</time>
      </trkpt>
      <trkpt lat="42.789710" lon="-0.255739">
        <ele>2553.199</ele>
        <time>2022-04-27T12:36:07Z</time>
      </trkpt>
      <trkpt lat="42.789585" lon="-0.254540">
        <ele>2534.990</ele>
        <time>2022-04-27T12:36:07Z</time>
      </trkpt>
      <trkpt lat="42.789637" lon="-0.254108">
        <ele>2528.372</ele>
        <time>2022-04-27T12:36:07Z</time>
      </trkpt>
      <trkpt lat="42.790114" lon="-0.253092">
        <ele>2508.513</ele>
        <time>2022-04-27T12:36:07Z</time>
      </trkpt>
      <trkpt lat="42.790401" lon="-0.252800">
        <ele>2498.814</ele>
        <time>2022-04-27T12:36:07Z</time>
      </trkpt>
      <trkpt lat="42.790419" lon="-0.251666">
        <ele>2476.309</ele>
        <time>2022-04-27T12:36:07Z</time>
      </trkpt>
      <trkpt lat="42.790596" lon="-0.251105">
        <ele>2464.858</ele>
        <time>2022-04-27T12:36:07Z</time>
      </trkpt>
      <trkpt lat="42.790691" lon="-0.250547">
        <ele>2456.477</ele>
        <time>2022-04-27T12:36:07Z</time>
      </trkpt>
      <trkpt lat="42.790702" lon="-0.249643">
        <ele>2443.288</ele>
        <time>2022-04-27T12:36:07Z</time>
      </trkpt>
      <trkpt lat="42.791057" lon="-0.249059">
        <ele>2432.158</ele>
        <time>2022-04-27T12:36:07Z</time>
      </trkpt>
      <trkpt lat="42.791129" lon="-0.247758">
        <ele>2423.374</ele>
        <time>2022-04-27T12:36:07Z</time>
      </trkpt>
      <trkpt lat="42.791044" lon="-0.247274">
        <ele>2420.375</ele>
        <time>2022-04-27T12:36:07Z</time>
      </trkpt>
      <trkpt lat="42.791100" lon="-0.246724">
        <ele>2416.998</ele>
        <time>2022-04-27T12:36:07Z</time>
      </trkpt>
      <trkpt lat="42.791051" lon="-0.246425">
        <ele>2415.093</ele>
        <time>2022-04-27T12:36:07Z</time>
      </trkpt>
      <trkpt lat="42.791097" lon="-0.246078">
        <ele>2412.774</ele>
        <time>2022-04-27T12:36:07Z</time>
      </trkpt>
      <trkpt lat="42.790814" lon="-0.245301">
        <ele>2407.077</ele>
        <time>2022-04-27T12:36:07Z</time>
      </trkpt>
      <trkpt lat="42.790648" lon="-0.244532">
        <ele>2401.761</ele>
        <time>2022-04-27T12:36:07Z</time>
      </trkpt>
      <trkpt lat="42.789759" lon="-0.243967">
        <ele>2391.227</ele>
        <time>2022-04-27T12:36:07Z</time>
      </trkpt>
      <trkpt lat="42.789461" lon="-0.243543">
        <ele>2386.409</ele>
        <time>2022-04-27T12:36:07Z</time>
      </trkpt>
      <trkpt lat="42.789208" lon="-0.243535">
        <ele>2383.618</ele>
        <time>2022-04-27T12:36:07Z</time>
      </trkpt>
      <trkpt lat="42.789049" lon="-0.243287">
        <ele>2380.957</ele>
        <time>2022-04-27T12:36:07Z</time>
      </trkpt>
      <trkpt lat="42.789018" lon="-0.243063">
        <ele>2379.128</ele>
        <time>2022-04-27T12:36:07Z</time>
      </trkpt>
      <trkpt lat="42.788909" lon="-0.242904">
        <ele>2377.438</ele>
        <time>2022-04-27T12:36:07Z</time>
      </trkpt>
      <trkpt lat="42.788656" lon="-0.242039">
        <ele>2370.384</ele>
        <time>2022-04-27T12:36:07Z</time>
      </trkpt>
      <trkpt lat="42.788664" lon="-0.241836">
        <ele>2368.775</ele>
        <time>2022-04-27T12:36:07Z</time>
      </trkpt>
      <trkpt lat="42.788586" lon="-0.241454">
        <ele>2365.798</ele>
        <time>2022-04-27T12:36:07Z</time>
      </trkpt>
      <trkpt lat="42.788146" lon="-0.240442">
        <ele>2354.913</ele>
        <time>2022-04-27T12:36:07Z</time>
      </trkpt>
      <trkpt lat="42.788162" lon="-0.240270">
        <ele>2353.034</ele>
        <time>2022-04-27T12:36:07Z</time>
      </trkpt>
      <trkpt lat="42.788351" lon="-0.240273">
        <ele>2350.269</ele>
        <time>2022-04-27T12:36:07Z</time>
      </trkpt>
      <trkpt lat="42.788431" lon="-0.240157">
        <ele>2348.504</ele>
        <time>2022-04-27T12:36:07Z</time>
      </trkpt>
      <trkpt lat="42.788448" lon="-0.240031">
        <ele>2347.124</ele>
        <time>2022-04-27T12:36:07Z</time>
      </trkpt>
      <trkpt lat="42.788527" lon="-0.239943">
        <ele>2345.609</ele>
        <time>2022-04-27T12:36:07Z</time>
      </trkpt>
      <trkpt lat="42.788638" lon="-0.239813">
        <ele>2343.487</ele>
        <time>2022-04-27T12:36:07Z</time>
      </trkpt>
      <trkpt lat="42.788706" lon="-0.239546">
        <ele>2340.366</ele>
        <time>2022-04-27T12:36:07Z</time>
      </trkpt>
      <trkpt lat="42.789121" lon="-0.238410">
        <ele>2324.177</ele>
        <time>2022-04-27T12:36:07Z</time>
      </trkpt>
      <trkpt lat="42.789219" lon="-0.237988">
        <ele>2317.887</ele>
        <time>2022-04-27T12:36:07Z</time>
      </trkpt>
      <trkpt lat="42.789157" lon="-0.237532">
        <ele>2311.263</ele>
        <time>2022-04-27T12:36:07Z</time>
      </trkpt>
      <trkpt lat="42.789229" lon="-0.237236">
        <ele>2306.814</ele>
        <time>2022-04-27T12:36:07Z</time>
      </trkpt>
      <trkpt lat="42.789377" lon="-0.236972">
        <ele>2302.167</ele>
        <time>2022-04-27T12:36:07Z</time>
      </trkpt>
      <trkpt lat="42.789393" lon="-0.236386">
        <ele>2293.462</ele>
        <time>2022-04-27T12:36:07Z</time>
      </trkpt>
      <trkpt lat="42.789668" lon="-0.234959">
        <ele>2270.973</ele>
        <time>2022-04-27T12:36:07Z</time>
      </trkpt>
      <trkpt lat="42.789885" lon="-0.234667">
        <ele>2264.652</ele>
        <time>2022-04-27T12:36:07Z</time>
      </trkpt>
      <trkpt lat="42.789702" lon="-0.234543">
        <ele>2261.253</ele>
        <time>2022-04-27T12:36:07Z</time>
      </trkpt>
      <trkpt lat="42.790053" lon="-0.234182">
        <ele>2257.108</ele>
        <time>2022-04-27T12:36:07Z</time>
      </trkpt>
      <trkpt lat="42.790183" lon="-0.233764">
        <ele>2254.009</ele>
        <time>2022-04-27T12:36:07Z</time>
      </trkpt>
      <trkpt lat="42.790098" lon="-0.233457">
        <ele>2251.816</ele>
        <time>2022-04-27T12:36:07Z</time>
      </trkpt>
      <trkpt lat="42.789595" lon="-0.232809">
        <ele>2245.475</ele>
        <time>2022-04-27T12:36:07Z</time>
      </trkpt>
      <trkpt lat="42.789116" lon="-0.232664">
        <ele>2246.736</ele>
        <time>2022-04-27T12:36:07Z</time>
      </trkpt>
      <trkpt lat="42.789020" lon="-0.232279">
        <ele>2247.686</ele>
        <time>2022-04-27T12:36:07Z</time>
      </trkpt>
      <trkpt lat="42.788790" lon="-0.232062">
        <ele>2248.562</ele>
        <time>2022-04-27T12:36:07Z</time>
      </trkpt>
      <trkpt lat="42.788427" lon="-0.231836">
        <ele>2249.823</ele>
        <time>2022-04-27T12:36:07Z</time>
      </trkpt>
      <trkpt lat="42.787812" lon="-0.231028">
        <ele>2253.456</ele>
        <time>2022-04-27T12:36:07Z</time>
      </trkpt>
      <trkpt lat="42.787449" lon="-0.229798">
        <ele>2258.351</ele>
        <time>2022-04-27T12:36:07Z</time>
      </trkpt>
      <trkpt lat="42.787492" lon="-0.229306">
        <ele>2259.992</ele>
        <time>2022-04-27T12:36:07Z</time>
      </trkpt>
      <trkpt lat="42.787326" lon="-0.228522">
        <ele>2258.963</ele>
        <time>2022-04-27T12:36:07Z</time>
      </trkpt>
      <trkpt lat="42.786899" lon="-0.227727">
        <ele>2257.744</ele>
        <time>2022-04-27T12:36:07Z</time>
      </trkpt>
      <trkpt lat="42.786604" lon="-0.227604">
        <ele>2257.218</ele>
        <time>2022-04-27T12:36:07Z</time>
      </trkpt>
      <trkpt lat="42.786285" lon="-0.227193">
        <ele>2254.509</ele>
        <time>2022-04-27T12:36:07Z</time>
      </trkpt>
      <trkpt lat="42.786163" lon="-0.226440">
        <ele>2250.087</ele>
        <time>2022-04-27T12:36:07Z</time>
      </trkpt>
      <trkpt lat="42.786279" lon="-0.226404">
        <ele>2249.166</ele>
        <time>2022-04-27T12:36:07Z</time>
      </trkpt>
      <trkpt lat="42.786188" lon="-0.226217">
        <ele>2247.837</ele>
        <time>2022-04-27T12:36:07Z</time>
      </trkpt>
      <trkpt lat="42.785816" lon="-0.225789">
        <ele>2244.047</ele>
        <time>2022-04-27T12:36:07Z</time>
      </trkpt>
      <trkpt lat="42.785718" lon="-0.225554">
        <ele>2242.333</ele>
        <time>2022-04-27T12:36:07Z</time>
      </trkpt>
      <trkpt lat="42.785522" lon="-0.225319">
        <ele>2239.484</ele>
        <time>2022-04-27T12:36:07Z</time>
      </trkpt>
      <trkpt lat="42.785259" lon="-0.225273">
        <ele>2236.427</ele>
        <time>2022-04-27T12:36:07Z</time>
      </trkpt>
      <trkpt lat="42.784692" lon="-0.224552">
        <ele>2227.862</ele>
        <time>2022-04-27T12:36:07Z</time>
      </trkpt>
      <trkpt lat="42.784550" lon="-0.224534">
        <ele>2226.263</ele>
        <time>2022-04-27T12:36:07Z</time>
      </trkpt>
      <trkpt lat="42.784072" lon="-0.224676">
        <ele>2220.747</ele>
        <time>2022-04-27T12:36:07Z</time>
      </trkpt>
      <trkpt lat="42.783483" lon="-0.224305">
        <ele>2213.229</ele>
        <time>2022-04-27T12:36:07Z</time>
      </trkpt>
      <trkpt lat="42.783318" lon="-0.224123">
        <ele>2210.821</ele>
        <time>2022-04-27T12:36:07Z</time>
      </trkpt>
      <trkpt lat="42.783195" lon="-0.224240">
        <ele>2209.109</ele>
        <time>2022-04-27T12:36:07Z</time>
      </trkpt>
      <trkpt lat="42.782861" lon="-0.224831">
        <ele>2202.825</ele>
        <time>2022-04-27T12:36:07Z</time>
      </trkpt>
      <trkpt lat="42.782760" lon="-0.225222">
        <ele>2199.754</ele>
        <time>2022-04-27T12:36:07Z</time>
      </trkpt>
      <trkpt lat="42.782610" lon="-0.225564">
        <ele>2196.815</ele>
        <time>2022-04-27T12:36:07Z</time>
      </trkpt>
      <trkpt lat="42.782593" lon="-0.225639">
        <ele>2196.215</ele>
        <time>2022-04-27T12:36:07Z</time>
      </trkpt>
      <trkpt lat="42.782383" lon="-0.226522">
        <ele>2189.581</ele>
        <time>2022-04-27T12:36:07Z</time>
      </trkpt>
      <trkpt lat="42.782402" lon="-0.226816">
        <ele>2187.432</ele>
        <time>2022-04-27T12:36:07Z</time>
      </trkpt>
      <trkpt lat="42.782270" lon="-0.227306">
        <ele>2184.075</ele>
        <time>2022-04-27T12:36:07Z</time>
      </trkpt>
      <trkpt lat="42.781877" lon="-0.228380">
        <ele>2179.570</ele>
        <time>2022-04-27T12:36:07Z</time>
      </trkpt>
      <trkpt lat="42.781754" lon="-0.228573">
        <ele>2178.611</ele>
        <time>2022-04-27T12:36:07Z</time>
      </trkpt>
      <trkpt lat="42.781570" lon="-0.228717">
        <ele>2177.599</ele>
        <time>2022-04-27T12:36:07Z</time>
      </trkpt>
      <trkpt lat="42.781201" lon="-0.228741">
        <ele>2175.607</ele>
        <time>2022-04-27T12:36:07Z</time>
      </trkpt>
      <trkpt lat="42.781023" lon="-0.229067">
        <ele>2171.327</ele>
        <time>2022-04-27T12:36:07Z</time>
      </trkpt>
      <trkpt lat="42.781029" lon="-0.229252">
        <ele>2169.009</ele>
        <time>2022-04-27T12:36:07Z</time>
      </trkpt>
      <trkpt lat="42.780907" lon="-0.229672">
        <ele>2163.390</ele>
        <time>2022-04-27T12:36:07Z</time>
      </trkpt>
      <trkpt lat="42.780839" lon="-0.229322">
        <ele>2158.769</ele>
        <time>2022-04-27T12:36:07Z</time>
      </trkpt>
      <trkpt lat="42.780688" lon="-0.229377">
        <ele>2156.030</ele>
        <time>2022-04-27T12:36:07Z</time>
      </trkpt>
      <trkpt lat="42.780584" lon="-0.229526">
        <ele>2153.460</ele>
        <time>2022-04-27T12:36:07Z</time>
      </trkpt>
      <trkpt lat="42.780642" lon="-0.229783">
        <ele>2150.026</ele>
        <time>2022-04-27T12:36:07Z</time>
      </trkpt>
      <trkpt lat="42.780614" lon="-0.229860">
        <ele>2148.947</ele>
        <time>2022-04-27T12:36:07Z</time>
      </trkpt>
      <trkpt lat="42.780556" lon="-0.229852">
        <ele>2147.960</ele>
        <time>2022-04-27T12:36:07Z</time>
      </trkpt>
      <trkpt lat="42.780513" lon="-0.229701">
        <ele>2145.955</ele>
        <time>2022-04-27T12:36:07Z</time>
      </trkpt>
      <trkpt lat="42.780459" lon="-0.229721">
        <ele>2144.966</ele>
        <time>2022-04-27T12:36:07Z</time>
      </trkpt>
      <trkpt lat="42.780447" lon="-0.229979">
        <ele>2138.875</ele>
        <time>2022-04-27T12:36:07Z</time>
      </trkpt>
      <trkpt lat="42.780360" lon="-0.230193">
        <ele>2132.528</ele>
        <time>2022-04-27T12:36:07Z</time>
      </trkpt>
      <trkpt lat="42.780052" lon="-0.230730">
        <ele>2114.820</ele>
        <time>2022-04-27T12:36:07Z</time>
      </trkpt>
      <trkpt lat="42.779840" lon="-0.230928">
        <ele>2105.709</ele>
        <time>2022-04-27T12:36:07Z</time>
      </trkpt>
      <trkpt lat="42.779617" lon="-0.231041">
        <ele>2097.388</ele>
        <time>2022-04-27T12:36:07Z</time>
      </trkpt>
      <trkpt lat="42.778978" lon="-0.232147">
        <ele>2063.927</ele>
        <time>2022-04-27T12:36:07Z</time>
      </trkpt>
      <trkpt lat="42.778842" lon="-0.232399">
        <ele>2057.158</ele>
        <time>2022-04-27T12:36:07Z</time>
      </trkpt>
      <trkpt lat="42.778768" lon="-0.232655">
        <ele>2051.128</ele>
        <time>2022-04-27T12:36:07Z</time>
      </trkpt>
      <trkpt lat="42.778591" lon="-0.232755">
        <ele>2045.414</ele>
        <time>2022-04-27T12:36:07Z</time>
      </trkpt>
      <trkpt lat="42.778489" lon="-0.232723">
        <ele>2042.365</ele>
        <time>2022-04-27T12:36:07Z</time>
      </trkpt>
      <trkpt lat="42.778446" lon="-0.232621">
        <ele>2039.728</ele>
        <time>2022-04-27T12:36:07Z</time>
      </trkpt>
      <trkpt lat="42.778493" lon="-0.232039">
        <ele>2027.053</ele>
        <time>2022-04-27T12:36:07Z</time>
      </trkpt>
      <trkpt lat="42.778410" lon="-0.232077">
        <ele>2025.354</ele>
        <time>2022-04-27T12:36:07Z</time>
      </trkpt>
      <trkpt lat="42.778432" lon="-0.231828">
        <ele>2021.715</ele>
        <time>2022-04-27T12:36:07Z</time>
      </trkpt>
      <trkpt lat="42.778281" lon="-0.231958">
        <ele>2018.265</ele>
        <time>2022-04-27T12:36:07Z</time>
      </trkpt>
      <trkpt lat="42.778318" lon="-0.231512">
        <ele>2011.811</ele>
        <time>2022-04-27T12:36:07Z</time>
      </trkpt>
      <trkpt lat="42.778062" lon="-0.231678">
        <ele>2006.309</ele>
        <time>2022-04-27T12:36:07Z</time>
      </trkpt>
      <trkpt lat="42.778194" lon="-0.231128">
        <ele>1998.122</ele>
        <time>2022-04-27T12:36:07Z</time>
      </trkpt>
      <trkpt lat="42.777961" lon="-0.231165">
        <ele>1993.651</ele>
        <time>2022-04-27T12:36:07Z</time>
      </trkpt>
      <trkpt lat="42.777821" lon="-0.231128">
        <ele>1991.352</ele>
        <time>2022-04-27T12:36:07Z</time>
      </trkpt>
      <trkpt lat="42.777814" lon="-0.230794">
        <ele>1987.982</ele>
        <time>2022-04-27T12:36:07Z</time>
      </trkpt>
      <trkpt lat="42.777575" lon="-0.230594">
        <ele>1984.068</ele>
        <time>2022-04-27T12:36:07Z</time>
      </trkpt>
      <trkpt lat="42.776306" lon="-0.230931">
        <ele>1966.519</ele>
        <time>2022-04-27T12:36:07Z</time>
      </trkpt>
      <trkpt lat="42.775876" lon="-0.230907">
        <ele>1962.092</ele>
        <time>2022-04-27T12:36:07Z</time>
      </trkpt>
      <trkpt lat="42.775760" lon="-0.230980">
        <ele>1960.737</ele>
        <time>2022-04-27T12:36:07Z</time>
      </trkpt>
      <trkpt lat="42.774261" lon="-0.230667">
        <ele>1945.318</ele>
        <time>2022-04-27T12:36:07Z</time>
      </trkpt>
      <trkpt lat="42.773926" lon="-0.230673">
        <ele>1942.145</ele>
        <time>2022-04-27T12:36:07Z</time>
      </trkpt>
      <trkpt lat="42.773598" lon="-0.230502">
        <ele>1938.847</ele>
        <time>2022-04-27T12:36:07Z</time>
      </trkpt>
      <trkpt lat="42.773165" lon="-0.230640">
        <ele>1934.611</ele>
        <time>2022-04-27T12:36:07Z</time>
      </trkpt>
      <trkpt lat="42.773007" lon="-0.230927">
        <ele>1932.109</ele>
        <time>2022-04-27T12:36:07Z</time>
      </trkpt>
      <trkpt lat="42.772979" lon="-0.231169">
        <ele>1930.495</ele>
        <time>2022-04-27T12:36:07Z</time>
      </trkpt>
      <trkpt lat="42.772929" lon="-0.231216">
        <ele>1929.874</ele>
        <time>2022-04-27T12:36:07Z</time>
      </trkpt>
      <trkpt lat="42.772823" lon="-0.231223">
        <ele>1928.855</ele>
        <time>2022-04-27T12:36:07Z</time>
      </trkpt>
      <trkpt lat="42.772591" lon="-0.230998">
        <ele>1926.195</ele>
        <time>2022-04-27T12:36:07Z</time>
      </trkpt>
      <trkpt lat="42.772406" lon="-0.230977">
        <ele>1924.381</ele>
        <time>2022-04-27T12:36:07Z</time>
      </trkpt>
      <trkpt lat="42.772233" lon="-0.231183">
        <ele>1922.122</ele>
        <time>2022-04-27T12:36:07Z</time>
      </trkpt>
      <trkpt lat="42.772225" lon="-0.231046">
        <ele>1921.115</ele>
        <time>2022-04-27T12:36:07Z</time>
      </trkpt>
      <trkpt lat="42.772185" lon="-0.231014">
        <ele>1920.730</ele>
        <time>2022-04-27T12:36:07Z</time>
      </trkpt>
      <trkpt lat="42.772080" lon="-0.231301">
        <ele>1918.511</ele>
        <time>2022-04-27T12:36:07Z</time>
      </trkpt>
      <trkpt lat="42.772042" lon="-0.231248">
        <ele>1918.091</ele>
        <time>2022-04-27T12:36:07Z</time>
      </trkpt>
      <trkpt lat="42.772041" lon="-0.231056">
        <ele>1916.781</ele>
        <time>2022-04-27T12:36:07Z</time>
      </trkpt>
      <trkpt lat="42.771911" lon="-0.230988">
        <ele>1915.419</ele>
        <time>2022-04-27T12:36:07Z</time>
      </trkpt>
      <trkpt lat="42.771339" lon="-0.231056">
        <ele>1911.109</ele>
        <time>2022-04-27T12:36:07Z</time>
      </trkpt>
      <trkpt lat="42.770955" lon="-0.230998">
        <ele>1908.320</ele>
        <time>2022-04-27T12:36:07Z</time>
      </trkpt>
      <trkpt lat="42.770574" lon="-0.231065">
        <ele>1905.579</ele>
        <time>2022-04-27T12:36:07Z</time>
      </trkpt>
      <trkpt lat="42.770494" lon="-0.231032">
        <ele>1904.930</ele>
        <time>2022-04-27T12:36:07Z</time>
      </trkpt>
      <trkpt lat="42.770446" lon="-0.230934">
        <ele>1904.370</ele>
        <time>2022-04-27T12:36:07Z</time>
      </trkpt>
      <trkpt lat="42.770389" lon="-0.230673">
        <ele>1902.856</ele>
        <time>2022-04-27T12:36:07Z</time>
      </trkpt>
      <trkpt lat="42.770009" lon="-0.230077">
        <ele>1898.657</ele>
        <time>2022-04-27T12:36:07Z</time>
      </trkpt>
      <trkpt lat="42.769710" lon="-0.229878">
        <ele>1896.210</ele>
        <time>2022-04-27T12:36:07Z</time>
      </trkpt>
      <trkpt lat="42.769109" lon="-0.229990">
        <ele>1891.885</ele>
        <time>2022-04-27T12:36:07Z</time>
      </trkpt>
      <trkpt lat="42.769038" lon="-0.230097">
        <ele>1891.016</ele>
        <time>2022-04-27T12:36:07Z</time>
      </trkpt>
      <trkpt lat="42.769189" lon="-0.230414">
        <ele>1889.038</ele>
        <time>2022-04-27T12:36:07Z</time>
      </trkpt>
      <trkpt lat="42.769156" lon="-0.230498">
        <ele>1888.370</ele>
        <time>2022-04-27T12:36:07Z</time>
      </trkpt>
      <trkpt lat="42.768853" lon="-0.230118">
        <ele>1882.017</ele>
        <time>2022-04-27T12:36:07Z</time>
      </trkpt>
      <trkpt lat="42.768420" lon="-0.230062">
        <ele>1875.309</ele>
        <time>2022-04-27T12:36:07Z</time>
      </trkpt>
      <trkpt lat="42.768156" lon="-0.230435">
        <ele>1869.444</ele>
        <time>2022-04-27T12:36:07Z</time>
      </trkpt>
      <trkpt lat="42.767952" lon="-0.230554">
        <ele>1866.083</ele>
        <time>2022-04-27T12:36:07Z</time>
      </trkpt>
      <trkpt lat="42.767505" lon="-0.230640">
        <ele>1859.034</ele>
        <time>2022-04-27T12:36:07Z</time>
      </trkpt>
      <trkpt lat="42.767096" lon="-0.230646">
        <ele>1852.494</ele>
        <time>2022-04-27T12:36:07Z</time>
      </trkpt>
      <trkpt lat="42.766802" lon="-0.230586">
        <ele>1847.650</ele>
        <time>2022-04-27T12:36:07Z</time>
      </trkpt>
      <trkpt lat="42.766681" lon="-0.230698">
        <ele>1845.221</ele>
        <time>2022-04-27T12:36:07Z</time>
      </trkpt>
      <trkpt lat="42.766455" lon="-0.230665">
        <ele>1841.574</ele>
        <time>2022-04-27T12:36:07Z</time>
      </trkpt>
      <trkpt lat="42.766428" lon="-0.230732">
        <ele>1840.629</ele>
        <time>2022-04-27T12:36:07Z</time>
      </trkpt>
      <trkpt lat="42.766238" lon="-0.230784">
        <ele>1837.520</ele>
        <time>2022-04-27T12:36:07Z</time>
      </trkpt>
      <trkpt lat="42.766246" lon="-0.231155">
        <ele>1833.192</ele>
        <time>2022-04-27T12:36:07Z</time>
      </trkpt>
      <trkpt lat="42.766154" lon="-0.231187">
        <ele>1831.273</ele>
        <time>2022-04-27T12:36:07Z</time>
      </trkpt>
      <trkpt lat="42.766022" lon="-0.230986">
        <ele>1825.120</ele>
        <time>2022-04-27T12:36:07Z</time>
      </trkpt>
      <trkpt lat="42.765959" lon="-0.231017">
        <ele>1823.009</ele>
        <time>2022-04-27T12:36:07Z</time>
      </trkpt>
      <trkpt lat="42.765897" lon="-0.231175">
        <ele>1819.090</ele>
        <time>2022-04-27T12:36:07Z</time>
      </trkpt>
      <trkpt lat="42.765940" lon="-0.231286">
        <ele>1816.299</ele>
        <time>2022-04-27T12:36:07Z</time>
      </trkpt>
      <trkpt lat="42.765995" lon="-0.231254">
        <ele>1814.430</ele>
        <time>2022-04-27T12:36:07Z</time>
      </trkpt>
      <trkpt lat="42.766083" lon="-0.231457">
        <ele>1809.110</ele>
        <time>2022-04-27T12:36:07Z</time>
      </trkpt>
      <trkpt lat="42.765737" lon="-0.231341">
        <ele>1798.246</ele>
        <time>2022-04-27T12:36:07Z</time>
      </trkpt>
      <trkpt lat="42.765720" lon="-0.231540">
        <ele>1793.777</ele>
        <time>2022-04-27T12:36:07Z</time>
      </trkpt>
      <trkpt lat="42.765435" lon="-0.231592">
        <ele>1784.940</ele>
        <time>2022-04-27T12:36:07Z</time>
      </trkpt>
      <trkpt lat="42.764958" lon="-0.231823">
        <ele>1767.455</ele>
        <time>2022-04-27T12:36:07Z</time>
      </trkpt>
      <trkpt lat="42.764668" lon="-0.231905">
        <ele>1755.946</ele>
        <time>2022-04-27T12:36:07Z</time>
      </trkpt>
      <trkpt lat="42.764487" lon="-0.231935">
        <ele>1748.835</ele>
        <time>2022-04-27T12:36:07Z</time>
      </trkpt>
      <trkpt lat="42.764235" lon="-0.232013">
        <ele>1738.886</ele>
        <time>2022-04-27T12:36:07Z</time>
      </trkpt>
      <trkpt lat="42.764139" lon="-0.232324">
        <ele>1729.214</ele>
        <time>2022-04-27T12:36:07Z</time>
      </trkpt>
      <trkpt lat="42.764108" lon="-0.232567">
        <ele>1722.209</ele>
        <time>2022-04-27T12:36:07Z</time>
      </trkpt>
      <trkpt lat="42.764020" lon="-0.232537">
        <ele>1718.764</ele>
        <time>2022-04-27T12:36:07Z</time>
      </trkpt>
      <trkpt lat="42.763827" lon="-0.232244">
        <ele>1707.533</ele>
        <time>2022-04-27T12:36:07Z</time>
      </trkpt>
      <trkpt lat="42.763576" lon="-0.232031">
        <ele>1702.214</ele>
        <time>2022-04-27T12:36:07Z</time>
      </trkpt>
      <trkpt lat="42.763547" lon="-0.232153">
        <ele>1700.634</ele>
        <time>2022-04-27T12:36:07Z</time>
      </trkpt>
      <trkpt lat="42.763405" lon="-0.232273">
        <ele>1697.760</ele>
        <time>2022-04-27T12:36:07Z</time>
      </trkpt>
      <trkpt lat="42.763261" lon="-0.232147">
        <ele>1694.881</ele>
        <time>2022-04-27T12:36:07Z</time>
      </trkpt>
      <trkpt lat="42.763332" lon="-0.232409">
        <ele>1691.354</ele>
        <time>2022-04-27T12:36:07Z</time>
      </trkpt>
      <trkpt lat="42.763166" lon="-0.232294">
        <ele>1688.159</ele>
        <time>2022-04-27T12:36:07Z</time>
      </trkpt>
      <trkpt lat="42.763269" lon="-0.232450">
        <ele>1685.570</ele>
        <time>2022-04-27T12:36:07Z</time>
      </trkpt>
      <trkpt lat="42.763266" lon="-0.232559">
        <ele>1684.159</ele>
        <time>2022-04-27T12:36:07Z</time>
      </trkpt>
      <trkpt lat="42.763010" lon="-0.232350">
        <ele>1679.003</ele>
        <time>2022-04-27T12:36:07Z</time>
      </trkpt>
      <trkpt lat="42.763027" lon="-0.232497">
        <ele>1677.123</ele>
        <time>2022-04-27T12:36:07Z</time>
      </trkpt>
      <trkpt lat="42.762554" lon="-0.232328">
        <ele>1670.509</ele>
        <time>2022-04-27T12:36:07Z</time>
      </trkpt>
      <trkpt lat="42.762800" lon="-0.232835">
        <ele>1664.736</ele>
        <time>2022-04-27T12:36:07Z</time>
      </trkpt>
      <trkpt lat="42.762524" lon="-0.232909">
        <ele>1661.025</ele>
        <time>2022-04-27T12:36:07Z</time>
      </trkpt>
      <trkpt lat="42.762459" lon="-0.233020">
        <ele>1659.676</ele>
        <time>2022-04-27T12:36:07Z</time>
      </trkpt>
      <trkpt lat="42.762484" lon="-0.233388">
        <ele>1656.176</ele>
        <time>2022-04-27T12:36:07Z</time>
      </trkpt>
      <trkpt lat="42.762254" lon="-0.233686">
        <ele>1652.852</ele>
        <time>2022-04-27T12:36:07Z</time>
      </trkpt>
      <trkpt lat="42.761530" lon="-0.234274">
        <ele>1652.853</ele>
        <time>2022-04-27T12:36:07Z</time>
      </trkpt>
      <trkpt lat="42.761445" lon="-0.234222">
        <ele>1652.826</ele>
        <time>2022-04-27T12:36:07Z</time>
      </trkpt>
      <trkpt lat="42.761327" lon="-0.234113">
        <ele>1652.851</ele>
        <time>2022-04-27T12:36:07Z</time>
      </trkpt>
      <trkpt lat="42.760986" lon="-0.233818">
        <ele>1652.832</ele>
        <time>2022-04-27T12:36:07Z</time>
      </trkpt>
      <trkpt lat="42.760916" lon="-0.233945">
        <ele>1652.827</ele>
        <time>2022-04-27T12:36:07Z</time>
      </trkpt>
      <trkpt lat="42.760598" lon="-0.233643">
        <ele>1652.868</ele>
        <time>2022-04-27T12:36:07Z</time>
      </trkpt>
      <trkpt lat="42.760671" lon="-0.233496">
        <ele>1652.814</ele>
        <time>2022-04-27T12:36:07Z</time>
      </trkpt>
    </trkseg>
  </trk>
</gpx>
